<?xml version="1.0" encoding="UTF-8" standalone="no" ?>
<gpx xmlns="http://www.topografix.com/GPX/1/1" xmlns:xsi="http://www.w3.org/2001/XMLSchema-instance" xsi:schemaLocation="http://www.topografix.com/GPX/1/1 http://www.topografix.com/GPX/1/1/gpx.xsd" version="1.1" creator="VisuGPX - https://www.visugpx.com">
  <metadata>
    <name>MT VOUAN</name>
    <desc><![CDATA[départ saint pierre]]></desc>
  </metadata>
  <wpt lat="46.05948" lon="6.37356">
    <ele>482</ele>
  </wpt>
  <wpt lat="46.05946" lon="6.37356">
    <ele>478</ele>
  </wpt>
  <trk>
    <name><![CDATA[MT VOUAN_1]]></name>
    <trkseg>
      <trkpt lat="46.05948" lon="6.37356">
        <ele>482</ele>
        <time>2012-04-26T10:05:25Z</time>
      </trkpt>
      <trkpt lat="46.05953" lon="6.37345">
        <ele>488</ele>
        <time>2012-04-26T10:06:08Z</time>
      </trkpt>
      <trkpt lat="46.05962" lon="6.37334">
        <ele>488</ele>
        <time>2012-04-26T10:06:12Z</time>
      </trkpt>
      <trkpt lat="46.05973" lon="6.37336">
        <ele>488</ele>
        <time>2012-04-26T10:06:14Z</time>
      </trkpt>
      <trkpt lat="46.05989" lon="6.37339">
        <ele>488</ele>
        <time>2012-04-26T10:06:16Z</time>
      </trkpt>
      <trkpt lat="46.06007" lon="6.37345">
        <ele>488</ele>
        <time>2012-04-26T10:06:18Z</time>
      </trkpt>
      <trkpt lat="46.06017" lon="6.37347">
        <ele>488</ele>
        <time>2012-04-26T10:06:19Z</time>
      </trkpt>
      <trkpt lat="46.06027" lon="6.37349">
        <ele>488</ele>
        <time>2012-04-26T10:06:20Z</time>
      </trkpt>
      <trkpt lat="46.06037" lon="6.37352">
        <ele>488</ele>
        <time>2012-04-26T10:06:21Z</time>
      </trkpt>
      <trkpt lat="46.06048" lon="6.37356">
        <ele>488</ele>
        <time>2012-04-26T10:06:22Z</time>
      </trkpt>
      <trkpt lat="46.06059" lon="6.37358">
        <ele>488</ele>
        <time>2012-04-26T10:06:23Z</time>
      </trkpt>
      <trkpt lat="46.06071" lon="6.37361">
        <ele>488</ele>
        <time>2012-04-26T10:06:24Z</time>
      </trkpt>
      <trkpt lat="46.06083" lon="6.37364">
        <ele>488</ele>
        <time>2012-04-26T10:06:25Z</time>
      </trkpt>
      <trkpt lat="46.06095" lon="6.37367">
        <ele>488</ele>
        <time>2012-04-26T10:06:26Z</time>
      </trkpt>
      <trkpt lat="46.06106" lon="6.3737">
        <ele>488</ele>
        <time>2012-04-26T10:06:27Z</time>
      </trkpt>
      <trkpt lat="46.06115" lon="6.37372">
        <ele>483</ele>
        <time>2012-04-26T10:06:28Z</time>
      </trkpt>
      <trkpt lat="46.06127" lon="6.37377">
        <ele>483</ele>
        <time>2012-04-26T10:06:30Z</time>
      </trkpt>
      <trkpt lat="46.06115" lon="6.37368">
        <ele>483</ele>
        <time>2012-04-26T10:06:38Z</time>
      </trkpt>
      <trkpt lat="46.06105" lon="6.37366">
        <ele>483</ele>
        <time>2012-04-26T10:06:39Z</time>
      </trkpt>
      <trkpt lat="46.06094" lon="6.37363">
        <ele>483</ele>
        <time>2012-04-26T10:06:40Z</time>
      </trkpt>
      <trkpt lat="46.06085" lon="6.37361">
        <ele>483</ele>
        <time>2012-04-26T10:06:41Z</time>
      </trkpt>
      <trkpt lat="46.06068" lon="6.37357">
        <ele>483</ele>
        <time>2012-04-26T10:06:43Z</time>
      </trkpt>
      <trkpt lat="46.06057" lon="6.37354">
        <ele>483</ele>
        <time>2012-04-26T10:06:45Z</time>
      </trkpt>
      <trkpt lat="46.06047" lon="6.37353">
        <ele>483</ele>
        <time>2012-04-26T10:06:48Z</time>
      </trkpt>
      <trkpt lat="46.06035" lon="6.37351">
        <ele>483</ele>
        <time>2012-04-26T10:07:04Z</time>
      </trkpt>
      <trkpt lat="46.06025" lon="6.37357">
        <ele>483</ele>
        <time>2012-04-26T10:07:07Z</time>
      </trkpt>
      <trkpt lat="46.06022" lon="6.37371">
        <ele>483</ele>
        <time>2012-04-26T10:07:09Z</time>
      </trkpt>
      <trkpt lat="46.0602" lon="6.37392">
        <ele>483</ele>
        <time>2012-04-26T10:07:11Z</time>
      </trkpt>
      <trkpt lat="46.06017" lon="6.37414">
        <ele>483</ele>
        <time>2012-04-26T10:07:13Z</time>
      </trkpt>
      <trkpt lat="46.06015" lon="6.37435">
        <ele>483</ele>
        <time>2012-04-26T10:07:15Z</time>
      </trkpt>
      <trkpt lat="46.06012" lon="6.37457">
        <ele>483</ele>
        <time>2012-04-26T10:07:17Z</time>
      </trkpt>
      <trkpt lat="46.06009" lon="6.37481">
        <ele>483</ele>
        <time>2012-04-26T10:07:19Z</time>
      </trkpt>
      <trkpt lat="46.06005" lon="6.37505">
        <ele>483</ele>
        <time>2012-04-26T10:07:21Z</time>
      </trkpt>
      <trkpt lat="46.06002" lon="6.3753">
        <ele>483</ele>
        <time>2012-04-26T10:07:23Z</time>
      </trkpt>
      <trkpt lat="46.06" lon="6.37554">
        <ele>483</ele>
        <time>2012-04-26T10:07:25Z</time>
      </trkpt>
      <trkpt lat="46.05997" lon="6.37578">
        <ele>483</ele>
        <time>2012-04-26T10:07:27Z</time>
      </trkpt>
      <trkpt lat="46.05992" lon="6.37596">
        <ele>483</ele>
        <time>2012-04-26T10:07:29Z</time>
      </trkpt>
      <trkpt lat="46.05985" lon="6.37608">
        <ele>478</ele>
        <time>2012-04-26T10:07:31Z</time>
      </trkpt>
      <trkpt lat="46.05983" lon="6.37625">
        <ele>478</ele>
        <time>2012-04-26T10:07:55Z</time>
      </trkpt>
      <trkpt lat="46.0599" lon="6.37641">
        <ele>478</ele>
        <time>2012-04-26T10:07:57Z</time>
      </trkpt>
      <trkpt lat="46.05999" lon="6.37663">
        <ele>478</ele>
        <time>2012-04-26T10:07:59Z</time>
      </trkpt>
      <trkpt lat="46.06005" lon="6.37675">
        <ele>478</ele>
        <time>2012-04-26T10:08:00Z</time>
      </trkpt>
      <trkpt lat="46.06012" lon="6.37687">
        <ele>478</ele>
        <time>2012-04-26T10:08:01Z</time>
      </trkpt>
      <trkpt lat="46.06018" lon="6.37701">
        <ele>478</ele>
        <time>2012-04-26T10:08:02Z</time>
      </trkpt>
      <trkpt lat="46.06024" lon="6.37714">
        <ele>478</ele>
        <time>2012-04-26T10:08:03Z</time>
      </trkpt>
      <trkpt lat="46.06031" lon="6.37728">
        <ele>478</ele>
        <time>2012-04-26T10:08:04Z</time>
      </trkpt>
      <trkpt lat="46.06038" lon="6.37745">
        <ele>478</ele>
        <time>2012-04-26T10:08:05Z</time>
      </trkpt>
      <trkpt lat="46.06045" lon="6.37763">
        <ele>478</ele>
        <time>2012-04-26T10:08:06Z</time>
      </trkpt>
      <trkpt lat="46.06054" lon="6.37782">
        <ele>478</ele>
        <time>2012-04-26T10:08:07Z</time>
      </trkpt>
      <trkpt lat="46.06062" lon="6.37802">
        <ele>478</ele>
        <time>2012-04-26T10:08:08Z</time>
      </trkpt>
      <trkpt lat="46.0607" lon="6.37823">
        <ele>478</ele>
        <time>2012-04-26T10:08:09Z</time>
      </trkpt>
      <trkpt lat="46.06077" lon="6.37844">
        <ele>478</ele>
        <time>2012-04-26T10:08:10Z</time>
      </trkpt>
      <trkpt lat="46.06084" lon="6.37868">
        <ele>478</ele>
        <time>2012-04-26T10:08:11Z</time>
      </trkpt>
      <trkpt lat="46.06091" lon="6.37891">
        <ele>478</ele>
        <time>2012-04-26T10:08:12Z</time>
      </trkpt>
      <trkpt lat="46.06098" lon="6.37914">
        <ele>478</ele>
        <time>2012-04-26T10:08:13Z</time>
      </trkpt>
      <trkpt lat="46.06104" lon="6.37939">
        <ele>478</ele>
        <time>2012-04-26T10:08:14Z</time>
      </trkpt>
      <trkpt lat="46.06111" lon="6.37962">
        <ele>478</ele>
        <time>2012-04-26T10:08:15Z</time>
      </trkpt>
      <trkpt lat="46.06117" lon="6.37986">
        <ele>478</ele>
        <time>2012-04-26T10:08:16Z</time>
      </trkpt>
      <trkpt lat="46.06123" lon="6.38011">
        <ele>478</ele>
        <time>2012-04-26T10:08:17Z</time>
      </trkpt>
      <trkpt lat="46.0613" lon="6.38036">
        <ele>478</ele>
        <time>2012-04-26T10:08:18Z</time>
      </trkpt>
      <trkpt lat="46.06134" lon="6.38059">
        <ele>478</ele>
        <time>2012-04-26T10:08:19Z</time>
      </trkpt>
      <trkpt lat="46.06138" lon="6.38081">
        <ele>478</ele>
        <time>2012-04-26T10:08:20Z</time>
      </trkpt>
      <trkpt lat="46.06141" lon="6.38102">
        <ele>478</ele>
        <time>2012-04-26T10:08:21Z</time>
      </trkpt>
      <trkpt lat="46.06143" lon="6.38123">
        <ele>478</ele>
        <time>2012-04-26T10:08:22Z</time>
      </trkpt>
      <trkpt lat="46.06146" lon="6.38143">
        <ele>478</ele>
        <time>2012-04-26T10:08:23Z</time>
      </trkpt>
      <trkpt lat="46.06147" lon="6.38164">
        <ele>478</ele>
        <time>2012-04-26T10:08:24Z</time>
      </trkpt>
      <trkpt lat="46.06147" lon="6.38184">
        <ele>478</ele>
        <time>2012-04-26T10:08:25Z</time>
      </trkpt>
      <trkpt lat="46.06148" lon="6.38204">
        <ele>478</ele>
        <time>2012-04-26T10:08:26Z</time>
      </trkpt>
      <trkpt lat="46.0615" lon="6.38223">
        <ele>478</ele>
        <time>2012-04-26T10:08:27Z</time>
      </trkpt>
      <trkpt lat="46.06151" lon="6.38242">
        <ele>478</ele>
        <time>2012-04-26T10:08:28Z</time>
      </trkpt>
      <trkpt lat="46.06152" lon="6.38261">
        <ele>478</ele>
        <time>2012-04-26T10:08:29Z</time>
      </trkpt>
      <trkpt lat="46.06152" lon="6.3828">
        <ele>478</ele>
        <time>2012-04-26T10:08:30Z</time>
      </trkpt>
      <trkpt lat="46.06153" lon="6.38297">
        <ele>478</ele>
        <time>2012-04-26T10:08:31Z</time>
      </trkpt>
      <trkpt lat="46.06153" lon="6.38313">
        <ele>478</ele>
        <time>2012-04-26T10:08:32Z</time>
      </trkpt>
      <trkpt lat="46.06154" lon="6.38328">
        <ele>478</ele>
        <time>2012-04-26T10:08:33Z</time>
      </trkpt>
      <trkpt lat="46.06154" lon="6.38351">
        <ele>478</ele>
        <time>2012-04-26T10:08:35Z</time>
      </trkpt>
      <trkpt lat="46.06152" lon="6.3837">
        <ele>478</ele>
        <time>2012-04-26T10:08:37Z</time>
      </trkpt>
      <trkpt lat="46.0615" lon="6.38383">
        <ele>478</ele>
        <time>2012-04-26T10:08:39Z</time>
      </trkpt>
      <trkpt lat="46.06148" lon="6.38397">
        <ele>478</ele>
        <time>2012-04-26T10:08:42Z</time>
      </trkpt>
      <trkpt lat="46.0615" lon="6.38409">
        <ele>478</ele>
        <time>2012-04-26T10:08:59Z</time>
      </trkpt>
      <trkpt lat="46.06162" lon="6.38426">
        <ele>478</ele>
        <time>2012-04-26T10:09:01Z</time>
      </trkpt>
      <trkpt lat="46.0617" lon="6.38437">
        <ele>478</ele>
        <time>2012-04-26T10:09:02Z</time>
      </trkpt>
      <trkpt lat="46.06182" lon="6.3845">
        <ele>478</ele>
        <time>2012-04-26T10:09:03Z</time>
      </trkpt>
      <trkpt lat="46.06197" lon="6.38465">
        <ele>478</ele>
        <time>2012-04-26T10:09:04Z</time>
      </trkpt>
      <trkpt lat="46.06214" lon="6.38482">
        <ele>478</ele>
        <time>2012-04-26T10:09:05Z</time>
      </trkpt>
      <trkpt lat="46.06233" lon="6.38499">
        <ele>478</ele>
        <time>2012-04-26T10:09:06Z</time>
      </trkpt>
      <trkpt lat="46.06252" lon="6.38517">
        <ele>478</ele>
        <time>2012-04-26T10:09:07Z</time>
      </trkpt>
      <trkpt lat="46.06269" lon="6.38535">
        <ele>478</ele>
        <time>2012-04-26T10:09:08Z</time>
      </trkpt>
      <trkpt lat="46.06287" lon="6.38551">
        <ele>478</ele>
        <time>2012-04-26T10:09:09Z</time>
      </trkpt>
      <trkpt lat="46.06303" lon="6.38567">
        <ele>478</ele>
        <time>2012-04-26T10:09:10Z</time>
      </trkpt>
      <trkpt lat="46.06319" lon="6.38583">
        <ele>478</ele>
        <time>2012-04-26T10:09:11Z</time>
      </trkpt>
      <trkpt lat="46.06334" lon="6.38597">
        <ele>478</ele>
        <time>2012-04-26T10:09:12Z</time>
      </trkpt>
      <trkpt lat="46.0635" lon="6.38611">
        <ele>478</ele>
        <time>2012-04-26T10:09:13Z</time>
      </trkpt>
      <trkpt lat="46.06365" lon="6.38626">
        <ele>478</ele>
        <time>2012-04-26T10:09:14Z</time>
      </trkpt>
      <trkpt lat="46.06382" lon="6.38641">
        <ele>478</ele>
        <time>2012-04-26T10:09:15Z</time>
      </trkpt>
      <trkpt lat="46.06397" lon="6.38656">
        <ele>472</ele>
        <time>2012-04-26T10:09:16Z</time>
      </trkpt>
      <trkpt lat="46.06412" lon="6.38672">
        <ele>472</ele>
        <time>2012-04-26T10:09:17Z</time>
      </trkpt>
      <trkpt lat="46.06427" lon="6.38687">
        <ele>472</ele>
        <time>2012-04-26T10:09:18Z</time>
      </trkpt>
      <trkpt lat="46.06444" lon="6.38701">
        <ele>472</ele>
        <time>2012-04-26T10:09:19Z</time>
      </trkpt>
      <trkpt lat="46.06461" lon="6.38717">
        <ele>472</ele>
        <time>2012-04-26T10:09:20Z</time>
      </trkpt>
      <trkpt lat="46.06478" lon="6.38733">
        <ele>472</ele>
        <time>2012-04-26T10:09:21Z</time>
      </trkpt>
      <trkpt lat="46.06494" lon="6.38747">
        <ele>472</ele>
        <time>2012-04-26T10:09:22Z</time>
      </trkpt>
      <trkpt lat="46.06509" lon="6.38762">
        <ele>472</ele>
        <time>2012-04-26T10:09:23Z</time>
      </trkpt>
      <trkpt lat="46.06525" lon="6.38778">
        <ele>472</ele>
        <time>2012-04-26T10:09:24Z</time>
      </trkpt>
      <trkpt lat="46.0654" lon="6.38792">
        <ele>472</ele>
        <time>2012-04-26T10:09:25Z</time>
      </trkpt>
      <trkpt lat="46.06556" lon="6.38807">
        <ele>467</ele>
        <time>2012-04-26T10:09:26Z</time>
      </trkpt>
      <trkpt lat="46.06571" lon="6.38823">
        <ele>467</ele>
        <time>2012-04-26T10:09:27Z</time>
      </trkpt>
      <trkpt lat="46.06587" lon="6.38838">
        <ele>467</ele>
        <time>2012-04-26T10:09:28Z</time>
      </trkpt>
      <trkpt lat="46.06602" lon="6.38853">
        <ele>467</ele>
        <time>2012-04-26T10:09:29Z</time>
      </trkpt>
      <trkpt lat="46.06618" lon="6.38868">
        <ele>467</ele>
        <time>2012-04-26T10:09:30Z</time>
      </trkpt>
      <trkpt lat="46.06632" lon="6.38883">
        <ele>467</ele>
        <time>2012-04-26T10:09:31Z</time>
      </trkpt>
      <trkpt lat="46.06647" lon="6.38899">
        <ele>467</ele>
        <time>2012-04-26T10:09:32Z</time>
      </trkpt>
      <trkpt lat="46.06663" lon="6.38914">
        <ele>467</ele>
        <time>2012-04-26T10:09:33Z</time>
      </trkpt>
      <trkpt lat="46.06679" lon="6.38929">
        <ele>467</ele>
        <time>2012-04-26T10:09:34Z</time>
      </trkpt>
      <trkpt lat="46.06696" lon="6.38946">
        <ele>467</ele>
        <time>2012-04-26T10:09:35Z</time>
      </trkpt>
      <trkpt lat="46.06709" lon="6.3896">
        <ele>467</ele>
        <time>2012-04-26T10:09:36Z</time>
      </trkpt>
      <trkpt lat="46.06725" lon="6.38975">
        <ele>467</ele>
        <time>2012-04-26T10:09:37Z</time>
      </trkpt>
      <trkpt lat="46.06741" lon="6.38991">
        <ele>467</ele>
        <time>2012-04-26T10:09:38Z</time>
      </trkpt>
      <trkpt lat="46.06758" lon="6.39007">
        <ele>467</ele>
        <time>2012-04-26T10:09:39Z</time>
      </trkpt>
      <trkpt lat="46.06774" lon="6.39022">
        <ele>467</ele>
        <time>2012-04-26T10:09:40Z</time>
      </trkpt>
      <trkpt lat="46.06789" lon="6.39038">
        <ele>467</ele>
        <time>2012-04-26T10:09:41Z</time>
      </trkpt>
      <trkpt lat="46.06805" lon="6.39053">
        <ele>467</ele>
        <time>2012-04-26T10:09:42Z</time>
      </trkpt>
      <trkpt lat="46.06821" lon="6.3907">
        <ele>467</ele>
        <time>2012-04-26T10:09:43Z</time>
      </trkpt>
      <trkpt lat="46.06837" lon="6.39086">
        <ele>460</ele>
        <time>2012-04-26T10:09:44Z</time>
      </trkpt>
      <trkpt lat="46.06856" lon="6.39104">
        <ele>460</ele>
        <time>2012-04-26T10:09:45Z</time>
      </trkpt>
      <trkpt lat="46.06874" lon="6.39121">
        <ele>460</ele>
        <time>2012-04-26T10:09:46Z</time>
      </trkpt>
      <trkpt lat="46.0689" lon="6.39138">
        <ele>460</ele>
        <time>2012-04-26T10:09:47Z</time>
      </trkpt>
      <trkpt lat="46.06908" lon="6.39155">
        <ele>460</ele>
        <time>2012-04-26T10:09:48Z</time>
      </trkpt>
      <trkpt lat="46.06927" lon="6.39171">
        <ele>460</ele>
        <time>2012-04-26T10:09:49Z</time>
      </trkpt>
      <trkpt lat="46.06943" lon="6.39188">
        <ele>460</ele>
        <time>2012-04-26T10:09:50Z</time>
      </trkpt>
      <trkpt lat="46.06959" lon="6.39204">
        <ele>460</ele>
        <time>2012-04-26T10:09:51Z</time>
      </trkpt>
      <trkpt lat="46.06978" lon="6.39221">
        <ele>460</ele>
        <time>2012-04-26T10:09:52Z</time>
      </trkpt>
      <trkpt lat="46.06993" lon="6.39238">
        <ele>460</ele>
        <time>2012-04-26T10:09:53Z</time>
      </trkpt>
      <trkpt lat="46.07008" lon="6.39254">
        <ele>460</ele>
        <time>2012-04-26T10:09:54Z</time>
      </trkpt>
      <trkpt lat="46.07024" lon="6.39269">
        <ele>460</ele>
        <time>2012-04-26T10:09:55Z</time>
      </trkpt>
      <trkpt lat="46.07039" lon="6.39284">
        <ele>460</ele>
        <time>2012-04-26T10:09:56Z</time>
      </trkpt>
      <trkpt lat="46.07055" lon="6.393">
        <ele>460</ele>
        <time>2012-04-26T10:09:57Z</time>
      </trkpt>
      <trkpt lat="46.07068" lon="6.39313">
        <ele>460</ele>
        <time>2012-04-26T10:09:58Z</time>
      </trkpt>
      <trkpt lat="46.07083" lon="6.39327">
        <ele>460</ele>
        <time>2012-04-26T10:09:59Z</time>
      </trkpt>
      <trkpt lat="46.07096" lon="6.3934">
        <ele>460</ele>
        <time>2012-04-26T10:10:00Z</time>
      </trkpt>
      <trkpt lat="46.07111" lon="6.39353">
        <ele>455</ele>
        <time>2012-04-26T10:10:01Z</time>
      </trkpt>
      <trkpt lat="46.07126" lon="6.39367">
        <ele>455</ele>
        <time>2012-04-26T10:10:02Z</time>
      </trkpt>
      <trkpt lat="46.07138" lon="6.39379">
        <ele>455</ele>
        <time>2012-04-26T10:10:03Z</time>
      </trkpt>
      <trkpt lat="46.07149" lon="6.3939">
        <ele>455</ele>
        <time>2012-04-26T10:10:04Z</time>
      </trkpt>
      <trkpt lat="46.0716" lon="6.39401">
        <ele>455</ele>
        <time>2012-04-26T10:10:05Z</time>
      </trkpt>
      <trkpt lat="46.0717" lon="6.39412">
        <ele>455</ele>
        <time>2012-04-26T10:10:06Z</time>
      </trkpt>
      <trkpt lat="46.0718" lon="6.39422">
        <ele>455</ele>
        <time>2012-04-26T10:10:07Z</time>
      </trkpt>
      <trkpt lat="46.0719" lon="6.39431">
        <ele>455</ele>
        <time>2012-04-26T10:10:08Z</time>
      </trkpt>
      <trkpt lat="46.07198" lon="6.39439">
        <ele>455</ele>
        <time>2012-04-26T10:10:09Z</time>
      </trkpt>
      <trkpt lat="46.07208" lon="6.39448">
        <ele>455</ele>
        <time>2012-04-26T10:10:10Z</time>
      </trkpt>
      <trkpt lat="46.07223" lon="6.39462">
        <ele>455</ele>
        <time>2012-04-26T10:10:12Z</time>
      </trkpt>
      <trkpt lat="46.07231" lon="6.3947">
        <ele>455</ele>
        <time>2012-04-26T10:10:13Z</time>
      </trkpt>
      <trkpt lat="46.0724" lon="6.39477">
        <ele>455</ele>
        <time>2012-04-26T10:10:14Z</time>
      </trkpt>
      <trkpt lat="46.07247" lon="6.39486">
        <ele>455</ele>
        <time>2012-04-26T10:10:15Z</time>
      </trkpt>
      <trkpt lat="46.07261" lon="6.39499">
        <ele>455</ele>
        <time>2012-04-26T10:10:17Z</time>
      </trkpt>
      <trkpt lat="46.07273" lon="6.39509">
        <ele>455</ele>
        <time>2012-04-26T10:10:19Z</time>
      </trkpt>
      <trkpt lat="46.07282" lon="6.39518">
        <ele>455</ele>
        <time>2012-04-26T10:10:22Z</time>
      </trkpt>
      <trkpt lat="46.0729" lon="6.39526">
        <ele>455</ele>
        <time>2012-04-26T10:10:27Z</time>
      </trkpt>
      <trkpt lat="46.07298" lon="6.39535">
        <ele>455</ele>
        <time>2012-04-26T10:10:30Z</time>
      </trkpt>
      <trkpt lat="46.07307" lon="6.39538">
        <ele>455</ele>
        <time>2012-04-26T10:10:34Z</time>
      </trkpt>
      <trkpt lat="46.07315" lon="6.39521">
        <ele>455</ele>
        <time>2012-04-26T10:10:37Z</time>
      </trkpt>
      <trkpt lat="46.0732" lon="6.3951">
        <ele>455</ele>
        <time>2012-04-26T10:10:41Z</time>
      </trkpt>
      <trkpt lat="46.07312" lon="6.39517">
        <ele>455</ele>
        <time>2012-04-26T10:10:45Z</time>
      </trkpt>
      <trkpt lat="46.0731" lon="6.39533">
        <ele>455</ele>
        <time>2012-04-26T10:10:47Z</time>
      </trkpt>
      <trkpt lat="46.07312" lon="6.39548">
        <ele>455</ele>
        <time>2012-04-26T10:10:49Z</time>
      </trkpt>
      <trkpt lat="46.07323" lon="6.39565">
        <ele>455</ele>
        <time>2012-04-26T10:10:51Z</time>
      </trkpt>
      <trkpt lat="46.07333" lon="6.39574">
        <ele>455</ele>
        <time>2012-04-26T10:10:52Z</time>
      </trkpt>
      <trkpt lat="46.07344" lon="6.39584">
        <ele>455</ele>
        <time>2012-04-26T10:10:53Z</time>
      </trkpt>
      <trkpt lat="46.07358" lon="6.39595">
        <ele>455</ele>
        <time>2012-04-26T10:10:54Z</time>
      </trkpt>
      <trkpt lat="46.07372" lon="6.39605">
        <ele>455</ele>
        <time>2012-04-26T10:10:55Z</time>
      </trkpt>
      <trkpt lat="46.07382" lon="6.39615">
        <ele>455</ele>
        <time>2012-04-26T10:10:56Z</time>
      </trkpt>
      <trkpt lat="46.07393" lon="6.39623">
        <ele>455</ele>
        <time>2012-04-26T10:10:57Z</time>
      </trkpt>
      <trkpt lat="46.07403" lon="6.39632">
        <ele>455</ele>
        <time>2012-04-26T10:10:58Z</time>
      </trkpt>
      <trkpt lat="46.07415" lon="6.39641">
        <ele>455</ele>
        <time>2012-04-26T10:10:59Z</time>
      </trkpt>
      <trkpt lat="46.07425" lon="6.3965">
        <ele>455</ele>
        <time>2012-04-26T10:11:00Z</time>
      </trkpt>
      <trkpt lat="46.07434" lon="6.39658">
        <ele>455</ele>
        <time>2012-04-26T10:11:01Z</time>
      </trkpt>
      <trkpt lat="46.07442" lon="6.39666">
        <ele>455</ele>
        <time>2012-04-26T10:11:02Z</time>
      </trkpt>
      <trkpt lat="46.07456" lon="6.39679">
        <ele>455</ele>
        <time>2012-04-26T10:11:04Z</time>
      </trkpt>
      <trkpt lat="46.07467" lon="6.39689">
        <ele>455</ele>
        <time>2012-04-26T10:11:06Z</time>
      </trkpt>
      <trkpt lat="46.07475" lon="6.397">
        <ele>455</ele>
        <time>2012-04-26T10:11:09Z</time>
      </trkpt>
      <trkpt lat="46.07486" lon="6.39706">
        <ele>455</ele>
        <time>2012-04-26T10:11:12Z</time>
      </trkpt>
      <trkpt lat="46.07497" lon="6.39716">
        <ele>455</ele>
        <time>2012-04-26T10:11:14Z</time>
      </trkpt>
      <trkpt lat="46.07508" lon="6.39725">
        <ele>455</ele>
        <time>2012-04-26T10:11:16Z</time>
      </trkpt>
      <trkpt lat="46.07517" lon="6.39731">
        <ele>455</ele>
        <time>2012-04-26T10:11:18Z</time>
      </trkpt>
      <trkpt lat="46.07525" lon="6.39742">
        <ele>455</ele>
        <time>2012-04-26T10:11:21Z</time>
      </trkpt>
      <trkpt lat="46.07523" lon="6.39758">
        <ele>449</ele>
        <time>2012-04-26T10:11:24Z</time>
      </trkpt>
      <trkpt lat="46.07532" lon="6.3977">
        <ele>449</ele>
        <time>2012-04-26T10:11:28Z</time>
      </trkpt>
      <trkpt lat="46.07547" lon="6.39782">
        <ele>449</ele>
        <time>2012-04-26T10:11:30Z</time>
      </trkpt>
      <trkpt lat="46.0756" lon="6.39796">
        <ele>449</ele>
        <time>2012-04-26T10:11:32Z</time>
      </trkpt>
      <trkpt lat="46.07568" lon="6.39804">
        <ele>449</ele>
        <time>2012-04-26T10:11:33Z</time>
      </trkpt>
      <trkpt lat="46.07583" lon="6.3982">
        <ele>449</ele>
        <time>2012-04-26T10:11:35Z</time>
      </trkpt>
      <trkpt lat="46.07593" lon="6.39829">
        <ele>449</ele>
        <time>2012-04-26T10:11:36Z</time>
      </trkpt>
      <trkpt lat="46.076" lon="6.39837">
        <ele>449</ele>
        <time>2012-04-26T10:11:37Z</time>
      </trkpt>
      <trkpt lat="46.07608" lon="6.39845">
        <ele>449</ele>
        <time>2012-04-26T10:11:38Z</time>
      </trkpt>
      <trkpt lat="46.07617" lon="6.39853">
        <ele>449</ele>
        <time>2012-04-26T10:11:39Z</time>
      </trkpt>
      <trkpt lat="46.07625" lon="6.39861">
        <ele>449</ele>
        <time>2012-04-26T10:11:40Z</time>
      </trkpt>
      <trkpt lat="46.07635" lon="6.39869">
        <ele>449</ele>
        <time>2012-04-26T10:11:41Z</time>
      </trkpt>
      <trkpt lat="46.07643" lon="6.39876">
        <ele>449</ele>
        <time>2012-04-26T10:11:42Z</time>
      </trkpt>
      <trkpt lat="46.07653" lon="6.39884">
        <ele>449</ele>
        <time>2012-04-26T10:11:43Z</time>
      </trkpt>
      <trkpt lat="46.07663" lon="6.39891">
        <ele>449</ele>
        <time>2012-04-26T10:11:44Z</time>
      </trkpt>
      <trkpt lat="46.07672" lon="6.39897">
        <ele>449</ele>
        <time>2012-04-26T10:11:45Z</time>
      </trkpt>
      <trkpt lat="46.07682" lon="6.39904">
        <ele>449</ele>
        <time>2012-04-26T10:11:46Z</time>
      </trkpt>
      <trkpt lat="46.07692" lon="6.3991">
        <ele>449</ele>
        <time>2012-04-26T10:11:47Z</time>
      </trkpt>
      <trkpt lat="46.07702" lon="6.39916">
        <ele>449</ele>
        <time>2012-04-26T10:11:48Z</time>
      </trkpt>
      <trkpt lat="46.07711" lon="6.39922">
        <ele>449</ele>
        <time>2012-04-26T10:11:49Z</time>
      </trkpt>
      <trkpt lat="46.0772" lon="6.39927">
        <ele>449</ele>
        <time>2012-04-26T10:11:50Z</time>
      </trkpt>
      <trkpt lat="46.07736" lon="6.39936">
        <ele>449</ele>
        <time>2012-04-26T10:11:52Z</time>
      </trkpt>
      <trkpt lat="46.07745" lon="6.3994">
        <ele>449</ele>
        <time>2012-04-26T10:11:53Z</time>
      </trkpt>
      <trkpt lat="46.07755" lon="6.39945">
        <ele>449</ele>
        <time>2012-04-26T10:11:54Z</time>
      </trkpt>
      <trkpt lat="46.07765" lon="6.3995">
        <ele>449</ele>
        <time>2012-04-26T10:11:55Z</time>
      </trkpt>
      <trkpt lat="46.07775" lon="6.39955">
        <ele>449</ele>
        <time>2012-04-26T10:11:56Z</time>
      </trkpt>
      <trkpt lat="46.07787" lon="6.39959">
        <ele>449</ele>
        <time>2012-04-26T10:11:57Z</time>
      </trkpt>
      <trkpt lat="46.07799" lon="6.39963">
        <ele>449</ele>
        <time>2012-04-26T10:11:58Z</time>
      </trkpt>
      <trkpt lat="46.07809" lon="6.39965">
        <ele>449</ele>
        <time>2012-04-26T10:11:59Z</time>
      </trkpt>
      <trkpt lat="46.07819" lon="6.39968">
        <ele>449</ele>
        <time>2012-04-26T10:12:00Z</time>
      </trkpt>
      <trkpt lat="46.07828" lon="6.3997">
        <ele>449</ele>
        <time>2012-04-26T10:12:01Z</time>
      </trkpt>
      <trkpt lat="46.07837" lon="6.39971">
        <ele>449</ele>
        <time>2012-04-26T10:12:02Z</time>
      </trkpt>
      <trkpt lat="46.07849" lon="6.39972">
        <ele>449</ele>
        <time>2012-04-26T10:12:03Z</time>
      </trkpt>
      <trkpt lat="46.07859" lon="6.39974">
        <ele>449</ele>
        <time>2012-04-26T10:12:04Z</time>
      </trkpt>
      <trkpt lat="46.07889" lon="6.3998">
        <ele>456</ele>
        <time>2012-04-26T10:12:07Z</time>
      </trkpt>
      <trkpt lat="46.07905" lon="6.39981">
        <ele>456</ele>
        <time>2012-04-26T10:12:09Z</time>
      </trkpt>
      <trkpt lat="46.07919" lon="6.39979">
        <ele>456</ele>
        <time>2012-04-26T10:12:11Z</time>
      </trkpt>
      <trkpt lat="46.07929" lon="6.39976">
        <ele>456</ele>
        <time>2012-04-26T10:12:14Z</time>
      </trkpt>
      <trkpt lat="46.07929" lon="6.39993">
        <ele>456</ele>
        <time>2012-04-26T10:12:18Z</time>
      </trkpt>
      <trkpt lat="46.07926" lon="6.40006">
        <ele>456</ele>
        <time>2012-04-26T10:12:19Z</time>
      </trkpt>
      <trkpt lat="46.07925" lon="6.40023">
        <ele>456</ele>
        <time>2012-04-26T10:12:20Z</time>
      </trkpt>
      <trkpt lat="46.07921" lon="6.40042">
        <ele>456</ele>
        <time>2012-04-26T10:12:21Z</time>
      </trkpt>
      <trkpt lat="46.07918" lon="6.40062">
        <ele>456</ele>
        <time>2012-04-26T10:12:22Z</time>
      </trkpt>
      <trkpt lat="46.07912" lon="6.40081">
        <ele>456</ele>
        <time>2012-04-26T10:12:23Z</time>
      </trkpt>
      <trkpt lat="46.0791" lon="6.40098">
        <ele>456</ele>
        <time>2012-04-26T10:12:24Z</time>
      </trkpt>
      <trkpt lat="46.07907" lon="6.40113">
        <ele>456</ele>
        <time>2012-04-26T10:12:25Z</time>
      </trkpt>
      <trkpt lat="46.07905" lon="6.40128">
        <ele>456</ele>
        <time>2012-04-26T10:12:26Z</time>
      </trkpt>
      <trkpt lat="46.079" lon="6.40151">
        <ele>456</ele>
        <time>2012-04-26T10:12:28Z</time>
      </trkpt>
      <trkpt lat="46.07898" lon="6.40164">
        <ele>447</ele>
        <time>2012-04-26T10:12:37Z</time>
      </trkpt>
      <trkpt lat="46.079" lon="6.4018">
        <ele>447</ele>
        <time>2012-04-26T10:12:39Z</time>
      </trkpt>
      <trkpt lat="46.07911" lon="6.40191">
        <ele>447</ele>
        <time>2012-04-26T10:12:42Z</time>
      </trkpt>
      <trkpt lat="46.07932" lon="6.40188">
        <ele>447</ele>
        <time>2012-04-26T10:12:44Z</time>
      </trkpt>
      <trkpt lat="46.07944" lon="6.40186">
        <ele>447</ele>
        <time>2012-04-26T10:12:45Z</time>
      </trkpt>
      <trkpt lat="46.07957" lon="6.40184">
        <ele>447</ele>
        <time>2012-04-26T10:12:46Z</time>
      </trkpt>
      <trkpt lat="46.0797" lon="6.40184">
        <ele>447</ele>
        <time>2012-04-26T10:12:47Z</time>
      </trkpt>
      <trkpt lat="46.07984" lon="6.40185">
        <ele>447</ele>
        <time>2012-04-26T10:12:48Z</time>
      </trkpt>
      <trkpt lat="46.07996" lon="6.40188">
        <ele>447</ele>
        <time>2012-04-26T10:12:49Z</time>
      </trkpt>
      <trkpt lat="46.08006" lon="6.40193">
        <ele>447</ele>
        <time>2012-04-26T10:12:50Z</time>
      </trkpt>
      <trkpt lat="46.08015" lon="6.40201">
        <ele>447</ele>
        <time>2012-04-26T10:12:51Z</time>
      </trkpt>
      <trkpt lat="46.08024" lon="6.40207">
        <ele>447</ele>
        <time>2012-04-26T10:12:52Z</time>
      </trkpt>
      <trkpt lat="46.08035" lon="6.40214">
        <ele>447</ele>
        <time>2012-04-26T10:12:53Z</time>
      </trkpt>
      <trkpt lat="46.08045" lon="6.40222">
        <ele>447</ele>
        <time>2012-04-26T10:12:54Z</time>
      </trkpt>
      <trkpt lat="46.08058" lon="6.40234">
        <ele>447</ele>
        <time>2012-04-26T10:12:55Z</time>
      </trkpt>
      <trkpt lat="46.0807" lon="6.40246">
        <ele>447</ele>
        <time>2012-04-26T10:12:56Z</time>
      </trkpt>
      <trkpt lat="46.0808" lon="6.40255">
        <ele>447</ele>
        <time>2012-04-26T10:12:57Z</time>
      </trkpt>
      <trkpt lat="46.08091" lon="6.40266">
        <ele>447</ele>
        <time>2012-04-26T10:12:58Z</time>
      </trkpt>
      <trkpt lat="46.08101" lon="6.40278">
        <ele>447</ele>
        <time>2012-04-26T10:12:59Z</time>
      </trkpt>
      <trkpt lat="46.08112" lon="6.40291">
        <ele>447</ele>
        <time>2012-04-26T10:13:00Z</time>
      </trkpt>
      <trkpt lat="46.08121" lon="6.40306">
        <ele>447</ele>
        <time>2012-04-26T10:13:01Z</time>
      </trkpt>
      <trkpt lat="46.0813" lon="6.40318">
        <ele>447</ele>
        <time>2012-04-26T10:13:02Z</time>
      </trkpt>
      <trkpt lat="46.08139" lon="6.4033">
        <ele>447</ele>
        <time>2012-04-26T10:13:03Z</time>
      </trkpt>
      <trkpt lat="46.08147" lon="6.40342">
        <ele>447</ele>
        <time>2012-04-26T10:13:04Z</time>
      </trkpt>
      <trkpt lat="46.08156" lon="6.40354">
        <ele>447</ele>
        <time>2012-04-26T10:13:05Z</time>
      </trkpt>
      <trkpt lat="46.08165" lon="6.40366">
        <ele>447</ele>
        <time>2012-04-26T10:13:06Z</time>
      </trkpt>
      <trkpt lat="46.08172" lon="6.40376">
        <ele>447</ele>
        <time>2012-04-26T10:13:07Z</time>
      </trkpt>
      <trkpt lat="46.08179" lon="6.40385">
        <ele>447</ele>
        <time>2012-04-26T10:13:08Z</time>
      </trkpt>
      <trkpt lat="46.08185" lon="6.40394">
        <ele>447</ele>
        <time>2012-04-26T10:13:09Z</time>
      </trkpt>
      <trkpt lat="46.08199" lon="6.40403">
        <ele>447</ele>
        <time>2012-04-26T10:13:11Z</time>
      </trkpt>
      <trkpt lat="46.08216" lon="6.40395">
        <ele>447</ele>
        <time>2012-04-26T10:13:13Z</time>
      </trkpt>
      <trkpt lat="46.08224" lon="6.40386">
        <ele>447</ele>
        <time>2012-04-26T10:13:14Z</time>
      </trkpt>
      <trkpt lat="46.08233" lon="6.40374">
        <ele>442</ele>
        <time>2012-04-26T10:13:15Z</time>
      </trkpt>
      <trkpt lat="46.08245" lon="6.40362">
        <ele>442</ele>
        <time>2012-04-26T10:13:16Z</time>
      </trkpt>
      <trkpt lat="46.08259" lon="6.40352">
        <ele>442</ele>
        <time>2012-04-26T10:13:17Z</time>
      </trkpt>
      <trkpt lat="46.08274" lon="6.4034">
        <ele>442</ele>
        <time>2012-04-26T10:13:18Z</time>
      </trkpt>
      <trkpt lat="46.08286" lon="6.40327">
        <ele>442</ele>
        <time>2012-04-26T10:13:19Z</time>
      </trkpt>
      <trkpt lat="46.08297" lon="6.40316">
        <ele>442</ele>
        <time>2012-04-26T10:13:20Z</time>
      </trkpt>
      <trkpt lat="46.08311" lon="6.40306">
        <ele>442</ele>
        <time>2012-04-26T10:13:21Z</time>
      </trkpt>
      <trkpt lat="46.08322" lon="6.40295">
        <ele>442</ele>
        <time>2012-04-26T10:13:22Z</time>
      </trkpt>
      <trkpt lat="46.08334" lon="6.40285">
        <ele>442</ele>
        <time>2012-04-26T10:13:23Z</time>
      </trkpt>
      <trkpt lat="46.08347" lon="6.40273">
        <ele>442</ele>
        <time>2012-04-26T10:13:24Z</time>
      </trkpt>
      <trkpt lat="46.08399" lon="6.40228">
        <ele>442</ele>
        <time>2012-04-26T10:13:28Z</time>
      </trkpt>
      <trkpt lat="46.08412" lon="6.40216">
        <ele>442</ele>
        <time>2012-04-26T10:13:29Z</time>
      </trkpt>
      <trkpt lat="46.08459" lon="6.40175">
        <ele>442</ele>
        <time>2012-04-26T10:13:32Z</time>
      </trkpt>
      <trkpt lat="46.08476" lon="6.40155">
        <ele>442</ele>
        <time>2012-04-26T10:13:33Z</time>
      </trkpt>
      <trkpt lat="46.08518" lon="6.40117">
        <ele>442</ele>
        <time>2012-04-26T10:13:36Z</time>
      </trkpt>
      <trkpt lat="46.08526" lon="6.40111">
        <ele>442</ele>
        <time>2012-04-26T10:13:37Z</time>
      </trkpt>
      <trkpt lat="46.0854" lon="6.40102">
        <ele>442</ele>
        <time>2012-04-26T10:13:39Z</time>
      </trkpt>
      <trkpt lat="46.08549" lon="6.40094">
        <ele>442</ele>
        <time>2012-04-26T10:13:40Z</time>
      </trkpt>
      <trkpt lat="46.0856" lon="6.40086">
        <ele>442</ele>
        <time>2012-04-26T10:13:41Z</time>
      </trkpt>
      <trkpt lat="46.08572" lon="6.40073">
        <ele>442</ele>
        <time>2012-04-26T10:13:42Z</time>
      </trkpt>
      <trkpt lat="46.08587" lon="6.4006">
        <ele>442</ele>
        <time>2012-04-26T10:13:43Z</time>
      </trkpt>
      <trkpt lat="46.08602" lon="6.40047">
        <ele>442</ele>
        <time>2012-04-26T10:13:44Z</time>
      </trkpt>
      <trkpt lat="46.08616" lon="6.40033">
        <ele>442</ele>
        <time>2012-04-26T10:13:45Z</time>
      </trkpt>
      <trkpt lat="46.08629" lon="6.40016">
        <ele>442</ele>
        <time>2012-04-26T10:13:46Z</time>
      </trkpt>
      <trkpt lat="46.08641" lon="6.39998">
        <ele>442</ele>
        <time>2012-04-26T10:13:47Z</time>
      </trkpt>
      <trkpt lat="46.08652" lon="6.39979">
        <ele>442</ele>
        <time>2012-04-26T10:13:48Z</time>
      </trkpt>
      <trkpt lat="46.08662" lon="6.39956">
        <ele>442</ele>
        <time>2012-04-26T10:13:49Z</time>
      </trkpt>
      <trkpt lat="46.0867" lon="6.39933">
        <ele>442</ele>
        <time>2012-04-26T10:13:50Z</time>
      </trkpt>
      <trkpt lat="46.08679" lon="6.39907">
        <ele>442</ele>
        <time>2012-04-26T10:13:51Z</time>
      </trkpt>
      <trkpt lat="46.08684" lon="6.39878">
        <ele>442</ele>
        <time>2012-04-26T10:13:52Z</time>
      </trkpt>
      <trkpt lat="46.08687" lon="6.39849">
        <ele>442</ele>
        <time>2012-04-26T10:13:53Z</time>
      </trkpt>
      <trkpt lat="46.08687" lon="6.39821">
        <ele>447</ele>
        <time>2012-04-26T10:13:54Z</time>
      </trkpt>
      <trkpt lat="46.08687" lon="6.39792">
        <ele>447</ele>
        <time>2012-04-26T10:13:55Z</time>
      </trkpt>
      <trkpt lat="46.08685" lon="6.39764">
        <ele>447</ele>
        <time>2012-04-26T10:13:56Z</time>
      </trkpt>
      <trkpt lat="46.08684" lon="6.39737">
        <ele>447</ele>
        <time>2012-04-26T10:13:57Z</time>
      </trkpt>
      <trkpt lat="46.08682" lon="6.39709">
        <ele>447</ele>
        <time>2012-04-26T10:13:58Z</time>
      </trkpt>
      <trkpt lat="46.08678" lon="6.39681">
        <ele>447</ele>
        <time>2012-04-26T10:13:59Z</time>
      </trkpt>
      <trkpt lat="46.08676" lon="6.39655">
        <ele>447</ele>
        <time>2012-04-26T10:14:00Z</time>
      </trkpt>
      <trkpt lat="46.08674" lon="6.39631">
        <ele>447</ele>
        <time>2012-04-26T10:14:01Z</time>
      </trkpt>
      <trkpt lat="46.0867" lon="6.39607">
        <ele>453</ele>
        <time>2012-04-26T10:14:02Z</time>
      </trkpt>
      <trkpt lat="46.08667" lon="6.39585">
        <ele>453</ele>
        <time>2012-04-26T10:14:03Z</time>
      </trkpt>
      <trkpt lat="46.08664" lon="6.39565">
        <ele>453</ele>
        <time>2012-04-26T10:14:04Z</time>
      </trkpt>
      <trkpt lat="46.08662" lon="6.39548">
        <ele>453</ele>
        <time>2012-04-26T10:14:05Z</time>
      </trkpt>
      <trkpt lat="46.0866" lon="6.3953">
        <ele>459</ele>
        <time>2012-04-26T10:14:07Z</time>
      </trkpt>
      <trkpt lat="46.08667" lon="6.39542">
        <ele>459</ele>
        <time>2012-04-26T10:14:11Z</time>
      </trkpt>
      <trkpt lat="46.08683" lon="6.39535">
        <ele>459</ele>
        <time>2012-04-26T10:14:18Z</time>
      </trkpt>
      <trkpt lat="46.08693" lon="6.39529">
        <ele>459</ele>
        <time>2012-04-26T10:14:19Z</time>
      </trkpt>
      <trkpt lat="46.08711" lon="6.39512">
        <ele>459</ele>
        <time>2012-04-26T10:14:22Z</time>
      </trkpt>
      <trkpt lat="46.08719" lon="6.39501">
        <ele>459</ele>
        <time>2012-04-26T10:14:23Z</time>
      </trkpt>
      <trkpt lat="46.08729" lon="6.39484">
        <ele>467</ele>
        <time>2012-04-26T10:14:25Z</time>
      </trkpt>
      <trkpt lat="46.08737" lon="6.39475">
        <ele>472</ele>
        <time>2012-04-26T10:14:27Z</time>
      </trkpt>
      <trkpt lat="46.08751" lon="6.39458">
        <ele>472</ele>
        <time>2012-04-26T10:14:30Z</time>
      </trkpt>
      <trkpt lat="46.08761" lon="6.3945">
        <ele>478</ele>
        <time>2012-04-26T10:14:32Z</time>
      </trkpt>
      <trkpt lat="46.08774" lon="6.39442">
        <ele>478</ele>
        <time>2012-04-26T10:14:35Z</time>
      </trkpt>
      <trkpt lat="46.08789" lon="6.3945">
        <ele>485</ele>
        <time>2012-04-26T10:14:37Z</time>
      </trkpt>
      <trkpt lat="46.08803" lon="6.39459">
        <ele>491</ele>
        <time>2012-04-26T10:14:39Z</time>
      </trkpt>
      <trkpt lat="46.08816" lon="6.39467">
        <ele>491</ele>
        <time>2012-04-26T10:14:41Z</time>
      </trkpt>
      <trkpt lat="46.08826" lon="6.39473">
        <ele>500</ele>
        <time>2012-04-26T10:14:43Z</time>
      </trkpt>
      <trkpt lat="46.08833" lon="6.39486">
        <ele>506</ele>
        <time>2012-04-26T10:14:46Z</time>
      </trkpt>
      <trkpt lat="46.0884" lon="6.39499">
        <ele>506</ele>
        <time>2012-04-26T10:14:48Z</time>
      </trkpt>
      <trkpt lat="46.08848" lon="6.39512">
        <ele>511</ele>
        <time>2012-04-26T10:14:50Z</time>
      </trkpt>
      <trkpt lat="46.08843" lon="6.3953">
        <ele>511</ele>
        <time>2012-04-26T10:14:53Z</time>
      </trkpt>
      <trkpt lat="46.0884" lon="6.39548">
        <ele>511</ele>
        <time>2012-04-26T10:14:55Z</time>
      </trkpt>
      <trkpt lat="46.08841" lon="6.39564">
        <ele>516</ele>
        <time>2012-04-26T10:14:59Z</time>
      </trkpt>
      <trkpt lat="46.08854" lon="6.39558">
        <ele>516</ele>
        <time>2012-04-26T10:15:00Z</time>
      </trkpt>
      <trkpt lat="46.08863" lon="6.39555">
        <ele>526</ele>
        <time>2012-04-26T10:15:02Z</time>
      </trkpt>
      <trkpt lat="46.08867" lon="6.39571">
        <ele>526</ele>
        <time>2012-04-26T10:15:09Z</time>
      </trkpt>
      <trkpt lat="46.08877" lon="6.39575">
        <ele>526</ele>
        <time>2012-04-26T10:15:19Z</time>
      </trkpt>
      <trkpt lat="46.0888" lon="6.39561">
        <ele>526</ele>
        <time>2012-04-26T10:15:24Z</time>
      </trkpt>
      <trkpt lat="46.08886" lon="6.39538">
        <ele>526</ele>
        <time>2012-04-26T10:15:26Z</time>
      </trkpt>
      <trkpt lat="46.08892" lon="6.39509">
        <ele>526</ele>
        <time>2012-04-26T10:15:28Z</time>
      </trkpt>
      <trkpt lat="46.08894" lon="6.39493">
        <ele>526</ele>
        <time>2012-04-26T10:15:29Z</time>
      </trkpt>
      <trkpt lat="46.08897" lon="6.39477">
        <ele>526</ele>
        <time>2012-04-26T10:15:30Z</time>
      </trkpt>
      <trkpt lat="46.08901" lon="6.39461">
        <ele>526</ele>
        <time>2012-04-26T10:15:31Z</time>
      </trkpt>
      <trkpt lat="46.08903" lon="6.39445">
        <ele>526</ele>
        <time>2012-04-26T10:15:32Z</time>
      </trkpt>
      <trkpt lat="46.08905" lon="6.39427">
        <ele>526</ele>
        <time>2012-04-26T10:15:33Z</time>
      </trkpt>
      <trkpt lat="46.08907" lon="6.39411">
        <ele>526</ele>
        <time>2012-04-26T10:15:34Z</time>
      </trkpt>
      <trkpt lat="46.08909" lon="6.39394">
        <ele>526</ele>
        <time>2012-04-26T10:15:35Z</time>
      </trkpt>
      <trkpt lat="46.08914" lon="6.39377">
        <ele>526</ele>
        <time>2012-04-26T10:15:36Z</time>
      </trkpt>
      <trkpt lat="46.08917" lon="6.39362">
        <ele>526</ele>
        <time>2012-04-26T10:15:37Z</time>
      </trkpt>
      <trkpt lat="46.08919" lon="6.39345">
        <ele>526</ele>
        <time>2012-04-26T10:15:38Z</time>
      </trkpt>
      <trkpt lat="46.08919" lon="6.39327">
        <ele>526</ele>
        <time>2012-04-26T10:15:39Z</time>
      </trkpt>
      <trkpt lat="46.08921" lon="6.39303">
        <ele>526</ele>
        <time>2012-04-26T10:15:41Z</time>
      </trkpt>
      <trkpt lat="46.08919" lon="6.39289">
        <ele>526</ele>
        <time>2012-04-26T10:15:42Z</time>
      </trkpt>
      <trkpt lat="46.08922" lon="6.39275">
        <ele>526</ele>
        <time>2012-04-26T10:15:43Z</time>
      </trkpt>
      <trkpt lat="46.08928" lon="6.39261">
        <ele>526</ele>
        <time>2012-04-26T10:15:44Z</time>
      </trkpt>
      <trkpt lat="46.08936" lon="6.39247">
        <ele>526</ele>
        <time>2012-04-26T10:15:45Z</time>
      </trkpt>
      <trkpt lat="46.08942" lon="6.39234">
        <ele>532</ele>
        <time>2012-04-26T10:15:46Z</time>
      </trkpt>
      <trkpt lat="46.08945" lon="6.39219">
        <ele>532</ele>
        <time>2012-04-26T10:15:47Z</time>
      </trkpt>
      <trkpt lat="46.08948" lon="6.39203">
        <ele>538</ele>
        <time>2012-04-26T10:15:48Z</time>
      </trkpt>
      <trkpt lat="46.08955" lon="6.39194">
        <ele>538</ele>
        <time>2012-04-26T10:15:49Z</time>
      </trkpt>
      <trkpt lat="46.08962" lon="6.39179">
        <ele>538</ele>
        <time>2012-04-26T10:15:51Z</time>
      </trkpt>
      <trkpt lat="46.08972" lon="6.39159">
        <ele>538</ele>
        <time>2012-04-26T10:15:53Z</time>
      </trkpt>
      <trkpt lat="46.08987" lon="6.39141">
        <ele>538</ele>
        <time>2012-04-26T10:15:55Z</time>
      </trkpt>
      <trkpt lat="46.09014" lon="6.39112">
        <ele>538</ele>
        <time>2012-04-26T10:15:59Z</time>
      </trkpt>
      <trkpt lat="46.09021" lon="6.39096">
        <ele>544</ele>
        <time>2012-04-26T10:16:01Z</time>
      </trkpt>
      <trkpt lat="46.0903" lon="6.39075">
        <ele>544</ele>
        <time>2012-04-26T10:16:03Z</time>
      </trkpt>
      <trkpt lat="46.09031" lon="6.39062">
        <ele>544</ele>
        <time>2012-04-26T10:16:04Z</time>
      </trkpt>
      <trkpt lat="46.09033" lon="6.39048">
        <ele>544</ele>
        <time>2012-04-26T10:16:05Z</time>
      </trkpt>
      <trkpt lat="46.09036" lon="6.39032">
        <ele>544</ele>
        <time>2012-04-26T10:16:06Z</time>
      </trkpt>
      <trkpt lat="46.09038" lon="6.39018">
        <ele>544</ele>
        <time>2012-04-26T10:16:07Z</time>
      </trkpt>
      <trkpt lat="46.09042" lon="6.38996">
        <ele>550</ele>
        <time>2012-04-26T10:16:09Z</time>
      </trkpt>
      <trkpt lat="46.09046" lon="6.38982">
        <ele>550</ele>
        <time>2012-04-26T10:16:10Z</time>
      </trkpt>
      <trkpt lat="46.09049" lon="6.38968">
        <ele>550</ele>
        <time>2012-04-26T10:16:11Z</time>
      </trkpt>
      <trkpt lat="46.09049" lon="6.38953">
        <ele>545</ele>
        <time>2012-04-26T10:16:12Z</time>
      </trkpt>
      <trkpt lat="46.09044" lon="6.38926">
        <ele>545</ele>
        <time>2012-04-26T10:16:13Z</time>
      </trkpt>
      <trkpt lat="46.09049" lon="6.38886">
        <ele>545</ele>
        <time>2012-04-26T10:16:16Z</time>
      </trkpt>
      <trkpt lat="46.09046" lon="6.38869">
        <ele>545</ele>
        <time>2012-04-26T10:16:17Z</time>
      </trkpt>
      <trkpt lat="46.09042" lon="6.38828">
        <ele>545</ele>
        <time>2012-04-26T10:16:20Z</time>
      </trkpt>
      <trkpt lat="46.09037" lon="6.38816">
        <ele>557</ele>
        <time>2012-04-26T10:16:27Z</time>
      </trkpt>
      <trkpt lat="46.09038" lon="6.38792">
        <ele>557</ele>
        <time>2012-04-26T10:16:30Z</time>
      </trkpt>
      <trkpt lat="46.0904" lon="6.38767">
        <ele>557</ele>
        <time>2012-04-26T10:16:32Z</time>
      </trkpt>
      <trkpt lat="46.09041" lon="6.38753">
        <ele>557</ele>
        <time>2012-04-26T10:16:33Z</time>
      </trkpt>
      <trkpt lat="46.09042" lon="6.3873">
        <ele>557</ele>
        <time>2012-04-26T10:16:35Z</time>
      </trkpt>
      <trkpt lat="46.09042" lon="6.38717">
        <ele>557</ele>
        <time>2012-04-26T10:16:36Z</time>
      </trkpt>
      <trkpt lat="46.09043" lon="6.38703">
        <ele>551</ele>
        <time>2012-04-26T10:16:37Z</time>
      </trkpt>
      <trkpt lat="46.09046" lon="6.38691">
        <ele>551</ele>
        <time>2012-04-26T10:16:38Z</time>
      </trkpt>
      <trkpt lat="46.09049" lon="6.38678">
        <ele>551</ele>
        <time>2012-04-26T10:16:39Z</time>
      </trkpt>
      <trkpt lat="46.09057" lon="6.38667">
        <ele>551</ele>
        <time>2012-04-26T10:16:40Z</time>
      </trkpt>
      <trkpt lat="46.09065" lon="6.38656">
        <ele>551</ele>
        <time>2012-04-26T10:16:41Z</time>
      </trkpt>
      <trkpt lat="46.09071" lon="6.38645">
        <ele>551</ele>
        <time>2012-04-26T10:16:42Z</time>
      </trkpt>
      <trkpt lat="46.09082" lon="6.38628">
        <ele>551</ele>
        <time>2012-04-26T10:16:44Z</time>
      </trkpt>
      <trkpt lat="46.09084" lon="6.38608">
        <ele>551</ele>
        <time>2012-04-26T10:16:46Z</time>
      </trkpt>
      <trkpt lat="46.09081" lon="6.38588">
        <ele>544</ele>
        <time>2012-04-26T10:16:48Z</time>
      </trkpt>
      <trkpt lat="46.09081" lon="6.38541">
        <ele>544</ele>
        <time>2012-04-26T10:16:53Z</time>
      </trkpt>
      <trkpt lat="46.09094" lon="6.38541">
        <ele>544</ele>
        <time>2012-04-26T10:16:55Z</time>
      </trkpt>
      <trkpt lat="46.09114" lon="6.38541">
        <ele>544</ele>
        <time>2012-04-26T10:16:57Z</time>
      </trkpt>
      <trkpt lat="46.09124" lon="6.38538">
        <ele>544</ele>
        <time>2012-04-26T10:16:58Z</time>
      </trkpt>
      <trkpt lat="46.09134" lon="6.38535">
        <ele>544</ele>
        <time>2012-04-26T10:16:59Z</time>
      </trkpt>
      <trkpt lat="46.09144" lon="6.38532">
        <ele>544</ele>
        <time>2012-04-26T10:17:00Z</time>
      </trkpt>
      <trkpt lat="46.09153" lon="6.38527">
        <ele>544</ele>
        <time>2012-04-26T10:17:01Z</time>
      </trkpt>
      <trkpt lat="46.09168" lon="6.38514">
        <ele>544</ele>
        <time>2012-04-26T10:17:03Z</time>
      </trkpt>
      <trkpt lat="46.09183" lon="6.38498">
        <ele>544</ele>
        <time>2012-04-26T10:17:05Z</time>
      </trkpt>
      <trkpt lat="46.09192" lon="6.38491">
        <ele>551</ele>
        <time>2012-04-26T10:17:06Z</time>
      </trkpt>
      <trkpt lat="46.09206" lon="6.38479">
        <ele>551</ele>
        <time>2012-04-26T10:17:08Z</time>
      </trkpt>
      <trkpt lat="46.09216" lon="6.38472">
        <ele>562</ele>
        <time>2012-04-26T10:17:10Z</time>
      </trkpt>
      <trkpt lat="46.09227" lon="6.38461">
        <ele>570</ele>
        <time>2012-04-26T10:17:12Z</time>
      </trkpt>
      <trkpt lat="46.09241" lon="6.38451">
        <ele>577</ele>
        <time>2012-04-26T10:17:14Z</time>
      </trkpt>
      <trkpt lat="46.09251" lon="6.38443">
        <ele>577</ele>
        <time>2012-04-26T10:17:16Z</time>
      </trkpt>
      <trkpt lat="46.09256" lon="6.38428">
        <ele>594</ele>
        <time>2012-04-26T10:17:24Z</time>
      </trkpt>
      <trkpt lat="46.09267" lon="6.38416">
        <ele>594</ele>
        <time>2012-04-26T10:17:26Z</time>
      </trkpt>
      <trkpt lat="46.09279" lon="6.38399">
        <ele>594</ele>
        <time>2012-04-26T10:17:28Z</time>
      </trkpt>
      <trkpt lat="46.09291" lon="6.38383">
        <ele>594</ele>
        <time>2012-04-26T10:17:30Z</time>
      </trkpt>
      <trkpt lat="46.09307" lon="6.38371">
        <ele>604</ele>
        <time>2012-04-26T10:17:32Z</time>
      </trkpt>
      <trkpt lat="46.0932" lon="6.38355">
        <ele>604</ele>
        <time>2012-04-26T10:17:34Z</time>
      </trkpt>
      <trkpt lat="46.09327" lon="6.38346">
        <ele>610</ele>
        <time>2012-04-26T10:17:35Z</time>
      </trkpt>
      <trkpt lat="46.09334" lon="6.38335">
        <ele>610</ele>
        <time>2012-04-26T10:17:36Z</time>
      </trkpt>
      <trkpt lat="46.09341" lon="6.38326">
        <ele>615</ele>
        <time>2012-04-26T10:17:37Z</time>
      </trkpt>
      <trkpt lat="46.09363" lon="6.38291">
        <ele>623</ele>
        <time>2012-04-26T10:17:41Z</time>
      </trkpt>
      <trkpt lat="46.09374" lon="6.38288">
        <ele>623</ele>
        <time>2012-04-26T10:17:42Z</time>
      </trkpt>
      <trkpt lat="46.09381" lon="6.38268">
        <ele>632</ele>
        <time>2012-04-26T10:17:44Z</time>
      </trkpt>
      <trkpt lat="46.09387" lon="6.38248">
        <ele>632</ele>
        <time>2012-04-26T10:17:46Z</time>
      </trkpt>
      <trkpt lat="46.09394" lon="6.38227">
        <ele>632</ele>
        <time>2012-04-26T10:17:48Z</time>
      </trkpt>
      <trkpt lat="46.09403" lon="6.38214">
        <ele>624</ele>
        <time>2012-04-26T10:17:51Z</time>
      </trkpt>
      <trkpt lat="46.09416" lon="6.38199">
        <ele>624</ele>
        <time>2012-04-26T10:17:53Z</time>
      </trkpt>
      <trkpt lat="46.09424" lon="6.38193">
        <ele>624</ele>
        <time>2012-04-26T10:17:54Z</time>
      </trkpt>
      <trkpt lat="46.09436" lon="6.38174">
        <ele>624</ele>
        <time>2012-04-26T10:17:56Z</time>
      </trkpt>
      <trkpt lat="46.09457" lon="6.38146">
        <ele>624</ele>
        <time>2012-04-26T10:18:00Z</time>
      </trkpt>
      <trkpt lat="46.09468" lon="6.38138">
        <ele>624</ele>
        <time>2012-04-26T10:18:02Z</time>
      </trkpt>
      <trkpt lat="46.09477" lon="6.38127">
        <ele>630</ele>
        <time>2012-04-26T10:18:16Z</time>
      </trkpt>
      <trkpt lat="46.09487" lon="6.3811">
        <ele>630</ele>
        <time>2012-04-26T10:18:18Z</time>
      </trkpt>
      <trkpt lat="46.095" lon="6.38093">
        <ele>630</ele>
        <time>2012-04-26T10:18:20Z</time>
      </trkpt>
      <trkpt lat="46.09508" lon="6.38073">
        <ele>630</ele>
        <time>2012-04-26T10:18:22Z</time>
      </trkpt>
      <trkpt lat="46.09515" lon="6.38055">
        <ele>630</ele>
        <time>2012-04-26T10:18:24Z</time>
      </trkpt>
      <trkpt lat="46.09525" lon="6.38042">
        <ele>630</ele>
        <time>2012-04-26T10:18:26Z</time>
      </trkpt>
      <trkpt lat="46.09532" lon="6.38028">
        <ele>630</ele>
        <time>2012-04-26T10:18:28Z</time>
      </trkpt>
      <trkpt lat="46.09538" lon="6.38015">
        <ele>624</ele>
        <time>2012-04-26T10:18:30Z</time>
      </trkpt>
      <trkpt lat="46.09549" lon="6.38004">
        <ele>624</ele>
        <time>2012-04-26T10:18:33Z</time>
      </trkpt>
      <trkpt lat="46.09557" lon="6.37997">
        <ele>624</ele>
        <time>2012-04-26T10:18:35Z</time>
      </trkpt>
      <trkpt lat="46.09563" lon="6.37984">
        <ele>624</ele>
        <time>2012-04-26T10:18:37Z</time>
      </trkpt>
      <trkpt lat="46.09562" lon="6.37965">
        <ele>624</ele>
        <time>2012-04-26T10:18:39Z</time>
      </trkpt>
      <trkpt lat="46.09569" lon="6.37947">
        <ele>624</ele>
        <time>2012-04-26T10:18:41Z</time>
      </trkpt>
      <trkpt lat="46.09581" lon="6.37941">
        <ele>624</ele>
        <time>2012-04-26T10:18:43Z</time>
      </trkpt>
      <trkpt lat="46.09596" lon="6.3793">
        <ele>624</ele>
        <time>2012-04-26T10:18:45Z</time>
      </trkpt>
      <trkpt lat="46.09612" lon="6.37914">
        <ele>624</ele>
        <time>2012-04-26T10:18:47Z</time>
      </trkpt>
      <trkpt lat="46.09624" lon="6.37905">
        <ele>624</ele>
        <time>2012-04-26T10:18:48Z</time>
      </trkpt>
      <trkpt lat="46.09634" lon="6.37896">
        <ele>624</ele>
        <time>2012-04-26T10:18:49Z</time>
      </trkpt>
      <trkpt lat="46.09646" lon="6.37887">
        <ele>624</ele>
        <time>2012-04-26T10:18:50Z</time>
      </trkpt>
      <trkpt lat="46.09656" lon="6.37878">
        <ele>624</ele>
        <time>2012-04-26T10:18:51Z</time>
      </trkpt>
      <trkpt lat="46.09666" lon="6.37869">
        <ele>631</ele>
        <time>2012-04-26T10:18:52Z</time>
      </trkpt>
      <trkpt lat="46.09676" lon="6.37859">
        <ele>631</ele>
        <time>2012-04-26T10:18:53Z</time>
      </trkpt>
      <trkpt lat="46.09686" lon="6.37851">
        <ele>631</ele>
        <time>2012-04-26T10:18:54Z</time>
      </trkpt>
      <trkpt lat="46.09698" lon="6.37838">
        <ele>637</ele>
        <time>2012-04-26T10:18:56Z</time>
      </trkpt>
      <trkpt lat="46.09711" lon="6.37825">
        <ele>637</ele>
        <time>2012-04-26T10:18:58Z</time>
      </trkpt>
      <trkpt lat="46.09724" lon="6.37812">
        <ele>637</ele>
        <time>2012-04-26T10:19:00Z</time>
      </trkpt>
      <trkpt lat="46.09739" lon="6.37799">
        <ele>637</ele>
        <time>2012-04-26T10:19:02Z</time>
      </trkpt>
      <trkpt lat="46.09749" lon="6.37797">
        <ele>637</ele>
        <time>2012-04-26T10:19:03Z</time>
      </trkpt>
      <trkpt lat="46.0976" lon="6.37797">
        <ele>644</ele>
        <time>2012-04-26T10:19:04Z</time>
      </trkpt>
      <trkpt lat="46.09773" lon="6.37798">
        <ele>644</ele>
        <time>2012-04-26T10:19:05Z</time>
      </trkpt>
      <trkpt lat="46.09785" lon="6.37796">
        <ele>644</ele>
        <time>2012-04-26T10:19:06Z</time>
      </trkpt>
      <trkpt lat="46.09802" lon="6.37791">
        <ele>651</ele>
        <time>2012-04-26T10:19:08Z</time>
      </trkpt>
      <trkpt lat="46.09816" lon="6.37778">
        <ele>651</ele>
        <time>2012-04-26T10:19:10Z</time>
      </trkpt>
      <trkpt lat="46.09832" lon="6.37761">
        <ele>660</ele>
        <time>2012-04-26T10:19:12Z</time>
      </trkpt>
      <trkpt lat="46.09841" lon="6.37751">
        <ele>660</ele>
        <time>2012-04-26T10:19:13Z</time>
      </trkpt>
      <trkpt lat="46.09853" lon="6.37743">
        <ele>660</ele>
        <time>2012-04-26T10:19:14Z</time>
      </trkpt>
      <trkpt lat="46.09863" lon="6.37732">
        <ele>660</ele>
        <time>2012-04-26T10:19:15Z</time>
      </trkpt>
      <trkpt lat="46.09872" lon="6.3772">
        <ele>666</ele>
        <time>2012-04-26T10:19:16Z</time>
      </trkpt>
      <trkpt lat="46.09882" lon="6.3771">
        <ele>666</ele>
        <time>2012-04-26T10:19:17Z</time>
      </trkpt>
      <trkpt lat="46.09904" lon="6.37672">
        <ele>673</ele>
        <time>2012-04-26T10:19:20Z</time>
      </trkpt>
      <trkpt lat="46.09912" lon="6.37657">
        <ele>673</ele>
        <time>2012-04-26T10:19:21Z</time>
      </trkpt>
      <trkpt lat="46.09921" lon="6.37643">
        <ele>673</ele>
        <time>2012-04-26T10:19:22Z</time>
      </trkpt>
      <trkpt lat="46.09929" lon="6.37626">
        <ele>673</ele>
        <time>2012-04-26T10:19:23Z</time>
      </trkpt>
      <trkpt lat="46.09934" lon="6.37604">
        <ele>673</ele>
        <time>2012-04-26T10:19:24Z</time>
      </trkpt>
      <trkpt lat="46.09941" lon="6.37585">
        <ele>673</ele>
        <time>2012-04-26T10:19:25Z</time>
      </trkpt>
      <trkpt lat="46.09949" lon="6.37569">
        <ele>680</ele>
        <time>2012-04-26T10:19:26Z</time>
      </trkpt>
      <trkpt lat="46.09959" lon="6.3756">
        <ele>680</ele>
        <time>2012-04-26T10:19:27Z</time>
      </trkpt>
      <trkpt lat="46.09969" lon="6.37551">
        <ele>685</ele>
        <time>2012-04-26T10:19:28Z</time>
      </trkpt>
      <trkpt lat="46.09982" lon="6.37536">
        <ele>685</ele>
        <time>2012-04-26T10:19:30Z</time>
      </trkpt>
      <trkpt lat="46.09992" lon="6.37525">
        <ele>691</ele>
        <time>2012-04-26T10:19:32Z</time>
      </trkpt>
      <trkpt lat="46.10001" lon="6.37534">
        <ele>691</ele>
        <time>2012-04-26T10:19:34Z</time>
      </trkpt>
      <trkpt lat="46.09997" lon="6.3756">
        <ele>698</ele>
        <time>2012-04-26T10:19:37Z</time>
      </trkpt>
      <trkpt lat="46.09991" lon="6.37576">
        <ele>698</ele>
        <time>2012-04-26T10:19:38Z</time>
      </trkpt>
      <trkpt lat="46.09985" lon="6.37592">
        <ele>704</ele>
        <time>2012-04-26T10:19:40Z</time>
      </trkpt>
      <trkpt lat="46.09987" lon="6.37607">
        <ele>697</ele>
        <time>2012-04-26T10:19:49Z</time>
      </trkpt>
      <trkpt lat="46.09986" lon="6.37636">
        <ele>697</ele>
        <time>2012-04-26T10:19:51Z</time>
      </trkpt>
      <trkpt lat="46.09983" lon="6.37652">
        <ele>697</ele>
        <time>2012-04-26T10:19:52Z</time>
      </trkpt>
      <trkpt lat="46.0998" lon="6.37668">
        <ele>697</ele>
        <time>2012-04-26T10:19:53Z</time>
      </trkpt>
      <trkpt lat="46.09974" lon="6.37684">
        <ele>697</ele>
        <time>2012-04-26T10:19:54Z</time>
      </trkpt>
      <trkpt lat="46.09969" lon="6.37701">
        <ele>697</ele>
        <time>2012-04-26T10:19:55Z</time>
      </trkpt>
      <trkpt lat="46.09965" lon="6.37718">
        <ele>697</ele>
        <time>2012-04-26T10:19:56Z</time>
      </trkpt>
      <trkpt lat="46.09962" lon="6.37733">
        <ele>703</ele>
        <time>2012-04-26T10:19:57Z</time>
      </trkpt>
      <trkpt lat="46.09959" lon="6.37746">
        <ele>703</ele>
        <time>2012-04-26T10:19:58Z</time>
      </trkpt>
      <trkpt lat="46.09959" lon="6.37763">
        <ele>703</ele>
        <time>2012-04-26T10:19:59Z</time>
      </trkpt>
      <trkpt lat="46.0996" lon="6.37781">
        <ele>703</ele>
        <time>2012-04-26T10:20:00Z</time>
      </trkpt>
      <trkpt lat="46.09961" lon="6.37799">
        <ele>710</ele>
        <time>2012-04-26T10:20:01Z</time>
      </trkpt>
      <trkpt lat="46.09961" lon="6.37816">
        <ele>710</ele>
        <time>2012-04-26T10:20:02Z</time>
      </trkpt>
      <trkpt lat="46.09959" lon="6.37832">
        <ele>710</ele>
        <time>2012-04-26T10:20:03Z</time>
      </trkpt>
      <trkpt lat="46.09958" lon="6.37848">
        <ele>710</ele>
        <time>2012-04-26T10:20:04Z</time>
      </trkpt>
      <trkpt lat="46.09954" lon="6.37863">
        <ele>717</ele>
        <time>2012-04-26T10:20:05Z</time>
      </trkpt>
      <trkpt lat="46.09947" lon="6.37877">
        <ele>717</ele>
        <time>2012-04-26T10:20:06Z</time>
      </trkpt>
      <trkpt lat="46.09937" lon="6.37887">
        <ele>717</ele>
        <time>2012-04-26T10:20:07Z</time>
      </trkpt>
      <trkpt lat="46.09929" lon="6.37898">
        <ele>724</ele>
        <time>2012-04-26T10:20:08Z</time>
      </trkpt>
      <trkpt lat="46.0992" lon="6.37905">
        <ele>724</ele>
        <time>2012-04-26T10:20:09Z</time>
      </trkpt>
      <trkpt lat="46.09909" lon="6.3792">
        <ele>724</ele>
        <time>2012-04-26T10:20:11Z</time>
      </trkpt>
      <trkpt lat="46.09902" lon="6.37941">
        <ele>731</ele>
        <time>2012-04-26T10:20:13Z</time>
      </trkpt>
      <trkpt lat="46.09906" lon="6.37964">
        <ele>731</ele>
        <time>2012-04-26T10:20:15Z</time>
      </trkpt>
      <trkpt lat="46.0991" lon="6.37975">
        <ele>731</ele>
        <time>2012-04-26T10:20:16Z</time>
      </trkpt>
      <trkpt lat="46.09919" lon="6.37998">
        <ele>731</ele>
        <time>2012-04-26T10:20:18Z</time>
      </trkpt>
      <trkpt lat="46.09924" lon="6.38021">
        <ele>737</ele>
        <time>2012-04-26T10:20:20Z</time>
      </trkpt>
      <trkpt lat="46.0992" lon="6.38041">
        <ele>737</ele>
        <time>2012-04-26T10:20:22Z</time>
      </trkpt>
      <trkpt lat="46.09907" lon="6.38056">
        <ele>737</ele>
        <time>2012-04-26T10:20:24Z</time>
      </trkpt>
      <trkpt lat="46.09882" lon="6.38082">
        <ele>737</ele>
        <time>2012-04-26T10:20:28Z</time>
      </trkpt>
      <trkpt lat="46.09869" lon="6.38082">
        <ele>747</ele>
        <time>2012-04-26T10:20:30Z</time>
      </trkpt>
      <trkpt lat="46.0986" lon="6.38088">
        <ele>747</ele>
        <time>2012-04-26T10:20:33Z</time>
      </trkpt>
      <trkpt lat="46.09861" lon="6.38074">
        <ele>756</ele>
        <time>2012-04-26T10:20:40Z</time>
      </trkpt>
      <trkpt lat="46.09869" lon="6.3808">
        <ele>737</ele>
        <time>2012-04-26T10:21:11Z</time>
      </trkpt>
      <trkpt lat="46.09859" lon="6.38077">
        <ele>756</ele>
        <time>2012-04-26T10:21:31Z</time>
      </trkpt>
      <trkpt lat="46.09856" lon="6.38092">
        <ele>769</ele>
        <time>2012-04-26T10:21:46Z</time>
      </trkpt>
      <trkpt lat="46.09856" lon="6.38113">
        <ele>761</ele>
        <time>2012-04-26T10:21:48Z</time>
      </trkpt>
      <trkpt lat="46.09854" lon="6.38134">
        <ele>761</ele>
        <time>2012-04-26T10:21:50Z</time>
      </trkpt>
      <trkpt lat="46.0985" lon="6.38151">
        <ele>761</ele>
        <time>2012-04-26T10:21:52Z</time>
      </trkpt>
      <trkpt lat="46.09817" lon="6.3818">
        <ele>753</ele>
        <time>2012-04-26T10:21:56Z</time>
      </trkpt>
      <trkpt lat="46.09804" lon="6.38189">
        <ele>753</ele>
        <time>2012-04-26T10:21:57Z</time>
      </trkpt>
      <trkpt lat="46.0979" lon="6.38198">
        <ele>753</ele>
        <time>2012-04-26T10:21:58Z</time>
      </trkpt>
      <trkpt lat="46.09779" lon="6.38207">
        <ele>753</ele>
        <time>2012-04-26T10:21:59Z</time>
      </trkpt>
      <trkpt lat="46.09771" lon="6.38214">
        <ele>753</ele>
        <time>2012-04-26T10:22:00Z</time>
      </trkpt>
      <trkpt lat="46.09762" lon="6.38221">
        <ele>753</ele>
        <time>2012-04-26T10:22:01Z</time>
      </trkpt>
      <trkpt lat="46.09749" lon="6.3824">
        <ele>753</ele>
        <time>2012-04-26T10:22:03Z</time>
      </trkpt>
      <trkpt lat="46.09734" lon="6.38254">
        <ele>753</ele>
        <time>2012-04-26T10:22:05Z</time>
      </trkpt>
      <trkpt lat="46.09727" lon="6.38275">
        <ele>753</ele>
        <time>2012-04-26T10:22:07Z</time>
      </trkpt>
      <trkpt lat="46.0973" lon="6.38303">
        <ele>753</ele>
        <time>2012-04-26T10:22:10Z</time>
      </trkpt>
      <trkpt lat="46.09739" lon="6.38319">
        <ele>753</ele>
        <time>2012-04-26T10:22:12Z</time>
      </trkpt>
      <trkpt lat="46.0975" lon="6.38334">
        <ele>762</ele>
        <time>2012-04-26T10:22:14Z</time>
      </trkpt>
      <trkpt lat="46.09761" lon="6.38362">
        <ele>762</ele>
        <time>2012-04-26T10:22:18Z</time>
      </trkpt>
      <trkpt lat="46.09758" lon="6.38376">
        <ele>767</ele>
        <time>2012-04-26T10:22:21Z</time>
      </trkpt>
      <trkpt lat="46.09755" lon="6.3839">
        <ele>767</ele>
        <time>2012-04-26T10:22:23Z</time>
      </trkpt>
      <trkpt lat="46.09748" lon="6.38401">
        <ele>774</ele>
        <time>2012-04-26T10:22:25Z</time>
      </trkpt>
      <trkpt lat="46.09741" lon="6.38411">
        <ele>774</ele>
        <time>2012-04-26T10:22:29Z</time>
      </trkpt>
      <trkpt lat="46.0973" lon="6.38419">
        <ele>774</ele>
        <time>2012-04-26T10:22:33Z</time>
      </trkpt>
      <trkpt lat="46.09737" lon="6.38428">
        <ele>785</ele>
        <time>2012-04-26T10:22:42Z</time>
      </trkpt>
      <trkpt lat="46.09741" lon="6.38444">
        <ele>785</ele>
        <time>2012-04-26T10:22:44Z</time>
      </trkpt>
      <trkpt lat="46.09745" lon="6.38462">
        <ele>785</ele>
        <time>2012-04-26T10:22:46Z</time>
      </trkpt>
      <trkpt lat="46.09751" lon="6.38478">
        <ele>793</ele>
        <time>2012-04-26T10:22:48Z</time>
      </trkpt>
      <trkpt lat="46.09756" lon="6.3849">
        <ele>793</ele>
        <time>2012-04-26T10:22:50Z</time>
      </trkpt>
      <trkpt lat="46.09759" lon="6.38505">
        <ele>800</ele>
        <time>2012-04-26T10:22:53Z</time>
      </trkpt>
      <trkpt lat="46.09766" lon="6.38523">
        <ele>800</ele>
        <time>2012-04-26T10:22:56Z</time>
      </trkpt>
      <trkpt lat="46.09779" lon="6.38537">
        <ele>800</ele>
        <time>2012-04-26T10:22:58Z</time>
      </trkpt>
      <trkpt lat="46.0979" lon="6.3855">
        <ele>800</ele>
        <time>2012-04-26T10:23:00Z</time>
      </trkpt>
      <trkpt lat="46.09799" lon="6.38561">
        <ele>806</ele>
        <time>2012-04-26T10:23:02Z</time>
      </trkpt>
      <trkpt lat="46.09812" lon="6.38576">
        <ele>806</ele>
        <time>2012-04-26T10:23:04Z</time>
      </trkpt>
      <trkpt lat="46.09819" lon="6.38585">
        <ele>806</ele>
        <time>2012-04-26T10:23:05Z</time>
      </trkpt>
      <trkpt lat="46.09831" lon="6.38603">
        <ele>806</ele>
        <time>2012-04-26T10:23:07Z</time>
      </trkpt>
      <trkpt lat="46.09842" lon="6.3862">
        <ele>806</ele>
        <time>2012-04-26T10:23:09Z</time>
      </trkpt>
      <trkpt lat="46.0985" lon="6.38629">
        <ele>806</ele>
        <time>2012-04-26T10:23:10Z</time>
      </trkpt>
      <trkpt lat="46.09863" lon="6.38638">
        <ele>806</ele>
        <time>2012-04-26T10:23:12Z</time>
      </trkpt>
      <trkpt lat="46.09878" lon="6.38646">
        <ele>806</ele>
        <time>2012-04-26T10:23:14Z</time>
      </trkpt>
      <trkpt lat="46.09887" lon="6.3865">
        <ele>806</ele>
        <time>2012-04-26T10:23:15Z</time>
      </trkpt>
      <trkpt lat="46.09899" lon="6.38657">
        <ele>806</ele>
        <time>2012-04-26T10:23:17Z</time>
      </trkpt>
      <trkpt lat="46.09925" lon="6.38676">
        <ele>812</ele>
        <time>2012-04-26T10:23:21Z</time>
      </trkpt>
      <trkpt lat="46.09931" lon="6.38686">
        <ele>818</ele>
        <time>2012-04-26T10:23:23Z</time>
      </trkpt>
      <trkpt lat="46.09942" lon="6.38711">
        <ele>818</ele>
        <time>2012-04-26T10:23:28Z</time>
      </trkpt>
      <trkpt lat="46.09954" lon="6.38729">
        <ele>824</ele>
        <time>2012-04-26T10:23:32Z</time>
      </trkpt>
      <trkpt lat="46.09961" lon="6.3874">
        <ele>824</ele>
        <time>2012-04-26T10:23:34Z</time>
      </trkpt>
      <trkpt lat="46.09977" lon="6.38761">
        <ele>824</ele>
        <time>2012-04-26T10:23:39Z</time>
      </trkpt>
      <trkpt lat="46.09996" lon="6.38775">
        <ele>824</ele>
        <time>2012-04-26T10:23:43Z</time>
      </trkpt>
      <trkpt lat="46.10007" lon="6.38783">
        <ele>824</ele>
        <time>2012-04-26T10:23:45Z</time>
      </trkpt>
      <trkpt lat="46.10017" lon="6.38789">
        <ele>824</ele>
        <time>2012-04-26T10:23:47Z</time>
      </trkpt>
      <trkpt lat="46.10027" lon="6.38803">
        <ele>834</ele>
        <time>2012-04-26T10:23:50Z</time>
      </trkpt>
      <trkpt lat="46.10036" lon="6.38817">
        <ele>834</ele>
        <time>2012-04-26T10:23:52Z</time>
      </trkpt>
      <trkpt lat="46.10044" lon="6.38838">
        <ele>834</ele>
        <time>2012-04-26T10:23:55Z</time>
      </trkpt>
      <trkpt lat="46.1005" lon="6.38854">
        <ele>834</ele>
        <time>2012-04-26T10:23:58Z</time>
      </trkpt>
      <trkpt lat="46.10055" lon="6.38878">
        <ele>840</ele>
        <time>2012-04-26T10:24:04Z</time>
      </trkpt>
      <trkpt lat="46.10064" lon="6.38868">
        <ele>869</ele>
        <time>2012-04-26T10:24:15Z</time>
      </trkpt>
      <trkpt lat="46.10064" lon="6.38852">
        <ele>887</ele>
        <time>2012-04-26T10:24:22Z</time>
      </trkpt>
      <trkpt lat="46.10076" lon="6.38857">
        <ele>895</ele>
        <time>2012-04-26T10:24:32Z</time>
      </trkpt>
      <trkpt lat="46.10085" lon="6.38862">
        <ele>889</ele>
        <time>2012-04-26T10:24:34Z</time>
      </trkpt>
      <trkpt lat="46.10093" lon="6.38869">
        <ele>889</ele>
        <time>2012-04-26T10:24:48Z</time>
      </trkpt>
      <trkpt lat="46.10087" lon="6.38858">
        <ele>911</ele>
        <time>2012-04-26T10:25:03Z</time>
      </trkpt>
      <trkpt lat="46.10082" lon="6.38846">
        <ele>930</ele>
        <time>2012-04-26T10:25:22Z</time>
      </trkpt>
      <trkpt lat="46.10092" lon="6.38851">
        <ele>917</ele>
        <time>2012-04-26T10:25:29Z</time>
      </trkpt>
      <trkpt lat="46.10098" lon="6.38861">
        <ele>911</ele>
        <time>2012-04-26T10:25:48Z</time>
      </trkpt>
      <trkpt lat="46.1009" lon="6.3887">
        <ele>911</ele>
        <time>2012-04-26T10:26:03Z</time>
      </trkpt>
      <trkpt lat="46.10107" lon="6.3888">
        <ele>905</ele>
        <time>2012-04-26T10:26:22Z</time>
      </trkpt>
      <trkpt lat="46.10118" lon="6.38893">
        <ele>914</ele>
        <time>2012-04-26T10:26:27Z</time>
      </trkpt>
      <trkpt lat="46.10131" lon="6.38903">
        <ele>914</ele>
        <time>2012-04-26T10:26:29Z</time>
      </trkpt>
      <trkpt lat="46.10141" lon="6.38915">
        <ele>914</ele>
        <time>2012-04-26T10:26:32Z</time>
      </trkpt>
      <trkpt lat="46.10152" lon="6.38929">
        <ele>926</ele>
        <time>2012-04-26T10:26:34Z</time>
      </trkpt>
      <trkpt lat="46.10157" lon="6.38941">
        <ele>926</ele>
        <time>2012-04-26T10:26:36Z</time>
      </trkpt>
      <trkpt lat="46.10162" lon="6.38953">
        <ele>926</ele>
        <time>2012-04-26T10:26:42Z</time>
      </trkpt>
      <trkpt lat="46.10164" lon="6.38979">
        <ele>908</ele>
        <time>2012-04-26T10:27:14Z</time>
      </trkpt>
      <trkpt lat="46.1017" lon="6.38993">
        <ele>908</ele>
        <time>2012-04-26T10:27:16Z</time>
      </trkpt>
      <trkpt lat="46.10186" lon="6.39041">
        <ele>919</ele>
        <time>2012-04-26T10:27:21Z</time>
      </trkpt>
      <trkpt lat="46.10197" lon="6.39066">
        <ele>919</ele>
        <time>2012-04-26T10:27:24Z</time>
      </trkpt>
      <trkpt lat="46.10213" lon="6.39071">
        <ele>919</ele>
        <time>2012-04-26T10:27:25Z</time>
      </trkpt>
      <trkpt lat="46.10235" lon="6.39101">
        <ele>919</ele>
        <time>2012-04-26T10:27:29Z</time>
      </trkpt>
      <trkpt lat="46.10247" lon="6.39129">
        <ele>919</ele>
        <time>2012-04-26T10:27:32Z</time>
      </trkpt>
      <trkpt lat="46.10249" lon="6.39145">
        <ele>919</ele>
        <time>2012-04-26T10:27:34Z</time>
      </trkpt>
      <trkpt lat="46.10256" lon="6.39157">
        <ele>925</ele>
        <time>2012-04-26T10:27:36Z</time>
      </trkpt>
      <trkpt lat="46.10268" lon="6.39159">
        <ele>925</ele>
        <time>2012-04-26T10:27:38Z</time>
      </trkpt>
      <trkpt lat="46.10279" lon="6.39162">
        <ele>933</ele>
        <time>2012-04-26T10:27:40Z</time>
      </trkpt>
      <trkpt lat="46.10287" lon="6.39168">
        <ele>933</ele>
        <time>2012-04-26T10:27:42Z</time>
      </trkpt>
      <trkpt lat="46.103" lon="6.39165">
        <ele>933</ele>
        <time>2012-04-26T10:27:45Z</time>
      </trkpt>
      <trkpt lat="46.1031" lon="6.39154">
        <ele>933</ele>
        <time>2012-04-26T10:27:47Z</time>
      </trkpt>
      <trkpt lat="46.1032" lon="6.39136">
        <ele>933</ele>
        <time>2012-04-26T10:27:49Z</time>
      </trkpt>
      <trkpt lat="46.10331" lon="6.39115">
        <ele>938</ele>
        <time>2012-04-26T10:27:51Z</time>
      </trkpt>
      <trkpt lat="46.10342" lon="6.391">
        <ele>938</ele>
        <time>2012-04-26T10:27:53Z</time>
      </trkpt>
      <trkpt lat="46.10356" lon="6.39092">
        <ele>938</ele>
        <time>2012-04-26T10:27:55Z</time>
      </trkpt>
      <trkpt lat="46.10365" lon="6.39088">
        <ele>938</ele>
        <time>2012-04-26T10:27:56Z</time>
      </trkpt>
      <trkpt lat="46.10379" lon="6.3908">
        <ele>938</ele>
        <time>2012-04-26T10:27:58Z</time>
      </trkpt>
      <trkpt lat="46.10389" lon="6.39071">
        <ele>938</ele>
        <time>2012-04-26T10:28:00Z</time>
      </trkpt>
      <trkpt lat="46.10394" lon="6.3906">
        <ele>938</ele>
        <time>2012-04-26T10:28:02Z</time>
      </trkpt>
      <trkpt lat="46.10397" lon="6.39046">
        <ele>938</ele>
        <time>2012-04-26T10:28:04Z</time>
      </trkpt>
      <trkpt lat="46.10396" lon="6.3903">
        <ele>938</ele>
        <time>2012-04-26T10:28:07Z</time>
      </trkpt>
      <trkpt lat="46.10398" lon="6.39016">
        <ele>938</ele>
        <time>2012-04-26T10:28:10Z</time>
      </trkpt>
      <trkpt lat="46.104" lon="6.38997">
        <ele>944</ele>
        <time>2012-04-26T10:28:13Z</time>
      </trkpt>
      <trkpt lat="46.10397" lon="6.38978">
        <ele>944</ele>
        <time>2012-04-26T10:28:16Z</time>
      </trkpt>
      <trkpt lat="46.10394" lon="6.38958">
        <ele>944</ele>
        <time>2012-04-26T10:28:20Z</time>
      </trkpt>
      <trkpt lat="46.10401" lon="6.3895">
        <ele>956</ele>
        <time>2012-04-26T10:28:27Z</time>
      </trkpt>
      <trkpt lat="46.10398" lon="6.38938">
        <ele>956</ele>
        <time>2012-04-26T10:28:32Z</time>
      </trkpt>
      <trkpt lat="46.10394" lon="6.38921">
        <ele>956</ele>
        <time>2012-04-26T10:28:35Z</time>
      </trkpt>
      <trkpt lat="46.1039" lon="6.38909">
        <ele>950</ele>
        <time>2012-04-26T10:28:37Z</time>
      </trkpt>
      <trkpt lat="46.10385" lon="6.38895">
        <ele>950</ele>
        <time>2012-04-26T10:28:40Z</time>
      </trkpt>
      <trkpt lat="46.10382" lon="6.38882">
        <ele>950</ele>
        <time>2012-04-26T10:28:43Z</time>
      </trkpt>
      <trkpt lat="46.1038" lon="6.38865">
        <ele>950</ele>
        <time>2012-04-26T10:28:46Z</time>
      </trkpt>
      <trkpt lat="46.10384" lon="6.38852">
        <ele>950</ele>
        <time>2012-04-26T10:28:48Z</time>
      </trkpt>
      <trkpt lat="46.10387" lon="6.38839">
        <ele>950</ele>
        <time>2012-04-26T10:28:50Z</time>
      </trkpt>
      <trkpt lat="46.10389" lon="6.3882">
        <ele>950</ele>
        <time>2012-04-26T10:28:53Z</time>
      </trkpt>
      <trkpt lat="46.1039" lon="6.38801">
        <ele>950</ele>
        <time>2012-04-26T10:28:56Z</time>
      </trkpt>
      <trkpt lat="46.10389" lon="6.38785">
        <ele>950</ele>
        <time>2012-04-26T10:28:59Z</time>
      </trkpt>
      <trkpt lat="46.1039" lon="6.3877">
        <ele>950</ele>
        <time>2012-04-26T10:29:03Z</time>
      </trkpt>
      <trkpt lat="46.10388" lon="6.38753">
        <ele>942</ele>
        <time>2012-04-26T10:29:07Z</time>
      </trkpt>
      <trkpt lat="46.10387" lon="6.38734">
        <ele>942</ele>
        <time>2012-04-26T10:29:10Z</time>
      </trkpt>
      <trkpt lat="46.10393" lon="6.38722">
        <ele>949</ele>
        <time>2012-04-26T10:29:23Z</time>
      </trkpt>
      <trkpt lat="46.10387" lon="6.38711">
        <ele>949</ele>
        <time>2012-04-26T10:29:30Z</time>
      </trkpt>
      <trkpt lat="46.10377" lon="6.38701">
        <ele>949</ele>
        <time>2012-04-26T10:29:33Z</time>
      </trkpt>
      <trkpt lat="46.10374" lon="6.38683">
        <ele>949</ele>
        <time>2012-04-26T10:29:37Z</time>
      </trkpt>
      <trkpt lat="46.10376" lon="6.38667">
        <ele>949</ele>
        <time>2012-04-26T10:29:39Z</time>
      </trkpt>
      <trkpt lat="46.1038" lon="6.38648">
        <ele>944</ele>
        <time>2012-04-26T10:29:41Z</time>
      </trkpt>
      <trkpt lat="46.10385" lon="6.38625">
        <ele>944</ele>
        <time>2012-04-26T10:29:43Z</time>
      </trkpt>
      <trkpt lat="46.1039" lon="6.38609">
        <ele>944</ele>
        <time>2012-04-26T10:29:45Z</time>
      </trkpt>
      <trkpt lat="46.10389" lon="6.38594">
        <ele>944</ele>
        <time>2012-04-26T10:29:47Z</time>
      </trkpt>
      <trkpt lat="46.1039" lon="6.38579">
        <ele>944</ele>
        <time>2012-04-26T10:29:50Z</time>
      </trkpt>
      <trkpt lat="46.10397" lon="6.38562">
        <ele>944</ele>
        <time>2012-04-26T10:29:53Z</time>
      </trkpt>
      <trkpt lat="46.10401" lon="6.38546">
        <ele>944</ele>
        <time>2012-04-26T10:29:55Z</time>
      </trkpt>
      <trkpt lat="46.10402" lon="6.38523">
        <ele>944</ele>
        <time>2012-04-26T10:29:57Z</time>
      </trkpt>
      <trkpt lat="46.10406" lon="6.38499">
        <ele>944</ele>
        <time>2012-04-26T10:29:59Z</time>
      </trkpt>
      <trkpt lat="46.10409" lon="6.38487">
        <ele>944</ele>
        <time>2012-04-26T10:30:00Z</time>
      </trkpt>
      <trkpt lat="46.10418" lon="6.38444">
        <ele>950</ele>
        <time>2012-04-26T10:30:04Z</time>
      </trkpt>
      <trkpt lat="46.10414" lon="6.38433">
        <ele>950</ele>
        <time>2012-04-26T10:30:05Z</time>
      </trkpt>
      <trkpt lat="46.10408" lon="6.38421">
        <ele>950</ele>
        <time>2012-04-26T10:30:07Z</time>
      </trkpt>
      <trkpt lat="46.10405" lon="6.38394">
        <ele>961</ele>
        <time>2012-04-26T10:30:13Z</time>
      </trkpt>
      <trkpt lat="46.10412" lon="6.38383">
        <ele>961</ele>
        <time>2012-04-26T10:30:15Z</time>
      </trkpt>
      <trkpt lat="46.10421" lon="6.38373">
        <ele>961</ele>
        <time>2012-04-26T10:30:18Z</time>
      </trkpt>
      <trkpt lat="46.10427" lon="6.3836">
        <ele>956</ele>
        <time>2012-04-26T10:30:21Z</time>
      </trkpt>
      <trkpt lat="46.10434" lon="6.3835">
        <ele>949</ele>
        <time>2012-04-26T10:30:24Z</time>
      </trkpt>
      <trkpt lat="46.1044" lon="6.38339">
        <ele>949</ele>
        <time>2012-04-26T10:30:26Z</time>
      </trkpt>
      <trkpt lat="46.10448" lon="6.38331">
        <ele>944</ele>
        <time>2012-04-26T10:30:28Z</time>
      </trkpt>
      <trkpt lat="46.10459" lon="6.38323">
        <ele>944</ele>
        <time>2012-04-26T10:30:30Z</time>
      </trkpt>
      <trkpt lat="46.10469" lon="6.38316">
        <ele>944</ele>
        <time>2012-04-26T10:30:32Z</time>
      </trkpt>
      <trkpt lat="46.10475" lon="6.38307">
        <ele>944</ele>
        <time>2012-04-26T10:30:34Z</time>
      </trkpt>
      <trkpt lat="46.10489" lon="6.38288">
        <ele>938</ele>
        <time>2012-04-26T10:30:38Z</time>
      </trkpt>
      <trkpt lat="46.10495" lon="6.38273">
        <ele>933</ele>
        <time>2012-04-26T10:30:41Z</time>
      </trkpt>
      <trkpt lat="46.10503" lon="6.38261">
        <ele>933</ele>
        <time>2012-04-26T10:30:44Z</time>
      </trkpt>
      <trkpt lat="46.10512" lon="6.38253">
        <ele>933</ele>
        <time>2012-04-26T10:30:48Z</time>
      </trkpt>
      <trkpt lat="46.10522" lon="6.38246">
        <ele>933</ele>
        <time>2012-04-26T10:30:52Z</time>
      </trkpt>
      <trkpt lat="46.10529" lon="6.38237">
        <ele>927</ele>
        <time>2012-04-26T10:30:56Z</time>
      </trkpt>
      <trkpt lat="46.1054" lon="6.38225">
        <ele>927</ele>
        <time>2012-04-26T10:30:59Z</time>
      </trkpt>
      <trkpt lat="46.10548" lon="6.38215">
        <ele>927</ele>
        <time>2012-04-26T10:31:01Z</time>
      </trkpt>
      <trkpt lat="46.10559" lon="6.38205">
        <ele>927</ele>
        <time>2012-04-26T10:31:05Z</time>
      </trkpt>
      <trkpt lat="46.10569" lon="6.38207">
        <ele>932</ele>
        <time>2012-04-26T10:31:08Z</time>
      </trkpt>
      <trkpt lat="46.10579" lon="6.38206">
        <ele>932</ele>
        <time>2012-04-26T10:31:14Z</time>
      </trkpt>
      <trkpt lat="46.10589" lon="6.38196">
        <ele>932</ele>
        <time>2012-04-26T10:31:17Z</time>
      </trkpt>
      <trkpt lat="46.10597" lon="6.38187">
        <ele>927</ele>
        <time>2012-04-26T10:31:19Z</time>
      </trkpt>
      <trkpt lat="46.10607" lon="6.38178">
        <ele>927</ele>
        <time>2012-04-26T10:31:22Z</time>
      </trkpt>
      <trkpt lat="46.10617" lon="6.3817">
        <ele>919</ele>
        <time>2012-04-26T10:31:25Z</time>
      </trkpt>
      <trkpt lat="46.10628" lon="6.38163">
        <ele>919</ele>
        <time>2012-04-26T10:31:28Z</time>
      </trkpt>
      <trkpt lat="46.10638" lon="6.38158">
        <ele>910</ele>
        <time>2012-04-26T10:31:30Z</time>
      </trkpt>
      <trkpt lat="46.10645" lon="6.3815">
        <ele>910</ele>
        <time>2012-04-26T10:31:32Z</time>
      </trkpt>
      <trkpt lat="46.10654" lon="6.38139">
        <ele>903</ele>
        <time>2012-04-26T10:31:34Z</time>
      </trkpt>
      <trkpt lat="46.1066" lon="6.38128">
        <ele>903</ele>
        <time>2012-04-26T10:31:36Z</time>
      </trkpt>
      <trkpt lat="46.10665" lon="6.38116">
        <ele>903</ele>
        <time>2012-04-26T10:31:39Z</time>
      </trkpt>
      <trkpt lat="46.10668" lon="6.38097">
        <ele>898</ele>
        <time>2012-04-26T10:31:46Z</time>
      </trkpt>
      <trkpt lat="46.1068" lon="6.38093">
        <ele>898</ele>
        <time>2012-04-26T10:31:52Z</time>
      </trkpt>
      <trkpt lat="46.10678" lon="6.38078">
        <ele>898</ele>
        <time>2012-04-26T10:31:55Z</time>
      </trkpt>
      <trkpt lat="46.10674" lon="6.38061">
        <ele>898</ele>
        <time>2012-04-26T10:31:58Z</time>
      </trkpt>
      <trkpt lat="46.10672" lon="6.38044">
        <ele>890</ele>
        <time>2012-04-26T10:32:01Z</time>
      </trkpt>
      <trkpt lat="46.10687" lon="6.38012">
        <ele>881</ele>
        <time>2012-04-26T10:32:07Z</time>
      </trkpt>
      <trkpt lat="46.10702" lon="6.38022">
        <ele>881</ele>
        <time>2012-04-26T10:32:12Z</time>
      </trkpt>
      <trkpt lat="46.10717" lon="6.38018">
        <ele>881</ele>
        <time>2012-04-26T10:32:13Z</time>
      </trkpt>
      <trkpt lat="46.10733" lon="6.38017">
        <ele>881</ele>
        <time>2012-04-26T10:32:15Z</time>
      </trkpt>
      <trkpt lat="46.10742" lon="6.38012">
        <ele>881</ele>
        <time>2012-04-26T10:32:16Z</time>
      </trkpt>
      <trkpt lat="46.10752" lon="6.38008">
        <ele>881</ele>
        <time>2012-04-26T10:32:18Z</time>
      </trkpt>
      <trkpt lat="46.10765" lon="6.38001">
        <ele>881</ele>
        <time>2012-04-26T10:32:21Z</time>
      </trkpt>
      <trkpt lat="46.10779" lon="6.37992">
        <ele>881</ele>
        <time>2012-04-26T10:32:23Z</time>
      </trkpt>
      <trkpt lat="46.1079" lon="6.37981">
        <ele>881</ele>
        <time>2012-04-26T10:32:25Z</time>
      </trkpt>
      <trkpt lat="46.10796" lon="6.37969">
        <ele>881</ele>
        <time>2012-04-26T10:32:27Z</time>
      </trkpt>
      <trkpt lat="46.10805" lon="6.37962">
        <ele>875</ele>
        <time>2012-04-26T10:32:29Z</time>
      </trkpt>
      <trkpt lat="46.10815" lon="6.37956">
        <ele>875</ele>
        <time>2012-04-26T10:32:32Z</time>
      </trkpt>
      <trkpt lat="46.10825" lon="6.37941">
        <ele>867</ele>
        <time>2012-04-26T10:32:35Z</time>
      </trkpt>
      <trkpt lat="46.1083" lon="6.3793">
        <ele>867</ele>
        <time>2012-04-26T10:32:37Z</time>
      </trkpt>
      <trkpt lat="46.10837" lon="6.37917">
        <ele>867</ele>
        <time>2012-04-26T10:32:39Z</time>
      </trkpt>
      <trkpt lat="46.10846" lon="6.37904">
        <ele>867</ele>
        <time>2012-04-26T10:32:41Z</time>
      </trkpt>
      <trkpt lat="46.10853" lon="6.37889">
        <ele>867</ele>
        <time>2012-04-26T10:32:43Z</time>
      </trkpt>
      <trkpt lat="46.10862" lon="6.37876">
        <ele>867</ele>
        <time>2012-04-26T10:32:45Z</time>
      </trkpt>
      <trkpt lat="46.10867" lon="6.37861">
        <ele>861</ele>
        <time>2012-04-26T10:32:47Z</time>
      </trkpt>
      <trkpt lat="46.10873" lon="6.37847">
        <ele>861</ele>
        <time>2012-04-26T10:32:50Z</time>
      </trkpt>
      <trkpt lat="46.10883" lon="6.37835">
        <ele>861</ele>
        <time>2012-04-26T10:33:11Z</time>
      </trkpt>
      <trkpt lat="46.1089" lon="6.37821">
        <ele>861</ele>
        <time>2012-04-26T10:33:13Z</time>
      </trkpt>
      <trkpt lat="46.109" lon="6.37806">
        <ele>861</ele>
        <time>2012-04-26T10:33:15Z</time>
      </trkpt>
      <trkpt lat="46.10915" lon="6.37796">
        <ele>861</ele>
        <time>2012-04-26T10:33:17Z</time>
      </trkpt>
      <trkpt lat="46.10931" lon="6.3779">
        <ele>861</ele>
        <time>2012-04-26T10:33:19Z</time>
      </trkpt>
      <trkpt lat="46.10948" lon="6.37785">
        <ele>861</ele>
        <time>2012-04-26T10:33:21Z</time>
      </trkpt>
      <trkpt lat="46.10964" lon="6.37779">
        <ele>861</ele>
        <time>2012-04-26T10:33:23Z</time>
      </trkpt>
      <trkpt lat="46.10978" lon="6.37772">
        <ele>854</ele>
        <time>2012-04-26T10:33:25Z</time>
      </trkpt>
      <trkpt lat="46.1099" lon="6.37771">
        <ele>854</ele>
        <time>2012-04-26T10:33:27Z</time>
      </trkpt>
      <trkpt lat="46.11" lon="6.37772">
        <ele>854</ele>
        <time>2012-04-26T10:33:29Z</time>
      </trkpt>
      <trkpt lat="46.11011" lon="6.37775">
        <ele>854</ele>
        <time>2012-04-26T10:33:32Z</time>
      </trkpt>
      <trkpt lat="46.11027" lon="6.37769">
        <ele>848</ele>
        <time>2012-04-26T10:33:39Z</time>
      </trkpt>
      <trkpt lat="46.11037" lon="6.37759">
        <ele>848</ele>
        <time>2012-04-26T10:33:41Z</time>
      </trkpt>
      <trkpt lat="46.11045" lon="6.37753">
        <ele>848</ele>
        <time>2012-04-26T10:33:46Z</time>
      </trkpt>
      <trkpt lat="46.11067" lon="6.37738">
        <ele>842</ele>
        <time>2012-04-26T10:33:50Z</time>
      </trkpt>
      <trkpt lat="46.11073" lon="6.37726">
        <ele>842</ele>
        <time>2012-04-26T10:33:51Z</time>
      </trkpt>
      <trkpt lat="46.11085" lon="6.37706">
        <ele>842</ele>
        <time>2012-04-26T10:33:53Z</time>
      </trkpt>
      <trkpt lat="46.11096" lon="6.37692">
        <ele>842</ele>
        <time>2012-04-26T10:33:55Z</time>
      </trkpt>
      <trkpt lat="46.11105" lon="6.37685">
        <ele>835</ele>
        <time>2012-04-26T10:33:56Z</time>
      </trkpt>
      <trkpt lat="46.11122" lon="6.37674">
        <ele>835</ele>
        <time>2012-04-26T10:33:58Z</time>
      </trkpt>
      <trkpt lat="46.11141" lon="6.37652">
        <ele>835</ele>
        <time>2012-04-26T10:34:01Z</time>
      </trkpt>
      <trkpt lat="46.11147" lon="6.37642">
        <ele>835</ele>
        <time>2012-04-26T10:34:02Z</time>
      </trkpt>
      <trkpt lat="46.1116" lon="6.37633">
        <ele>835</ele>
        <time>2012-04-26T10:34:04Z</time>
      </trkpt>
      <trkpt lat="46.1117" lon="6.37622">
        <ele>835</ele>
        <time>2012-04-26T10:34:06Z</time>
      </trkpt>
      <trkpt lat="46.11179" lon="6.37607">
        <ele>829</ele>
        <time>2012-04-26T10:34:08Z</time>
      </trkpt>
      <trkpt lat="46.1119" lon="6.37591">
        <ele>829</ele>
        <time>2012-04-26T10:34:10Z</time>
      </trkpt>
      <trkpt lat="46.11199" lon="6.37571">
        <ele>829</ele>
        <time>2012-04-26T10:34:12Z</time>
      </trkpt>
      <trkpt lat="46.11208" lon="6.37557">
        <ele>821</ele>
        <time>2012-04-26T10:34:14Z</time>
      </trkpt>
      <trkpt lat="46.11213" lon="6.3754">
        <ele>821</ele>
        <time>2012-04-26T10:34:16Z</time>
      </trkpt>
      <trkpt lat="46.11218" lon="6.37523">
        <ele>814</ele>
        <time>2012-04-26T10:34:19Z</time>
      </trkpt>
      <trkpt lat="46.11225" lon="6.37507">
        <ele>814</ele>
        <time>2012-04-26T10:34:22Z</time>
      </trkpt>
      <trkpt lat="46.1123" lon="6.3749">
        <ele>814</ele>
        <time>2012-04-26T10:34:25Z</time>
      </trkpt>
      <trkpt lat="46.11238" lon="6.37476">
        <ele>814</ele>
        <time>2012-04-26T10:34:34Z</time>
      </trkpt>
      <trkpt lat="46.11248" lon="6.37463">
        <ele>814</ele>
        <time>2012-04-26T10:34:37Z</time>
      </trkpt>
      <trkpt lat="46.11258" lon="6.37459">
        <ele>814</ele>
        <time>2012-04-26T10:34:41Z</time>
      </trkpt>
      <trkpt lat="46.11268" lon="6.37465">
        <ele>814</ele>
        <time>2012-04-26T10:34:43Z</time>
      </trkpt>
      <trkpt lat="46.11278" lon="6.37479">
        <ele>814</ele>
        <time>2012-04-26T10:34:45Z</time>
      </trkpt>
      <trkpt lat="46.11288" lon="6.37498">
        <ele>814</ele>
        <time>2012-04-26T10:34:47Z</time>
      </trkpt>
      <trkpt lat="46.11296" lon="6.37507">
        <ele>814</ele>
        <time>2012-04-26T10:34:48Z</time>
      </trkpt>
      <trkpt lat="46.11305" lon="6.37517">
        <ele>814</ele>
        <time>2012-04-26T10:34:49Z</time>
      </trkpt>
      <trkpt lat="46.11315" lon="6.37528">
        <ele>814</ele>
        <time>2012-04-26T10:34:50Z</time>
      </trkpt>
      <trkpt lat="46.11326" lon="6.37539">
        <ele>814</ele>
        <time>2012-04-26T10:34:51Z</time>
      </trkpt>
      <trkpt lat="46.11337" lon="6.37551">
        <ele>814</ele>
        <time>2012-04-26T10:34:52Z</time>
      </trkpt>
      <trkpt lat="46.11346" lon="6.3756">
        <ele>814</ele>
        <time>2012-04-26T10:34:53Z</time>
      </trkpt>
      <trkpt lat="46.11355" lon="6.37569">
        <ele>814</ele>
        <time>2012-04-26T10:34:54Z</time>
      </trkpt>
      <trkpt lat="46.11362" lon="6.37578">
        <ele>814</ele>
        <time>2012-04-26T10:34:55Z</time>
      </trkpt>
      <trkpt lat="46.1137" lon="6.37587">
        <ele>814</ele>
        <time>2012-04-26T10:34:56Z</time>
      </trkpt>
      <trkpt lat="46.11378" lon="6.37595">
        <ele>814</ele>
        <time>2012-04-26T10:34:57Z</time>
      </trkpt>
      <trkpt lat="46.11392" lon="6.37607">
        <ele>814</ele>
        <time>2012-04-26T10:34:59Z</time>
      </trkpt>
      <trkpt lat="46.11408" lon="6.37619">
        <ele>814</ele>
        <time>2012-04-26T10:35:01Z</time>
      </trkpt>
      <trkpt lat="46.11416" lon="6.37627">
        <ele>814</ele>
        <time>2012-04-26T10:35:02Z</time>
      </trkpt>
      <trkpt lat="46.11465" lon="6.37665">
        <ele>814</ele>
        <time>2012-04-26T10:35:08Z</time>
      </trkpt>
      <trkpt lat="46.11473" lon="6.37654">
        <ele>806</ele>
        <time>2012-04-26T10:35:11Z</time>
      </trkpt>
      <trkpt lat="46.11488" lon="6.37651">
        <ele>806</ele>
        <time>2012-04-26T10:35:13Z</time>
      </trkpt>
      <trkpt lat="46.11501" lon="6.37654">
        <ele>806</ele>
        <time>2012-04-26T10:35:15Z</time>
      </trkpt>
      <trkpt lat="46.11511" lon="6.3766">
        <ele>806</ele>
        <time>2012-04-26T10:35:17Z</time>
      </trkpt>
      <trkpt lat="46.11518" lon="6.37673">
        <ele>799</ele>
        <time>2012-04-26T10:35:19Z</time>
      </trkpt>
      <trkpt lat="46.11528" lon="6.37682">
        <ele>799</ele>
        <time>2012-04-26T10:35:22Z</time>
      </trkpt>
      <trkpt lat="46.1154" lon="6.37668">
        <ele>799</ele>
        <time>2012-04-26T10:35:25Z</time>
      </trkpt>
      <trkpt lat="46.11545" lon="6.37651">
        <ele>799</ele>
        <time>2012-04-26T10:35:27Z</time>
      </trkpt>
      <trkpt lat="46.11548" lon="6.37633">
        <ele>799</ele>
        <time>2012-04-26T10:35:29Z</time>
      </trkpt>
      <trkpt lat="46.11549" lon="6.37613">
        <ele>799</ele>
        <time>2012-04-26T10:35:31Z</time>
      </trkpt>
      <trkpt lat="46.11552" lon="6.37595">
        <ele>799</ele>
        <time>2012-04-26T10:35:33Z</time>
      </trkpt>
      <trkpt lat="46.11552" lon="6.37575">
        <ele>791</ele>
        <time>2012-04-26T10:35:35Z</time>
      </trkpt>
      <trkpt lat="46.11551" lon="6.37554">
        <ele>791</ele>
        <time>2012-04-26T10:35:37Z</time>
      </trkpt>
      <trkpt lat="46.11555" lon="6.37536">
        <ele>791</ele>
        <time>2012-04-26T10:35:39Z</time>
      </trkpt>
      <trkpt lat="46.11563" lon="6.37522">
        <ele>784</ele>
        <time>2012-04-26T10:35:41Z</time>
      </trkpt>
      <trkpt lat="46.11571" lon="6.37504">
        <ele>784</ele>
        <time>2012-04-26T10:35:43Z</time>
      </trkpt>
      <trkpt lat="46.1158" lon="6.37485">
        <ele>779</ele>
        <time>2012-04-26T10:35:45Z</time>
      </trkpt>
      <trkpt lat="46.1159" lon="6.37435">
        <ele>779</ele>
        <time>2012-04-26T10:35:50Z</time>
      </trkpt>
      <trkpt lat="46.11583" lon="6.3741">
        <ele>769</ele>
        <time>2012-04-26T10:35:52Z</time>
      </trkpt>
      <trkpt lat="46.1158" lon="6.37391">
        <ele>769</ele>
        <time>2012-04-26T10:35:54Z</time>
      </trkpt>
      <trkpt lat="46.11579" lon="6.37376">
        <ele>769</ele>
        <time>2012-04-26T10:35:57Z</time>
      </trkpt>
      <trkpt lat="46.11589" lon="6.37369">
        <ele>769</ele>
        <time>2012-04-26T10:36:14Z</time>
      </trkpt>
      <trkpt lat="46.11602" lon="6.37358">
        <ele>769</ele>
        <time>2012-04-26T10:36:16Z</time>
      </trkpt>
      <trkpt lat="46.11618" lon="6.37343">
        <ele>769</ele>
        <time>2012-04-26T10:36:18Z</time>
      </trkpt>
      <trkpt lat="46.11627" lon="6.37335">
        <ele>769</ele>
        <time>2012-04-26T10:36:19Z</time>
      </trkpt>
      <trkpt lat="46.11636" lon="6.37327">
        <ele>769</ele>
        <time>2012-04-26T10:36:20Z</time>
      </trkpt>
      <trkpt lat="46.11644" lon="6.37319">
        <ele>769</ele>
        <time>2012-04-26T10:36:21Z</time>
      </trkpt>
      <trkpt lat="46.11655" lon="6.37312">
        <ele>769</ele>
        <time>2012-04-26T10:36:22Z</time>
      </trkpt>
      <trkpt lat="46.11666" lon="6.37306">
        <ele>769</ele>
        <time>2012-04-26T10:36:23Z</time>
      </trkpt>
      <trkpt lat="46.11678" lon="6.37302">
        <ele>764</ele>
        <time>2012-04-26T10:36:24Z</time>
      </trkpt>
      <trkpt lat="46.11689" lon="6.37297">
        <ele>764</ele>
        <time>2012-04-26T10:36:25Z</time>
      </trkpt>
      <trkpt lat="46.11699" lon="6.37292">
        <ele>764</ele>
        <time>2012-04-26T10:36:26Z</time>
      </trkpt>
      <trkpt lat="46.11712" lon="6.37286">
        <ele>764</ele>
        <time>2012-04-26T10:36:27Z</time>
      </trkpt>
      <trkpt lat="46.11724" lon="6.37282">
        <ele>758</ele>
        <time>2012-04-26T10:36:28Z</time>
      </trkpt>
      <trkpt lat="46.11737" lon="6.37277">
        <ele>758</ele>
        <time>2012-04-26T10:36:29Z</time>
      </trkpt>
      <trkpt lat="46.11749" lon="6.37271">
        <ele>758</ele>
        <time>2012-04-26T10:36:30Z</time>
      </trkpt>
      <trkpt lat="46.1176" lon="6.37267">
        <ele>758</ele>
        <time>2012-04-26T10:36:31Z</time>
      </trkpt>
      <trkpt lat="46.1177" lon="6.37262">
        <ele>753</ele>
        <time>2012-04-26T10:36:32Z</time>
      </trkpt>
      <trkpt lat="46.11779" lon="6.37257">
        <ele>753</ele>
        <time>2012-04-26T10:36:33Z</time>
      </trkpt>
      <trkpt lat="46.11789" lon="6.37253">
        <ele>753</ele>
        <time>2012-04-26T10:36:34Z</time>
      </trkpt>
      <trkpt lat="46.11801" lon="6.37252">
        <ele>748</ele>
        <time>2012-04-26T10:36:35Z</time>
      </trkpt>
      <trkpt lat="46.11812" lon="6.37254">
        <ele>748</ele>
        <time>2012-04-26T10:36:36Z</time>
      </trkpt>
      <trkpt lat="46.11823" lon="6.3726">
        <ele>748</ele>
        <time>2012-04-26T10:36:37Z</time>
      </trkpt>
      <trkpt lat="46.11834" lon="6.37266">
        <ele>748</ele>
        <time>2012-04-26T10:36:38Z</time>
      </trkpt>
      <trkpt lat="46.11846" lon="6.37273">
        <ele>748</ele>
        <time>2012-04-26T10:36:39Z</time>
      </trkpt>
      <trkpt lat="46.11859" lon="6.37278">
        <ele>748</ele>
        <time>2012-04-26T10:36:40Z</time>
      </trkpt>
      <trkpt lat="46.11871" lon="6.37283">
        <ele>742</ele>
        <time>2012-04-26T10:36:41Z</time>
      </trkpt>
      <trkpt lat="46.11882" lon="6.37285">
        <ele>742</ele>
        <time>2012-04-26T10:36:42Z</time>
      </trkpt>
      <trkpt lat="46.11894" lon="6.37286">
        <ele>742</ele>
        <time>2012-04-26T10:36:43Z</time>
      </trkpt>
      <trkpt lat="46.11904" lon="6.37286">
        <ele>742</ele>
        <time>2012-04-26T10:36:44Z</time>
      </trkpt>
      <trkpt lat="46.11913" lon="6.37286">
        <ele>742</ele>
        <time>2012-04-26T10:36:45Z</time>
      </trkpt>
      <trkpt lat="46.11927" lon="6.37283">
        <ele>742</ele>
        <time>2012-04-26T10:36:47Z</time>
      </trkpt>
      <trkpt lat="46.11936" lon="6.37277">
        <ele>742</ele>
        <time>2012-04-26T10:36:50Z</time>
      </trkpt>
      <trkpt lat="46.11946" lon="6.37272">
        <ele>742</ele>
        <time>2012-04-26T10:36:56Z</time>
      </trkpt>
      <trkpt lat="46.11962" lon="6.37265">
        <ele>742</ele>
        <time>2012-04-26T10:36:58Z</time>
      </trkpt>
      <trkpt lat="46.11973" lon="6.37264">
        <ele>742</ele>
        <time>2012-04-26T10:36:59Z</time>
      </trkpt>
      <trkpt lat="46.11984" lon="6.37264">
        <ele>742</ele>
        <time>2012-04-26T10:37:00Z</time>
      </trkpt>
      <trkpt lat="46.11996" lon="6.37267">
        <ele>734</ele>
        <time>2012-04-26T10:37:01Z</time>
      </trkpt>
      <trkpt lat="46.12009" lon="6.37268">
        <ele>734</ele>
        <time>2012-04-26T10:37:02Z</time>
      </trkpt>
      <trkpt lat="46.1202" lon="6.37269">
        <ele>734</ele>
        <time>2012-04-26T10:37:03Z</time>
      </trkpt>
      <trkpt lat="46.12032" lon="6.37268">
        <ele>734</ele>
        <time>2012-04-26T10:37:04Z</time>
      </trkpt>
      <trkpt lat="46.12044" lon="6.37264">
        <ele>728</ele>
        <time>2012-04-26T10:37:05Z</time>
      </trkpt>
      <trkpt lat="46.12058" lon="6.37258">
        <ele>728</ele>
        <time>2012-04-26T10:37:06Z</time>
      </trkpt>
      <trkpt lat="46.1207" lon="6.3725">
        <ele>728</ele>
        <time>2012-04-26T10:37:07Z</time>
      </trkpt>
      <trkpt lat="46.12082" lon="6.37239">
        <ele>728</ele>
        <time>2012-04-26T10:37:08Z</time>
      </trkpt>
      <trkpt lat="46.12093" lon="6.37228">
        <ele>728</ele>
        <time>2012-04-26T10:37:09Z</time>
      </trkpt>
      <trkpt lat="46.12102" lon="6.37217">
        <ele>728</ele>
        <time>2012-04-26T10:37:10Z</time>
      </trkpt>
      <trkpt lat="46.12112" lon="6.37208">
        <ele>728</ele>
        <time>2012-04-26T10:37:11Z</time>
      </trkpt>
      <trkpt lat="46.1212" lon="6.37199">
        <ele>728</ele>
        <time>2012-04-26T10:37:12Z</time>
      </trkpt>
      <trkpt lat="46.12133" lon="6.37185">
        <ele>728</ele>
        <time>2012-04-26T10:37:14Z</time>
      </trkpt>
      <trkpt lat="46.1214" lon="6.37176">
        <ele>728</ele>
        <time>2012-04-26T10:37:16Z</time>
      </trkpt>
      <trkpt lat="46.1215" lon="6.37171">
        <ele>728</ele>
        <time>2012-04-26T10:37:19Z</time>
      </trkpt>
      <trkpt lat="46.12158" lon="6.3716">
        <ele>728</ele>
        <time>2012-04-26T10:37:27Z</time>
      </trkpt>
      <trkpt lat="46.12165" lon="6.37152">
        <ele>728</ele>
        <time>2012-04-26T10:37:29Z</time>
      </trkpt>
      <trkpt lat="46.12179" lon="6.3714">
        <ele>728</ele>
        <time>2012-04-26T10:37:31Z</time>
      </trkpt>
      <trkpt lat="46.12194" lon="6.37132">
        <ele>728</ele>
        <time>2012-04-26T10:37:33Z</time>
      </trkpt>
      <trkpt lat="46.12209" lon="6.37132">
        <ele>728</ele>
        <time>2012-04-26T10:37:35Z</time>
      </trkpt>
      <trkpt lat="46.12224" lon="6.37137">
        <ele>728</ele>
        <time>2012-04-26T10:37:37Z</time>
      </trkpt>
      <trkpt lat="46.12239" lon="6.37147">
        <ele>728</ele>
        <time>2012-04-26T10:37:39Z</time>
      </trkpt>
      <trkpt lat="46.12247" lon="6.37154">
        <ele>728</ele>
        <time>2012-04-26T10:37:40Z</time>
      </trkpt>
      <trkpt lat="46.12257" lon="6.37161">
        <ele>728</ele>
        <time>2012-04-26T10:37:41Z</time>
      </trkpt>
      <trkpt lat="46.12267" lon="6.37167">
        <ele>728</ele>
        <time>2012-04-26T10:37:42Z</time>
      </trkpt>
      <trkpt lat="46.12283" lon="6.37175">
        <ele>728</ele>
        <time>2012-04-26T10:37:44Z</time>
      </trkpt>
      <trkpt lat="46.12296" lon="6.37178">
        <ele>728</ele>
        <time>2012-04-26T10:37:46Z</time>
      </trkpt>
      <trkpt lat="46.1231" lon="6.37182">
        <ele>728</ele>
        <time>2012-04-26T10:37:48Z</time>
      </trkpt>
      <trkpt lat="46.12324" lon="6.37189">
        <ele>728</ele>
        <time>2012-04-26T10:37:50Z</time>
      </trkpt>
      <trkpt lat="46.12337" lon="6.37195">
        <ele>728</ele>
        <time>2012-04-26T10:37:52Z</time>
      </trkpt>
      <trkpt lat="46.1235" lon="6.37201">
        <ele>728</ele>
        <time>2012-04-26T10:37:54Z</time>
      </trkpt>
      <trkpt lat="46.12365" lon="6.37207">
        <ele>728</ele>
        <time>2012-04-26T10:37:56Z</time>
      </trkpt>
      <trkpt lat="46.12379" lon="6.37214">
        <ele>728</ele>
        <time>2012-04-26T10:37:58Z</time>
      </trkpt>
      <trkpt lat="46.12395" lon="6.3722">
        <ele>728</ele>
        <time>2012-04-26T10:38:00Z</time>
      </trkpt>
      <trkpt lat="46.12405" lon="6.37221">
        <ele>728</ele>
        <time>2012-04-26T10:38:01Z</time>
      </trkpt>
      <trkpt lat="46.12415" lon="6.37223">
        <ele>728</ele>
        <time>2012-04-26T10:38:02Z</time>
      </trkpt>
      <trkpt lat="46.12426" lon="6.37225">
        <ele>722</ele>
        <time>2012-04-26T10:38:03Z</time>
      </trkpt>
      <trkpt lat="46.12435" lon="6.37231">
        <ele>722</ele>
        <time>2012-04-26T10:38:04Z</time>
      </trkpt>
      <trkpt lat="46.12444" lon="6.37234">
        <ele>722</ele>
        <time>2012-04-26T10:38:05Z</time>
      </trkpt>
      <trkpt lat="46.12453" lon="6.37238">
        <ele>722</ele>
        <time>2012-04-26T10:38:06Z</time>
      </trkpt>
      <trkpt lat="46.12462" lon="6.37242">
        <ele>722</ele>
        <time>2012-04-26T10:38:07Z</time>
      </trkpt>
      <trkpt lat="46.12477" lon="6.37245">
        <ele>722</ele>
        <time>2012-04-26T10:38:09Z</time>
      </trkpt>
      <trkpt lat="46.12492" lon="6.37245">
        <ele>722</ele>
        <time>2012-04-26T10:38:11Z</time>
      </trkpt>
      <trkpt lat="46.12504" lon="6.37252">
        <ele>722</ele>
        <time>2012-04-26T10:38:13Z</time>
      </trkpt>
      <trkpt lat="46.12518" lon="6.37266">
        <ele>722</ele>
        <time>2012-04-26T10:38:15Z</time>
      </trkpt>
      <trkpt lat="46.12526" lon="6.37273">
        <ele>722</ele>
        <time>2012-04-26T10:38:16Z</time>
      </trkpt>
      <trkpt lat="46.12536" lon="6.37279">
        <ele>728</ele>
        <time>2012-04-26T10:38:17Z</time>
      </trkpt>
      <trkpt lat="46.12546" lon="6.37286">
        <ele>728</ele>
        <time>2012-04-26T10:38:18Z</time>
      </trkpt>
      <trkpt lat="46.12557" lon="6.37293">
        <ele>728</ele>
        <time>2012-04-26T10:38:19Z</time>
      </trkpt>
      <trkpt lat="46.12569" lon="6.37299">
        <ele>728</ele>
        <time>2012-04-26T10:38:20Z</time>
      </trkpt>
      <trkpt lat="46.1258" lon="6.37305">
        <ele>728</ele>
        <time>2012-04-26T10:38:21Z</time>
      </trkpt>
      <trkpt lat="46.12591" lon="6.3731">
        <ele>728</ele>
        <time>2012-04-26T10:38:22Z</time>
      </trkpt>
      <trkpt lat="46.12601" lon="6.37316">
        <ele>728</ele>
        <time>2012-04-26T10:38:23Z</time>
      </trkpt>
      <trkpt lat="46.1261" lon="6.37321">
        <ele>728</ele>
        <time>2012-04-26T10:38:24Z</time>
      </trkpt>
      <trkpt lat="46.12619" lon="6.37324">
        <ele>728</ele>
        <time>2012-04-26T10:38:25Z</time>
      </trkpt>
      <trkpt lat="46.12629" lon="6.37327">
        <ele>728</ele>
        <time>2012-04-26T10:38:26Z</time>
      </trkpt>
      <trkpt lat="46.1264" lon="6.37329">
        <ele>722</ele>
        <time>2012-04-26T10:38:27Z</time>
      </trkpt>
      <trkpt lat="46.12651" lon="6.3733">
        <ele>722</ele>
        <time>2012-04-26T10:38:28Z</time>
      </trkpt>
      <trkpt lat="46.12661" lon="6.37329">
        <ele>717</ele>
        <time>2012-04-26T10:38:29Z</time>
      </trkpt>
      <trkpt lat="46.12671" lon="6.37329">
        <ele>717</ele>
        <time>2012-04-26T10:38:30Z</time>
      </trkpt>
      <trkpt lat="46.12681" lon="6.37328">
        <ele>717</ele>
        <time>2012-04-26T10:38:31Z</time>
      </trkpt>
      <trkpt lat="46.12693" lon="6.37327">
        <ele>717</ele>
        <time>2012-04-26T10:38:32Z</time>
      </trkpt>
      <trkpt lat="46.12704" lon="6.37326">
        <ele>717</ele>
        <time>2012-04-26T10:38:33Z</time>
      </trkpt>
      <trkpt lat="46.12716" lon="6.37325">
        <ele>712</ele>
        <time>2012-04-26T10:38:34Z</time>
      </trkpt>
      <trkpt lat="46.12726" lon="6.37324">
        <ele>712</ele>
        <time>2012-04-26T10:38:35Z</time>
      </trkpt>
      <trkpt lat="46.12736" lon="6.37323">
        <ele>712</ele>
        <time>2012-04-26T10:38:36Z</time>
      </trkpt>
      <trkpt lat="46.12745" lon="6.37322">
        <ele>712</ele>
        <time>2012-04-26T10:38:37Z</time>
      </trkpt>
      <trkpt lat="46.12755" lon="6.37319">
        <ele>712</ele>
        <time>2012-04-26T10:38:38Z</time>
      </trkpt>
      <trkpt lat="46.12764" lon="6.37313">
        <ele>712</ele>
        <time>2012-04-26T10:38:39Z</time>
      </trkpt>
      <trkpt lat="46.12774" lon="6.37305">
        <ele>712</ele>
        <time>2012-04-26T10:38:40Z</time>
      </trkpt>
      <trkpt lat="46.12783" lon="6.37298">
        <ele>712</ele>
        <time>2012-04-26T10:38:41Z</time>
      </trkpt>
      <trkpt lat="46.12791" lon="6.37291">
        <ele>712</ele>
        <time>2012-04-26T10:38:42Z</time>
      </trkpt>
      <trkpt lat="46.12806" lon="6.37284">
        <ele>712</ele>
        <time>2012-04-26T10:38:44Z</time>
      </trkpt>
      <trkpt lat="46.12814" lon="6.37279">
        <ele>712</ele>
        <time>2012-04-26T10:38:45Z</time>
      </trkpt>
      <trkpt lat="46.12831" lon="6.37272">
        <ele>712</ele>
        <time>2012-04-26T10:38:47Z</time>
      </trkpt>
      <trkpt lat="46.12848" lon="6.37266">
        <ele>712</ele>
        <time>2012-04-26T10:38:49Z</time>
      </trkpt>
      <trkpt lat="46.12861" lon="6.37262">
        <ele>717</ele>
        <time>2012-04-26T10:38:51Z</time>
      </trkpt>
      <trkpt lat="46.12874" lon="6.37259">
        <ele>717</ele>
        <time>2012-04-26T10:38:53Z</time>
      </trkpt>
      <trkpt lat="46.12884" lon="6.37257">
        <ele>717</ele>
        <time>2012-04-26T10:38:55Z</time>
      </trkpt>
      <trkpt lat="46.12897" lon="6.37255">
        <ele>717</ele>
        <time>2012-04-26T10:38:57Z</time>
      </trkpt>
      <trkpt lat="46.12929" lon="6.37254">
        <ele>717</ele>
        <time>2012-04-26T10:39:01Z</time>
      </trkpt>
      <trkpt lat="46.12944" lon="6.3725">
        <ele>717</ele>
        <time>2012-04-26T10:39:03Z</time>
      </trkpt>
      <trkpt lat="46.12959" lon="6.3724">
        <ele>717</ele>
        <time>2012-04-26T10:39:05Z</time>
      </trkpt>
      <trkpt lat="46.12972" lon="6.37229">
        <ele>717</ele>
        <time>2012-04-26T10:39:07Z</time>
      </trkpt>
      <trkpt lat="46.12984" lon="6.37224">
        <ele>717</ele>
        <time>2012-04-26T10:39:09Z</time>
      </trkpt>
      <trkpt lat="46.12997" lon="6.37229">
        <ele>717</ele>
        <time>2012-04-26T10:39:12Z</time>
      </trkpt>
      <trkpt lat="46.13007" lon="6.37245">
        <ele>712</ele>
        <time>2012-04-26T10:39:14Z</time>
      </trkpt>
      <trkpt lat="46.13016" lon="6.37266">
        <ele>712</ele>
        <time>2012-04-26T10:39:16Z</time>
      </trkpt>
      <trkpt lat="46.13027" lon="6.37287">
        <ele>712</ele>
        <time>2012-04-26T10:39:18Z</time>
      </trkpt>
      <trkpt lat="46.13037" lon="6.3731">
        <ele>712</ele>
        <time>2012-04-26T10:39:20Z</time>
      </trkpt>
      <trkpt lat="46.13043" lon="6.37322">
        <ele>712</ele>
        <time>2012-04-26T10:39:21Z</time>
      </trkpt>
      <trkpt lat="46.13049" lon="6.37333">
        <ele>712</ele>
        <time>2012-04-26T10:39:22Z</time>
      </trkpt>
      <trkpt lat="46.13056" lon="6.37346">
        <ele>712</ele>
        <time>2012-04-26T10:39:23Z</time>
      </trkpt>
      <trkpt lat="46.1306" lon="6.37357">
        <ele>712</ele>
        <time>2012-04-26T10:39:24Z</time>
      </trkpt>
      <trkpt lat="46.13065" lon="6.37369">
        <ele>712</ele>
        <time>2012-04-26T10:39:25Z</time>
      </trkpt>
      <trkpt lat="46.1307" lon="6.37383">
        <ele>707</ele>
        <time>2012-04-26T10:39:26Z</time>
      </trkpt>
      <trkpt lat="46.13075" lon="6.37398">
        <ele>707</ele>
        <time>2012-04-26T10:39:27Z</time>
      </trkpt>
      <trkpt lat="46.13079" lon="6.37412">
        <ele>707</ele>
        <time>2012-04-26T10:39:28Z</time>
      </trkpt>
      <trkpt lat="46.13084" lon="6.37425">
        <ele>707</ele>
        <time>2012-04-26T10:39:29Z</time>
      </trkpt>
      <trkpt lat="46.13089" lon="6.37436">
        <ele>707</ele>
        <time>2012-04-26T10:39:30Z</time>
      </trkpt>
      <trkpt lat="46.13095" lon="6.37445">
        <ele>701</ele>
        <time>2012-04-26T10:39:31Z</time>
      </trkpt>
      <trkpt lat="46.13102" lon="6.37454">
        <ele>701</ele>
        <time>2012-04-26T10:39:32Z</time>
      </trkpt>
      <trkpt lat="46.13116" lon="6.3747">
        <ele>701</ele>
        <time>2012-04-26T10:39:34Z</time>
      </trkpt>
      <trkpt lat="46.13124" lon="6.37477">
        <ele>701</ele>
        <time>2012-04-26T10:39:35Z</time>
      </trkpt>
      <trkpt lat="46.13137" lon="6.37493">
        <ele>701</ele>
        <time>2012-04-26T10:39:37Z</time>
      </trkpt>
      <trkpt lat="46.13144" lon="6.37513">
        <ele>695</ele>
        <time>2012-04-26T10:39:39Z</time>
      </trkpt>
      <trkpt lat="46.13151" lon="6.37531">
        <ele>695</ele>
        <time>2012-04-26T10:39:41Z</time>
      </trkpt>
      <trkpt lat="46.13155" lon="6.37545">
        <ele>695</ele>
        <time>2012-04-26T10:39:43Z</time>
      </trkpt>
      <trkpt lat="46.13153" lon="6.37559">
        <ele>689</ele>
        <time>2012-04-26T10:39:48Z</time>
      </trkpt>
      <trkpt lat="46.13146" lon="6.37569">
        <ele>689</ele>
        <time>2012-04-26T10:39:51Z</time>
      </trkpt>
      <trkpt lat="46.1315" lon="6.37584">
        <ele>689</ele>
        <time>2012-04-26T10:39:54Z</time>
      </trkpt>
      <trkpt lat="46.13161" lon="6.37601">
        <ele>689</ele>
        <time>2012-04-26T10:39:56Z</time>
      </trkpt>
      <trkpt lat="46.13169" lon="6.37625">
        <ele>689</ele>
        <time>2012-04-26T10:39:58Z</time>
      </trkpt>
      <trkpt lat="46.13172" lon="6.37639">
        <ele>689</ele>
        <time>2012-04-26T10:39:59Z</time>
      </trkpt>
      <trkpt lat="46.13175" lon="6.37654">
        <ele>689</ele>
        <time>2012-04-26T10:40:00Z</time>
      </trkpt>
      <trkpt lat="46.13178" lon="6.3767">
        <ele>689</ele>
        <time>2012-04-26T10:40:01Z</time>
      </trkpt>
      <trkpt lat="46.13182" lon="6.37687">
        <ele>689</ele>
        <time>2012-04-26T10:40:02Z</time>
      </trkpt>
      <trkpt lat="46.13187" lon="6.37703">
        <ele>689</ele>
        <time>2012-04-26T10:40:03Z</time>
      </trkpt>
      <trkpt lat="46.13191" lon="6.37719">
        <ele>689</ele>
        <time>2012-04-26T10:40:04Z</time>
      </trkpt>
      <trkpt lat="46.13194" lon="6.37732">
        <ele>689</ele>
        <time>2012-04-26T10:40:05Z</time>
      </trkpt>
      <trkpt lat="46.13197" lon="6.37746">
        <ele>689</ele>
        <time>2012-04-26T10:40:06Z</time>
      </trkpt>
      <trkpt lat="46.13199" lon="6.37758">
        <ele>689</ele>
        <time>2012-04-26T10:40:07Z</time>
      </trkpt>
      <trkpt lat="46.132" lon="6.37772">
        <ele>689</ele>
        <time>2012-04-26T10:40:08Z</time>
      </trkpt>
      <trkpt lat="46.13202" lon="6.37786">
        <ele>689</ele>
        <time>2012-04-26T10:40:09Z</time>
      </trkpt>
      <trkpt lat="46.13201" lon="6.37799">
        <ele>689</ele>
        <time>2012-04-26T10:40:10Z</time>
      </trkpt>
      <trkpt lat="46.13199" lon="6.37814">
        <ele>689</ele>
        <time>2012-04-26T10:40:11Z</time>
      </trkpt>
      <trkpt lat="46.13197" lon="6.37828">
        <ele>689</ele>
        <time>2012-04-26T10:40:12Z</time>
      </trkpt>
      <trkpt lat="46.13195" lon="6.37869">
        <ele>689</ele>
        <time>2012-04-26T10:40:15Z</time>
      </trkpt>
      <trkpt lat="46.13196" lon="6.37882">
        <ele>689</ele>
        <time>2012-04-26T10:40:16Z</time>
      </trkpt>
      <trkpt lat="46.132" lon="6.37896">
        <ele>689</ele>
        <time>2012-04-26T10:40:17Z</time>
      </trkpt>
      <trkpt lat="46.13207" lon="6.37911">
        <ele>689</ele>
        <time>2012-04-26T10:40:18Z</time>
      </trkpt>
      <trkpt lat="46.13211" lon="6.37922">
        <ele>683</ele>
        <time>2012-04-26T10:40:19Z</time>
      </trkpt>
      <trkpt lat="46.13217" lon="6.37935">
        <ele>683</ele>
        <time>2012-04-26T10:40:20Z</time>
      </trkpt>
      <trkpt lat="46.13223" lon="6.37956">
        <ele>683</ele>
        <time>2012-04-26T10:40:22Z</time>
      </trkpt>
      <trkpt lat="46.13226" lon="6.37976">
        <ele>683</ele>
        <time>2012-04-26T10:40:24Z</time>
      </trkpt>
      <trkpt lat="46.13225" lon="6.37996">
        <ele>676</ele>
        <time>2012-04-26T10:40:26Z</time>
      </trkpt>
      <trkpt lat="46.13215" lon="6.38014">
        <ele>676</ele>
        <time>2012-04-26T10:40:28Z</time>
      </trkpt>
      <trkpt lat="46.13202" lon="6.38025">
        <ele>676</ele>
        <time>2012-04-26T10:40:30Z</time>
      </trkpt>
      <trkpt lat="46.13185" lon="6.38033">
        <ele>676</ele>
        <time>2012-04-26T10:40:32Z</time>
      </trkpt>
      <trkpt lat="46.13175" lon="6.38034">
        <ele>676</ele>
        <time>2012-04-26T10:40:33Z</time>
      </trkpt>
      <trkpt lat="46.13165" lon="6.38037">
        <ele>676</ele>
        <time>2012-04-26T10:40:34Z</time>
      </trkpt>
      <trkpt lat="46.13155" lon="6.38041">
        <ele>668</ele>
        <time>2012-04-26T10:40:35Z</time>
      </trkpt>
      <trkpt lat="46.1314" lon="6.38056">
        <ele>668</ele>
        <time>2012-04-26T10:40:37Z</time>
      </trkpt>
      <trkpt lat="46.13129" lon="6.38075">
        <ele>661</ele>
        <time>2012-04-26T10:40:39Z</time>
      </trkpt>
      <trkpt lat="46.13122" lon="6.3809">
        <ele>661</ele>
        <time>2012-04-26T10:40:41Z</time>
      </trkpt>
      <trkpt lat="46.13119" lon="6.38107">
        <ele>668</ele>
        <time>2012-04-26T10:41:13Z</time>
      </trkpt>
      <trkpt lat="46.13113" lon="6.3812">
        <ele>668</ele>
        <time>2012-04-26T10:41:15Z</time>
      </trkpt>
      <trkpt lat="46.13104" lon="6.3814">
        <ele>668</ele>
        <time>2012-04-26T10:41:17Z</time>
      </trkpt>
      <trkpt lat="46.13095" lon="6.3816">
        <ele>668</ele>
        <time>2012-04-26T10:41:19Z</time>
      </trkpt>
      <trkpt lat="46.13088" lon="6.38177">
        <ele>662</ele>
        <time>2012-04-26T10:41:21Z</time>
      </trkpt>
      <trkpt lat="46.13082" lon="6.38189">
        <ele>662</ele>
        <time>2012-04-26T10:41:23Z</time>
      </trkpt>
      <trkpt lat="46.13085" lon="6.38206">
        <ele>662</ele>
        <time>2012-04-26T10:41:26Z</time>
      </trkpt>
      <trkpt lat="46.13099" lon="6.38223">
        <ele>662</ele>
        <time>2012-04-26T10:41:28Z</time>
      </trkpt>
      <trkpt lat="46.13111" lon="6.38236">
        <ele>662</ele>
        <time>2012-04-26T10:41:30Z</time>
      </trkpt>
      <trkpt lat="46.13121" lon="6.38244">
        <ele>662</ele>
        <time>2012-04-26T10:41:32Z</time>
      </trkpt>
      <trkpt lat="46.13129" lon="6.38253">
        <ele>656</ele>
        <time>2012-04-26T10:41:34Z</time>
      </trkpt>
      <trkpt lat="46.13139" lon="6.38266">
        <ele>650</ele>
        <time>2012-04-26T10:41:36Z</time>
      </trkpt>
      <trkpt lat="46.13149" lon="6.38279">
        <ele>644</ele>
        <time>2012-04-26T10:41:38Z</time>
      </trkpt>
      <trkpt lat="46.13158" lon="6.38292">
        <ele>644</ele>
        <time>2012-04-26T10:41:40Z</time>
      </trkpt>
      <trkpt lat="46.13179" lon="6.38329">
        <ele>634</ele>
        <time>2012-04-26T10:41:45Z</time>
      </trkpt>
      <trkpt lat="46.13183" lon="6.38344">
        <ele>634</ele>
        <time>2012-04-26T10:41:47Z</time>
      </trkpt>
      <trkpt lat="46.13197" lon="6.38373">
        <ele>634</ele>
        <time>2012-04-26T10:41:51Z</time>
      </trkpt>
      <trkpt lat="46.1321" lon="6.38387">
        <ele>634</ele>
        <time>2012-04-26T10:41:53Z</time>
      </trkpt>
      <trkpt lat="46.1322" lon="6.38402">
        <ele>624</ele>
        <time>2012-04-26T10:41:55Z</time>
      </trkpt>
      <trkpt lat="46.13235" lon="6.38411">
        <ele>624</ele>
        <time>2012-04-26T10:41:57Z</time>
      </trkpt>
      <trkpt lat="46.13247" lon="6.38417">
        <ele>624</ele>
        <time>2012-04-26T10:41:59Z</time>
      </trkpt>
      <trkpt lat="46.13253" lon="6.38428">
        <ele>624</ele>
        <time>2012-04-26T10:42:01Z</time>
      </trkpt>
      <trkpt lat="46.1326" lon="6.38443">
        <ele>624</ele>
        <time>2012-04-26T10:42:03Z</time>
      </trkpt>
      <trkpt lat="46.13267" lon="6.3846">
        <ele>624</ele>
        <time>2012-04-26T10:42:05Z</time>
      </trkpt>
      <trkpt lat="46.13275" lon="6.38471">
        <ele>616</ele>
        <time>2012-04-26T10:42:07Z</time>
      </trkpt>
      <trkpt lat="46.13282" lon="6.38483">
        <ele>616</ele>
        <time>2012-04-26T10:42:09Z</time>
      </trkpt>
      <trkpt lat="46.13292" lon="6.38494">
        <ele>616</ele>
        <time>2012-04-26T10:42:11Z</time>
      </trkpt>
      <trkpt lat="46.13302" lon="6.38505">
        <ele>616</ele>
        <time>2012-04-26T10:42:13Z</time>
      </trkpt>
      <trkpt lat="46.13308" lon="6.38517">
        <ele>616</ele>
        <time>2012-04-26T10:42:15Z</time>
      </trkpt>
      <trkpt lat="46.13314" lon="6.38532">
        <ele>616</ele>
        <time>2012-04-26T10:42:17Z</time>
      </trkpt>
      <trkpt lat="46.13317" lon="6.38548">
        <ele>616</ele>
        <time>2012-04-26T10:42:19Z</time>
      </trkpt>
      <trkpt lat="46.13325" lon="6.38567">
        <ele>609</ele>
        <time>2012-04-26T10:42:21Z</time>
      </trkpt>
      <trkpt lat="46.13332" lon="6.38586">
        <ele>609</ele>
        <time>2012-04-26T10:42:23Z</time>
      </trkpt>
      <trkpt lat="46.13339" lon="6.38603">
        <ele>609</ele>
        <time>2012-04-26T10:42:25Z</time>
      </trkpt>
      <trkpt lat="46.13349" lon="6.38624">
        <ele>601</ele>
        <time>2012-04-26T10:42:28Z</time>
      </trkpt>
      <trkpt lat="46.13356" lon="6.38638">
        <ele>601</ele>
        <time>2012-04-26T10:42:30Z</time>
      </trkpt>
      <trkpt lat="46.13363" lon="6.38652">
        <ele>601</ele>
        <time>2012-04-26T10:42:32Z</time>
      </trkpt>
      <trkpt lat="46.13375" lon="6.38679">
        <ele>594</ele>
        <time>2012-04-26T10:42:36Z</time>
      </trkpt>
      <trkpt lat="46.13382" lon="6.38689">
        <ele>594</ele>
        <time>2012-04-26T10:42:39Z</time>
      </trkpt>
      <trkpt lat="46.1339" lon="6.38699">
        <ele>594</ele>
        <time>2012-04-26T10:42:54Z</time>
      </trkpt>
      <trkpt lat="46.13406" lon="6.38697">
        <ele>594</ele>
        <time>2012-04-26T10:42:56Z</time>
      </trkpt>
      <trkpt lat="46.13418" lon="6.38697">
        <ele>594</ele>
        <time>2012-04-26T10:42:57Z</time>
      </trkpt>
      <trkpt lat="46.13428" lon="6.38699">
        <ele>594</ele>
        <time>2012-04-26T10:42:58Z</time>
      </trkpt>
      <trkpt lat="46.13437" lon="6.38701">
        <ele>594</ele>
        <time>2012-04-26T10:42:59Z</time>
      </trkpt>
      <trkpt lat="46.13447" lon="6.38704">
        <ele>594</ele>
        <time>2012-04-26T10:43:00Z</time>
      </trkpt>
      <trkpt lat="46.13459" lon="6.38709">
        <ele>594</ele>
        <time>2012-04-26T10:43:02Z</time>
      </trkpt>
      <trkpt lat="46.13478" lon="6.38726">
        <ele>588</ele>
        <time>2012-04-26T10:43:07Z</time>
      </trkpt>
      <trkpt lat="46.13495" lon="6.38726">
        <ele>588</ele>
        <time>2012-04-26T10:43:16Z</time>
      </trkpt>
      <trkpt lat="46.13506" lon="6.38726">
        <ele>588</ele>
        <time>2012-04-26T10:43:17Z</time>
      </trkpt>
      <trkpt lat="46.13519" lon="6.38725">
        <ele>588</ele>
        <time>2012-04-26T10:43:18Z</time>
      </trkpt>
      <trkpt lat="46.13533" lon="6.38724">
        <ele>588</ele>
        <time>2012-04-26T10:43:19Z</time>
      </trkpt>
      <trkpt lat="46.13546" lon="6.38724">
        <ele>588</ele>
        <time>2012-04-26T10:43:20Z</time>
      </trkpt>
      <trkpt lat="46.13558" lon="6.38724">
        <ele>588</ele>
        <time>2012-04-26T10:43:21Z</time>
      </trkpt>
      <trkpt lat="46.13569" lon="6.38724">
        <ele>588</ele>
        <time>2012-04-26T10:43:22Z</time>
      </trkpt>
      <trkpt lat="46.13579" lon="6.38723">
        <ele>588</ele>
        <time>2012-04-26T10:43:23Z</time>
      </trkpt>
      <trkpt lat="46.13589" lon="6.38722">
        <ele>588</ele>
        <time>2012-04-26T10:43:24Z</time>
      </trkpt>
      <trkpt lat="46.13599" lon="6.38724">
        <ele>582</ele>
        <time>2012-04-26T10:43:25Z</time>
      </trkpt>
      <trkpt lat="46.13608" lon="6.38727">
        <ele>582</ele>
        <time>2012-04-26T10:43:26Z</time>
      </trkpt>
      <trkpt lat="46.13641" lon="6.38749">
        <ele>582</ele>
        <time>2012-04-26T10:43:31Z</time>
      </trkpt>
      <trkpt lat="46.13654" lon="6.38753">
        <ele>577</ele>
        <time>2012-04-26T10:43:34Z</time>
      </trkpt>
      <trkpt lat="46.13665" lon="6.38745">
        <ele>577</ele>
        <time>2012-04-26T10:43:39Z</time>
      </trkpt>
      <trkpt lat="46.13676" lon="6.38735">
        <ele>577</ele>
        <time>2012-04-26T10:43:41Z</time>
      </trkpt>
      <trkpt lat="46.13688" lon="6.38724">
        <ele>577</ele>
        <time>2012-04-26T10:43:43Z</time>
      </trkpt>
      <trkpt lat="46.13701" lon="6.38722">
        <ele>577</ele>
        <time>2012-04-26T10:43:45Z</time>
      </trkpt>
      <trkpt lat="46.13716" lon="6.38724">
        <ele>577</ele>
        <time>2012-04-26T10:43:47Z</time>
      </trkpt>
      <trkpt lat="46.13726" lon="6.38724">
        <ele>577</ele>
        <time>2012-04-26T10:43:48Z</time>
      </trkpt>
      <trkpt lat="46.13751" lon="6.3872">
        <ele>577</ele>
        <time>2012-04-26T10:43:51Z</time>
      </trkpt>
      <trkpt lat="46.13766" lon="6.38712">
        <ele>577</ele>
        <time>2012-04-26T10:43:53Z</time>
      </trkpt>
      <trkpt lat="46.13776" lon="6.38705">
        <ele>577</ele>
        <time>2012-04-26T10:43:54Z</time>
      </trkpt>
      <trkpt lat="46.13784" lon="6.38696">
        <ele>577</ele>
        <time>2012-04-26T10:43:55Z</time>
      </trkpt>
      <trkpt lat="46.13791" lon="6.38688">
        <ele>577</ele>
        <time>2012-04-26T10:43:56Z</time>
      </trkpt>
      <trkpt lat="46.13807" lon="6.38674">
        <ele>577</ele>
        <time>2012-04-26T10:43:58Z</time>
      </trkpt>
      <trkpt lat="46.13816" lon="6.38671">
        <ele>577</ele>
        <time>2012-04-26T10:43:59Z</time>
      </trkpt>
      <trkpt lat="46.13825" lon="6.38666">
        <ele>577</ele>
        <time>2012-04-26T10:44:00Z</time>
      </trkpt>
      <trkpt lat="46.13839" lon="6.38659">
        <ele>577</ele>
        <time>2012-04-26T10:44:02Z</time>
      </trkpt>
      <trkpt lat="46.13851" lon="6.38655">
        <ele>577</ele>
        <time>2012-04-26T10:44:04Z</time>
      </trkpt>
      <trkpt lat="46.13863" lon="6.3865">
        <ele>577</ele>
        <time>2012-04-26T10:44:06Z</time>
      </trkpt>
      <trkpt lat="46.13875" lon="6.38649">
        <ele>577</ele>
        <time>2012-04-26T10:44:08Z</time>
      </trkpt>
      <trkpt lat="46.13892" lon="6.38647">
        <ele>582</ele>
        <time>2012-04-26T10:44:10Z</time>
      </trkpt>
      <trkpt lat="46.13909" lon="6.38642">
        <ele>582</ele>
        <time>2012-04-26T10:44:12Z</time>
      </trkpt>
      <trkpt lat="46.13918" lon="6.38638">
        <ele>582</ele>
        <time>2012-04-26T10:44:13Z</time>
      </trkpt>
      <trkpt lat="46.1393" lon="6.38633">
        <ele>582</ele>
        <time>2012-04-26T10:44:14Z</time>
      </trkpt>
      <trkpt lat="46.13943" lon="6.38628">
        <ele>577</ele>
        <time>2012-04-26T10:44:15Z</time>
      </trkpt>
      <trkpt lat="46.13956" lon="6.38622">
        <ele>577</ele>
        <time>2012-04-26T10:44:16Z</time>
      </trkpt>
      <trkpt lat="46.13967" lon="6.38618">
        <ele>577</ele>
        <time>2012-04-26T10:44:17Z</time>
      </trkpt>
      <trkpt lat="46.13978" lon="6.38612">
        <ele>571</ele>
        <time>2012-04-26T10:44:18Z</time>
      </trkpt>
      <trkpt lat="46.14019" lon="6.38595">
        <ele>571</ele>
        <time>2012-04-26T10:44:22Z</time>
      </trkpt>
      <trkpt lat="46.14032" lon="6.38592">
        <ele>571</ele>
        <time>2012-04-26T10:44:23Z</time>
      </trkpt>
      <trkpt lat="46.1405" lon="6.38594">
        <ele>571</ele>
        <time>2012-04-26T10:44:25Z</time>
      </trkpt>
      <trkpt lat="46.14069" lon="6.38594">
        <ele>571</ele>
        <time>2012-04-26T10:44:27Z</time>
      </trkpt>
      <trkpt lat="46.14082" lon="6.38592">
        <ele>571</ele>
        <time>2012-04-26T10:44:28Z</time>
      </trkpt>
      <trkpt lat="46.14092" lon="6.38586">
        <ele>571</ele>
        <time>2012-04-26T10:44:29Z</time>
      </trkpt>
      <trkpt lat="46.14102" lon="6.38582">
        <ele>571</ele>
        <time>2012-04-26T10:44:30Z</time>
      </trkpt>
      <trkpt lat="46.14113" lon="6.38576">
        <ele>571</ele>
        <time>2012-04-26T10:44:31Z</time>
      </trkpt>
      <trkpt lat="46.14126" lon="6.38575">
        <ele>571</ele>
        <time>2012-04-26T10:44:32Z</time>
      </trkpt>
      <trkpt lat="46.14139" lon="6.38574">
        <ele>571</ele>
        <time>2012-04-26T10:44:33Z</time>
      </trkpt>
      <trkpt lat="46.14152" lon="6.38576">
        <ele>571</ele>
        <time>2012-04-26T10:44:34Z</time>
      </trkpt>
      <trkpt lat="46.14165" lon="6.38576">
        <ele>571</ele>
        <time>2012-04-26T10:44:35Z</time>
      </trkpt>
      <trkpt lat="46.14177" lon="6.38579">
        <ele>571</ele>
        <time>2012-04-26T10:44:36Z</time>
      </trkpt>
      <trkpt lat="46.14195" lon="6.38583">
        <ele>571</ele>
        <time>2012-04-26T10:44:38Z</time>
      </trkpt>
      <trkpt lat="46.14213" lon="6.38578">
        <ele>571</ele>
        <time>2012-04-26T10:44:40Z</time>
      </trkpt>
      <trkpt lat="46.14231" lon="6.38569">
        <ele>571</ele>
        <time>2012-04-26T10:44:42Z</time>
      </trkpt>
      <trkpt lat="46.1424" lon="6.38565">
        <ele>577</ele>
        <time>2012-04-26T10:44:43Z</time>
      </trkpt>
      <trkpt lat="46.14256" lon="6.38555">
        <ele>577</ele>
        <time>2012-04-26T10:44:45Z</time>
      </trkpt>
      <trkpt lat="46.14266" lon="6.38554">
        <ele>577</ele>
        <time>2012-04-26T10:44:46Z</time>
      </trkpt>
      <trkpt lat="46.14275" lon="6.38553">
        <ele>577</ele>
        <time>2012-04-26T10:44:47Z</time>
      </trkpt>
      <trkpt lat="46.14284" lon="6.38557">
        <ele>577</ele>
        <time>2012-04-26T10:44:48Z</time>
      </trkpt>
      <trkpt lat="46.14296" lon="6.38562">
        <ele>577</ele>
        <time>2012-04-26T10:44:50Z</time>
      </trkpt>
      <trkpt lat="46.14316" lon="6.38553">
        <ele>577</ele>
        <time>2012-04-26T10:44:53Z</time>
      </trkpt>
      <trkpt lat="46.14331" lon="6.38533">
        <ele>577</ele>
        <time>2012-04-26T10:44:55Z</time>
      </trkpt>
      <trkpt lat="46.14336" lon="6.38522">
        <ele>577</ele>
        <time>2012-04-26T10:44:56Z</time>
      </trkpt>
      <trkpt lat="46.14343" lon="6.38512">
        <ele>577</ele>
        <time>2012-04-26T10:44:57Z</time>
      </trkpt>
      <trkpt lat="46.14353" lon="6.38497">
        <ele>577</ele>
        <time>2012-04-26T10:44:59Z</time>
      </trkpt>
      <trkpt lat="46.14363" lon="6.38487">
        <ele>577</ele>
        <time>2012-04-26T10:45:01Z</time>
      </trkpt>
      <trkpt lat="46.14371" lon="6.38473">
        <ele>577</ele>
        <time>2012-04-26T10:45:03Z</time>
      </trkpt>
      <trkpt lat="46.14378" lon="6.38461">
        <ele>577</ele>
        <time>2012-04-26T10:45:05Z</time>
      </trkpt>
      <trkpt lat="46.14384" lon="6.38452">
        <ele>577</ele>
        <time>2012-04-26T10:45:08Z</time>
      </trkpt>
      <trkpt lat="46.14394" lon="6.38454">
        <ele>577</ele>
        <time>2012-04-26T10:45:11Z</time>
      </trkpt>
      <trkpt lat="46.14405" lon="6.38461">
        <ele>577</ele>
        <time>2012-04-26T10:45:13Z</time>
      </trkpt>
      <trkpt lat="46.14416" lon="6.38467">
        <ele>577</ele>
        <time>2012-04-26T10:45:15Z</time>
      </trkpt>
      <trkpt lat="46.14428" lon="6.38473">
        <ele>577</ele>
        <time>2012-04-26T10:45:17Z</time>
      </trkpt>
      <trkpt lat="46.14438" lon="6.38488">
        <ele>577</ele>
        <time>2012-04-26T10:45:19Z</time>
      </trkpt>
      <trkpt lat="46.14445" lon="6.38498">
        <ele>577</ele>
        <time>2012-04-26T10:45:20Z</time>
      </trkpt>
      <trkpt lat="46.14452" lon="6.38507">
        <ele>577</ele>
        <time>2012-04-26T10:45:21Z</time>
      </trkpt>
      <trkpt lat="46.14464" lon="6.38514">
        <ele>577</ele>
        <time>2012-04-26T10:45:22Z</time>
      </trkpt>
      <trkpt lat="46.14477" lon="6.3852">
        <ele>577</ele>
        <time>2012-04-26T10:45:23Z</time>
      </trkpt>
      <trkpt lat="46.14492" lon="6.38523">
        <ele>577</ele>
        <time>2012-04-26T10:45:24Z</time>
      </trkpt>
      <trkpt lat="46.14505" lon="6.38528">
        <ele>577</ele>
        <time>2012-04-26T10:45:25Z</time>
      </trkpt>
      <trkpt lat="46.14517" lon="6.38532">
        <ele>577</ele>
        <time>2012-04-26T10:45:26Z</time>
      </trkpt>
      <trkpt lat="46.14529" lon="6.38536">
        <ele>577</ele>
        <time>2012-04-26T10:45:27Z</time>
      </trkpt>
      <trkpt lat="46.14538" lon="6.38541">
        <ele>577</ele>
        <time>2012-04-26T10:45:28Z</time>
      </trkpt>
      <trkpt lat="46.14547" lon="6.38549">
        <ele>577</ele>
        <time>2012-04-26T10:45:29Z</time>
      </trkpt>
      <trkpt lat="46.14565" lon="6.38577">
        <ele>577</ele>
        <time>2012-04-26T10:45:32Z</time>
      </trkpt>
      <trkpt lat="46.14569" lon="6.3859">
        <ele>577</ele>
        <time>2012-04-26T10:45:33Z</time>
      </trkpt>
      <trkpt lat="46.14575" lon="6.3861">
        <ele>577</ele>
        <time>2012-04-26T10:45:35Z</time>
      </trkpt>
      <trkpt lat="46.14579" lon="6.38621">
        <ele>577</ele>
        <time>2012-04-26T10:45:39Z</time>
      </trkpt>
      <trkpt lat="46.14582" lon="6.38639">
        <ele>583</ele>
        <time>2012-04-26T10:46:20Z</time>
      </trkpt>
      <trkpt lat="46.14591" lon="6.38661">
        <ele>583</ele>
        <time>2012-04-26T10:46:22Z</time>
      </trkpt>
      <trkpt lat="46.14596" lon="6.38673">
        <ele>583</ele>
        <time>2012-04-26T10:46:23Z</time>
      </trkpt>
      <trkpt lat="46.14602" lon="6.38686">
        <ele>583</ele>
        <time>2012-04-26T10:46:24Z</time>
      </trkpt>
      <trkpt lat="46.14607" lon="6.38699">
        <ele>583</ele>
        <time>2012-04-26T10:46:25Z</time>
      </trkpt>
      <trkpt lat="46.14612" lon="6.38712">
        <ele>583</ele>
        <time>2012-04-26T10:46:26Z</time>
      </trkpt>
      <trkpt lat="46.14617" lon="6.38725">
        <ele>583</ele>
        <time>2012-04-26T10:46:27Z</time>
      </trkpt>
      <trkpt lat="46.14624" lon="6.38739">
        <ele>583</ele>
        <time>2012-04-26T10:46:28Z</time>
      </trkpt>
      <trkpt lat="46.1463" lon="6.38753">
        <ele>583</ele>
        <time>2012-04-26T10:46:29Z</time>
      </trkpt>
      <trkpt lat="46.14637" lon="6.38768">
        <ele>583</ele>
        <time>2012-04-26T10:46:30Z</time>
      </trkpt>
      <trkpt lat="46.14643" lon="6.38782">
        <ele>583</ele>
        <time>2012-04-26T10:46:31Z</time>
      </trkpt>
      <trkpt lat="46.1465" lon="6.38797">
        <ele>583</ele>
        <time>2012-04-26T10:46:32Z</time>
      </trkpt>
      <trkpt lat="46.14657" lon="6.38811">
        <ele>583</ele>
        <time>2012-04-26T10:46:33Z</time>
      </trkpt>
      <trkpt lat="46.14663" lon="6.38824">
        <ele>588</ele>
        <time>2012-04-26T10:46:34Z</time>
      </trkpt>
      <trkpt lat="46.14669" lon="6.3884">
        <ele>588</ele>
        <time>2012-04-26T10:46:35Z</time>
      </trkpt>
      <trkpt lat="46.14677" lon="6.38857">
        <ele>588</ele>
        <time>2012-04-26T10:46:36Z</time>
      </trkpt>
      <trkpt lat="46.14683" lon="6.38873">
        <ele>588</ele>
        <time>2012-04-26T10:46:37Z</time>
      </trkpt>
      <trkpt lat="46.1469" lon="6.3889">
        <ele>588</ele>
        <time>2012-04-26T10:46:38Z</time>
      </trkpt>
      <trkpt lat="46.14697" lon="6.38906">
        <ele>588</ele>
        <time>2012-04-26T10:46:39Z</time>
      </trkpt>
      <trkpt lat="46.14705" lon="6.38923">
        <ele>588</ele>
        <time>2012-04-26T10:46:40Z</time>
      </trkpt>
      <trkpt lat="46.14714" lon="6.38938">
        <ele>588</ele>
        <time>2012-04-26T10:46:41Z</time>
      </trkpt>
      <trkpt lat="46.14722" lon="6.38953">
        <ele>593</ele>
        <time>2012-04-26T10:46:42Z</time>
      </trkpt>
      <trkpt lat="46.14732" lon="6.38966">
        <ele>593</ele>
        <time>2012-04-26T10:46:43Z</time>
      </trkpt>
      <trkpt lat="46.14741" lon="6.38979">
        <ele>593</ele>
        <time>2012-04-26T10:46:44Z</time>
      </trkpt>
      <trkpt lat="46.14748" lon="6.38991">
        <ele>593</ele>
        <time>2012-04-26T10:46:45Z</time>
      </trkpt>
      <trkpt lat="46.14756" lon="6.39002">
        <ele>593</ele>
        <time>2012-04-26T10:46:46Z</time>
      </trkpt>
      <trkpt lat="46.14764" lon="6.39012">
        <ele>593</ele>
        <time>2012-04-26T10:46:47Z</time>
      </trkpt>
      <trkpt lat="46.14772" lon="6.39022">
        <ele>593</ele>
        <time>2012-04-26T10:46:48Z</time>
      </trkpt>
      <trkpt lat="46.14779" lon="6.39032">
        <ele>593</ele>
        <time>2012-04-26T10:46:49Z</time>
      </trkpt>
      <trkpt lat="46.14786" lon="6.39044">
        <ele>593</ele>
        <time>2012-04-26T10:46:50Z</time>
      </trkpt>
      <trkpt lat="46.14795" lon="6.39053">
        <ele>593</ele>
        <time>2012-04-26T10:46:51Z</time>
      </trkpt>
      <trkpt lat="46.14806" lon="6.39062">
        <ele>593</ele>
        <time>2012-04-26T10:46:52Z</time>
      </trkpt>
      <trkpt lat="46.14819" lon="6.39072">
        <ele>593</ele>
        <time>2012-04-26T10:46:53Z</time>
      </trkpt>
      <trkpt lat="46.1483" lon="6.39081">
        <ele>599</ele>
        <time>2012-04-26T10:46:54Z</time>
      </trkpt>
      <trkpt lat="46.14839" lon="6.39091">
        <ele>599</ele>
        <time>2012-04-26T10:46:55Z</time>
      </trkpt>
      <trkpt lat="46.14848" lon="6.39099">
        <ele>599</ele>
        <time>2012-04-26T10:46:56Z</time>
      </trkpt>
      <trkpt lat="46.14857" lon="6.39106">
        <ele>604</ele>
        <time>2012-04-26T10:46:57Z</time>
      </trkpt>
      <trkpt lat="46.14869" lon="6.39115">
        <ele>604</ele>
        <time>2012-04-26T10:46:59Z</time>
      </trkpt>
      <trkpt lat="46.14872" lon="6.39132">
        <ele>611</ele>
        <time>2012-04-26T10:47:06Z</time>
      </trkpt>
      <trkpt lat="46.14886" lon="6.39149">
        <ele>611</ele>
        <time>2012-04-26T10:47:08Z</time>
      </trkpt>
      <trkpt lat="46.14895" lon="6.39156">
        <ele>611</ele>
        <time>2012-04-26T10:47:09Z</time>
      </trkpt>
      <trkpt lat="46.14905" lon="6.39161">
        <ele>611</ele>
        <time>2012-04-26T10:47:10Z</time>
      </trkpt>
      <trkpt lat="46.14921" lon="6.39168">
        <ele>618</ele>
        <time>2012-04-26T10:47:12Z</time>
      </trkpt>
      <trkpt lat="46.14935" lon="6.3917">
        <ele>618</ele>
        <time>2012-04-26T10:47:14Z</time>
      </trkpt>
      <trkpt lat="46.1495" lon="6.39174">
        <ele>618</ele>
        <time>2012-04-26T10:47:16Z</time>
      </trkpt>
      <trkpt lat="46.14966" lon="6.39176">
        <ele>623</ele>
        <time>2012-04-26T10:47:18Z</time>
      </trkpt>
      <trkpt lat="46.14985" lon="6.3918">
        <ele>623</ele>
        <time>2012-04-26T10:47:20Z</time>
      </trkpt>
      <trkpt lat="46.15002" lon="6.39187">
        <ele>632</ele>
        <time>2012-04-26T10:47:22Z</time>
      </trkpt>
      <trkpt lat="46.15016" lon="6.392">
        <ele>632</ele>
        <time>2012-04-26T10:47:24Z</time>
      </trkpt>
      <trkpt lat="46.15023" lon="6.39211">
        <ele>638</ele>
        <time>2012-04-26T10:47:25Z</time>
      </trkpt>
      <trkpt lat="46.1503" lon="6.39221">
        <ele>638</ele>
        <time>2012-04-26T10:47:26Z</time>
      </trkpt>
      <trkpt lat="46.15036" lon="6.3923">
        <ele>638</ele>
        <time>2012-04-26T10:47:27Z</time>
      </trkpt>
      <trkpt lat="46.15045" lon="6.39277">
        <ele>646</ele>
        <time>2012-04-26T10:47:31Z</time>
      </trkpt>
      <trkpt lat="46.1504" lon="6.39296">
        <ele>646</ele>
        <time>2012-04-26T10:47:33Z</time>
      </trkpt>
      <trkpt lat="46.15045" lon="6.39317">
        <ele>646</ele>
        <time>2012-04-26T10:47:35Z</time>
      </trkpt>
      <trkpt lat="46.15051" lon="6.39333">
        <ele>646</ele>
        <time>2012-04-26T10:47:37Z</time>
      </trkpt>
      <trkpt lat="46.1506" lon="6.39348">
        <ele>653</ele>
        <time>2012-04-26T10:47:39Z</time>
      </trkpt>
      <trkpt lat="46.1507" lon="6.39362">
        <ele>653</ele>
        <time>2012-04-26T10:47:41Z</time>
      </trkpt>
      <trkpt lat="46.15081" lon="6.39376">
        <ele>653</ele>
        <time>2012-04-26T10:47:43Z</time>
      </trkpt>
      <trkpt lat="46.1509" lon="6.39385">
        <ele>653</ele>
        <time>2012-04-26T10:47:45Z</time>
      </trkpt>
      <trkpt lat="46.15101" lon="6.39391">
        <ele>653</ele>
        <time>2012-04-26T10:47:48Z</time>
      </trkpt>
      <trkpt lat="46.15107" lon="6.39378">
        <ele>653</ele>
        <time>2012-04-26T10:47:51Z</time>
      </trkpt>
      <trkpt lat="46.15109" lon="6.39361">
        <ele>653</ele>
        <time>2012-04-26T10:47:53Z</time>
      </trkpt>
      <trkpt lat="46.15112" lon="6.3934">
        <ele>653</ele>
        <time>2012-04-26T10:47:55Z</time>
      </trkpt>
      <trkpt lat="46.15118" lon="6.39317">
        <ele>653</ele>
        <time>2012-04-26T10:47:57Z</time>
      </trkpt>
      <trkpt lat="46.15121" lon="6.39304">
        <ele>659</ele>
        <time>2012-04-26T10:47:58Z</time>
      </trkpt>
      <trkpt lat="46.15124" lon="6.3929">
        <ele>659</ele>
        <time>2012-04-26T10:47:59Z</time>
      </trkpt>
      <trkpt lat="46.15126" lon="6.39275">
        <ele>659</ele>
        <time>2012-04-26T10:48:00Z</time>
      </trkpt>
      <trkpt lat="46.15128" lon="6.39253">
        <ele>659</ele>
        <time>2012-04-26T10:48:02Z</time>
      </trkpt>
      <trkpt lat="46.15129" lon="6.39234">
        <ele>659</ele>
        <time>2012-04-26T10:48:04Z</time>
      </trkpt>
      <trkpt lat="46.1513" lon="6.39217">
        <ele>659</ele>
        <time>2012-04-26T10:48:06Z</time>
      </trkpt>
      <trkpt lat="46.15136" lon="6.39177">
        <ele>659</ele>
        <time>2012-04-26T10:48:10Z</time>
      </trkpt>
      <trkpt lat="46.15137" lon="6.39163">
        <ele>659</ele>
        <time>2012-04-26T10:48:11Z</time>
      </trkpt>
      <trkpt lat="46.15138" lon="6.39138">
        <ele>659</ele>
        <time>2012-04-26T10:48:13Z</time>
      </trkpt>
      <trkpt lat="46.15139" lon="6.39122">
        <ele>659</ele>
        <time>2012-04-26T10:48:14Z</time>
      </trkpt>
      <trkpt lat="46.1514" lon="6.39106">
        <ele>659</ele>
        <time>2012-04-26T10:48:15Z</time>
      </trkpt>
      <trkpt lat="46.15147" lon="6.39062">
        <ele>659</ele>
        <time>2012-04-26T10:48:18Z</time>
      </trkpt>
      <trkpt lat="46.15152" lon="6.39047">
        <ele>665</ele>
        <time>2012-04-26T10:48:19Z</time>
      </trkpt>
      <trkpt lat="46.15156" lon="6.39035">
        <ele>665</ele>
        <time>2012-04-26T10:48:20Z</time>
      </trkpt>
      <trkpt lat="46.15166" lon="6.39015">
        <ele>665</ele>
        <time>2012-04-26T10:48:22Z</time>
      </trkpt>
      <trkpt lat="46.15175" lon="6.38995">
        <ele>665</ele>
        <time>2012-04-26T10:48:24Z</time>
      </trkpt>
      <trkpt lat="46.15184" lon="6.38981">
        <ele>665</ele>
        <time>2012-04-26T10:48:26Z</time>
      </trkpt>
      <trkpt lat="46.15192" lon="6.3897">
        <ele>665</ele>
        <time>2012-04-26T10:48:28Z</time>
      </trkpt>
      <trkpt lat="46.152" lon="6.38957">
        <ele>665</ele>
        <time>2012-04-26T10:48:30Z</time>
      </trkpt>
      <trkpt lat="46.15217" lon="6.38942">
        <ele>665</ele>
        <time>2012-04-26T10:48:34Z</time>
      </trkpt>
      <trkpt lat="46.1522" lon="6.38921">
        <ele>665</ele>
        <time>2012-04-26T10:48:36Z</time>
      </trkpt>
      <trkpt lat="46.15227" lon="6.38902">
        <ele>672</ele>
        <time>2012-04-26T10:48:39Z</time>
      </trkpt>
      <trkpt lat="46.1523" lon="6.38884">
        <ele>672</ele>
        <time>2012-04-26T10:48:45Z</time>
      </trkpt>
      <trkpt lat="46.15239" lon="6.3887">
        <ele>672</ele>
        <time>2012-04-26T10:48:47Z</time>
      </trkpt>
      <trkpt lat="46.15254" lon="6.38833">
        <ele>658</ele>
        <time>2012-04-26T10:48:52Z</time>
      </trkpt>
      <trkpt lat="46.15258" lon="6.38816">
        <ele>658</ele>
        <time>2012-04-26T10:48:53Z</time>
      </trkpt>
      <trkpt lat="46.15264" lon="6.38797">
        <ele>658</ele>
        <time>2012-04-26T10:48:55Z</time>
      </trkpt>
      <trkpt lat="46.15266" lon="6.38782">
        <ele>658</ele>
        <time>2012-04-26T10:48:57Z</time>
      </trkpt>
      <trkpt lat="46.15265" lon="6.38762">
        <ele>664</ele>
        <time>2012-04-26T10:48:59Z</time>
      </trkpt>
      <trkpt lat="46.15267" lon="6.3874">
        <ele>664</ele>
        <time>2012-04-26T10:49:01Z</time>
      </trkpt>
      <trkpt lat="46.15269" lon="6.38717">
        <ele>664</ele>
        <time>2012-04-26T10:49:03Z</time>
      </trkpt>
      <trkpt lat="46.1527" lon="6.38695">
        <ele>664</ele>
        <time>2012-04-26T10:49:05Z</time>
      </trkpt>
      <trkpt lat="46.15272" lon="6.38674">
        <ele>664</ele>
        <time>2012-04-26T10:49:07Z</time>
      </trkpt>
      <trkpt lat="46.15274" lon="6.38655">
        <ele>664</ele>
        <time>2012-04-26T10:49:09Z</time>
      </trkpt>
      <trkpt lat="46.15275" lon="6.38634">
        <ele>664</ele>
        <time>2012-04-26T10:49:11Z</time>
      </trkpt>
      <trkpt lat="46.15275" lon="6.38612">
        <ele>664</ele>
        <time>2012-04-26T10:49:13Z</time>
      </trkpt>
      <trkpt lat="46.15275" lon="6.38592">
        <ele>664</ele>
        <time>2012-04-26T10:49:15Z</time>
      </trkpt>
      <trkpt lat="46.15275" lon="6.38569">
        <ele>664</ele>
        <time>2012-04-26T10:49:17Z</time>
      </trkpt>
      <trkpt lat="46.15277" lon="6.38548">
        <ele>664</ele>
        <time>2012-04-26T10:49:19Z</time>
      </trkpt>
      <trkpt lat="46.1528" lon="6.38525">
        <ele>664</ele>
        <time>2012-04-26T10:49:21Z</time>
      </trkpt>
      <trkpt lat="46.15283" lon="6.38502">
        <ele>664</ele>
        <time>2012-04-26T10:49:23Z</time>
      </trkpt>
      <trkpt lat="46.15287" lon="6.38479">
        <ele>664</ele>
        <time>2012-04-26T10:49:25Z</time>
      </trkpt>
      <trkpt lat="46.15291" lon="6.38462">
        <ele>664</ele>
        <time>2012-04-26T10:49:27Z</time>
      </trkpt>
      <trkpt lat="46.15296" lon="6.38447">
        <ele>664</ele>
        <time>2012-04-26T10:49:29Z</time>
      </trkpt>
      <trkpt lat="46.15295" lon="6.38427">
        <ele>664</ele>
        <time>2012-04-26T10:49:31Z</time>
      </trkpt>
      <trkpt lat="46.15293" lon="6.38404">
        <ele>664</ele>
        <time>2012-04-26T10:49:33Z</time>
      </trkpt>
      <trkpt lat="46.15292" lon="6.38379">
        <ele>671</ele>
        <time>2012-04-26T10:49:35Z</time>
      </trkpt>
      <trkpt lat="46.1529" lon="6.38357">
        <ele>671</ele>
        <time>2012-04-26T10:49:37Z</time>
      </trkpt>
      <trkpt lat="46.15289" lon="6.38338">
        <ele>671</ele>
        <time>2012-04-26T10:49:39Z</time>
      </trkpt>
      <trkpt lat="46.15292" lon="6.3832">
        <ele>688</ele>
        <time>2012-04-26T10:49:59Z</time>
      </trkpt>
      <trkpt lat="46.15297" lon="6.38303">
        <ele>688</ele>
        <time>2012-04-26T10:50:01Z</time>
      </trkpt>
      <trkpt lat="46.15305" lon="6.38284">
        <ele>688</ele>
        <time>2012-04-26T10:50:03Z</time>
      </trkpt>
      <trkpt lat="46.15309" lon="6.38266">
        <ele>688</ele>
        <time>2012-04-26T10:50:05Z</time>
      </trkpt>
      <trkpt lat="46.1531" lon="6.38283">
        <ele>688</ele>
        <time>2012-04-26T10:50:13Z</time>
      </trkpt>
      <trkpt lat="46.15311" lon="6.38296">
        <ele>688</ele>
        <time>2012-04-26T10:50:14Z</time>
      </trkpt>
      <trkpt lat="46.15313" lon="6.38322">
        <ele>688</ele>
        <time>2012-04-26T10:50:16Z</time>
      </trkpt>
      <trkpt lat="46.15317" lon="6.38337">
        <ele>688</ele>
        <time>2012-04-26T10:50:17Z</time>
      </trkpt>
      <trkpt lat="46.15322" lon="6.3835">
        <ele>688</ele>
        <time>2012-04-26T10:50:18Z</time>
      </trkpt>
      <trkpt lat="46.15328" lon="6.38364">
        <ele>688</ele>
        <time>2012-04-26T10:50:19Z</time>
      </trkpt>
      <trkpt lat="46.15336" lon="6.38377">
        <ele>688</ele>
        <time>2012-04-26T10:50:20Z</time>
      </trkpt>
      <trkpt lat="46.15343" lon="6.38391">
        <ele>688</ele>
        <time>2012-04-26T10:50:21Z</time>
      </trkpt>
      <trkpt lat="46.1535" lon="6.38405">
        <ele>688</ele>
        <time>2012-04-26T10:50:22Z</time>
      </trkpt>
      <trkpt lat="46.15355" lon="6.38421">
        <ele>688</ele>
        <time>2012-04-26T10:50:23Z</time>
      </trkpt>
      <trkpt lat="46.15359" lon="6.38437">
        <ele>688</ele>
        <time>2012-04-26T10:50:24Z</time>
      </trkpt>
      <trkpt lat="46.15362" lon="6.38454">
        <ele>688</ele>
        <time>2012-04-26T10:50:25Z</time>
      </trkpt>
      <trkpt lat="46.15366" lon="6.38471">
        <ele>694</ele>
        <time>2012-04-26T10:50:26Z</time>
      </trkpt>
      <trkpt lat="46.1537" lon="6.38488">
        <ele>694</ele>
        <time>2012-04-26T10:50:27Z</time>
      </trkpt>
      <trkpt lat="46.15373" lon="6.38506">
        <ele>694</ele>
        <time>2012-04-26T10:50:28Z</time>
      </trkpt>
      <trkpt lat="46.15377" lon="6.38525">
        <ele>694</ele>
        <time>2012-04-26T10:50:29Z</time>
      </trkpt>
      <trkpt lat="46.15381" lon="6.38545">
        <ele>694</ele>
        <time>2012-04-26T10:50:30Z</time>
      </trkpt>
      <trkpt lat="46.15385" lon="6.38565">
        <ele>694</ele>
        <time>2012-04-26T10:50:31Z</time>
      </trkpt>
      <trkpt lat="46.15389" lon="6.38583">
        <ele>699</ele>
        <time>2012-04-26T10:50:32Z</time>
      </trkpt>
      <trkpt lat="46.15393" lon="6.38601">
        <ele>699</ele>
        <time>2012-04-26T10:50:33Z</time>
      </trkpt>
      <trkpt lat="46.15398" lon="6.38618">
        <ele>699</ele>
        <time>2012-04-26T10:50:34Z</time>
      </trkpt>
      <trkpt lat="46.15402" lon="6.38636">
        <ele>699</ele>
        <time>2012-04-26T10:50:35Z</time>
      </trkpt>
      <trkpt lat="46.15406" lon="6.38654">
        <ele>699</ele>
        <time>2012-04-26T10:50:36Z</time>
      </trkpt>
      <trkpt lat="46.15411" lon="6.38672">
        <ele>699</ele>
        <time>2012-04-26T10:50:37Z</time>
      </trkpt>
      <trkpt lat="46.15416" lon="6.38691">
        <ele>704</ele>
        <time>2012-04-26T10:50:38Z</time>
      </trkpt>
      <trkpt lat="46.15421" lon="6.38709">
        <ele>704</ele>
        <time>2012-04-26T10:50:39Z</time>
      </trkpt>
      <trkpt lat="46.15426" lon="6.38726">
        <ele>704</ele>
        <time>2012-04-26T10:50:40Z</time>
      </trkpt>
      <trkpt lat="46.15432" lon="6.38742">
        <ele>704</ele>
        <time>2012-04-26T10:50:41Z</time>
      </trkpt>
      <trkpt lat="46.15438" lon="6.38757">
        <ele>704</ele>
        <time>2012-04-26T10:50:42Z</time>
      </trkpt>
      <trkpt lat="46.15445" lon="6.3877">
        <ele>710</ele>
        <time>2012-04-26T10:50:43Z</time>
      </trkpt>
      <trkpt lat="46.15453" lon="6.38783">
        <ele>710</ele>
        <time>2012-04-26T10:50:44Z</time>
      </trkpt>
      <trkpt lat="46.1546" lon="6.38796">
        <ele>710</ele>
        <time>2012-04-26T10:50:45Z</time>
      </trkpt>
      <trkpt lat="46.15468" lon="6.38806">
        <ele>710</ele>
        <time>2012-04-26T10:50:46Z</time>
      </trkpt>
      <trkpt lat="46.15478" lon="6.38817">
        <ele>710</ele>
        <time>2012-04-26T10:50:47Z</time>
      </trkpt>
      <trkpt lat="46.15488" lon="6.38827">
        <ele>716</ele>
        <time>2012-04-26T10:50:48Z</time>
      </trkpt>
      <trkpt lat="46.15498" lon="6.38835">
        <ele>716</ele>
        <time>2012-04-26T10:50:49Z</time>
      </trkpt>
      <trkpt lat="46.15509" lon="6.38844">
        <ele>716</ele>
        <time>2012-04-26T10:50:50Z</time>
      </trkpt>
      <trkpt lat="46.1552" lon="6.38852">
        <ele>721</ele>
        <time>2012-04-26T10:50:51Z</time>
      </trkpt>
      <trkpt lat="46.1553" lon="6.3886">
        <ele>721</ele>
        <time>2012-04-26T10:50:52Z</time>
      </trkpt>
      <trkpt lat="46.15539" lon="6.38868">
        <ele>721</ele>
        <time>2012-04-26T10:50:53Z</time>
      </trkpt>
      <trkpt lat="46.15549" lon="6.38876">
        <ele>721</ele>
        <time>2012-04-26T10:50:54Z</time>
      </trkpt>
      <trkpt lat="46.15557" lon="6.38884">
        <ele>727</ele>
        <time>2012-04-26T10:50:55Z</time>
      </trkpt>
      <trkpt lat="46.15567" lon="6.38892">
        <ele>727</ele>
        <time>2012-04-26T10:50:56Z</time>
      </trkpt>
      <trkpt lat="46.15574" lon="6.38901">
        <ele>727</ele>
        <time>2012-04-26T10:50:57Z</time>
      </trkpt>
      <trkpt lat="46.15583" lon="6.38909">
        <ele>727</ele>
        <time>2012-04-26T10:50:58Z</time>
      </trkpt>
      <trkpt lat="46.15592" lon="6.38912">
        <ele>727</ele>
        <time>2012-04-26T10:50:59Z</time>
      </trkpt>
      <trkpt lat="46.15606" lon="6.38921">
        <ele>727</ele>
        <time>2012-04-26T10:51:01Z</time>
      </trkpt>
      <trkpt lat="46.15617" lon="6.38933">
        <ele>738</ele>
        <time>2012-04-26T10:51:03Z</time>
      </trkpt>
      <trkpt lat="46.15629" lon="6.38946">
        <ele>738</ele>
        <time>2012-04-26T10:51:05Z</time>
      </trkpt>
      <trkpt lat="46.15637" lon="6.38955">
        <ele>738</ele>
        <time>2012-04-26T10:51:07Z</time>
      </trkpt>
      <trkpt lat="46.15648" lon="6.38965">
        <ele>746</ele>
        <time>2012-04-26T10:51:43Z</time>
      </trkpt>
      <trkpt lat="46.15662" lon="6.38976">
        <ele>746</ele>
        <time>2012-04-26T10:51:45Z</time>
      </trkpt>
      <trkpt lat="46.15672" lon="6.38979">
        <ele>741</ele>
        <time>2012-04-26T10:51:46Z</time>
      </trkpt>
      <trkpt lat="46.15681" lon="6.38981">
        <ele>741</ele>
        <time>2012-04-26T10:51:47Z</time>
      </trkpt>
      <trkpt lat="46.15691" lon="6.38983">
        <ele>741</ele>
        <time>2012-04-26T10:51:48Z</time>
      </trkpt>
      <trkpt lat="46.15706" lon="6.38983">
        <ele>741</ele>
        <time>2012-04-26T10:51:50Z</time>
      </trkpt>
      <trkpt lat="46.15719" lon="6.38982">
        <ele>741</ele>
        <time>2012-04-26T10:51:52Z</time>
      </trkpt>
      <trkpt lat="46.15731" lon="6.38994">
        <ele>741</ele>
        <time>2012-04-26T10:52:01Z</time>
      </trkpt>
      <trkpt lat="46.15745" lon="6.39009">
        <ele>741</ele>
        <time>2012-04-26T10:52:03Z</time>
      </trkpt>
      <trkpt lat="46.15751" lon="6.39021">
        <ele>741</ele>
        <time>2012-04-26T10:52:04Z</time>
      </trkpt>
      <trkpt lat="46.15759" lon="6.39032">
        <ele>741</ele>
        <time>2012-04-26T10:52:05Z</time>
      </trkpt>
      <trkpt lat="46.15768" lon="6.39042">
        <ele>741</ele>
        <time>2012-04-26T10:52:06Z</time>
      </trkpt>
      <trkpt lat="46.15776" lon="6.39052">
        <ele>741</ele>
        <time>2012-04-26T10:52:07Z</time>
      </trkpt>
      <trkpt lat="46.15784" lon="6.39061">
        <ele>735</ele>
        <time>2012-04-26T10:52:08Z</time>
      </trkpt>
      <trkpt lat="46.15791" lon="6.3907">
        <ele>735</ele>
        <time>2012-04-26T10:52:09Z</time>
      </trkpt>
      <trkpt lat="46.15803" lon="6.3908">
        <ele>735</ele>
        <time>2012-04-26T10:52:11Z</time>
      </trkpt>
      <trkpt lat="46.15814" lon="6.39079">
        <ele>735</ele>
        <time>2012-04-26T10:52:13Z</time>
      </trkpt>
      <trkpt lat="46.15822" lon="6.39072">
        <ele>735</ele>
        <time>2012-04-26T10:52:15Z</time>
      </trkpt>
      <trkpt lat="46.15815" lon="6.39058">
        <ele>747</ele>
        <time>2012-04-26T10:52:25Z</time>
      </trkpt>
      <trkpt lat="46.15819" lon="6.39041">
        <ele>747</ele>
        <time>2012-04-26T10:52:28Z</time>
      </trkpt>
      <trkpt lat="46.15827" lon="6.39029">
        <ele>747</ele>
        <time>2012-04-26T10:52:30Z</time>
      </trkpt>
      <trkpt lat="46.15833" lon="6.39018">
        <ele>747</ele>
        <time>2012-04-26T10:52:33Z</time>
      </trkpt>
      <trkpt lat="46.15833" lon="6.39004">
        <ele>752</ele>
        <time>2012-04-26T10:52:48Z</time>
      </trkpt>
      <trkpt lat="46.15834" lon="6.38987">
        <ele>752</ele>
        <time>2012-04-26T10:52:50Z</time>
      </trkpt>
      <trkpt lat="46.15834" lon="6.3897">
        <ele>746</ele>
        <time>2012-04-26T10:52:52Z</time>
      </trkpt>
      <trkpt lat="46.15832" lon="6.3895">
        <ele>746</ele>
        <time>2012-04-26T10:52:54Z</time>
      </trkpt>
      <trkpt lat="46.15832" lon="6.38933">
        <ele>746</ele>
        <time>2012-04-26T10:52:56Z</time>
      </trkpt>
      <trkpt lat="46.15837" lon="6.38918">
        <ele>753</ele>
        <time>2012-04-26T10:52:58Z</time>
      </trkpt>
      <trkpt lat="46.15843" lon="6.38901">
        <ele>753</ele>
        <time>2012-04-26T10:53:00Z</time>
      </trkpt>
      <trkpt lat="46.15849" lon="6.38882">
        <ele>753</ele>
        <time>2012-04-26T10:53:02Z</time>
      </trkpt>
      <trkpt lat="46.15848" lon="6.38862">
        <ele>764</ele>
        <time>2012-04-26T10:53:14Z</time>
      </trkpt>
      <trkpt lat="46.15848" lon="6.38847">
        <ele>764</ele>
        <time>2012-04-26T10:53:16Z</time>
      </trkpt>
      <trkpt lat="46.15852" lon="6.38831">
        <ele>764</ele>
        <time>2012-04-26T10:53:19Z</time>
      </trkpt>
      <trkpt lat="46.1586" lon="6.3882">
        <ele>764</ele>
        <time>2012-04-26T10:53:22Z</time>
      </trkpt>
      <trkpt lat="46.15873" lon="6.38813">
        <ele>764</ele>
        <time>2012-04-26T10:53:31Z</time>
      </trkpt>
      <trkpt lat="46.15887" lon="6.38807">
        <ele>764</ele>
        <time>2012-04-26T10:53:33Z</time>
      </trkpt>
      <trkpt lat="46.15904" lon="6.38805">
        <ele>770</ele>
        <time>2012-04-26T10:53:35Z</time>
      </trkpt>
      <trkpt lat="46.1592" lon="6.38807">
        <ele>770</ele>
        <time>2012-04-26T10:53:37Z</time>
      </trkpt>
      <trkpt lat="46.15931" lon="6.38817">
        <ele>778</ele>
        <time>2012-04-26T10:53:39Z</time>
      </trkpt>
      <trkpt lat="46.15941" lon="6.38827">
        <ele>778</ele>
        <time>2012-04-26T10:53:41Z</time>
      </trkpt>
      <trkpt lat="46.1595" lon="6.38837">
        <ele>778</ele>
        <time>2012-04-26T10:53:44Z</time>
      </trkpt>
      <trkpt lat="46.15941" lon="6.38831">
        <ele>793</ele>
        <time>2012-04-26T10:54:11Z</time>
      </trkpt>
      <trkpt lat="46.15924" lon="6.38817">
        <ele>793</ele>
        <time>2012-04-26T10:54:17Z</time>
      </trkpt>
      <trkpt lat="46.15913" lon="6.38812">
        <ele>793</ele>
        <time>2012-04-26T10:54:20Z</time>
      </trkpt>
      <trkpt lat="46.15905" lon="6.38804">
        <ele>812</ele>
        <time>2012-04-26T10:54:31Z</time>
      </trkpt>
      <trkpt lat="46.15901" lon="6.38787">
        <ele>812</ele>
        <time>2012-04-26T10:54:34Z</time>
      </trkpt>
      <trkpt lat="46.15897" lon="6.38769">
        <ele>812</ele>
        <time>2012-04-26T10:54:37Z</time>
      </trkpt>
      <trkpt lat="46.15893" lon="6.38752">
        <ele>812</ele>
        <time>2012-04-26T10:54:40Z</time>
      </trkpt>
      <trkpt lat="46.15891" lon="6.38734">
        <ele>818</ele>
        <time>2012-04-26T10:54:43Z</time>
      </trkpt>
      <trkpt lat="46.15892" lon="6.3872">
        <ele>818</ele>
        <time>2012-04-26T10:54:47Z</time>
      </trkpt>
      <trkpt lat="46.15891" lon="6.38735">
        <ele>809</ele>
        <time>2012-04-26T10:54:55Z</time>
      </trkpt>
      <trkpt lat="46.15895" lon="6.38751">
        <ele>799</ele>
        <time>2012-04-26T10:54:58Z</time>
      </trkpt>
      <trkpt lat="46.15902" lon="6.38766">
        <ele>793</ele>
        <time>2012-04-26T10:55:01Z</time>
      </trkpt>
      <trkpt lat="46.15905" lon="6.3878">
        <ele>793</ele>
        <time>2012-04-26T10:55:04Z</time>
      </trkpt>
      <trkpt lat="46.15912" lon="6.38796">
        <ele>793</ele>
        <time>2012-04-26T10:55:08Z</time>
      </trkpt>
      <trkpt lat="46.15909" lon="6.38808">
        <ele>793</ele>
        <time>2012-04-26T10:59:34Z</time>
      </trkpt>
      <trkpt lat="46.15921" lon="6.38819">
        <ele>793</ele>
        <time>2012-04-26T10:59:37Z</time>
      </trkpt>
      <trkpt lat="46.15933" lon="6.38828">
        <ele>793</ele>
        <time>2012-04-26T10:59:39Z</time>
      </trkpt>
      <trkpt lat="46.15941" lon="6.38836">
        <ele>793</ele>
        <time>2012-04-26T10:59:40Z</time>
      </trkpt>
      <trkpt lat="46.15949" lon="6.38843">
        <ele>799</ele>
        <time>2012-04-26T10:59:41Z</time>
      </trkpt>
      <trkpt lat="46.15958" lon="6.38851">
        <ele>799</ele>
        <time>2012-04-26T10:59:42Z</time>
      </trkpt>
      <trkpt lat="46.15968" lon="6.3886">
        <ele>799</ele>
        <time>2012-04-26T10:59:43Z</time>
      </trkpt>
      <trkpt lat="46.15978" lon="6.38868">
        <ele>799</ele>
        <time>2012-04-26T10:59:44Z</time>
      </trkpt>
      <trkpt lat="46.15988" lon="6.38876">
        <ele>799</ele>
        <time>2012-04-26T10:59:45Z</time>
      </trkpt>
      <trkpt lat="46.15998" lon="6.38884">
        <ele>799</ele>
        <time>2012-04-26T10:59:46Z</time>
      </trkpt>
      <trkpt lat="46.16008" lon="6.38892">
        <ele>799</ele>
        <time>2012-04-26T10:59:47Z</time>
      </trkpt>
      <trkpt lat="46.16018" lon="6.38899">
        <ele>793</ele>
        <time>2012-04-26T10:59:48Z</time>
      </trkpt>
      <trkpt lat="46.16028" lon="6.38905">
        <ele>793</ele>
        <time>2012-04-26T10:59:49Z</time>
      </trkpt>
      <trkpt lat="46.16037" lon="6.38911">
        <ele>793</ele>
        <time>2012-04-26T10:59:50Z</time>
      </trkpt>
      <trkpt lat="46.16048" lon="6.38918">
        <ele>793</ele>
        <time>2012-04-26T10:59:52Z</time>
      </trkpt>
      <trkpt lat="46.16047" lon="6.38904">
        <ele>793</ele>
        <time>2012-04-26T10:59:59Z</time>
      </trkpt>
      <trkpt lat="46.16036" lon="6.38894">
        <ele>793</ele>
        <time>2012-04-26T11:00:01Z</time>
      </trkpt>
      <trkpt lat="46.16024" lon="6.38881">
        <ele>793</ele>
        <time>2012-04-26T11:00:03Z</time>
      </trkpt>
      <trkpt lat="46.16015" lon="6.38868">
        <ele>793</ele>
        <time>2012-04-26T11:00:05Z</time>
      </trkpt>
      <trkpt lat="46.16005" lon="6.38855">
        <ele>798</ele>
        <time>2012-04-26T11:00:07Z</time>
      </trkpt>
      <trkpt lat="46.15996" lon="6.38839">
        <ele>798</ele>
        <time>2012-04-26T11:00:09Z</time>
      </trkpt>
      <trkpt lat="46.15984" lon="6.38823">
        <ele>798</ele>
        <time>2012-04-26T11:00:11Z</time>
      </trkpt>
      <trkpt lat="46.15974" lon="6.38811">
        <ele>798</ele>
        <time>2012-04-26T11:00:13Z</time>
      </trkpt>
      <trkpt lat="46.15965" lon="6.38797">
        <ele>798</ele>
        <time>2012-04-26T11:00:15Z</time>
      </trkpt>
      <trkpt lat="46.15956" lon="6.38785">
        <ele>798</ele>
        <time>2012-04-26T11:00:17Z</time>
      </trkpt>
      <trkpt lat="46.15949" lon="6.38773">
        <ele>806</ele>
        <time>2012-04-26T11:00:20Z</time>
      </trkpt>
      <trkpt lat="46.15958" lon="6.38784">
        <ele>806</ele>
        <time>2012-04-26T11:00:33Z</time>
      </trkpt>
      <trkpt lat="46.15964" lon="6.38795">
        <ele>806</ele>
        <time>2012-04-26T11:00:35Z</time>
      </trkpt>
      <trkpt lat="46.15973" lon="6.38807">
        <ele>806</ele>
        <time>2012-04-26T11:00:37Z</time>
      </trkpt>
      <trkpt lat="46.15981" lon="6.38823">
        <ele>806</ele>
        <time>2012-04-26T11:00:39Z</time>
      </trkpt>
      <trkpt lat="46.15992" lon="6.38841">
        <ele>806</ele>
        <time>2012-04-26T11:00:41Z</time>
      </trkpt>
      <trkpt lat="46.15998" lon="6.38851">
        <ele>806</ele>
        <time>2012-04-26T11:00:42Z</time>
      </trkpt>
      <trkpt lat="46.16006" lon="6.38859">
        <ele>799</ele>
        <time>2012-04-26T11:00:43Z</time>
      </trkpt>
      <trkpt lat="46.1602" lon="6.38876">
        <ele>799</ele>
        <time>2012-04-26T11:00:45Z</time>
      </trkpt>
      <trkpt lat="46.1603" lon="6.3889">
        <ele>799</ele>
        <time>2012-04-26T11:00:47Z</time>
      </trkpt>
      <trkpt lat="46.16041" lon="6.38901">
        <ele>794</ele>
        <time>2012-04-26T11:00:49Z</time>
      </trkpt>
      <trkpt lat="46.16049" lon="6.38909">
        <ele>794</ele>
        <time>2012-04-26T11:00:51Z</time>
      </trkpt>
      <trkpt lat="46.16057" lon="6.38917">
        <ele>794</ele>
        <time>2012-04-26T11:00:53Z</time>
      </trkpt>
      <trkpt lat="46.16069" lon="6.38925">
        <ele>788</ele>
        <time>2012-04-26T11:00:55Z</time>
      </trkpt>
      <trkpt lat="46.16084" lon="6.38931">
        <ele>788</ele>
        <time>2012-04-26T11:00:57Z</time>
      </trkpt>
      <trkpt lat="46.16101" lon="6.38935">
        <ele>788</ele>
        <time>2012-04-26T11:00:59Z</time>
      </trkpt>
      <trkpt lat="46.1611" lon="6.38936">
        <ele>788</ele>
        <time>2012-04-26T11:01:00Z</time>
      </trkpt>
      <trkpt lat="46.16126" lon="6.38939">
        <ele>793</ele>
        <time>2012-04-26T11:01:02Z</time>
      </trkpt>
      <trkpt lat="46.16139" lon="6.38938">
        <ele>793</ele>
        <time>2012-04-26T11:01:04Z</time>
      </trkpt>
      <trkpt lat="46.16149" lon="6.38938">
        <ele>788</ele>
        <time>2012-04-26T11:01:06Z</time>
      </trkpt>
      <trkpt lat="46.16163" lon="6.38942">
        <ele>788</ele>
        <time>2012-04-26T11:01:09Z</time>
      </trkpt>
      <trkpt lat="46.16172" lon="6.38947">
        <ele>788</ele>
        <time>2012-04-26T11:01:11Z</time>
      </trkpt>
      <trkpt lat="46.16194" lon="6.38956">
        <ele>788</ele>
        <time>2012-04-26T11:01:14Z</time>
      </trkpt>
      <trkpt lat="46.16206" lon="6.38961">
        <ele>788</ele>
        <time>2012-04-26T11:01:15Z</time>
      </trkpt>
      <trkpt lat="46.16217" lon="6.38962">
        <ele>788</ele>
        <time>2012-04-26T11:01:16Z</time>
      </trkpt>
      <trkpt lat="46.16228" lon="6.38963">
        <ele>782</ele>
        <time>2012-04-26T11:01:17Z</time>
      </trkpt>
      <trkpt lat="46.1624" lon="6.38964">
        <ele>782</ele>
        <time>2012-04-26T11:01:18Z</time>
      </trkpt>
      <trkpt lat="46.1625" lon="6.38965">
        <ele>787</ele>
        <time>2012-04-26T11:01:19Z</time>
      </trkpt>
      <trkpt lat="46.16262" lon="6.38967">
        <ele>787</ele>
        <time>2012-04-26T11:01:20Z</time>
      </trkpt>
      <trkpt lat="46.16275" lon="6.38973">
        <ele>793</ele>
        <time>2012-04-26T11:01:21Z</time>
      </trkpt>
      <trkpt lat="46.16288" lon="6.38978">
        <ele>793</ele>
        <time>2012-04-26T11:01:22Z</time>
      </trkpt>
      <trkpt lat="46.16312" lon="6.38989">
        <ele>793</ele>
        <time>2012-04-26T11:01:24Z</time>
      </trkpt>
      <trkpt lat="46.16326" lon="6.38995">
        <ele>793</ele>
        <time>2012-04-26T11:01:25Z</time>
      </trkpt>
      <trkpt lat="46.16336" lon="6.39001">
        <ele>793</ele>
        <time>2012-04-26T11:01:26Z</time>
      </trkpt>
      <trkpt lat="46.16347" lon="6.39006">
        <ele>793</ele>
        <time>2012-04-26T11:01:27Z</time>
      </trkpt>
      <trkpt lat="46.16358" lon="6.39008">
        <ele>793</ele>
        <time>2012-04-26T11:01:28Z</time>
      </trkpt>
      <trkpt lat="46.16368" lon="6.39009">
        <ele>799</ele>
        <time>2012-04-26T11:01:29Z</time>
      </trkpt>
      <trkpt lat="46.16378" lon="6.3901">
        <ele>799</ele>
        <time>2012-04-26T11:01:30Z</time>
      </trkpt>
      <trkpt lat="46.16388" lon="6.39012">
        <ele>799</ele>
        <time>2012-04-26T11:01:31Z</time>
      </trkpt>
      <trkpt lat="46.16398" lon="6.39012">
        <ele>799</ele>
        <time>2012-04-26T11:01:32Z</time>
      </trkpt>
      <trkpt lat="46.1641" lon="6.39013">
        <ele>799</ele>
        <time>2012-04-26T11:01:33Z</time>
      </trkpt>
      <trkpt lat="46.16421" lon="6.39014">
        <ele>807</ele>
        <time>2012-04-26T11:01:34Z</time>
      </trkpt>
      <trkpt lat="46.16431" lon="6.39014">
        <ele>807</ele>
        <time>2012-04-26T11:01:35Z</time>
      </trkpt>
      <trkpt lat="46.16441" lon="6.39015">
        <ele>813</ele>
        <time>2012-04-26T11:01:36Z</time>
      </trkpt>
      <trkpt lat="46.16455" lon="6.39017">
        <ele>813</ele>
        <time>2012-04-26T11:01:38Z</time>
      </trkpt>
      <trkpt lat="46.16466" lon="6.3902">
        <ele>827</ele>
        <time>2012-04-26T11:03:13Z</time>
      </trkpt>
      <trkpt lat="46.16479" lon="6.39018">
        <ele>827</ele>
        <time>2012-04-26T11:03:15Z</time>
      </trkpt>
      <trkpt lat="46.16494" lon="6.39015">
        <ele>827</ele>
        <time>2012-04-26T11:03:17Z</time>
      </trkpt>
      <trkpt lat="46.16509" lon="6.39011">
        <ele>827</ele>
        <time>2012-04-26T11:03:19Z</time>
      </trkpt>
      <trkpt lat="46.16525" lon="6.39009">
        <ele>827</ele>
        <time>2012-04-26T11:03:21Z</time>
      </trkpt>
      <trkpt lat="46.16541" lon="6.39008">
        <ele>827</ele>
        <time>2012-04-26T11:03:23Z</time>
      </trkpt>
      <trkpt lat="46.16559" lon="6.39002">
        <ele>827</ele>
        <time>2012-04-26T11:03:25Z</time>
      </trkpt>
      <trkpt lat="46.16569" lon="6.38999">
        <ele>827</ele>
        <time>2012-04-26T11:03:26Z</time>
      </trkpt>
      <trkpt lat="46.16578" lon="6.38997">
        <ele>827</ele>
        <time>2012-04-26T11:03:27Z</time>
      </trkpt>
      <trkpt lat="46.16594" lon="6.38993">
        <ele>827</ele>
        <time>2012-04-26T11:03:29Z</time>
      </trkpt>
      <trkpt lat="46.16584" lon="6.38987">
        <ele>827</ele>
        <time>2012-04-26T11:03:37Z</time>
      </trkpt>
      <trkpt lat="46.16574" lon="6.38982">
        <ele>827</ele>
        <time>2012-04-26T11:03:39Z</time>
      </trkpt>
      <trkpt lat="46.16563" lon="6.38979">
        <ele>827</ele>
        <time>2012-04-26T11:03:41Z</time>
      </trkpt>
      <trkpt lat="46.16551" lon="6.38974">
        <ele>827</ele>
        <time>2012-04-26T11:03:43Z</time>
      </trkpt>
      <trkpt lat="46.16542" lon="6.38968">
        <ele>832</ele>
        <time>2012-04-26T11:03:45Z</time>
      </trkpt>
      <trkpt lat="46.16527" lon="6.3895">
        <ele>832</ele>
        <time>2012-04-26T11:03:49Z</time>
      </trkpt>
      <trkpt lat="46.16518" lon="6.38942">
        <ele>832</ele>
        <time>2012-04-26T11:03:51Z</time>
      </trkpt>
      <trkpt lat="46.16523" lon="6.38955">
        <ele>850</ele>
        <time>2012-04-26T11:04:06Z</time>
      </trkpt>
      <trkpt lat="46.1653" lon="6.38963">
        <ele>850</ele>
        <time>2012-04-26T11:04:10Z</time>
      </trkpt>
      <trkpt lat="46.16539" lon="6.38972">
        <ele>850</ele>
        <time>2012-04-26T11:04:16Z</time>
      </trkpt>
      <trkpt lat="46.16551" lon="6.3898">
        <ele>843</ele>
        <time>2012-04-26T11:04:20Z</time>
      </trkpt>
      <trkpt lat="46.16569" lon="6.38989">
        <ele>838</ele>
        <time>2012-04-26T11:04:25Z</time>
      </trkpt>
      <trkpt lat="46.16579" lon="6.38989">
        <ele>838</ele>
        <time>2012-04-26T11:04:27Z</time>
      </trkpt>
      <trkpt lat="46.16593" lon="6.38992">
        <ele>831</ele>
        <time>2012-04-26T11:04:30Z</time>
      </trkpt>
      <trkpt lat="46.16607" lon="6.38991">
        <ele>831</ele>
        <time>2012-04-26T11:04:32Z</time>
      </trkpt>
      <trkpt lat="46.16624" lon="6.38987">
        <ele>831</ele>
        <time>2012-04-26T11:04:34Z</time>
      </trkpt>
      <trkpt lat="46.16634" lon="6.38986">
        <ele>831</ele>
        <time>2012-04-26T11:04:35Z</time>
      </trkpt>
      <trkpt lat="46.16644" lon="6.38984">
        <ele>831</ele>
        <time>2012-04-26T11:04:36Z</time>
      </trkpt>
      <trkpt lat="46.16654" lon="6.38983">
        <ele>831</ele>
        <time>2012-04-26T11:04:37Z</time>
      </trkpt>
      <trkpt lat="46.16666" lon="6.38982">
        <ele>831</ele>
        <time>2012-04-26T11:04:38Z</time>
      </trkpt>
      <trkpt lat="46.16677" lon="6.38982">
        <ele>831</ele>
        <time>2012-04-26T11:04:39Z</time>
      </trkpt>
      <trkpt lat="46.1669" lon="6.38982">
        <ele>831</ele>
        <time>2012-04-26T11:04:40Z</time>
      </trkpt>
      <trkpt lat="46.16702" lon="6.38982">
        <ele>837</ele>
        <time>2012-04-26T11:04:41Z</time>
      </trkpt>
      <trkpt lat="46.16715" lon="6.38982">
        <ele>837</ele>
        <time>2012-04-26T11:04:42Z</time>
      </trkpt>
      <trkpt lat="46.16726" lon="6.38982">
        <ele>837</ele>
        <time>2012-04-26T11:04:43Z</time>
      </trkpt>
      <trkpt lat="46.16744" lon="6.38984">
        <ele>837</ele>
        <time>2012-04-26T11:04:45Z</time>
      </trkpt>
      <trkpt lat="46.1676" lon="6.38986">
        <ele>842</ele>
        <time>2012-04-26T11:04:47Z</time>
      </trkpt>
      <trkpt lat="46.16769" lon="6.38987">
        <ele>842</ele>
        <time>2012-04-26T11:04:49Z</time>
      </trkpt>
      <trkpt lat="46.16759" lon="6.38986">
        <ele>842</ele>
        <time>2012-04-26T11:05:00Z</time>
      </trkpt>
      <trkpt lat="46.16765" lon="6.38974">
        <ele>842</ele>
        <time>2012-04-26T11:05:06Z</time>
      </trkpt>
      <trkpt lat="46.16775" lon="6.38967">
        <ele>842</ele>
        <time>2012-04-26T11:05:08Z</time>
      </trkpt>
      <trkpt lat="46.16787" lon="6.38958">
        <ele>842</ele>
        <time>2012-04-26T11:05:10Z</time>
      </trkpt>
      <trkpt lat="46.16795" lon="6.38947">
        <ele>848</ele>
        <time>2012-04-26T11:05:12Z</time>
      </trkpt>
      <trkpt lat="46.16803" lon="6.38938">
        <ele>848</ele>
        <time>2012-04-26T11:05:14Z</time>
      </trkpt>
      <trkpt lat="46.16811" lon="6.38928">
        <ele>848</ele>
        <time>2012-04-26T11:05:16Z</time>
      </trkpt>
      <trkpt lat="46.1682" lon="6.38917">
        <ele>848</ele>
        <time>2012-04-26T11:05:18Z</time>
      </trkpt>
      <trkpt lat="46.16829" lon="6.38907">
        <ele>855</ele>
        <time>2012-04-26T11:05:20Z</time>
      </trkpt>
      <trkpt lat="46.16838" lon="6.38897">
        <ele>855</ele>
        <time>2012-04-26T11:05:22Z</time>
      </trkpt>
      <trkpt lat="46.16833" lon="6.38884">
        <ele>861</ele>
        <time>2012-04-26T11:05:25Z</time>
      </trkpt>
      <trkpt lat="46.16825" lon="6.38873">
        <ele>861</ele>
        <time>2012-04-26T11:05:27Z</time>
      </trkpt>
      <trkpt lat="46.16817" lon="6.38863">
        <ele>870</ele>
        <time>2012-04-26T11:05:29Z</time>
      </trkpt>
      <trkpt lat="46.16828" lon="6.38855">
        <ele>880</ele>
        <time>2012-04-26T11:05:35Z</time>
      </trkpt>
      <trkpt lat="46.16841" lon="6.38853">
        <ele>880</ele>
        <time>2012-04-26T11:05:37Z</time>
      </trkpt>
      <trkpt lat="46.16855" lon="6.3885">
        <ele>887</ele>
        <time>2012-04-26T11:05:39Z</time>
      </trkpt>
      <trkpt lat="46.1687" lon="6.38841">
        <ele>887</ele>
        <time>2012-04-26T11:05:41Z</time>
      </trkpt>
      <trkpt lat="46.16883" lon="6.38832">
        <ele>893</ele>
        <time>2012-04-26T11:05:43Z</time>
      </trkpt>
      <trkpt lat="46.16892" lon="6.38823">
        <ele>899</ele>
        <time>2012-04-26T11:05:45Z</time>
      </trkpt>
      <trkpt lat="46.16884" lon="6.38813">
        <ele>908</ele>
        <time>2012-04-26T11:05:57Z</time>
      </trkpt>
      <trkpt lat="46.16874" lon="6.38802">
        <ele>908</ele>
        <time>2012-04-26T11:06:00Z</time>
      </trkpt>
      <trkpt lat="46.16863" lon="6.38791">
        <ele>914</ele>
        <time>2012-04-26T11:06:03Z</time>
      </trkpt>
      <trkpt lat="46.16857" lon="6.3878">
        <ele>914</ele>
        <time>2012-04-26T11:06:05Z</time>
      </trkpt>
      <trkpt lat="46.1685" lon="6.38769">
        <ele>914</ele>
        <time>2012-04-26T11:06:07Z</time>
      </trkpt>
      <trkpt lat="46.16842" lon="6.38759">
        <ele>921</ele>
        <time>2012-04-26T11:06:09Z</time>
      </trkpt>
      <trkpt lat="46.1683" lon="6.38749">
        <ele>921</ele>
        <time>2012-04-26T11:06:11Z</time>
      </trkpt>
      <trkpt lat="46.16818" lon="6.38737">
        <ele>927</ele>
        <time>2012-04-26T11:06:13Z</time>
      </trkpt>
      <trkpt lat="46.16808" lon="6.38726">
        <ele>927</ele>
        <time>2012-04-26T11:06:15Z</time>
      </trkpt>
      <trkpt lat="46.168" lon="6.38714">
        <ele>927</ele>
        <time>2012-04-26T11:06:17Z</time>
      </trkpt>
      <trkpt lat="46.16794" lon="6.38704">
        <ele>934</ele>
        <time>2012-04-26T11:06:19Z</time>
      </trkpt>
      <trkpt lat="46.16807" lon="6.38709">
        <ele>934</ele>
        <time>2012-04-26T11:06:46Z</time>
      </trkpt>
      <trkpt lat="46.16821" lon="6.38708">
        <ele>934</ele>
        <time>2012-04-26T11:06:49Z</time>
      </trkpt>
      <trkpt lat="46.16832" lon="6.38708">
        <ele>939</ele>
        <time>2012-04-26T11:06:52Z</time>
      </trkpt>
      <trkpt lat="46.16842" lon="6.38705">
        <ele>939</ele>
        <time>2012-04-26T11:06:57Z</time>
      </trkpt>
      <trkpt lat="46.16851" lon="6.38703">
        <ele>939</ele>
        <time>2012-04-26T11:07:05Z</time>
      </trkpt>
      <trkpt lat="46.16862" lon="6.38697">
        <ele>939</ele>
        <time>2012-04-26T11:07:11Z</time>
      </trkpt>
      <trkpt lat="46.16872" lon="6.3869">
        <ele>939</ele>
        <time>2012-04-26T11:07:15Z</time>
      </trkpt>
      <trkpt lat="46.16882" lon="6.38689">
        <ele>939</ele>
        <time>2012-04-26T11:07:19Z</time>
      </trkpt>
      <trkpt lat="46.16891" lon="6.38689">
        <ele>939</ele>
        <time>2012-04-26T11:07:24Z</time>
      </trkpt>
      <trkpt lat="46.169" lon="6.38698">
        <ele>939</ele>
        <time>2012-04-26T11:07:29Z</time>
      </trkpt>
      <trkpt lat="46.16909" lon="6.387">
        <ele>939</ele>
        <time>2012-04-26T11:07:33Z</time>
      </trkpt>
      <trkpt lat="46.16923" lon="6.387">
        <ele>929</ele>
        <time>2012-04-26T11:07:41Z</time>
      </trkpt>
      <trkpt lat="46.16933" lon="6.38697">
        <ele>929</ele>
        <time>2012-04-26T11:07:54Z</time>
      </trkpt>
      <trkpt lat="46.1694" lon="6.38706">
        <ele>929</ele>
        <time>2012-04-26T11:08:14Z</time>
      </trkpt>
      <trkpt lat="46.16936" lon="6.38721">
        <ele>935</ele>
        <time>2012-04-26T11:08:20Z</time>
      </trkpt>
      <trkpt lat="46.16929" lon="6.3873">
        <ele>935</ele>
        <time>2012-04-26T11:08:29Z</time>
      </trkpt>
      <trkpt lat="46.16936" lon="6.3872">
        <ele>935</ele>
        <time>2012-04-26T11:09:03Z</time>
      </trkpt>
      <trkpt lat="46.16943" lon="6.38709">
        <ele>935</ele>
        <time>2012-04-26T11:09:07Z</time>
      </trkpt>
      <trkpt lat="46.16936" lon="6.3872">
        <ele>935</ele>
        <time>2012-04-26T11:10:04Z</time>
      </trkpt>
      <trkpt lat="46.16926" lon="6.38731">
        <ele>935</ele>
        <time>2012-04-26T11:10:07Z</time>
      </trkpt>
      <trkpt lat="46.16916" lon="6.38741">
        <ele>935</ele>
        <time>2012-04-26T11:10:10Z</time>
      </trkpt>
      <trkpt lat="46.16906" lon="6.38752">
        <ele>935</ele>
        <time>2012-04-26T11:10:13Z</time>
      </trkpt>
      <trkpt lat="46.16896" lon="6.38762">
        <ele>929</ele>
        <time>2012-04-26T11:10:16Z</time>
      </trkpt>
      <trkpt lat="46.16886" lon="6.38774">
        <ele>929</ele>
        <time>2012-04-26T11:10:19Z</time>
      </trkpt>
      <trkpt lat="46.16874" lon="6.38784">
        <ele>929</ele>
        <time>2012-04-26T11:10:22Z</time>
      </trkpt>
      <trkpt lat="46.16863" lon="6.38787">
        <ele>922</ele>
        <time>2012-04-26T11:10:25Z</time>
      </trkpt>
      <trkpt lat="46.16868" lon="6.38799">
        <ele>914</ele>
        <time>2012-04-26T11:10:39Z</time>
      </trkpt>
      <trkpt lat="46.16878" lon="6.38807">
        <ele>909</ele>
        <time>2012-04-26T11:10:43Z</time>
      </trkpt>
      <trkpt lat="46.16886" lon="6.38815">
        <ele>909</ele>
        <time>2012-04-26T11:10:46Z</time>
      </trkpt>
      <trkpt lat="46.16898" lon="6.38818">
        <ele>903</ele>
        <time>2012-04-26T11:10:50Z</time>
      </trkpt>
      <trkpt lat="46.1691" lon="6.38815">
        <ele>903</ele>
        <time>2012-04-26T11:10:53Z</time>
      </trkpt>
      <trkpt lat="46.16922" lon="6.38812">
        <ele>903</ele>
        <time>2012-04-26T11:10:56Z</time>
      </trkpt>
      <trkpt lat="46.16934" lon="6.38812">
        <ele>903</ele>
        <time>2012-04-26T11:10:59Z</time>
      </trkpt>
      <trkpt lat="46.16944" lon="6.38806">
        <ele>903</ele>
        <time>2012-04-26T11:11:02Z</time>
      </trkpt>
      <trkpt lat="46.16951" lon="6.38797">
        <ele>903</ele>
        <time>2012-04-26T11:11:04Z</time>
      </trkpt>
      <trkpt lat="46.16961" lon="6.38788">
        <ele>903</ele>
        <time>2012-04-26T11:11:07Z</time>
      </trkpt>
      <trkpt lat="46.16971" lon="6.38779">
        <ele>903</ele>
        <time>2012-04-26T11:11:10Z</time>
      </trkpt>
      <trkpt lat="46.1698" lon="6.3877">
        <ele>903</ele>
        <time>2012-04-26T11:11:14Z</time>
      </trkpt>
      <trkpt lat="46.16989" lon="6.38764">
        <ele>914</ele>
        <time>2012-04-26T11:11:28Z</time>
      </trkpt>
      <trkpt lat="46.16999" lon="6.38759">
        <ele>914</ele>
        <time>2012-04-26T11:11:31Z</time>
      </trkpt>
      <trkpt lat="46.1701" lon="6.38753">
        <ele>914</ele>
        <time>2012-04-26T11:11:33Z</time>
      </trkpt>
      <trkpt lat="46.17023" lon="6.38752">
        <ele>914</ele>
        <time>2012-04-26T11:11:36Z</time>
      </trkpt>
      <trkpt lat="46.17037" lon="6.38745">
        <ele>914</ele>
        <time>2012-04-26T11:11:40Z</time>
      </trkpt>
      <trkpt lat="46.17049" lon="6.38741">
        <ele>914</ele>
        <time>2012-04-26T11:11:42Z</time>
      </trkpt>
      <trkpt lat="46.17058" lon="6.38737">
        <ele>914</ele>
        <time>2012-04-26T11:11:44Z</time>
      </trkpt>
      <trkpt lat="46.17067" lon="6.38732">
        <ele>914</ele>
        <time>2012-04-26T11:11:46Z</time>
      </trkpt>
      <trkpt lat="46.17079" lon="6.38726">
        <ele>923</ele>
        <time>2012-04-26T11:11:49Z</time>
      </trkpt>
      <trkpt lat="46.1709" lon="6.38725">
        <ele>923</ele>
        <time>2012-04-26T11:11:53Z</time>
      </trkpt>
      <trkpt lat="46.17099" lon="6.3873">
        <ele>923</ele>
        <time>2012-04-26T11:11:56Z</time>
      </trkpt>
      <trkpt lat="46.17109" lon="6.38731">
        <ele>923</ele>
        <time>2012-04-26T11:11:59Z</time>
      </trkpt>
      <trkpt lat="46.17118" lon="6.38727">
        <ele>923</ele>
        <time>2012-04-26T11:12:01Z</time>
      </trkpt>
      <trkpt lat="46.17135" lon="6.38724">
        <ele>923</ele>
        <time>2012-04-26T11:12:05Z</time>
      </trkpt>
      <trkpt lat="46.17145" lon="6.3872">
        <ele>923</ele>
        <time>2012-04-26T11:12:07Z</time>
      </trkpt>
      <trkpt lat="46.17155" lon="6.38716">
        <ele>917</ele>
        <time>2012-04-26T11:12:10Z</time>
      </trkpt>
      <trkpt lat="46.17166" lon="6.3871">
        <ele>917</ele>
        <time>2012-04-26T11:12:13Z</time>
      </trkpt>
      <trkpt lat="46.17177" lon="6.38708">
        <ele>917</ele>
        <time>2012-04-26T11:12:16Z</time>
      </trkpt>
      <trkpt lat="46.17188" lon="6.38706">
        <ele>925</ele>
        <time>2012-04-26T11:12:19Z</time>
      </trkpt>
      <trkpt lat="46.17202" lon="6.38707">
        <ele>925</ele>
        <time>2012-04-26T11:12:22Z</time>
      </trkpt>
      <trkpt lat="46.17212" lon="6.38706">
        <ele>925</ele>
        <time>2012-04-26T11:12:24Z</time>
      </trkpt>
      <trkpt lat="46.17222" lon="6.38707">
        <ele>925</ele>
        <time>2012-04-26T11:12:26Z</time>
      </trkpt>
      <trkpt lat="46.17237" lon="6.38709">
        <ele>933</ele>
        <time>2012-04-26T11:12:29Z</time>
      </trkpt>
      <trkpt lat="46.17248" lon="6.38707">
        <ele>933</ele>
        <time>2012-04-26T11:12:33Z</time>
      </trkpt>
      <trkpt lat="46.17258" lon="6.38706">
        <ele>933</ele>
        <time>2012-04-26T11:12:36Z</time>
      </trkpt>
      <trkpt lat="46.17267" lon="6.38711">
        <ele>933</ele>
        <time>2012-04-26T11:12:40Z</time>
      </trkpt>
      <trkpt lat="46.17275" lon="6.38719">
        <ele>933</ele>
        <time>2012-04-26T11:12:44Z</time>
      </trkpt>
      <trkpt lat="46.17286" lon="6.38719">
        <ele>926</ele>
        <time>2012-04-26T11:12:47Z</time>
      </trkpt>
      <trkpt lat="46.17299" lon="6.38721">
        <ele>926</ele>
        <time>2012-04-26T11:12:50Z</time>
      </trkpt>
      <trkpt lat="46.1731" lon="6.38724">
        <ele>926</ele>
        <time>2012-04-26T11:12:52Z</time>
      </trkpt>
      <trkpt lat="46.17332" lon="6.38727">
        <ele>926</ele>
        <time>2012-04-26T11:12:57Z</time>
      </trkpt>
      <trkpt lat="46.17346" lon="6.38728">
        <ele>926</ele>
        <time>2012-04-26T11:12:59Z</time>
      </trkpt>
      <trkpt lat="46.17356" lon="6.38728">
        <ele>926</ele>
        <time>2012-04-26T11:13:01Z</time>
      </trkpt>
      <trkpt lat="46.17366" lon="6.38731">
        <ele>926</ele>
        <time>2012-04-26T11:13:03Z</time>
      </trkpt>
      <trkpt lat="46.17375" lon="6.38735">
        <ele>926</ele>
        <time>2012-04-26T11:13:05Z</time>
      </trkpt>
      <trkpt lat="46.17388" lon="6.38742">
        <ele>926</ele>
        <time>2012-04-26T11:13:08Z</time>
      </trkpt>
      <trkpt lat="46.17398" lon="6.38742">
        <ele>926</ele>
        <time>2012-04-26T11:13:12Z</time>
      </trkpt>
      <trkpt lat="46.1739" lon="6.38745">
        <ele>937</ele>
        <time>2012-04-26T11:13:25Z</time>
      </trkpt>
      <trkpt lat="46.17381" lon="6.38751">
        <ele>937</ele>
        <time>2012-04-26T11:13:27Z</time>
      </trkpt>
      <trkpt lat="46.17371" lon="6.38756">
        <ele>937</ele>
        <time>2012-04-26T11:13:29Z</time>
      </trkpt>
      <trkpt lat="46.17359" lon="6.38763">
        <ele>929</ele>
        <time>2012-04-26T11:13:31Z</time>
      </trkpt>
      <trkpt lat="46.17346" lon="6.38767">
        <ele>929</ele>
        <time>2012-04-26T11:13:33Z</time>
      </trkpt>
      <trkpt lat="46.17331" lon="6.38766">
        <ele>929</ele>
        <time>2012-04-26T11:13:35Z</time>
      </trkpt>
      <trkpt lat="46.17316" lon="6.38768">
        <ele>924</ele>
        <time>2012-04-26T11:13:37Z</time>
      </trkpt>
      <trkpt lat="46.17302" lon="6.38768">
        <ele>924</ele>
        <time>2012-04-26T11:13:39Z</time>
      </trkpt>
      <trkpt lat="46.17288" lon="6.38771">
        <ele>924</ele>
        <time>2012-04-26T11:13:41Z</time>
      </trkpt>
      <trkpt lat="46.17275" lon="6.38779">
        <ele>924</ele>
        <time>2012-04-26T11:13:43Z</time>
      </trkpt>
      <trkpt lat="46.17267" lon="6.38787">
        <ele>924</ele>
        <time>2012-04-26T11:13:44Z</time>
      </trkpt>
      <trkpt lat="46.17251" lon="6.38796">
        <ele>924</ele>
        <time>2012-04-26T11:13:46Z</time>
      </trkpt>
      <trkpt lat="46.17223" lon="6.38812">
        <ele>916</ele>
        <time>2012-04-26T11:13:50Z</time>
      </trkpt>
      <trkpt lat="46.17205" lon="6.38815">
        <ele>910</ele>
        <time>2012-04-26T11:13:52Z</time>
      </trkpt>
      <trkpt lat="46.17188" lon="6.38818">
        <ele>904</ele>
        <time>2012-04-26T11:13:54Z</time>
      </trkpt>
      <trkpt lat="46.17165" lon="6.38825">
        <ele>904</ele>
        <time>2012-04-26T11:13:57Z</time>
      </trkpt>
      <trkpt lat="46.17154" lon="6.3883">
        <ele>899</ele>
        <time>2012-04-26T11:13:58Z</time>
      </trkpt>
      <trkpt lat="46.17139" lon="6.38839">
        <ele>899</ele>
        <time>2012-04-26T11:14:00Z</time>
      </trkpt>
      <trkpt lat="46.17131" lon="6.38846">
        <ele>899</ele>
        <time>2012-04-26T11:14:01Z</time>
      </trkpt>
      <trkpt lat="46.17117" lon="6.38859">
        <ele>899</ele>
        <time>2012-04-26T11:14:03Z</time>
      </trkpt>
      <trkpt lat="46.17104" lon="6.38863">
        <ele>899</ele>
        <time>2012-04-26T11:14:05Z</time>
      </trkpt>
      <trkpt lat="46.17089" lon="6.38868">
        <ele>893</ele>
        <time>2012-04-26T11:14:07Z</time>
      </trkpt>
      <trkpt lat="46.17076" lon="6.38872">
        <ele>893</ele>
        <time>2012-04-26T11:14:09Z</time>
      </trkpt>
      <trkpt lat="46.17062" lon="6.38875">
        <ele>887</ele>
        <time>2012-04-26T11:14:11Z</time>
      </trkpt>
      <trkpt lat="46.17049" lon="6.38877">
        <ele>887</ele>
        <time>2012-04-26T11:14:13Z</time>
      </trkpt>
      <trkpt lat="46.17037" lon="6.38884">
        <ele>887</ele>
        <time>2012-04-26T11:14:15Z</time>
      </trkpt>
      <trkpt lat="46.17027" lon="6.38885">
        <ele>887</ele>
        <time>2012-04-26T11:14:17Z</time>
      </trkpt>
      <trkpt lat="46.17016" lon="6.38888">
        <ele>887</ele>
        <time>2012-04-26T11:14:19Z</time>
      </trkpt>
      <trkpt lat="46.17005" lon="6.38894">
        <ele>887</ele>
        <time>2012-04-26T11:14:22Z</time>
      </trkpt>
      <trkpt lat="46.16996" lon="6.389">
        <ele>877</ele>
        <time>2012-04-26T11:14:24Z</time>
      </trkpt>
      <trkpt lat="46.16985" lon="6.3891">
        <ele>877</ele>
        <time>2012-04-26T11:14:26Z</time>
      </trkpt>
      <trkpt lat="46.16973" lon="6.38921">
        <ele>871</ele>
        <time>2012-04-26T11:14:28Z</time>
      </trkpt>
      <trkpt lat="46.16959" lon="6.38935">
        <ele>871</ele>
        <time>2012-04-26T11:14:30Z</time>
      </trkpt>
      <trkpt lat="46.16947" lon="6.38945">
        <ele>864</ele>
        <time>2012-04-26T11:14:32Z</time>
      </trkpt>
      <trkpt lat="46.16935" lon="6.3895">
        <ele>864</ele>
        <time>2012-04-26T11:14:34Z</time>
      </trkpt>
      <trkpt lat="46.16924" lon="6.38954">
        <ele>864</ele>
        <time>2012-04-26T11:14:36Z</time>
      </trkpt>
      <trkpt lat="46.16913" lon="6.38959">
        <ele>864</ele>
        <time>2012-04-26T11:14:38Z</time>
      </trkpt>
      <trkpt lat="46.16902" lon="6.38964">
        <ele>864</ele>
        <time>2012-04-26T11:14:41Z</time>
      </trkpt>
      <trkpt lat="46.16898" lon="6.38978">
        <ele>858</ele>
        <time>2012-04-26T11:15:33Z</time>
      </trkpt>
      <trkpt lat="46.169" lon="6.38995">
        <ele>858</ele>
        <time>2012-04-26T11:15:35Z</time>
      </trkpt>
      <trkpt lat="46.16899" lon="6.39016">
        <ele>858</ele>
        <time>2012-04-26T11:15:37Z</time>
      </trkpt>
      <trkpt lat="46.16896" lon="6.3904">
        <ele>858</ele>
        <time>2012-04-26T11:15:39Z</time>
      </trkpt>
      <trkpt lat="46.16895" lon="6.3906">
        <ele>858</ele>
        <time>2012-04-26T11:15:41Z</time>
      </trkpt>
      <trkpt lat="46.16893" lon="6.39075">
        <ele>858</ele>
        <time>2012-04-26T11:15:50Z</time>
      </trkpt>
      <trkpt lat="46.16886" lon="6.39086">
        <ele>858</ele>
        <time>2012-04-26T11:15:53Z</time>
      </trkpt>
      <trkpt lat="46.16878" lon="6.39097">
        <ele>858</ele>
        <time>2012-04-26T11:15:55Z</time>
      </trkpt>
      <trkpt lat="46.1687" lon="6.39106">
        <ele>858</ele>
        <time>2012-04-26T11:15:57Z</time>
      </trkpt>
      <trkpt lat="46.1686" lon="6.39104">
        <ele>858</ele>
        <time>2012-04-26T11:15:59Z</time>
      </trkpt>
      <trkpt lat="46.16849" lon="6.391">
        <ele>858</ele>
        <time>2012-04-26T11:16:01Z</time>
      </trkpt>
      <trkpt lat="46.16837" lon="6.39105">
        <ele>858</ele>
        <time>2012-04-26T11:16:04Z</time>
      </trkpt>
      <trkpt lat="46.16823" lon="6.3911">
        <ele>858</ele>
        <time>2012-04-26T11:16:07Z</time>
      </trkpt>
      <trkpt lat="46.16815" lon="6.39115">
        <ele>858</ele>
        <time>2012-04-26T11:16:09Z</time>
      </trkpt>
      <trkpt lat="46.16806" lon="6.3912">
        <ele>858</ele>
        <time>2012-04-26T11:16:12Z</time>
      </trkpt>
      <trkpt lat="46.16798" lon="6.39131">
        <ele>851</ele>
        <time>2012-04-26T11:16:21Z</time>
      </trkpt>
      <trkpt lat="46.16791" lon="6.39141">
        <ele>851</ele>
        <time>2012-04-26T11:16:23Z</time>
      </trkpt>
      <trkpt lat="46.16782" lon="6.39151">
        <ele>851</ele>
        <time>2012-04-26T11:16:26Z</time>
      </trkpt>
      <trkpt lat="46.16773" lon="6.39157">
        <ele>844</ele>
        <time>2012-04-26T11:16:28Z</time>
      </trkpt>
      <trkpt lat="46.1676" lon="6.39164">
        <ele>844</ele>
        <time>2012-04-26T11:16:30Z</time>
      </trkpt>
      <trkpt lat="46.16747" lon="6.39174">
        <ele>844</ele>
        <time>2012-04-26T11:16:32Z</time>
      </trkpt>
      <trkpt lat="46.16732" lon="6.39181">
        <ele>844</ele>
        <time>2012-04-26T11:16:34Z</time>
      </trkpt>
      <trkpt lat="46.16716" lon="6.39192">
        <ele>838</ele>
        <time>2012-04-26T11:16:36Z</time>
      </trkpt>
      <trkpt lat="46.16701" lon="6.39204">
        <ele>838</ele>
        <time>2012-04-26T11:16:38Z</time>
      </trkpt>
      <trkpt lat="46.16687" lon="6.39218">
        <ele>838</ele>
        <time>2012-04-26T11:16:40Z</time>
      </trkpt>
      <trkpt lat="46.16672" lon="6.39233">
        <ele>833</ele>
        <time>2012-04-26T11:16:42Z</time>
      </trkpt>
      <trkpt lat="46.16659" lon="6.39249">
        <ele>833</ele>
        <time>2012-04-26T11:16:44Z</time>
      </trkpt>
      <trkpt lat="46.16644" lon="6.39266">
        <ele>833</ele>
        <time>2012-04-26T11:16:46Z</time>
      </trkpt>
      <trkpt lat="46.1663" lon="6.39284">
        <ele>825</ele>
        <time>2012-04-26T11:16:48Z</time>
      </trkpt>
      <trkpt lat="46.16622" lon="6.39293">
        <ele>825</ele>
        <time>2012-04-26T11:16:49Z</time>
      </trkpt>
      <trkpt lat="46.16614" lon="6.39301">
        <ele>825</ele>
        <time>2012-04-26T11:16:50Z</time>
      </trkpt>
      <trkpt lat="46.16607" lon="6.3931">
        <ele>825</ele>
        <time>2012-04-26T11:16:51Z</time>
      </trkpt>
      <trkpt lat="46.16599" lon="6.39318">
        <ele>820</ele>
        <time>2012-04-26T11:16:52Z</time>
      </trkpt>
      <trkpt lat="46.16592" lon="6.39327">
        <ele>820</ele>
        <time>2012-04-26T11:16:53Z</time>
      </trkpt>
      <trkpt lat="46.16578" lon="6.39341">
        <ele>820</ele>
        <time>2012-04-26T11:16:55Z</time>
      </trkpt>
      <trkpt lat="46.16566" lon="6.39356">
        <ele>812</ele>
        <time>2012-04-26T11:16:57Z</time>
      </trkpt>
      <trkpt lat="46.16556" lon="6.39374">
        <ele>812</ele>
        <time>2012-04-26T11:16:59Z</time>
      </trkpt>
      <trkpt lat="46.16553" lon="6.3939">
        <ele>805</ele>
        <time>2012-04-26T11:17:01Z</time>
      </trkpt>
      <trkpt lat="46.16543" lon="6.39403">
        <ele>793</ele>
        <time>2012-04-26T11:17:26Z</time>
      </trkpt>
      <trkpt lat="46.16527" lon="6.39407">
        <ele>793</ele>
        <time>2012-04-26T11:17:28Z</time>
      </trkpt>
      <trkpt lat="46.16511" lon="6.39411">
        <ele>793</ele>
        <time>2012-04-26T11:17:30Z</time>
      </trkpt>
      <trkpt lat="46.16498" lon="6.39415">
        <ele>793</ele>
        <time>2012-04-26T11:17:32Z</time>
      </trkpt>
      <trkpt lat="46.16486" lon="6.39424">
        <ele>793</ele>
        <time>2012-04-26T11:17:34Z</time>
      </trkpt>
      <trkpt lat="46.16475" lon="6.39438">
        <ele>793</ele>
        <time>2012-04-26T11:17:36Z</time>
      </trkpt>
      <trkpt lat="46.16465" lon="6.39454">
        <ele>786</ele>
        <time>2012-04-26T11:17:38Z</time>
      </trkpt>
      <trkpt lat="46.16458" lon="6.39464">
        <ele>786</ele>
        <time>2012-04-26T11:17:39Z</time>
      </trkpt>
      <trkpt lat="46.16445" lon="6.39483">
        <ele>786</ele>
        <time>2012-04-26T11:17:41Z</time>
      </trkpt>
      <trkpt lat="46.16432" lon="6.39502">
        <ele>786</ele>
        <time>2012-04-26T11:17:43Z</time>
      </trkpt>
      <trkpt lat="46.16423" lon="6.39521">
        <ele>779</ele>
        <time>2012-04-26T11:17:45Z</time>
      </trkpt>
      <trkpt lat="46.16421" lon="6.39541">
        <ele>779</ele>
        <time>2012-04-26T11:17:47Z</time>
      </trkpt>
      <trkpt lat="46.16421" lon="6.39557">
        <ele>779</ele>
        <time>2012-04-26T11:17:49Z</time>
      </trkpt>
      <trkpt lat="46.16422" lon="6.39574">
        <ele>779</ele>
        <time>2012-04-26T11:17:53Z</time>
      </trkpt>
      <trkpt lat="46.16427" lon="6.39594">
        <ele>779</ele>
        <time>2012-04-26T11:17:56Z</time>
      </trkpt>
      <trkpt lat="46.16428" lon="6.39616">
        <ele>773</ele>
        <time>2012-04-26T11:17:58Z</time>
      </trkpt>
      <trkpt lat="46.16425" lon="6.39639">
        <ele>773</ele>
        <time>2012-04-26T11:18:00Z</time>
      </trkpt>
      <trkpt lat="46.16423" lon="6.39653">
        <ele>773</ele>
        <time>2012-04-26T11:18:01Z</time>
      </trkpt>
      <trkpt lat="46.16418" lon="6.39676">
        <ele>773</ele>
        <time>2012-04-26T11:18:03Z</time>
      </trkpt>
      <trkpt lat="46.16414" lon="6.3969">
        <ele>773</ele>
        <time>2012-04-26T11:18:04Z</time>
      </trkpt>
      <trkpt lat="46.1641" lon="6.39703">
        <ele>773</ele>
        <time>2012-04-26T11:18:05Z</time>
      </trkpt>
      <trkpt lat="46.16404" lon="6.39714">
        <ele>773</ele>
        <time>2012-04-26T11:18:06Z</time>
      </trkpt>
      <trkpt lat="46.16398" lon="6.39724">
        <ele>773</ele>
        <time>2012-04-26T11:18:07Z</time>
      </trkpt>
      <trkpt lat="46.16389" lon="6.39745">
        <ele>773</ele>
        <time>2012-04-26T11:18:09Z</time>
      </trkpt>
      <trkpt lat="46.16384" lon="6.39762">
        <ele>773</ele>
        <time>2012-04-26T11:18:11Z</time>
      </trkpt>
      <trkpt lat="46.16374" lon="6.39766">
        <ele>773</ele>
        <time>2012-04-26T11:18:28Z</time>
      </trkpt>
      <trkpt lat="46.16365" lon="6.39759">
        <ele>773</ele>
        <time>2012-04-26T11:18:31Z</time>
      </trkpt>
      <trkpt lat="46.16355" lon="6.39754">
        <ele>773</ele>
        <time>2012-04-26T11:18:33Z</time>
      </trkpt>
      <trkpt lat="46.16345" lon="6.39751">
        <ele>773</ele>
        <time>2012-04-26T11:18:35Z</time>
      </trkpt>
      <trkpt lat="46.16333" lon="6.39751">
        <ele>773</ele>
        <time>2012-04-26T11:18:38Z</time>
      </trkpt>
      <trkpt lat="46.16321" lon="6.39754">
        <ele>773</ele>
        <time>2012-04-26T11:18:41Z</time>
      </trkpt>
      <trkpt lat="46.16312" lon="6.39759">
        <ele>773</ele>
        <time>2012-04-26T11:18:44Z</time>
      </trkpt>
      <trkpt lat="46.16304" lon="6.39764">
        <ele>773</ele>
        <time>2012-04-26T11:18:47Z</time>
      </trkpt>
      <trkpt lat="46.16292" lon="6.39768">
        <ele>768</ele>
        <time>2012-04-26T11:18:50Z</time>
      </trkpt>
      <trkpt lat="46.16279" lon="6.3977">
        <ele>768</ele>
        <time>2012-04-26T11:18:53Z</time>
      </trkpt>
      <trkpt lat="46.16269" lon="6.39773">
        <ele>768</ele>
        <time>2012-04-26T11:18:56Z</time>
      </trkpt>
      <trkpt lat="46.16262" lon="6.39764">
        <ele>763</ele>
        <time>2012-04-26T11:19:07Z</time>
      </trkpt>
      <trkpt lat="46.1625" lon="6.39762">
        <ele>763</ele>
        <time>2012-04-26T11:19:11Z</time>
      </trkpt>
      <trkpt lat="46.16238" lon="6.39762">
        <ele>763</ele>
        <time>2012-04-26T11:19:14Z</time>
      </trkpt>
      <trkpt lat="46.16228" lon="6.39764">
        <ele>763</ele>
        <time>2012-04-26T11:19:17Z</time>
      </trkpt>
      <trkpt lat="46.16219" lon="6.39768">
        <ele>763</ele>
        <time>2012-04-26T11:19:20Z</time>
      </trkpt>
      <trkpt lat="46.16207" lon="6.39771">
        <ele>757</ele>
        <time>2012-04-26T11:19:23Z</time>
      </trkpt>
      <trkpt lat="46.16195" lon="6.39775">
        <ele>757</ele>
        <time>2012-04-26T11:19:26Z</time>
      </trkpt>
      <trkpt lat="46.16184" lon="6.39781">
        <ele>757</ele>
        <time>2012-04-26T11:19:30Z</time>
      </trkpt>
      <trkpt lat="46.16173" lon="6.39781">
        <ele>751</ele>
        <time>2012-04-26T11:19:34Z</time>
      </trkpt>
      <trkpt lat="46.16162" lon="6.39777">
        <ele>751</ele>
        <time>2012-04-26T11:19:39Z</time>
      </trkpt>
      <trkpt lat="46.16149" lon="6.39777">
        <ele>751</ele>
        <time>2012-04-26T11:19:43Z</time>
      </trkpt>
      <trkpt lat="46.1614" lon="6.39774">
        <ele>751</ele>
        <time>2012-04-26T11:19:46Z</time>
      </trkpt>
      <trkpt lat="46.1613" lon="6.39781">
        <ele>751</ele>
        <time>2012-04-26T11:20:02Z</time>
      </trkpt>
      <trkpt lat="46.16118" lon="6.39782">
        <ele>745</ele>
        <time>2012-04-26T11:20:04Z</time>
      </trkpt>
      <trkpt lat="46.16103" lon="6.39786">
        <ele>745</ele>
        <time>2012-04-26T11:20:06Z</time>
      </trkpt>
      <trkpt lat="46.16088" lon="6.39792">
        <ele>738</ele>
        <time>2012-04-26T11:20:08Z</time>
      </trkpt>
      <trkpt lat="46.16074" lon="6.39804">
        <ele>738</ele>
        <time>2012-04-26T11:20:10Z</time>
      </trkpt>
      <trkpt lat="46.16061" lon="6.39819">
        <ele>738</ele>
        <time>2012-04-26T11:20:12Z</time>
      </trkpt>
      <trkpt lat="46.16049" lon="6.39835">
        <ele>730</ele>
        <time>2012-04-26T11:20:14Z</time>
      </trkpt>
      <trkpt lat="46.16038" lon="6.39852">
        <ele>730</ele>
        <time>2012-04-26T11:20:16Z</time>
      </trkpt>
      <trkpt lat="46.16026" lon="6.39868">
        <ele>723</ele>
        <time>2012-04-26T11:20:18Z</time>
      </trkpt>
      <trkpt lat="46.16015" lon="6.39883">
        <ele>723</ele>
        <time>2012-04-26T11:20:20Z</time>
      </trkpt>
      <trkpt lat="46.15999" lon="6.39893">
        <ele>716</ele>
        <time>2012-04-26T11:20:22Z</time>
      </trkpt>
      <trkpt lat="46.15983" lon="6.39897">
        <ele>716</ele>
        <time>2012-04-26T11:20:24Z</time>
      </trkpt>
      <trkpt lat="46.15968" lon="6.399">
        <ele>711</ele>
        <time>2012-04-26T11:20:26Z</time>
      </trkpt>
      <trkpt lat="46.15951" lon="6.39905">
        <ele>711</ele>
        <time>2012-04-26T11:20:28Z</time>
      </trkpt>
      <trkpt lat="46.15935" lon="6.39911">
        <ele>711</ele>
        <time>2012-04-26T11:20:30Z</time>
      </trkpt>
      <trkpt lat="46.15918" lon="6.39911">
        <ele>702</ele>
        <time>2012-04-26T11:20:32Z</time>
      </trkpt>
      <trkpt lat="46.15901" lon="6.3991">
        <ele>702</ele>
        <time>2012-04-26T11:20:34Z</time>
      </trkpt>
      <trkpt lat="46.15885" lon="6.39912">
        <ele>695</ele>
        <time>2012-04-26T11:20:36Z</time>
      </trkpt>
      <trkpt lat="46.15869" lon="6.39919">
        <ele>695</ele>
        <time>2012-04-26T11:20:38Z</time>
      </trkpt>
      <trkpt lat="46.15855" lon="6.39927">
        <ele>688</ele>
        <time>2012-04-26T11:20:40Z</time>
      </trkpt>
      <trkpt lat="46.15842" lon="6.39938">
        <ele>688</ele>
        <time>2012-04-26T11:20:42Z</time>
      </trkpt>
      <trkpt lat="46.15831" lon="6.39954">
        <ele>681</ele>
        <time>2012-04-26T11:20:44Z</time>
      </trkpt>
      <trkpt lat="46.15822" lon="6.3997">
        <ele>681</ele>
        <time>2012-04-26T11:20:46Z</time>
      </trkpt>
      <trkpt lat="46.15814" lon="6.39982">
        <ele>674</ele>
        <time>2012-04-26T11:20:48Z</time>
      </trkpt>
      <trkpt lat="46.15807" lon="6.39994">
        <ele>674</ele>
        <time>2012-04-26T11:20:50Z</time>
      </trkpt>
      <trkpt lat="46.15802" lon="6.40007">
        <ele>674</ele>
        <time>2012-04-26T11:20:53Z</time>
      </trkpt>
      <trkpt lat="46.15795" lon="6.40025">
        <ele>674</ele>
        <time>2012-04-26T11:20:55Z</time>
      </trkpt>
      <trkpt lat="46.15789" lon="6.40037">
        <ele>674</ele>
        <time>2012-04-26T11:20:56Z</time>
      </trkpt>
      <trkpt lat="46.15784" lon="6.40051">
        <ele>674</ele>
        <time>2012-04-26T11:20:57Z</time>
      </trkpt>
      <trkpt lat="46.15778" lon="6.40062">
        <ele>674</ele>
        <time>2012-04-26T11:20:58Z</time>
      </trkpt>
      <trkpt lat="46.15772" lon="6.40075">
        <ele>674</ele>
        <time>2012-04-26T11:20:59Z</time>
      </trkpt>
      <trkpt lat="46.15767" lon="6.40086">
        <ele>669</ele>
        <time>2012-04-26T11:21:00Z</time>
      </trkpt>
      <trkpt lat="46.1576" lon="6.40098">
        <ele>669</ele>
        <time>2012-04-26T11:21:01Z</time>
      </trkpt>
      <trkpt lat="46.15749" lon="6.40117">
        <ele>669</ele>
        <time>2012-04-26T11:21:03Z</time>
      </trkpt>
      <trkpt lat="46.15743" lon="6.40128">
        <ele>669</ele>
        <time>2012-04-26T11:21:04Z</time>
      </trkpt>
      <trkpt lat="46.15732" lon="6.40148">
        <ele>669</ele>
        <time>2012-04-26T11:21:06Z</time>
      </trkpt>
      <trkpt lat="46.15722" lon="6.40163">
        <ele>669</ele>
        <time>2012-04-26T11:21:08Z</time>
      </trkpt>
      <trkpt lat="46.15712" lon="6.40172">
        <ele>669</ele>
        <time>2012-04-26T11:21:10Z</time>
      </trkpt>
      <trkpt lat="46.15702" lon="6.40185">
        <ele>669</ele>
        <time>2012-04-26T11:21:12Z</time>
      </trkpt>
      <trkpt lat="46.15696" lon="6.40197">
        <ele>660</ele>
        <time>2012-04-26T11:21:14Z</time>
      </trkpt>
      <trkpt lat="46.15687" lon="6.40205">
        <ele>660</ele>
        <time>2012-04-26T11:21:16Z</time>
      </trkpt>
      <trkpt lat="46.15674" lon="6.40203">
        <ele>653</ele>
        <time>2012-04-26T11:21:18Z</time>
      </trkpt>
      <trkpt lat="46.15661" lon="6.40201">
        <ele>653</ele>
        <time>2012-04-26T11:21:20Z</time>
      </trkpt>
      <trkpt lat="46.15656" lon="6.40214">
        <ele>645</ele>
        <time>2012-04-26T11:21:24Z</time>
      </trkpt>
      <trkpt lat="46.15659" lon="6.40236">
        <ele>645</ele>
        <time>2012-04-26T11:21:27Z</time>
      </trkpt>
      <trkpt lat="46.15659" lon="6.4025">
        <ele>645</ele>
        <time>2012-04-26T11:21:28Z</time>
      </trkpt>
      <trkpt lat="46.15659" lon="6.40272">
        <ele>638</ele>
        <time>2012-04-26T11:21:30Z</time>
      </trkpt>
      <trkpt lat="46.15653" lon="6.40287">
        <ele>638</ele>
        <time>2012-04-26T11:21:32Z</time>
      </trkpt>
      <trkpt lat="46.15647" lon="6.40301">
        <ele>638</ele>
        <time>2012-04-26T11:21:35Z</time>
      </trkpt>
      <trkpt lat="46.15631" lon="6.40319">
        <ele>659</ele>
        <time>2012-04-26T11:21:50Z</time>
      </trkpt>
      <trkpt lat="46.15621" lon="6.40328">
        <ele>659</ele>
        <time>2012-04-26T11:21:51Z</time>
      </trkpt>
      <trkpt lat="46.15612" lon="6.40334">
        <ele>659</ele>
        <time>2012-04-26T11:21:52Z</time>
      </trkpt>
      <trkpt lat="46.15597" lon="6.40341">
        <ele>659</ele>
        <time>2012-04-26T11:21:54Z</time>
      </trkpt>
      <trkpt lat="46.15577" lon="6.40343">
        <ele>659</ele>
        <time>2012-04-26T11:21:56Z</time>
      </trkpt>
      <trkpt lat="46.15564" lon="6.40343">
        <ele>659</ele>
        <time>2012-04-26T11:21:57Z</time>
      </trkpt>
      <trkpt lat="46.15551" lon="6.40343">
        <ele>659</ele>
        <time>2012-04-26T11:21:58Z</time>
      </trkpt>
      <trkpt lat="46.15539" lon="6.40343">
        <ele>659</ele>
        <time>2012-04-26T11:21:59Z</time>
      </trkpt>
      <trkpt lat="46.15527" lon="6.40345">
        <ele>659</ele>
        <time>2012-04-26T11:22:00Z</time>
      </trkpt>
      <trkpt lat="46.15516" lon="6.40344">
        <ele>659</ele>
        <time>2012-04-26T11:22:01Z</time>
      </trkpt>
      <trkpt lat="46.15505" lon="6.40344">
        <ele>659</ele>
        <time>2012-04-26T11:22:02Z</time>
      </trkpt>
      <trkpt lat="46.15494" lon="6.40342">
        <ele>659</ele>
        <time>2012-04-26T11:22:03Z</time>
      </trkpt>
      <trkpt lat="46.15484" lon="6.40338">
        <ele>659</ele>
        <time>2012-04-26T11:22:04Z</time>
      </trkpt>
      <trkpt lat="46.15468" lon="6.40332">
        <ele>659</ele>
        <time>2012-04-26T11:22:06Z</time>
      </trkpt>
      <trkpt lat="46.15455" lon="6.40335">
        <ele>665</ele>
        <time>2012-04-26T11:22:08Z</time>
      </trkpt>
      <trkpt lat="46.15445" lon="6.40351">
        <ele>665</ele>
        <time>2012-04-26T11:22:10Z</time>
      </trkpt>
      <trkpt lat="46.15438" lon="6.40367">
        <ele>665</ele>
        <time>2012-04-26T11:22:11Z</time>
      </trkpt>
      <trkpt lat="46.15431" lon="6.40382">
        <ele>665</ele>
        <time>2012-04-26T11:22:12Z</time>
      </trkpt>
      <trkpt lat="46.15422" lon="6.40402">
        <ele>665</ele>
        <time>2012-04-26T11:22:13Z</time>
      </trkpt>
      <trkpt lat="46.15413" lon="6.40423">
        <ele>665</ele>
        <time>2012-04-26T11:22:14Z</time>
      </trkpt>
      <trkpt lat="46.15401" lon="6.40445">
        <ele>665</ele>
        <time>2012-04-26T11:22:15Z</time>
      </trkpt>
      <trkpt lat="46.15392" lon="6.40466">
        <ele>665</ele>
        <time>2012-04-26T11:22:16Z</time>
      </trkpt>
      <trkpt lat="46.15383" lon="6.40484">
        <ele>665</ele>
        <time>2012-04-26T11:22:17Z</time>
      </trkpt>
      <trkpt lat="46.15375" lon="6.405">
        <ele>665</ele>
        <time>2012-04-26T11:22:18Z</time>
      </trkpt>
      <trkpt lat="46.15367" lon="6.40515">
        <ele>665</ele>
        <time>2012-04-26T11:22:19Z</time>
      </trkpt>
      <trkpt lat="46.15357" lon="6.40529">
        <ele>670</ele>
        <time>2012-04-26T11:22:20Z</time>
      </trkpt>
      <trkpt lat="46.15348" lon="6.40541">
        <ele>670</ele>
        <time>2012-04-26T11:22:21Z</time>
      </trkpt>
      <trkpt lat="46.15339" lon="6.40552">
        <ele>670</ele>
        <time>2012-04-26T11:22:22Z</time>
      </trkpt>
      <trkpt lat="46.1533" lon="6.40562">
        <ele>670</ele>
        <time>2012-04-26T11:22:23Z</time>
      </trkpt>
      <trkpt lat="46.15322" lon="6.40573">
        <ele>670</ele>
        <time>2012-04-26T11:22:24Z</time>
      </trkpt>
      <trkpt lat="46.15315" lon="6.40581">
        <ele>670</ele>
        <time>2012-04-26T11:22:25Z</time>
      </trkpt>
      <trkpt lat="46.15303" lon="6.40599">
        <ele>670</ele>
        <time>2012-04-26T11:22:27Z</time>
      </trkpt>
      <trkpt lat="46.1529" lon="6.40612">
        <ele>670</ele>
        <time>2012-04-26T11:22:29Z</time>
      </trkpt>
      <trkpt lat="46.15274" lon="6.40619">
        <ele>676</ele>
        <time>2012-04-26T11:22:31Z</time>
      </trkpt>
      <trkpt lat="46.15265" lon="6.40624">
        <ele>676</ele>
        <time>2012-04-26T11:22:32Z</time>
      </trkpt>
      <trkpt lat="46.15257" lon="6.40629">
        <ele>676</ele>
        <time>2012-04-26T11:22:33Z</time>
      </trkpt>
      <trkpt lat="46.15247" lon="6.40635">
        <ele>676</ele>
        <time>2012-04-26T11:22:34Z</time>
      </trkpt>
      <trkpt lat="46.15238" lon="6.40642">
        <ele>676</ele>
        <time>2012-04-26T11:22:35Z</time>
      </trkpt>
      <trkpt lat="46.15228" lon="6.40649">
        <ele>676</ele>
        <time>2012-04-26T11:22:36Z</time>
      </trkpt>
      <trkpt lat="46.15218" lon="6.40656">
        <ele>676</ele>
        <time>2012-04-26T11:22:37Z</time>
      </trkpt>
      <trkpt lat="46.15207" lon="6.40664">
        <ele>676</ele>
        <time>2012-04-26T11:22:38Z</time>
      </trkpt>
      <trkpt lat="46.15198" lon="6.40673">
        <ele>676</ele>
        <time>2012-04-26T11:22:39Z</time>
      </trkpt>
      <trkpt lat="46.1519" lon="6.40682">
        <ele>676</ele>
        <time>2012-04-26T11:22:40Z</time>
      </trkpt>
      <trkpt lat="46.15179" lon="6.40696">
        <ele>676</ele>
        <time>2012-04-26T11:22:42Z</time>
      </trkpt>
      <trkpt lat="46.15167" lon="6.4071">
        <ele>676</ele>
        <time>2012-04-26T11:22:44Z</time>
      </trkpt>
      <trkpt lat="46.15157" lon="6.40726">
        <ele>676</ele>
        <time>2012-04-26T11:22:46Z</time>
      </trkpt>
      <trkpt lat="46.15148" lon="6.40747">
        <ele>676</ele>
        <time>2012-04-26T11:22:48Z</time>
      </trkpt>
      <trkpt lat="46.15144" lon="6.40759">
        <ele>676</ele>
        <time>2012-04-26T11:22:49Z</time>
      </trkpt>
      <trkpt lat="46.15141" lon="6.40772">
        <ele>676</ele>
        <time>2012-04-26T11:22:50Z</time>
      </trkpt>
      <trkpt lat="46.15138" lon="6.40787">
        <ele>676</ele>
        <time>2012-04-26T11:22:51Z</time>
      </trkpt>
      <trkpt lat="46.15135" lon="6.40802">
        <ele>676</ele>
        <time>2012-04-26T11:22:52Z</time>
      </trkpt>
      <trkpt lat="46.15132" lon="6.40818">
        <ele>676</ele>
        <time>2012-04-26T11:22:53Z</time>
      </trkpt>
      <trkpt lat="46.15127" lon="6.40831">
        <ele>676</ele>
        <time>2012-04-26T11:22:54Z</time>
      </trkpt>
      <trkpt lat="46.15123" lon="6.40844">
        <ele>676</ele>
        <time>2012-04-26T11:22:55Z</time>
      </trkpt>
      <trkpt lat="46.15116" lon="6.40865">
        <ele>676</ele>
        <time>2012-04-26T11:22:57Z</time>
      </trkpt>
      <trkpt lat="46.1511" lon="6.40882">
        <ele>676</ele>
        <time>2012-04-26T11:22:59Z</time>
      </trkpt>
      <trkpt lat="46.15102" lon="6.40893">
        <ele>676</ele>
        <time>2012-04-26T11:23:02Z</time>
      </trkpt>
      <trkpt lat="46.15088" lon="6.40895">
        <ele>676</ele>
        <time>2012-04-26T11:23:05Z</time>
      </trkpt>
      <trkpt lat="46.15072" lon="6.40886">
        <ele>676</ele>
        <time>2012-04-26T11:23:07Z</time>
      </trkpt>
      <trkpt lat="46.15064" lon="6.4088">
        <ele>676</ele>
        <time>2012-04-26T11:23:08Z</time>
      </trkpt>
      <trkpt lat="46.15055" lon="6.40873">
        <ele>676</ele>
        <time>2012-04-26T11:23:09Z</time>
      </trkpt>
      <trkpt lat="46.15046" lon="6.40867">
        <ele>676</ele>
        <time>2012-04-26T11:23:10Z</time>
      </trkpt>
      <trkpt lat="46.15035" lon="6.4086">
        <ele>676</ele>
        <time>2012-04-26T11:23:11Z</time>
      </trkpt>
      <trkpt lat="46.15024" lon="6.40853">
        <ele>676</ele>
        <time>2012-04-26T11:23:12Z</time>
      </trkpt>
      <trkpt lat="46.15013" lon="6.40845">
        <ele>671</ele>
        <time>2012-04-26T11:23:13Z</time>
      </trkpt>
      <trkpt lat="46.15001" lon="6.40837">
        <ele>671</ele>
        <time>2012-04-26T11:23:14Z</time>
      </trkpt>
      <trkpt lat="46.14988" lon="6.40828">
        <ele>671</ele>
        <time>2012-04-26T11:23:15Z</time>
      </trkpt>
      <trkpt lat="46.14974" lon="6.40819">
        <ele>671</ele>
        <time>2012-04-26T11:23:16Z</time>
      </trkpt>
      <trkpt lat="46.1496" lon="6.4081">
        <ele>665</ele>
        <time>2012-04-26T11:23:17Z</time>
      </trkpt>
      <trkpt lat="46.14946" lon="6.40801">
        <ele>665</ele>
        <time>2012-04-26T11:23:18Z</time>
      </trkpt>
      <trkpt lat="46.14932" lon="6.40792">
        <ele>665</ele>
        <time>2012-04-26T11:23:19Z</time>
      </trkpt>
      <trkpt lat="46.14918" lon="6.40784">
        <ele>665</ele>
        <time>2012-04-26T11:23:20Z</time>
      </trkpt>
      <trkpt lat="46.14905" lon="6.40776">
        <ele>665</ele>
        <time>2012-04-26T11:23:21Z</time>
      </trkpt>
      <trkpt lat="46.14893" lon="6.40767">
        <ele>659</ele>
        <time>2012-04-26T11:23:22Z</time>
      </trkpt>
      <trkpt lat="46.1488" lon="6.4076">
        <ele>659</ele>
        <time>2012-04-26T11:23:23Z</time>
      </trkpt>
      <trkpt lat="46.14867" lon="6.40751">
        <ele>659</ele>
        <time>2012-04-26T11:23:24Z</time>
      </trkpt>
      <trkpt lat="46.14855" lon="6.40742">
        <ele>659</ele>
        <time>2012-04-26T11:23:25Z</time>
      </trkpt>
      <trkpt lat="46.14845" lon="6.40732">
        <ele>659</ele>
        <time>2012-04-26T11:23:26Z</time>
      </trkpt>
      <trkpt lat="46.14835" lon="6.40723">
        <ele>654</ele>
        <time>2012-04-26T11:23:27Z</time>
      </trkpt>
      <trkpt lat="46.14826" lon="6.40714">
        <ele>654</ele>
        <time>2012-04-26T11:23:28Z</time>
      </trkpt>
      <trkpt lat="46.14818" lon="6.40706">
        <ele>654</ele>
        <time>2012-04-26T11:23:29Z</time>
      </trkpt>
      <trkpt lat="46.14804" lon="6.4069">
        <ele>654</ele>
        <time>2012-04-26T11:23:31Z</time>
      </trkpt>
      <trkpt lat="46.1479" lon="6.40675">
        <ele>648</ele>
        <time>2012-04-26T11:23:33Z</time>
      </trkpt>
      <trkpt lat="46.14782" lon="6.40666">
        <ele>648</ele>
        <time>2012-04-26T11:23:34Z</time>
      </trkpt>
      <trkpt lat="46.14773" lon="6.40657">
        <ele>648</ele>
        <time>2012-04-26T11:23:35Z</time>
      </trkpt>
      <trkpt lat="46.14762" lon="6.40647">
        <ele>648</ele>
        <time>2012-04-26T11:23:36Z</time>
      </trkpt>
      <trkpt lat="46.14751" lon="6.40639">
        <ele>643</ele>
        <time>2012-04-26T11:23:37Z</time>
      </trkpt>
      <trkpt lat="46.14739" lon="6.40632">
        <ele>643</ele>
        <time>2012-04-26T11:23:38Z</time>
      </trkpt>
      <trkpt lat="46.14727" lon="6.40625">
        <ele>643</ele>
        <time>2012-04-26T11:23:39Z</time>
      </trkpt>
      <trkpt lat="46.14715" lon="6.4062">
        <ele>643</ele>
        <time>2012-04-26T11:23:40Z</time>
      </trkpt>
      <trkpt lat="46.14704" lon="6.40616">
        <ele>637</ele>
        <time>2012-04-26T11:23:41Z</time>
      </trkpt>
      <trkpt lat="46.14694" lon="6.40611">
        <ele>637</ele>
        <time>2012-04-26T11:23:42Z</time>
      </trkpt>
      <trkpt lat="46.14685" lon="6.40608">
        <ele>637</ele>
        <time>2012-04-26T11:23:43Z</time>
      </trkpt>
      <trkpt lat="46.14669" lon="6.40602">
        <ele>637</ele>
        <time>2012-04-26T11:23:45Z</time>
      </trkpt>
      <trkpt lat="46.14659" lon="6.40598">
        <ele>637</ele>
        <time>2012-04-26T11:23:47Z</time>
      </trkpt>
      <trkpt lat="46.14648" lon="6.40584">
        <ele>631</ele>
        <time>2012-04-26T11:23:50Z</time>
      </trkpt>
      <trkpt lat="46.14638" lon="6.40575">
        <ele>631</ele>
        <time>2012-04-26T11:23:52Z</time>
      </trkpt>
      <trkpt lat="46.14624" lon="6.40575">
        <ele>631</ele>
        <time>2012-04-26T11:23:54Z</time>
      </trkpt>
      <trkpt lat="46.14614" lon="6.40576">
        <ele>631</ele>
        <time>2012-04-26T11:23:55Z</time>
      </trkpt>
      <trkpt lat="46.14604" lon="6.40573">
        <ele>631</ele>
        <time>2012-04-26T11:23:56Z</time>
      </trkpt>
      <trkpt lat="46.14592" lon="6.4057">
        <ele>631</ele>
        <time>2012-04-26T11:23:57Z</time>
      </trkpt>
      <trkpt lat="46.1458" lon="6.40566">
        <ele>631</ele>
        <time>2012-04-26T11:23:58Z</time>
      </trkpt>
      <trkpt lat="46.14568" lon="6.40564">
        <ele>631</ele>
        <time>2012-04-26T11:23:59Z</time>
      </trkpt>
      <trkpt lat="46.14555" lon="6.40561">
        <ele>631</ele>
        <time>2012-04-26T11:24:00Z</time>
      </trkpt>
      <trkpt lat="46.14541" lon="6.4056">
        <ele>631</ele>
        <time>2012-04-26T11:24:01Z</time>
      </trkpt>
      <trkpt lat="46.14529" lon="6.4056">
        <ele>626</ele>
        <time>2012-04-26T11:24:02Z</time>
      </trkpt>
      <trkpt lat="46.14516" lon="6.4056">
        <ele>626</ele>
        <time>2012-04-26T11:24:03Z</time>
      </trkpt>
      <trkpt lat="46.14502" lon="6.4056">
        <ele>626</ele>
        <time>2012-04-26T11:24:04Z</time>
      </trkpt>
      <trkpt lat="46.14489" lon="6.4056">
        <ele>626</ele>
        <time>2012-04-26T11:24:05Z</time>
      </trkpt>
      <trkpt lat="46.14475" lon="6.40558">
        <ele>626</ele>
        <time>2012-04-26T11:24:06Z</time>
      </trkpt>
      <trkpt lat="46.14461" lon="6.40554">
        <ele>626</ele>
        <time>2012-04-26T11:24:07Z</time>
      </trkpt>
      <trkpt lat="46.14447" lon="6.40547">
        <ele>626</ele>
        <time>2012-04-26T11:24:08Z</time>
      </trkpt>
      <trkpt lat="46.14434" lon="6.40537">
        <ele>626</ele>
        <time>2012-04-26T11:24:09Z</time>
      </trkpt>
      <trkpt lat="46.14421" lon="6.40528">
        <ele>620</ele>
        <time>2012-04-26T11:24:10Z</time>
      </trkpt>
      <trkpt lat="46.14407" lon="6.40518">
        <ele>620</ele>
        <time>2012-04-26T11:24:11Z</time>
      </trkpt>
      <trkpt lat="46.14392" lon="6.40506">
        <ele>620</ele>
        <time>2012-04-26T11:24:12Z</time>
      </trkpt>
      <trkpt lat="46.14377" lon="6.40494">
        <ele>620</ele>
        <time>2012-04-26T11:24:13Z</time>
      </trkpt>
      <trkpt lat="46.14363" lon="6.40484">
        <ele>620</ele>
        <time>2012-04-26T11:24:14Z</time>
      </trkpt>
      <trkpt lat="46.14349" lon="6.40474">
        <ele>620</ele>
        <time>2012-04-26T11:24:15Z</time>
      </trkpt>
      <trkpt lat="46.14338" lon="6.40464">
        <ele>620</ele>
        <time>2012-04-26T11:24:16Z</time>
      </trkpt>
      <trkpt lat="46.14326" lon="6.40455">
        <ele>620</ele>
        <time>2012-04-26T11:24:17Z</time>
      </trkpt>
      <trkpt lat="46.14316" lon="6.40448">
        <ele>620</ele>
        <time>2012-04-26T11:24:18Z</time>
      </trkpt>
      <trkpt lat="46.14307" lon="6.4044">
        <ele>620</ele>
        <time>2012-04-26T11:24:19Z</time>
      </trkpt>
      <trkpt lat="46.14297" lon="6.40433">
        <ele>620</ele>
        <time>2012-04-26T11:24:20Z</time>
      </trkpt>
      <trkpt lat="46.14288" lon="6.40425">
        <ele>620</ele>
        <time>2012-04-26T11:24:21Z</time>
      </trkpt>
      <trkpt lat="46.1428" lon="6.40419">
        <ele>620</ele>
        <time>2012-04-26T11:24:22Z</time>
      </trkpt>
      <trkpt lat="46.14265" lon="6.40406">
        <ele>620</ele>
        <time>2012-04-26T11:24:24Z</time>
      </trkpt>
      <trkpt lat="46.14251" lon="6.40394">
        <ele>620</ele>
        <time>2012-04-26T11:24:26Z</time>
      </trkpt>
      <trkpt lat="46.1424" lon="6.40371">
        <ele>615</ele>
        <time>2012-04-26T11:24:28Z</time>
      </trkpt>
      <trkpt lat="46.14236" lon="6.40358">
        <ele>615</ele>
        <time>2012-04-26T11:24:29Z</time>
      </trkpt>
      <trkpt lat="46.14233" lon="6.40343">
        <ele>615</ele>
        <time>2012-04-26T11:24:30Z</time>
      </trkpt>
      <trkpt lat="46.14231" lon="6.40329">
        <ele>615</ele>
        <time>2012-04-26T11:24:31Z</time>
      </trkpt>
      <trkpt lat="46.1423" lon="6.40309">
        <ele>615</ele>
        <time>2012-04-26T11:24:33Z</time>
      </trkpt>
      <trkpt lat="46.14234" lon="6.40296">
        <ele>615</ele>
        <time>2012-04-26T11:24:35Z</time>
      </trkpt>
      <trkpt lat="46.14241" lon="6.4028">
        <ele>615</ele>
        <time>2012-04-26T11:24:37Z</time>
      </trkpt>
      <trkpt lat="46.14243" lon="6.40263">
        <ele>615</ele>
        <time>2012-04-26T11:24:39Z</time>
      </trkpt>
      <trkpt lat="46.14235" lon="6.4025">
        <ele>609</ele>
        <time>2012-04-26T11:24:41Z</time>
      </trkpt>
      <trkpt lat="46.14223" lon="6.40244">
        <ele>609</ele>
        <time>2012-04-26T11:24:43Z</time>
      </trkpt>
      <trkpt lat="46.14214" lon="6.40239">
        <ele>609</ele>
        <time>2012-04-26T11:24:45Z</time>
      </trkpt>
      <trkpt lat="46.14214" lon="6.4026">
        <ele>609</ele>
        <time>2012-04-26T11:24:49Z</time>
      </trkpt>
      <trkpt lat="46.1422" lon="6.4028">
        <ele>609</ele>
        <time>2012-04-26T11:24:51Z</time>
      </trkpt>
      <trkpt lat="46.1423" lon="6.40291">
        <ele>609</ele>
        <time>2012-04-26T11:24:53Z</time>
      </trkpt>
      <trkpt lat="46.1424" lon="6.40294">
        <ele>609</ele>
        <time>2012-04-26T11:24:55Z</time>
      </trkpt>
      <trkpt lat="46.14249" lon="6.4029">
        <ele>609</ele>
        <time>2012-04-26T11:24:57Z</time>
      </trkpt>
      <trkpt lat="46.1425" lon="6.40276">
        <ele>619</ele>
        <time>2012-04-26T11:25:37Z</time>
      </trkpt>
      <trkpt lat="46.14255" lon="6.40254">
        <ele>619</ele>
        <time>2012-04-26T11:25:40Z</time>
      </trkpt>
      <trkpt lat="46.14261" lon="6.40243">
        <ele>619</ele>
        <time>2012-04-26T11:25:41Z</time>
      </trkpt>
      <trkpt lat="46.14267" lon="6.4023">
        <ele>619</ele>
        <time>2012-04-26T11:25:42Z</time>
      </trkpt>
      <trkpt lat="46.14275" lon="6.40216">
        <ele>614</ele>
        <time>2012-04-26T11:25:43Z</time>
      </trkpt>
      <trkpt lat="46.14281" lon="6.40199">
        <ele>614</ele>
        <time>2012-04-26T11:25:44Z</time>
      </trkpt>
      <trkpt lat="46.14289" lon="6.40182">
        <ele>614</ele>
        <time>2012-04-26T11:25:45Z</time>
      </trkpt>
      <trkpt lat="46.14296" lon="6.40163">
        <ele>614</ele>
        <time>2012-04-26T11:25:46Z</time>
      </trkpt>
      <trkpt lat="46.14304" lon="6.40144">
        <ele>614</ele>
        <time>2012-04-26T11:25:47Z</time>
      </trkpt>
      <trkpt lat="46.14312" lon="6.40125">
        <ele>614</ele>
        <time>2012-04-26T11:25:48Z</time>
      </trkpt>
      <trkpt lat="46.1432" lon="6.40105">
        <ele>614</ele>
        <time>2012-04-26T11:25:49Z</time>
      </trkpt>
      <trkpt lat="46.14328" lon="6.40086">
        <ele>614</ele>
        <time>2012-04-26T11:25:50Z</time>
      </trkpt>
      <trkpt lat="46.14336" lon="6.40066">
        <ele>614</ele>
        <time>2012-04-26T11:25:51Z</time>
      </trkpt>
      <trkpt lat="46.14343" lon="6.40048">
        <ele>614</ele>
        <time>2012-04-26T11:25:52Z</time>
      </trkpt>
      <trkpt lat="46.1435" lon="6.40031">
        <ele>614</ele>
        <time>2012-04-26T11:25:53Z</time>
      </trkpt>
      <trkpt lat="46.14357" lon="6.40013">
        <ele>614</ele>
        <time>2012-04-26T11:25:54Z</time>
      </trkpt>
      <trkpt lat="46.14364" lon="6.39996">
        <ele>614</ele>
        <time>2012-04-26T11:25:55Z</time>
      </trkpt>
      <trkpt lat="46.14371" lon="6.39978">
        <ele>614</ele>
        <time>2012-04-26T11:25:56Z</time>
      </trkpt>
      <trkpt lat="46.14378" lon="6.3996">
        <ele>614</ele>
        <time>2012-04-26T11:25:57Z</time>
      </trkpt>
      <trkpt lat="46.14386" lon="6.39941">
        <ele>614</ele>
        <time>2012-04-26T11:25:58Z</time>
      </trkpt>
      <trkpt lat="46.14393" lon="6.39923">
        <ele>608</ele>
        <time>2012-04-26T11:25:59Z</time>
      </trkpt>
      <trkpt lat="46.14401" lon="6.39904">
        <ele>608</ele>
        <time>2012-04-26T11:26:00Z</time>
      </trkpt>
      <trkpt lat="46.14408" lon="6.39886">
        <ele>608</ele>
        <time>2012-04-26T11:26:01Z</time>
      </trkpt>
      <trkpt lat="46.14415" lon="6.39867">
        <ele>608</ele>
        <time>2012-04-26T11:26:02Z</time>
      </trkpt>
      <trkpt lat="46.14423" lon="6.39848">
        <ele>608</ele>
        <time>2012-04-26T11:26:03Z</time>
      </trkpt>
      <trkpt lat="46.1443" lon="6.3983">
        <ele>608</ele>
        <time>2012-04-26T11:26:04Z</time>
      </trkpt>
      <trkpt lat="46.14437" lon="6.39811">
        <ele>608</ele>
        <time>2012-04-26T11:26:05Z</time>
      </trkpt>
      <trkpt lat="46.14446" lon="6.39791">
        <ele>608</ele>
        <time>2012-04-26T11:26:06Z</time>
      </trkpt>
      <trkpt lat="46.14453" lon="6.39772">
        <ele>608</ele>
        <time>2012-04-26T11:26:07Z</time>
      </trkpt>
      <trkpt lat="46.14462" lon="6.39752">
        <ele>608</ele>
        <time>2012-04-26T11:26:08Z</time>
      </trkpt>
      <trkpt lat="46.1447" lon="6.39732">
        <ele>608</ele>
        <time>2012-04-26T11:26:09Z</time>
      </trkpt>
      <trkpt lat="46.14478" lon="6.3971">
        <ele>608</ele>
        <time>2012-04-26T11:26:10Z</time>
      </trkpt>
      <trkpt lat="46.14487" lon="6.39689">
        <ele>608</ele>
        <time>2012-04-26T11:26:11Z</time>
      </trkpt>
      <trkpt lat="46.14495" lon="6.39668">
        <ele>608</ele>
        <time>2012-04-26T11:26:12Z</time>
      </trkpt>
      <trkpt lat="46.14504" lon="6.39646">
        <ele>603</ele>
        <time>2012-04-26T11:26:13Z</time>
      </trkpt>
      <trkpt lat="46.14513" lon="6.39623">
        <ele>603</ele>
        <time>2012-04-26T11:26:14Z</time>
      </trkpt>
      <trkpt lat="46.14523" lon="6.39601">
        <ele>603</ele>
        <time>2012-04-26T11:26:15Z</time>
      </trkpt>
      <trkpt lat="46.14532" lon="6.39576">
        <ele>603</ele>
        <time>2012-04-26T11:26:16Z</time>
      </trkpt>
      <trkpt lat="46.14541" lon="6.39554">
        <ele>603</ele>
        <time>2012-04-26T11:26:17Z</time>
      </trkpt>
      <trkpt lat="46.14551" lon="6.39531">
        <ele>603</ele>
        <time>2012-04-26T11:26:18Z</time>
      </trkpt>
      <trkpt lat="46.14559" lon="6.39507">
        <ele>603</ele>
        <time>2012-04-26T11:26:19Z</time>
      </trkpt>
      <trkpt lat="46.14569" lon="6.39484">
        <ele>603</ele>
        <time>2012-04-26T11:26:20Z</time>
      </trkpt>
      <trkpt lat="46.14577" lon="6.39461">
        <ele>603</ele>
        <time>2012-04-26T11:26:21Z</time>
      </trkpt>
      <trkpt lat="46.14585" lon="6.39438">
        <ele>603</ele>
        <time>2012-04-26T11:26:22Z</time>
      </trkpt>
      <trkpt lat="46.14593" lon="6.39415">
        <ele>603</ele>
        <time>2012-04-26T11:26:23Z</time>
      </trkpt>
      <trkpt lat="46.14599" lon="6.39389">
        <ele>597</ele>
        <time>2012-04-26T11:26:24Z</time>
      </trkpt>
      <trkpt lat="46.14603" lon="6.39363">
        <ele>597</ele>
        <time>2012-04-26T11:26:25Z</time>
      </trkpt>
      <trkpt lat="46.14606" lon="6.39336">
        <ele>597</ele>
        <time>2012-04-26T11:26:26Z</time>
      </trkpt>
      <trkpt lat="46.14607" lon="6.39309">
        <ele>597</ele>
        <time>2012-04-26T11:26:27Z</time>
      </trkpt>
      <trkpt lat="46.14608" lon="6.39281">
        <ele>597</ele>
        <time>2012-04-26T11:26:28Z</time>
      </trkpt>
      <trkpt lat="46.14607" lon="6.39251">
        <ele>597</ele>
        <time>2012-04-26T11:26:29Z</time>
      </trkpt>
      <trkpt lat="46.14605" lon="6.39221">
        <ele>597</ele>
        <time>2012-04-26T11:26:30Z</time>
      </trkpt>
      <trkpt lat="46.14602" lon="6.39189">
        <ele>597</ele>
        <time>2012-04-26T11:26:31Z</time>
      </trkpt>
      <trkpt lat="46.146" lon="6.39157">
        <ele>597</ele>
        <time>2012-04-26T11:26:32Z</time>
      </trkpt>
      <trkpt lat="46.14597" lon="6.39126">
        <ele>597</ele>
        <time>2012-04-26T11:26:33Z</time>
      </trkpt>
      <trkpt lat="46.14595" lon="6.39097">
        <ele>592</ele>
        <time>2012-04-26T11:26:34Z</time>
      </trkpt>
      <trkpt lat="46.14594" lon="6.39071">
        <ele>592</ele>
        <time>2012-04-26T11:26:35Z</time>
      </trkpt>
      <trkpt lat="46.14592" lon="6.39044">
        <ele>592</ele>
        <time>2012-04-26T11:26:36Z</time>
      </trkpt>
      <trkpt lat="46.1459" lon="6.39018">
        <ele>592</ele>
        <time>2012-04-26T11:26:37Z</time>
      </trkpt>
      <trkpt lat="46.14588" lon="6.38992">
        <ele>592</ele>
        <time>2012-04-26T11:26:38Z</time>
      </trkpt>
      <trkpt lat="46.14586" lon="6.38966">
        <ele>592</ele>
        <time>2012-04-26T11:26:39Z</time>
      </trkpt>
      <trkpt lat="46.14584" lon="6.38941">
        <ele>592</ele>
        <time>2012-04-26T11:26:40Z</time>
      </trkpt>
      <trkpt lat="46.14582" lon="6.38917">
        <ele>592</ele>
        <time>2012-04-26T11:26:41Z</time>
      </trkpt>
      <trkpt lat="46.1458" lon="6.38893">
        <ele>592</ele>
        <time>2012-04-26T11:26:42Z</time>
      </trkpt>
      <trkpt lat="46.14578" lon="6.38869">
        <ele>592</ele>
        <time>2012-04-26T11:26:43Z</time>
      </trkpt>
      <trkpt lat="46.14575" lon="6.38848">
        <ele>592</ele>
        <time>2012-04-26T11:26:44Z</time>
      </trkpt>
      <trkpt lat="46.14574" lon="6.38828">
        <ele>592</ele>
        <time>2012-04-26T11:26:45Z</time>
      </trkpt>
      <trkpt lat="46.14572" lon="6.3881">
        <ele>592</ele>
        <time>2012-04-26T11:26:46Z</time>
      </trkpt>
      <trkpt lat="46.14571" lon="6.38795">
        <ele>592</ele>
        <time>2012-04-26T11:26:47Z</time>
      </trkpt>
      <trkpt lat="46.1457" lon="6.38773">
        <ele>592</ele>
        <time>2012-04-26T11:26:49Z</time>
      </trkpt>
      <trkpt lat="46.14567" lon="6.38756">
        <ele>592</ele>
        <time>2012-04-26T11:27:12Z</time>
      </trkpt>
      <trkpt lat="46.14566" lon="6.38734">
        <ele>592</ele>
        <time>2012-04-26T11:27:14Z</time>
      </trkpt>
      <trkpt lat="46.14565" lon="6.38717">
        <ele>592</ele>
        <time>2012-04-26T11:27:15Z</time>
      </trkpt>
      <trkpt lat="46.14565" lon="6.38701">
        <ele>592</ele>
        <time>2012-04-26T11:27:16Z</time>
      </trkpt>
      <trkpt lat="46.14567" lon="6.38684">
        <ele>592</ele>
        <time>2012-04-26T11:27:17Z</time>
      </trkpt>
      <trkpt lat="46.1457" lon="6.38669">
        <ele>592</ele>
        <time>2012-04-26T11:27:18Z</time>
      </trkpt>
      <trkpt lat="46.14576" lon="6.38648">
        <ele>592</ele>
        <time>2012-04-26T11:27:20Z</time>
      </trkpt>
      <trkpt lat="46.14583" lon="6.38634">
        <ele>592</ele>
        <time>2012-04-26T11:27:23Z</time>
      </trkpt>
      <trkpt lat="46.1458" lon="6.3862">
        <ele>586</ele>
        <time>2012-04-26T11:27:32Z</time>
      </trkpt>
      <trkpt lat="46.1457" lon="6.38603">
        <ele>586</ele>
        <time>2012-04-26T11:27:34Z</time>
      </trkpt>
      <trkpt lat="46.1456" lon="6.38581">
        <ele>586</ele>
        <time>2012-04-26T11:27:36Z</time>
      </trkpt>
      <trkpt lat="46.14555" lon="6.38569">
        <ele>586</ele>
        <time>2012-04-26T11:27:37Z</time>
      </trkpt>
      <trkpt lat="46.14543" lon="6.3855">
        <ele>586</ele>
        <time>2012-04-26T11:27:39Z</time>
      </trkpt>
      <trkpt lat="46.14535" lon="6.38541">
        <ele>586</ele>
        <time>2012-04-26T11:27:40Z</time>
      </trkpt>
      <trkpt lat="46.14526" lon="6.38534">
        <ele>586</ele>
        <time>2012-04-26T11:27:41Z</time>
      </trkpt>
      <trkpt lat="46.14514" lon="6.3853">
        <ele>586</ele>
        <time>2012-04-26T11:27:42Z</time>
      </trkpt>
      <trkpt lat="46.14501" lon="6.38526">
        <ele>586</ele>
        <time>2012-04-26T11:27:43Z</time>
      </trkpt>
      <trkpt lat="46.14488" lon="6.38522">
        <ele>586</ele>
        <time>2012-04-26T11:27:44Z</time>
      </trkpt>
      <trkpt lat="46.14476" lon="6.38519">
        <ele>586</ele>
        <time>2012-04-26T11:27:45Z</time>
      </trkpt>
      <trkpt lat="46.14465" lon="6.38514">
        <ele>586</ele>
        <time>2012-04-26T11:27:46Z</time>
      </trkpt>
      <trkpt lat="46.14456" lon="6.38508">
        <ele>586</ele>
        <time>2012-04-26T11:27:47Z</time>
      </trkpt>
      <trkpt lat="46.14447" lon="6.38501">
        <ele>586</ele>
        <time>2012-04-26T11:27:48Z</time>
      </trkpt>
      <trkpt lat="46.14435" lon="6.38487">
        <ele>580</ele>
        <time>2012-04-26T11:27:50Z</time>
      </trkpt>
      <trkpt lat="46.14427" lon="6.38473">
        <ele>580</ele>
        <time>2012-04-26T11:27:52Z</time>
      </trkpt>
      <trkpt lat="46.14416" lon="6.38462">
        <ele>580</ele>
        <time>2012-04-26T11:27:54Z</time>
      </trkpt>
      <trkpt lat="46.14403" lon="6.38456">
        <ele>580</ele>
        <time>2012-04-26T11:27:56Z</time>
      </trkpt>
      <trkpt lat="46.14391" lon="6.38453">
        <ele>580</ele>
        <time>2012-04-26T11:27:58Z</time>
      </trkpt>
      <trkpt lat="46.14382" lon="6.38456">
        <ele>580</ele>
        <time>2012-04-26T11:28:00Z</time>
      </trkpt>
      <trkpt lat="46.14372" lon="6.38464">
        <ele>580</ele>
        <time>2012-04-26T11:28:03Z</time>
      </trkpt>
      <trkpt lat="46.14361" lon="6.38479">
        <ele>575</ele>
        <time>2012-04-26T11:28:06Z</time>
      </trkpt>
      <trkpt lat="46.14351" lon="6.38489">
        <ele>575</ele>
        <time>2012-04-26T11:28:08Z</time>
      </trkpt>
      <trkpt lat="46.1434" lon="6.38508">
        <ele>575</ele>
        <time>2012-04-26T11:28:10Z</time>
      </trkpt>
      <trkpt lat="46.14334" lon="6.38519">
        <ele>575</ele>
        <time>2012-04-26T11:28:11Z</time>
      </trkpt>
      <trkpt lat="46.14327" lon="6.38532">
        <ele>575</ele>
        <time>2012-04-26T11:28:12Z</time>
      </trkpt>
      <trkpt lat="46.14319" lon="6.38544">
        <ele>575</ele>
        <time>2012-04-26T11:28:13Z</time>
      </trkpt>
      <trkpt lat="46.14305" lon="6.38558">
        <ele>575</ele>
        <time>2012-04-26T11:28:15Z</time>
      </trkpt>
      <trkpt lat="46.14289" lon="6.38558">
        <ele>575</ele>
        <time>2012-04-26T11:28:17Z</time>
      </trkpt>
      <trkpt lat="46.14281" lon="6.38553">
        <ele>575</ele>
        <time>2012-04-26T11:28:18Z</time>
      </trkpt>
      <trkpt lat="46.14265" lon="6.3855">
        <ele>575</ele>
        <time>2012-04-26T11:28:20Z</time>
      </trkpt>
      <trkpt lat="46.14248" lon="6.38553">
        <ele>575</ele>
        <time>2012-04-26T11:28:22Z</time>
      </trkpt>
      <trkpt lat="46.14238" lon="6.38558">
        <ele>575</ele>
        <time>2012-04-26T11:28:23Z</time>
      </trkpt>
      <trkpt lat="46.14228" lon="6.38563">
        <ele>575</ele>
        <time>2012-04-26T11:28:24Z</time>
      </trkpt>
      <trkpt lat="46.14218" lon="6.38568">
        <ele>575</ele>
        <time>2012-04-26T11:28:25Z</time>
      </trkpt>
      <trkpt lat="46.14209" lon="6.38572">
        <ele>575</ele>
        <time>2012-04-26T11:28:26Z</time>
      </trkpt>
      <trkpt lat="46.14198" lon="6.38576">
        <ele>575</ele>
        <time>2012-04-26T11:28:27Z</time>
      </trkpt>
      <trkpt lat="46.14188" lon="6.38576">
        <ele>575</ele>
        <time>2012-04-26T11:28:28Z</time>
      </trkpt>
      <trkpt lat="46.14178" lon="6.38576">
        <ele>575</ele>
        <time>2012-04-26T11:28:29Z</time>
      </trkpt>
      <trkpt lat="46.14166" lon="6.38574">
        <ele>575</ele>
        <time>2012-04-26T11:28:30Z</time>
      </trkpt>
      <trkpt lat="46.14154" lon="6.38572">
        <ele>575</ele>
        <time>2012-04-26T11:28:31Z</time>
      </trkpt>
      <trkpt lat="46.1414" lon="6.38573">
        <ele>575</ele>
        <time>2012-04-26T11:28:32Z</time>
      </trkpt>
      <trkpt lat="46.14127" lon="6.38574">
        <ele>581</ele>
        <time>2012-04-26T11:28:33Z</time>
      </trkpt>
      <trkpt lat="46.14115" lon="6.38576">
        <ele>581</ele>
        <time>2012-04-26T11:28:34Z</time>
      </trkpt>
      <trkpt lat="46.14102" lon="6.38579">
        <ele>581</ele>
        <time>2012-04-26T11:28:35Z</time>
      </trkpt>
      <trkpt lat="46.1409" lon="6.38585">
        <ele>581</ele>
        <time>2012-04-26T11:28:36Z</time>
      </trkpt>
      <trkpt lat="46.14078" lon="6.3859">
        <ele>586</ele>
        <time>2012-04-26T11:28:37Z</time>
      </trkpt>
      <trkpt lat="46.14066" lon="6.38594">
        <ele>586</ele>
        <time>2012-04-26T11:28:38Z</time>
      </trkpt>
      <trkpt lat="46.14055" lon="6.38596">
        <ele>586</ele>
        <time>2012-04-26T11:28:39Z</time>
      </trkpt>
      <trkpt lat="46.14044" lon="6.38594">
        <ele>586</ele>
        <time>2012-04-26T11:28:40Z</time>
      </trkpt>
      <trkpt lat="46.14033" lon="6.38593">
        <ele>586</ele>
        <time>2012-04-26T11:28:41Z</time>
      </trkpt>
      <trkpt lat="46.14022" lon="6.38592">
        <ele>586</ele>
        <time>2012-04-26T11:28:42Z</time>
      </trkpt>
      <trkpt lat="46.14012" lon="6.38593">
        <ele>586</ele>
        <time>2012-04-26T11:28:43Z</time>
      </trkpt>
      <trkpt lat="46.14001" lon="6.38597">
        <ele>586</ele>
        <time>2012-04-26T11:28:44Z</time>
      </trkpt>
      <trkpt lat="46.1399" lon="6.38603">
        <ele>586</ele>
        <time>2012-04-26T11:28:45Z</time>
      </trkpt>
      <trkpt lat="46.1398" lon="6.38609">
        <ele>586</ele>
        <time>2012-04-26T11:28:46Z</time>
      </trkpt>
      <trkpt lat="46.13969" lon="6.38616">
        <ele>586</ele>
        <time>2012-04-26T11:28:47Z</time>
      </trkpt>
      <trkpt lat="46.13957" lon="6.38621">
        <ele>586</ele>
        <time>2012-04-26T11:28:48Z</time>
      </trkpt>
      <trkpt lat="46.13944" lon="6.38627">
        <ele>586</ele>
        <time>2012-04-26T11:28:49Z</time>
      </trkpt>
      <trkpt lat="46.13932" lon="6.38631">
        <ele>586</ele>
        <time>2012-04-26T11:28:50Z</time>
      </trkpt>
      <trkpt lat="46.13921" lon="6.38636">
        <ele>586</ele>
        <time>2012-04-26T11:28:51Z</time>
      </trkpt>
      <trkpt lat="46.13911" lon="6.38638">
        <ele>586</ele>
        <time>2012-04-26T11:28:52Z</time>
      </trkpt>
      <trkpt lat="46.13895" lon="6.38643">
        <ele>586</ele>
        <time>2012-04-26T11:28:54Z</time>
      </trkpt>
      <trkpt lat="46.1388" lon="6.38644">
        <ele>586</ele>
        <time>2012-04-26T11:28:56Z</time>
      </trkpt>
      <trkpt lat="46.13866" lon="6.38647">
        <ele>586</ele>
        <time>2012-04-26T11:28:58Z</time>
      </trkpt>
      <trkpt lat="46.13852" lon="6.38652">
        <ele>586</ele>
        <time>2012-04-26T11:29:00Z</time>
      </trkpt>
      <trkpt lat="46.13836" lon="6.3866">
        <ele>586</ele>
        <time>2012-04-26T11:29:02Z</time>
      </trkpt>
      <trkpt lat="46.13827" lon="6.38664">
        <ele>586</ele>
        <time>2012-04-26T11:29:03Z</time>
      </trkpt>
      <trkpt lat="46.13817" lon="6.38667">
        <ele>586</ele>
        <time>2012-04-26T11:29:04Z</time>
      </trkpt>
      <trkpt lat="46.13807" lon="6.38673">
        <ele>586</ele>
        <time>2012-04-26T11:29:05Z</time>
      </trkpt>
      <trkpt lat="46.13798" lon="6.38679">
        <ele>586</ele>
        <time>2012-04-26T11:29:06Z</time>
      </trkpt>
      <trkpt lat="46.13789" lon="6.38686">
        <ele>586</ele>
        <time>2012-04-26T11:29:07Z</time>
      </trkpt>
      <trkpt lat="46.13781" lon="6.38695">
        <ele>586</ele>
        <time>2012-04-26T11:29:08Z</time>
      </trkpt>
      <trkpt lat="46.13772" lon="6.38704">
        <ele>586</ele>
        <time>2012-04-26T11:29:09Z</time>
      </trkpt>
      <trkpt lat="46.13763" lon="6.38712">
        <ele>586</ele>
        <time>2012-04-26T11:29:10Z</time>
      </trkpt>
      <trkpt lat="46.13754" lon="6.38718">
        <ele>586</ele>
        <time>2012-04-26T11:29:11Z</time>
      </trkpt>
      <trkpt lat="46.13745" lon="6.38724">
        <ele>586</ele>
        <time>2012-04-26T11:29:12Z</time>
      </trkpt>
      <trkpt lat="46.1373" lon="6.38725">
        <ele>586</ele>
        <time>2012-04-26T11:29:14Z</time>
      </trkpt>
      <trkpt lat="46.13719" lon="6.38726">
        <ele>586</ele>
        <time>2012-04-26T11:29:26Z</time>
      </trkpt>
      <trkpt lat="46.13708" lon="6.38728">
        <ele>586</ele>
        <time>2012-04-26T11:29:28Z</time>
      </trkpt>
      <trkpt lat="46.13696" lon="6.38727">
        <ele>586</ele>
        <time>2012-04-26T11:29:30Z</time>
      </trkpt>
      <trkpt lat="46.13682" lon="6.38729">
        <ele>586</ele>
        <time>2012-04-26T11:29:32Z</time>
      </trkpt>
      <trkpt lat="46.13668" lon="6.38738">
        <ele>586</ele>
        <time>2012-04-26T11:29:34Z</time>
      </trkpt>
      <trkpt lat="46.13655" lon="6.3875">
        <ele>586</ele>
        <time>2012-04-26T11:29:36Z</time>
      </trkpt>
      <trkpt lat="46.13643" lon="6.38759">
        <ele>586</ele>
        <time>2012-04-26T11:29:38Z</time>
      </trkpt>
      <trkpt lat="46.13631" lon="6.38754">
        <ele>586</ele>
        <time>2012-04-26T11:29:40Z</time>
      </trkpt>
      <trkpt lat="46.13617" lon="6.38741">
        <ele>586</ele>
        <time>2012-04-26T11:29:42Z</time>
      </trkpt>
      <trkpt lat="46.13609" lon="6.38735">
        <ele>586</ele>
        <time>2012-04-26T11:29:43Z</time>
      </trkpt>
      <trkpt lat="46.13599" lon="6.38728">
        <ele>586</ele>
        <time>2012-04-26T11:29:44Z</time>
      </trkpt>
      <trkpt lat="46.1359" lon="6.38725">
        <ele>586</ele>
        <time>2012-04-26T11:29:45Z</time>
      </trkpt>
      <trkpt lat="46.1358" lon="6.38723">
        <ele>586</ele>
        <time>2012-04-26T11:29:46Z</time>
      </trkpt>
      <trkpt lat="46.1357" lon="6.38723">
        <ele>586</ele>
        <time>2012-04-26T11:29:47Z</time>
      </trkpt>
      <trkpt lat="46.13559" lon="6.38724">
        <ele>591</ele>
        <time>2012-04-26T11:29:48Z</time>
      </trkpt>
      <trkpt lat="46.13546" lon="6.38724">
        <ele>591</ele>
        <time>2012-04-26T11:29:49Z</time>
      </trkpt>
      <trkpt lat="46.13535" lon="6.38723">
        <ele>591</ele>
        <time>2012-04-26T11:29:50Z</time>
      </trkpt>
      <trkpt lat="46.13523" lon="6.38723">
        <ele>591</ele>
        <time>2012-04-26T11:29:51Z</time>
      </trkpt>
      <trkpt lat="46.13513" lon="6.38723">
        <ele>591</ele>
        <time>2012-04-26T11:29:52Z</time>
      </trkpt>
      <trkpt lat="46.13497" lon="6.38725">
        <ele>591</ele>
        <time>2012-04-26T11:29:54Z</time>
      </trkpt>
      <trkpt lat="46.13488" lon="6.38725">
        <ele>597</ele>
        <time>2012-04-26T11:29:56Z</time>
      </trkpt>
      <trkpt lat="46.13479" lon="6.38719">
        <ele>597</ele>
        <time>2012-04-26T11:29:59Z</time>
      </trkpt>
      <trkpt lat="46.1347" lon="6.38712">
        <ele>597</ele>
        <time>2012-04-26T11:30:01Z</time>
      </trkpt>
      <trkpt lat="46.1346" lon="6.38707">
        <ele>597</ele>
        <time>2012-04-26T11:30:03Z</time>
      </trkpt>
      <trkpt lat="46.13445" lon="6.387">
        <ele>597</ele>
        <time>2012-04-26T11:30:05Z</time>
      </trkpt>
      <trkpt lat="46.13435" lon="6.38698">
        <ele>597</ele>
        <time>2012-04-26T11:30:06Z</time>
      </trkpt>
      <trkpt lat="46.13425" lon="6.38696">
        <ele>597</ele>
        <time>2012-04-26T11:30:07Z</time>
      </trkpt>
      <trkpt lat="46.13415" lon="6.38695">
        <ele>597</ele>
        <time>2012-04-26T11:30:08Z</time>
      </trkpt>
      <trkpt lat="46.13404" lon="6.38695">
        <ele>597</ele>
        <time>2012-04-26T11:30:09Z</time>
      </trkpt>
      <trkpt lat="46.13388" lon="6.38694">
        <ele>597</ele>
        <time>2012-04-26T11:30:11Z</time>
      </trkpt>
      <trkpt lat="46.13376" lon="6.38697">
        <ele>597</ele>
        <time>2012-04-26T11:30:13Z</time>
      </trkpt>
      <trkpt lat="46.13367" lon="6.387">
        <ele>597</ele>
        <time>2012-04-26T11:30:16Z</time>
      </trkpt>
      <trkpt lat="46.13377" lon="6.38691">
        <ele>597</ele>
        <time>2012-04-26T11:30:26Z</time>
      </trkpt>
      <trkpt lat="46.13379" lon="6.38679">
        <ele>597</ele>
        <time>2012-04-26T11:30:28Z</time>
      </trkpt>
      <trkpt lat="46.13372" lon="6.38663">
        <ele>597</ele>
        <time>2012-04-26T11:30:30Z</time>
      </trkpt>
      <trkpt lat="46.13367" lon="6.38651">
        <ele>597</ele>
        <time>2012-04-26T11:30:31Z</time>
      </trkpt>
      <trkpt lat="46.13358" lon="6.38638">
        <ele>597</ele>
        <time>2012-04-26T11:30:32Z</time>
      </trkpt>
      <trkpt lat="46.13351" lon="6.38627">
        <ele>597</ele>
        <time>2012-04-26T11:30:33Z</time>
      </trkpt>
      <trkpt lat="46.13345" lon="6.38615">
        <ele>597</ele>
        <time>2012-04-26T11:30:34Z</time>
      </trkpt>
      <trkpt lat="46.13338" lon="6.38605">
        <ele>597</ele>
        <time>2012-04-26T11:30:35Z</time>
      </trkpt>
      <trkpt lat="46.13332" lon="6.38595">
        <ele>597</ele>
        <time>2012-04-26T11:30:36Z</time>
      </trkpt>
      <trkpt lat="46.13323" lon="6.38576">
        <ele>603</ele>
        <time>2012-04-26T11:30:38Z</time>
      </trkpt>
      <trkpt lat="46.13316" lon="6.38552">
        <ele>603</ele>
        <time>2012-04-26T11:30:40Z</time>
      </trkpt>
      <trkpt lat="46.13308" lon="6.38529">
        <ele>603</ele>
        <time>2012-04-26T11:30:42Z</time>
      </trkpt>
      <trkpt lat="46.13304" lon="6.38517">
        <ele>603</ele>
        <time>2012-04-26T11:30:43Z</time>
      </trkpt>
      <trkpt lat="46.13296" lon="6.38498">
        <ele>610</ele>
        <time>2012-04-26T11:30:45Z</time>
      </trkpt>
      <trkpt lat="46.13286" lon="6.38484">
        <ele>610</ele>
        <time>2012-04-26T11:30:47Z</time>
      </trkpt>
      <trkpt lat="46.13277" lon="6.38472">
        <ele>615</ele>
        <time>2012-04-26T11:30:49Z</time>
      </trkpt>
      <trkpt lat="46.13265" lon="6.38458">
        <ele>615</ele>
        <time>2012-04-26T11:30:51Z</time>
      </trkpt>
      <trkpt lat="46.13255" lon="6.38441">
        <ele>615</ele>
        <time>2012-04-26T11:30:53Z</time>
      </trkpt>
      <trkpt lat="46.13246" lon="6.38424">
        <ele>625</ele>
        <time>2012-04-26T11:30:55Z</time>
      </trkpt>
      <trkpt lat="46.13234" lon="6.38409">
        <ele>625</ele>
        <time>2012-04-26T11:30:57Z</time>
      </trkpt>
      <trkpt lat="46.13222" lon="6.38399">
        <ele>625</ele>
        <time>2012-04-26T11:30:59Z</time>
      </trkpt>
      <trkpt lat="46.13209" lon="6.38385">
        <ele>625</ele>
        <time>2012-04-26T11:31:01Z</time>
      </trkpt>
      <trkpt lat="46.13201" lon="6.38369">
        <ele>625</ele>
        <time>2012-04-26T11:31:03Z</time>
      </trkpt>
      <trkpt lat="46.13192" lon="6.38355">
        <ele>625</ele>
        <time>2012-04-26T11:31:05Z</time>
      </trkpt>
      <trkpt lat="46.13182" lon="6.38335">
        <ele>632</ele>
        <time>2012-04-26T11:31:07Z</time>
      </trkpt>
      <trkpt lat="46.13177" lon="6.38324">
        <ele>632</ele>
        <time>2012-04-26T11:31:08Z</time>
      </trkpt>
      <trkpt lat="46.13165" lon="6.38302">
        <ele>632</ele>
        <time>2012-04-26T11:31:10Z</time>
      </trkpt>
      <trkpt lat="46.13157" lon="6.38293">
        <ele>632</ele>
        <time>2012-04-26T11:31:11Z</time>
      </trkpt>
      <trkpt lat="46.13145" lon="6.38275">
        <ele>638</ele>
        <time>2012-04-26T11:31:13Z</time>
      </trkpt>
      <trkpt lat="46.13134" lon="6.38261">
        <ele>638</ele>
        <time>2012-04-26T11:31:15Z</time>
      </trkpt>
      <trkpt lat="46.13124" lon="6.38249">
        <ele>638</ele>
        <time>2012-04-26T11:31:17Z</time>
      </trkpt>
      <trkpt lat="46.13111" lon="6.38234">
        <ele>648</ele>
        <time>2012-04-26T11:31:19Z</time>
      </trkpt>
      <trkpt lat="46.13104" lon="6.38226">
        <ele>648</ele>
        <time>2012-04-26T11:31:20Z</time>
      </trkpt>
      <trkpt lat="46.13092" lon="6.38214">
        <ele>653</ele>
        <time>2012-04-26T11:31:22Z</time>
      </trkpt>
      <trkpt lat="46.13085" lon="6.38202">
        <ele>653</ele>
        <time>2012-04-26T11:31:24Z</time>
      </trkpt>
      <trkpt lat="46.13087" lon="6.3818">
        <ele>653</ele>
        <time>2012-04-26T11:31:27Z</time>
      </trkpt>
      <trkpt lat="46.13095" lon="6.38158">
        <ele>653</ele>
        <time>2012-04-26T11:31:29Z</time>
      </trkpt>
      <trkpt lat="46.13102" lon="6.38143">
        <ele>659</ele>
        <time>2012-04-26T11:31:30Z</time>
      </trkpt>
      <trkpt lat="46.13109" lon="6.38126">
        <ele>659</ele>
        <time>2012-04-26T11:31:31Z</time>
      </trkpt>
      <trkpt lat="46.13117" lon="6.38108">
        <ele>659</ele>
        <time>2012-04-26T11:31:32Z</time>
      </trkpt>
      <trkpt lat="46.13125" lon="6.38092">
        <ele>659</ele>
        <time>2012-04-26T11:31:33Z</time>
      </trkpt>
      <trkpt lat="46.13132" lon="6.38077">
        <ele>659</ele>
        <time>2012-04-26T11:31:34Z</time>
      </trkpt>
      <trkpt lat="46.13139" lon="6.38064">
        <ele>665</ele>
        <time>2012-04-26T11:31:35Z</time>
      </trkpt>
      <trkpt lat="46.13147" lon="6.38052">
        <ele>665</ele>
        <time>2012-04-26T11:31:36Z</time>
      </trkpt>
      <trkpt lat="46.13155" lon="6.38042">
        <ele>665</ele>
        <time>2012-04-26T11:31:37Z</time>
      </trkpt>
      <trkpt lat="46.13165" lon="6.38033">
        <ele>665</ele>
        <time>2012-04-26T11:31:38Z</time>
      </trkpt>
      <trkpt lat="46.13176" lon="6.38028">
        <ele>665</ele>
        <time>2012-04-26T11:31:39Z</time>
      </trkpt>
      <trkpt lat="46.13188" lon="6.38024">
        <ele>665</ele>
        <time>2012-04-26T11:31:40Z</time>
      </trkpt>
      <trkpt lat="46.13199" lon="6.3802">
        <ele>672</ele>
        <time>2012-04-26T11:31:41Z</time>
      </trkpt>
      <trkpt lat="46.13208" lon="6.38017">
        <ele>672</ele>
        <time>2012-04-26T11:31:42Z</time>
      </trkpt>
      <trkpt lat="46.13217" lon="6.38011">
        <ele>672</ele>
        <time>2012-04-26T11:31:43Z</time>
      </trkpt>
      <trkpt lat="46.13224" lon="6.38002">
        <ele>672</ele>
        <time>2012-04-26T11:31:44Z</time>
      </trkpt>
      <trkpt lat="46.13232" lon="6.37981">
        <ele>672</ele>
        <time>2012-04-26T11:31:46Z</time>
      </trkpt>
      <trkpt lat="46.1323" lon="6.37955">
        <ele>678</ele>
        <time>2012-04-26T11:31:48Z</time>
      </trkpt>
      <trkpt lat="46.13226" lon="6.37941">
        <ele>678</ele>
        <time>2012-04-26T11:31:49Z</time>
      </trkpt>
      <trkpt lat="46.13222" lon="6.37928">
        <ele>678</ele>
        <time>2012-04-26T11:31:50Z</time>
      </trkpt>
      <trkpt lat="46.13218" lon="6.37916">
        <ele>678</ele>
        <time>2012-04-26T11:31:51Z</time>
      </trkpt>
      <trkpt lat="46.13214" lon="6.37905">
        <ele>678</ele>
        <time>2012-04-26T11:31:52Z</time>
      </trkpt>
      <trkpt lat="46.13209" lon="6.37893">
        <ele>678</ele>
        <time>2012-04-26T11:31:53Z</time>
      </trkpt>
      <trkpt lat="46.13204" lon="6.3788">
        <ele>678</ele>
        <time>2012-04-26T11:31:54Z</time>
      </trkpt>
      <trkpt lat="46.132" lon="6.37868">
        <ele>683</ele>
        <time>2012-04-26T11:31:55Z</time>
      </trkpt>
      <trkpt lat="46.13199" lon="6.37843">
        <ele>683</ele>
        <time>2012-04-26T11:31:57Z</time>
      </trkpt>
      <trkpt lat="46.13202" lon="6.37817">
        <ele>683</ele>
        <time>2012-04-26T11:31:59Z</time>
      </trkpt>
      <trkpt lat="46.13209" lon="6.37795">
        <ele>683</ele>
        <time>2012-04-26T11:32:01Z</time>
      </trkpt>
      <trkpt lat="46.13215" lon="6.37776">
        <ele>689</ele>
        <time>2012-04-26T11:32:03Z</time>
      </trkpt>
      <trkpt lat="46.13216" lon="6.37761">
        <ele>689</ele>
        <time>2012-04-26T11:32:05Z</time>
      </trkpt>
      <trkpt lat="46.13211" lon="6.37746">
        <ele>689</ele>
        <time>2012-04-26T11:32:07Z</time>
      </trkpt>
      <trkpt lat="46.13202" lon="6.37727">
        <ele>689</ele>
        <time>2012-04-26T11:32:09Z</time>
      </trkpt>
      <trkpt lat="46.13198" lon="6.37714">
        <ele>689</ele>
        <time>2012-04-26T11:32:10Z</time>
      </trkpt>
      <trkpt lat="46.13194" lon="6.377">
        <ele>689</ele>
        <time>2012-04-26T11:32:11Z</time>
      </trkpt>
      <trkpt lat="46.13189" lon="6.37684">
        <ele>689</ele>
        <time>2012-04-26T11:32:12Z</time>
      </trkpt>
      <trkpt lat="46.13185" lon="6.37666">
        <ele>689</ele>
        <time>2012-04-26T11:32:13Z</time>
      </trkpt>
      <trkpt lat="46.1318" lon="6.37648">
        <ele>689</ele>
        <time>2012-04-26T11:32:14Z</time>
      </trkpt>
      <trkpt lat="46.13177" lon="6.37632">
        <ele>689</ele>
        <time>2012-04-26T11:32:15Z</time>
      </trkpt>
      <trkpt lat="46.13174" lon="6.37618">
        <ele>689</ele>
        <time>2012-04-26T11:32:16Z</time>
      </trkpt>
      <trkpt lat="46.1317" lon="6.37604">
        <ele>689</ele>
        <time>2012-04-26T11:32:17Z</time>
      </trkpt>
      <trkpt lat="46.13165" lon="6.37592">
        <ele>689</ele>
        <time>2012-04-26T11:32:18Z</time>
      </trkpt>
      <trkpt lat="46.13158" lon="6.37576">
        <ele>689</ele>
        <time>2012-04-26T11:32:20Z</time>
      </trkpt>
      <trkpt lat="46.13155" lon="6.37562">
        <ele>694</ele>
        <time>2012-04-26T11:32:23Z</time>
      </trkpt>
      <trkpt lat="46.1316" lon="6.37545">
        <ele>701</ele>
        <time>2012-04-26T11:33:01Z</time>
      </trkpt>
      <trkpt lat="46.13157" lon="6.37526">
        <ele>701</ele>
        <time>2012-04-26T11:33:03Z</time>
      </trkpt>
      <trkpt lat="46.13154" lon="6.37514">
        <ele>701</ele>
        <time>2012-04-26T11:33:04Z</time>
      </trkpt>
      <trkpt lat="46.13149" lon="6.37502">
        <ele>701</ele>
        <time>2012-04-26T11:33:05Z</time>
      </trkpt>
      <trkpt lat="46.13143" lon="6.37489">
        <ele>701</ele>
        <time>2012-04-26T11:33:06Z</time>
      </trkpt>
      <trkpt lat="46.13135" lon="6.37478">
        <ele>701</ele>
        <time>2012-04-26T11:33:07Z</time>
      </trkpt>
      <trkpt lat="46.13126" lon="6.37467">
        <ele>701</ele>
        <time>2012-04-26T11:33:08Z</time>
      </trkpt>
      <trkpt lat="46.13118" lon="6.37458">
        <ele>701</ele>
        <time>2012-04-26T11:33:09Z</time>
      </trkpt>
      <trkpt lat="46.13109" lon="6.37449">
        <ele>701</ele>
        <time>2012-04-26T11:33:10Z</time>
      </trkpt>
      <trkpt lat="46.13101" lon="6.37439">
        <ele>701</ele>
        <time>2012-04-26T11:33:11Z</time>
      </trkpt>
      <trkpt lat="46.13092" lon="6.37427">
        <ele>701</ele>
        <time>2012-04-26T11:33:12Z</time>
      </trkpt>
      <trkpt lat="46.13085" lon="6.37414">
        <ele>707</ele>
        <time>2012-04-26T11:33:13Z</time>
      </trkpt>
      <trkpt lat="46.13078" lon="6.374">
        <ele>707</ele>
        <time>2012-04-26T11:33:14Z</time>
      </trkpt>
      <trkpt lat="46.13073" lon="6.37383">
        <ele>707</ele>
        <time>2012-04-26T11:33:15Z</time>
      </trkpt>
      <trkpt lat="46.13067" lon="6.37366">
        <ele>707</ele>
        <time>2012-04-26T11:33:16Z</time>
      </trkpt>
      <trkpt lat="46.1306" lon="6.3735">
        <ele>707</ele>
        <time>2012-04-26T11:33:17Z</time>
      </trkpt>
      <trkpt lat="46.13054" lon="6.37335">
        <ele>712</ele>
        <time>2012-04-26T11:33:18Z</time>
      </trkpt>
      <trkpt lat="46.13047" lon="6.37322">
        <ele>712</ele>
        <time>2012-04-26T11:33:19Z</time>
      </trkpt>
      <trkpt lat="46.13042" lon="6.37311">
        <ele>712</ele>
        <time>2012-04-26T11:33:20Z</time>
      </trkpt>
      <trkpt lat="46.13034" lon="6.37294">
        <ele>712</ele>
        <time>2012-04-26T11:33:22Z</time>
      </trkpt>
      <trkpt lat="46.13027" lon="6.37277">
        <ele>719</ele>
        <time>2012-04-26T11:33:24Z</time>
      </trkpt>
      <trkpt lat="46.13021" lon="6.37263">
        <ele>719</ele>
        <time>2012-04-26T11:33:26Z</time>
      </trkpt>
      <trkpt lat="46.13014" lon="6.37249">
        <ele>719</ele>
        <time>2012-04-26T11:33:28Z</time>
      </trkpt>
      <trkpt lat="46.13003" lon="6.37233">
        <ele>719</ele>
        <time>2012-04-26T11:33:30Z</time>
      </trkpt>
      <trkpt lat="46.12996" lon="6.37218">
        <ele>727</ele>
        <time>2012-04-26T11:33:32Z</time>
      </trkpt>
      <trkpt lat="46.12985" lon="6.37225">
        <ele>727</ele>
        <time>2012-04-26T11:33:42Z</time>
      </trkpt>
      <trkpt lat="46.12972" lon="6.37237">
        <ele>727</ele>
        <time>2012-04-26T11:33:44Z</time>
      </trkpt>
      <trkpt lat="46.12964" lon="6.37244">
        <ele>727</ele>
        <time>2012-04-26T11:33:45Z</time>
      </trkpt>
      <trkpt lat="46.12948" lon="6.37251">
        <ele>727</ele>
        <time>2012-04-26T11:33:47Z</time>
      </trkpt>
      <trkpt lat="46.12932" lon="6.3725">
        <ele>727</ele>
        <time>2012-04-26T11:33:49Z</time>
      </trkpt>
      <trkpt lat="46.12915" lon="6.37248">
        <ele>727</ele>
        <time>2012-04-26T11:33:51Z</time>
      </trkpt>
      <trkpt lat="46.12897" lon="6.37248">
        <ele>727</ele>
        <time>2012-04-26T11:33:53Z</time>
      </trkpt>
      <trkpt lat="46.12888" lon="6.37248">
        <ele>727</ele>
        <time>2012-04-26T11:33:54Z</time>
      </trkpt>
      <trkpt lat="46.12878" lon="6.37251">
        <ele>727</ele>
        <time>2012-04-26T11:33:55Z</time>
      </trkpt>
      <trkpt lat="46.12868" lon="6.37253">
        <ele>727</ele>
        <time>2012-04-26T11:33:56Z</time>
      </trkpt>
      <trkpt lat="46.12858" lon="6.37257">
        <ele>727</ele>
        <time>2012-04-26T11:33:57Z</time>
      </trkpt>
      <trkpt lat="46.12846" lon="6.37263">
        <ele>727</ele>
        <time>2012-04-26T11:33:58Z</time>
      </trkpt>
      <trkpt lat="46.12836" lon="6.37267">
        <ele>727</ele>
        <time>2012-04-26T11:33:59Z</time>
      </trkpt>
      <trkpt lat="46.12826" lon="6.37272">
        <ele>733</ele>
        <time>2012-04-26T11:34:00Z</time>
      </trkpt>
      <trkpt lat="46.12818" lon="6.37276">
        <ele>733</ele>
        <time>2012-04-26T11:34:01Z</time>
      </trkpt>
      <trkpt lat="46.128" lon="6.37284">
        <ele>733</ele>
        <time>2012-04-26T11:34:03Z</time>
      </trkpt>
      <trkpt lat="46.12791" lon="6.37288">
        <ele>733</ele>
        <time>2012-04-26T11:34:04Z</time>
      </trkpt>
      <trkpt lat="46.12783" lon="6.37295">
        <ele>733</ele>
        <time>2012-04-26T11:34:05Z</time>
      </trkpt>
      <trkpt lat="46.12774" lon="6.37303">
        <ele>733</ele>
        <time>2012-04-26T11:34:06Z</time>
      </trkpt>
      <trkpt lat="46.12764" lon="6.3731">
        <ele>733</ele>
        <time>2012-04-26T11:34:07Z</time>
      </trkpt>
      <trkpt lat="46.12755" lon="6.37316">
        <ele>733</ele>
        <time>2012-04-26T11:34:08Z</time>
      </trkpt>
      <trkpt lat="46.12739" lon="6.37322">
        <ele>733</ele>
        <time>2012-04-26T11:34:10Z</time>
      </trkpt>
      <trkpt lat="46.1272" lon="6.37323">
        <ele>727</ele>
        <time>2012-04-26T11:34:12Z</time>
      </trkpt>
      <trkpt lat="46.12709" lon="6.37324">
        <ele>727</ele>
        <time>2012-04-26T11:34:13Z</time>
      </trkpt>
      <trkpt lat="46.12696" lon="6.37325">
        <ele>727</ele>
        <time>2012-04-26T11:34:14Z</time>
      </trkpt>
      <trkpt lat="46.12683" lon="6.37326">
        <ele>727</ele>
        <time>2012-04-26T11:34:15Z</time>
      </trkpt>
      <trkpt lat="46.12671" lon="6.37327">
        <ele>727</ele>
        <time>2012-04-26T11:34:16Z</time>
      </trkpt>
      <trkpt lat="46.12658" lon="6.37328">
        <ele>727</ele>
        <time>2012-04-26T11:34:17Z</time>
      </trkpt>
      <trkpt lat="46.12645" lon="6.3733">
        <ele>727</ele>
        <time>2012-04-26T11:34:18Z</time>
      </trkpt>
      <trkpt lat="46.12633" lon="6.3733">
        <ele>727</ele>
        <time>2012-04-26T11:34:19Z</time>
      </trkpt>
      <trkpt lat="46.12623" lon="6.37329">
        <ele>727</ele>
        <time>2012-04-26T11:34:20Z</time>
      </trkpt>
      <trkpt lat="46.12611" lon="6.37326">
        <ele>727</ele>
        <time>2012-04-26T11:34:21Z</time>
      </trkpt>
      <trkpt lat="46.126" lon="6.3732">
        <ele>727</ele>
        <time>2012-04-26T11:34:22Z</time>
      </trkpt>
      <trkpt lat="46.12588" lon="6.37313">
        <ele>727</ele>
        <time>2012-04-26T11:34:23Z</time>
      </trkpt>
      <trkpt lat="46.12576" lon="6.37305">
        <ele>727</ele>
        <time>2012-04-26T11:34:24Z</time>
      </trkpt>
      <trkpt lat="46.12563" lon="6.37298">
        <ele>727</ele>
        <time>2012-04-26T11:34:25Z</time>
      </trkpt>
      <trkpt lat="46.1255" lon="6.37291">
        <ele>733</ele>
        <time>2012-04-26T11:34:26Z</time>
      </trkpt>
      <trkpt lat="46.12536" lon="6.37283">
        <ele>733</ele>
        <time>2012-04-26T11:34:27Z</time>
      </trkpt>
      <trkpt lat="46.12524" lon="6.37275">
        <ele>733</ele>
        <time>2012-04-26T11:34:28Z</time>
      </trkpt>
      <trkpt lat="46.12514" lon="6.37267">
        <ele>733</ele>
        <time>2012-04-26T11:34:29Z</time>
      </trkpt>
      <trkpt lat="46.12505" lon="6.37258">
        <ele>733</ele>
        <time>2012-04-26T11:34:30Z</time>
      </trkpt>
      <trkpt lat="46.12492" lon="6.37245">
        <ele>738</ele>
        <time>2012-04-26T11:34:32Z</time>
      </trkpt>
      <trkpt lat="46.12478" lon="6.37242">
        <ele>738</ele>
        <time>2012-04-26T11:34:34Z</time>
      </trkpt>
      <trkpt lat="46.12462" lon="6.37241">
        <ele>738</ele>
        <time>2012-04-26T11:34:36Z</time>
      </trkpt>
      <trkpt lat="46.12451" lon="6.37239">
        <ele>738</ele>
        <time>2012-04-26T11:34:37Z</time>
      </trkpt>
      <trkpt lat="46.12441" lon="6.37235">
        <ele>738</ele>
        <time>2012-04-26T11:34:38Z</time>
      </trkpt>
      <trkpt lat="46.12432" lon="6.37232">
        <ele>738</ele>
        <time>2012-04-26T11:34:39Z</time>
      </trkpt>
      <trkpt lat="46.12422" lon="6.37227">
        <ele>738</ele>
        <time>2012-04-26T11:34:40Z</time>
      </trkpt>
      <trkpt lat="46.12412" lon="6.37224">
        <ele>738</ele>
        <time>2012-04-26T11:34:41Z</time>
      </trkpt>
      <trkpt lat="46.12402" lon="6.37222">
        <ele>738</ele>
        <time>2012-04-26T11:34:42Z</time>
      </trkpt>
      <trkpt lat="46.12385" lon="6.37217">
        <ele>738</ele>
        <time>2012-04-26T11:34:44Z</time>
      </trkpt>
      <trkpt lat="46.12368" lon="6.37213">
        <ele>743</ele>
        <time>2012-04-26T11:34:46Z</time>
      </trkpt>
      <trkpt lat="46.12353" lon="6.37209">
        <ele>743</ele>
        <time>2012-04-26T11:34:48Z</time>
      </trkpt>
      <trkpt lat="46.1234" lon="6.37205">
        <ele>743</ele>
        <time>2012-04-26T11:34:50Z</time>
      </trkpt>
      <trkpt lat="46.12325" lon="6.37198">
        <ele>743</ele>
        <time>2012-04-26T11:34:52Z</time>
      </trkpt>
      <trkpt lat="46.12309" lon="6.37189">
        <ele>743</ele>
        <time>2012-04-26T11:34:54Z</time>
      </trkpt>
      <trkpt lat="46.12295" lon="6.37183">
        <ele>743</ele>
        <time>2012-04-26T11:34:56Z</time>
      </trkpt>
      <trkpt lat="46.12283" lon="6.3718">
        <ele>743</ele>
        <time>2012-04-26T11:34:58Z</time>
      </trkpt>
      <trkpt lat="46.1227" lon="6.37173">
        <ele>743</ele>
        <time>2012-04-26T11:35:00Z</time>
      </trkpt>
      <trkpt lat="46.12254" lon="6.37163">
        <ele>743</ele>
        <time>2012-04-26T11:35:02Z</time>
      </trkpt>
      <trkpt lat="46.12246" lon="6.37157">
        <ele>743</ele>
        <time>2012-04-26T11:35:03Z</time>
      </trkpt>
      <trkpt lat="46.1223" lon="6.37146">
        <ele>743</ele>
        <time>2012-04-26T11:35:05Z</time>
      </trkpt>
      <trkpt lat="46.12221" lon="6.37143">
        <ele>743</ele>
        <time>2012-04-26T11:35:06Z</time>
      </trkpt>
      <trkpt lat="46.12204" lon="6.37139">
        <ele>743</ele>
        <time>2012-04-26T11:35:08Z</time>
      </trkpt>
      <trkpt lat="46.12185" lon="6.37144">
        <ele>743</ele>
        <time>2012-04-26T11:35:10Z</time>
      </trkpt>
      <trkpt lat="46.12168" lon="6.37152">
        <ele>743</ele>
        <time>2012-04-26T11:35:12Z</time>
      </trkpt>
      <trkpt lat="46.12154" lon="6.37159">
        <ele>743</ele>
        <time>2012-04-26T11:35:14Z</time>
      </trkpt>
      <trkpt lat="46.12145" lon="6.37163">
        <ele>743</ele>
        <time>2012-04-26T11:35:16Z</time>
      </trkpt>
      <trkpt lat="46.12137" lon="6.37173">
        <ele>743</ele>
        <time>2012-04-26T11:35:18Z</time>
      </trkpt>
      <trkpt lat="46.12123" lon="6.37192">
        <ele>743</ele>
        <time>2012-04-26T11:35:20Z</time>
      </trkpt>
      <trkpt lat="46.12115" lon="6.37204">
        <ele>743</ele>
        <time>2012-04-26T11:35:21Z</time>
      </trkpt>
      <trkpt lat="46.12108" lon="6.37215">
        <ele>743</ele>
        <time>2012-04-26T11:35:22Z</time>
      </trkpt>
      <trkpt lat="46.121" lon="6.37224">
        <ele>743</ele>
        <time>2012-04-26T11:35:23Z</time>
      </trkpt>
      <trkpt lat="46.12092" lon="6.37234">
        <ele>743</ele>
        <time>2012-04-26T11:35:24Z</time>
      </trkpt>
      <trkpt lat="46.12082" lon="6.37245">
        <ele>743</ele>
        <time>2012-04-26T11:35:25Z</time>
      </trkpt>
      <trkpt lat="46.12071" lon="6.37254">
        <ele>743</ele>
        <time>2012-04-26T11:35:26Z</time>
      </trkpt>
      <trkpt lat="46.1206" lon="6.37261">
        <ele>743</ele>
        <time>2012-04-26T11:35:27Z</time>
      </trkpt>
      <trkpt lat="46.12048" lon="6.37266">
        <ele>743</ele>
        <time>2012-04-26T11:35:28Z</time>
      </trkpt>
      <trkpt lat="46.12035" lon="6.37269">
        <ele>743</ele>
        <time>2012-04-26T11:35:29Z</time>
      </trkpt>
      <trkpt lat="46.12022" lon="6.37269">
        <ele>743</ele>
        <time>2012-04-26T11:35:30Z</time>
      </trkpt>
      <trkpt lat="46.12009" lon="6.37269">
        <ele>743</ele>
        <time>2012-04-26T11:35:31Z</time>
      </trkpt>
      <trkpt lat="46.11997" lon="6.37268">
        <ele>743</ele>
        <time>2012-04-26T11:35:32Z</time>
      </trkpt>
      <trkpt lat="46.11984" lon="6.37267">
        <ele>743</ele>
        <time>2012-04-26T11:35:33Z</time>
      </trkpt>
      <trkpt lat="46.11973" lon="6.37266">
        <ele>743</ele>
        <time>2012-04-26T11:35:34Z</time>
      </trkpt>
      <trkpt lat="46.11962" lon="6.37267">
        <ele>743</ele>
        <time>2012-04-26T11:35:35Z</time>
      </trkpt>
      <trkpt lat="46.11951" lon="6.37269">
        <ele>743</ele>
        <time>2012-04-26T11:35:36Z</time>
      </trkpt>
      <trkpt lat="46.11941" lon="6.37273">
        <ele>743</ele>
        <time>2012-04-26T11:35:37Z</time>
      </trkpt>
      <trkpt lat="46.1193" lon="6.37277">
        <ele>743</ele>
        <time>2012-04-26T11:35:38Z</time>
      </trkpt>
      <trkpt lat="46.11919" lon="6.37281">
        <ele>743</ele>
        <time>2012-04-26T11:35:39Z</time>
      </trkpt>
      <trkpt lat="46.11908" lon="6.37285">
        <ele>743</ele>
        <time>2012-04-26T11:35:40Z</time>
      </trkpt>
      <trkpt lat="46.11896" lon="6.37286">
        <ele>743</ele>
        <time>2012-04-26T11:35:41Z</time>
      </trkpt>
      <trkpt lat="46.11884" lon="6.37286">
        <ele>743</ele>
        <time>2012-04-26T11:35:42Z</time>
      </trkpt>
      <trkpt lat="46.11871" lon="6.37284">
        <ele>743</ele>
        <time>2012-04-26T11:35:43Z</time>
      </trkpt>
      <trkpt lat="46.11857" lon="6.37279">
        <ele>743</ele>
        <time>2012-04-26T11:35:44Z</time>
      </trkpt>
      <trkpt lat="46.11845" lon="6.37274">
        <ele>743</ele>
        <time>2012-04-26T11:35:45Z</time>
      </trkpt>
      <trkpt lat="46.11832" lon="6.37268">
        <ele>743</ele>
        <time>2012-04-26T11:35:46Z</time>
      </trkpt>
      <trkpt lat="46.11821" lon="6.3726">
        <ele>749</ele>
        <time>2012-04-26T11:35:47Z</time>
      </trkpt>
      <trkpt lat="46.11811" lon="6.37255">
        <ele>749</ele>
        <time>2012-04-26T11:35:48Z</time>
      </trkpt>
      <trkpt lat="46.11795" lon="6.3725">
        <ele>749</ele>
        <time>2012-04-26T11:35:50Z</time>
      </trkpt>
      <trkpt lat="46.11781" lon="6.37251">
        <ele>749</ele>
        <time>2012-04-26T11:35:52Z</time>
      </trkpt>
      <trkpt lat="46.11771" lon="6.37257">
        <ele>754</ele>
        <time>2012-04-26T11:35:55Z</time>
      </trkpt>
      <trkpt lat="46.11763" lon="6.37262">
        <ele>754</ele>
        <time>2012-04-26T11:36:58Z</time>
      </trkpt>
      <trkpt lat="46.11754" lon="6.37266">
        <ele>754</ele>
        <time>2012-04-26T11:36:59Z</time>
      </trkpt>
      <trkpt lat="46.11734" lon="6.37274">
        <ele>754</ele>
        <time>2012-04-26T11:37:01Z</time>
      </trkpt>
      <trkpt lat="46.11724" lon="6.37277">
        <ele>760</ele>
        <time>2012-04-26T11:37:02Z</time>
      </trkpt>
      <trkpt lat="46.11713" lon="6.37281">
        <ele>760</ele>
        <time>2012-04-26T11:37:03Z</time>
      </trkpt>
      <trkpt lat="46.11701" lon="6.37286">
        <ele>760</ele>
        <time>2012-04-26T11:37:04Z</time>
      </trkpt>
      <trkpt lat="46.11689" lon="6.37292">
        <ele>760</ele>
        <time>2012-04-26T11:37:05Z</time>
      </trkpt>
      <trkpt lat="46.11676" lon="6.37297">
        <ele>760</ele>
        <time>2012-04-26T11:37:06Z</time>
      </trkpt>
      <trkpt lat="46.11663" lon="6.37304">
        <ele>760</ele>
        <time>2012-04-26T11:37:07Z</time>
      </trkpt>
      <trkpt lat="46.1165" lon="6.37311">
        <ele>766</ele>
        <time>2012-04-26T11:37:08Z</time>
      </trkpt>
      <trkpt lat="46.11638" lon="6.3732">
        <ele>766</ele>
        <time>2012-04-26T11:37:09Z</time>
      </trkpt>
      <trkpt lat="46.11625" lon="6.37331">
        <ele>766</ele>
        <time>2012-04-26T11:37:10Z</time>
      </trkpt>
      <trkpt lat="46.11613" lon="6.37344">
        <ele>766</ele>
        <time>2012-04-26T11:37:11Z</time>
      </trkpt>
      <trkpt lat="46.11601" lon="6.37356">
        <ele>766</ele>
        <time>2012-04-26T11:37:12Z</time>
      </trkpt>
      <trkpt lat="46.11591" lon="6.37365">
        <ele>772</ele>
        <time>2012-04-26T11:37:13Z</time>
      </trkpt>
      <trkpt lat="46.1158" lon="6.37371">
        <ele>772</ele>
        <time>2012-04-26T11:37:14Z</time>
      </trkpt>
      <trkpt lat="46.1157" lon="6.37376">
        <ele>772</ele>
        <time>2012-04-26T11:37:15Z</time>
      </trkpt>
      <trkpt lat="46.11559" lon="6.37379">
        <ele>772</ele>
        <time>2012-04-26T11:37:16Z</time>
      </trkpt>
      <trkpt lat="46.11549" lon="6.37381">
        <ele>778</ele>
        <time>2012-04-26T11:37:17Z</time>
      </trkpt>
      <trkpt lat="46.11538" lon="6.37382">
        <ele>778</ele>
        <time>2012-04-26T11:37:18Z</time>
      </trkpt>
      <trkpt lat="46.11526" lon="6.37383">
        <ele>778</ele>
        <time>2012-04-26T11:37:19Z</time>
      </trkpt>
      <trkpt lat="46.11517" lon="6.37383">
        <ele>778</ele>
        <time>2012-04-26T11:37:20Z</time>
      </trkpt>
      <trkpt lat="46.11508" lon="6.37381">
        <ele>783</ele>
        <time>2012-04-26T11:37:21Z</time>
      </trkpt>
      <trkpt lat="46.11498" lon="6.37378">
        <ele>783</ele>
        <time>2012-04-26T11:37:22Z</time>
      </trkpt>
      <trkpt lat="46.11489" lon="6.37374">
        <ele>783</ele>
        <time>2012-04-26T11:37:23Z</time>
      </trkpt>
      <trkpt lat="46.1148" lon="6.37368">
        <ele>783</ele>
        <time>2012-04-26T11:37:24Z</time>
      </trkpt>
      <trkpt lat="46.11471" lon="6.37362">
        <ele>783</ele>
        <time>2012-04-26T11:37:25Z</time>
      </trkpt>
      <trkpt lat="46.11461" lon="6.37357">
        <ele>783</ele>
        <time>2012-04-26T11:37:26Z</time>
      </trkpt>
      <trkpt lat="46.11445" lon="6.37353">
        <ele>788</ele>
        <time>2012-04-26T11:37:28Z</time>
      </trkpt>
      <trkpt lat="46.11435" lon="6.37352">
        <ele>788</ele>
        <time>2012-04-26T11:37:31Z</time>
      </trkpt>
      <trkpt lat="46.11447" lon="6.37354">
        <ele>788</ele>
        <time>2012-04-26T11:37:46Z</time>
      </trkpt>
      <trkpt lat="46.11463" lon="6.3736">
        <ele>788</ele>
        <time>2012-04-26T11:37:48Z</time>
      </trkpt>
      <trkpt lat="46.11472" lon="6.37366">
        <ele>788</ele>
        <time>2012-04-26T11:37:49Z</time>
      </trkpt>
      <trkpt lat="46.11489" lon="6.37374">
        <ele>788</ele>
        <time>2012-04-26T11:37:51Z</time>
      </trkpt>
      <trkpt lat="46.11503" lon="6.37381">
        <ele>788</ele>
        <time>2012-04-26T11:37:53Z</time>
      </trkpt>
      <trkpt lat="46.11513" lon="6.37384">
        <ele>783</ele>
        <time>2012-04-26T11:37:55Z</time>
      </trkpt>
      <trkpt lat="46.11522" lon="6.37388">
        <ele>783</ele>
        <time>2012-04-26T11:37:58Z</time>
      </trkpt>
      <trkpt lat="46.11534" lon="6.37381">
        <ele>783</ele>
        <time>2012-04-26T11:38:05Z</time>
      </trkpt>
      <trkpt lat="46.11548" lon="6.37379">
        <ele>783</ele>
        <time>2012-04-26T11:38:07Z</time>
      </trkpt>
      <trkpt lat="46.11562" lon="6.37377">
        <ele>777</ele>
        <time>2012-04-26T11:38:09Z</time>
      </trkpt>
      <trkpt lat="46.11572" lon="6.37374">
        <ele>777</ele>
        <time>2012-04-26T11:38:11Z</time>
      </trkpt>
      <trkpt lat="46.11582" lon="6.37384">
        <ele>777</ele>
        <time>2012-04-26T11:38:15Z</time>
      </trkpt>
      <trkpt lat="46.11586" lon="6.37401">
        <ele>777</ele>
        <time>2012-04-26T11:38:17Z</time>
      </trkpt>
      <trkpt lat="46.11589" lon="6.37421">
        <ele>777</ele>
        <time>2012-04-26T11:38:19Z</time>
      </trkpt>
      <trkpt lat="46.11589" lon="6.37442">
        <ele>777</ele>
        <time>2012-04-26T11:38:21Z</time>
      </trkpt>
      <trkpt lat="46.11588" lon="6.37463">
        <ele>777</ele>
        <time>2012-04-26T11:38:23Z</time>
      </trkpt>
      <trkpt lat="46.11587" lon="6.37477">
        <ele>782</ele>
        <time>2012-04-26T11:38:24Z</time>
      </trkpt>
      <trkpt lat="46.11581" lon="6.37499">
        <ele>782</ele>
        <time>2012-04-26T11:38:26Z</time>
      </trkpt>
      <trkpt lat="46.11571" lon="6.37524">
        <ele>782</ele>
        <time>2012-04-26T11:38:28Z</time>
      </trkpt>
      <trkpt lat="46.11565" lon="6.37535">
        <ele>782</ele>
        <time>2012-04-26T11:38:29Z</time>
      </trkpt>
      <trkpt lat="46.11561" lon="6.37547">
        <ele>788</ele>
        <time>2012-04-26T11:38:30Z</time>
      </trkpt>
      <trkpt lat="46.11553" lon="6.3757">
        <ele>788</ele>
        <time>2012-04-26T11:38:32Z</time>
      </trkpt>
      <trkpt lat="46.11549" lon="6.37595">
        <ele>788</ele>
        <time>2012-04-26T11:38:34Z</time>
      </trkpt>
      <trkpt lat="46.11547" lon="6.37619">
        <ele>788</ele>
        <time>2012-04-26T11:38:36Z</time>
      </trkpt>
      <trkpt lat="46.11537" lon="6.37673">
        <ele>795</ele>
        <time>2012-04-26T11:38:41Z</time>
      </trkpt>
      <trkpt lat="46.11528" lon="6.37684">
        <ele>802</ele>
        <time>2012-04-26T11:38:44Z</time>
      </trkpt>
      <trkpt lat="46.1152" lon="6.37678">
        <ele>802</ele>
        <time>2012-04-26T11:38:46Z</time>
      </trkpt>
      <trkpt lat="46.11511" lon="6.37666">
        <ele>807</ele>
        <time>2012-04-26T11:38:48Z</time>
      </trkpt>
      <trkpt lat="46.11498" lon="6.37655">
        <ele>807</ele>
        <time>2012-04-26T11:38:50Z</time>
      </trkpt>
      <trkpt lat="46.11483" lon="6.37652">
        <ele>807</ele>
        <time>2012-04-26T11:38:52Z</time>
      </trkpt>
      <trkpt lat="46.11468" lon="6.37654">
        <ele>807</ele>
        <time>2012-04-26T11:38:54Z</time>
      </trkpt>
      <trkpt lat="46.11455" lon="6.37651">
        <ele>807</ele>
        <time>2012-04-26T11:38:56Z</time>
      </trkpt>
      <trkpt lat="46.11444" lon="6.37646">
        <ele>816</ele>
        <time>2012-04-26T11:38:58Z</time>
      </trkpt>
      <trkpt lat="46.11433" lon="6.37644">
        <ele>822</ele>
        <time>2012-04-26T11:39:21Z</time>
      </trkpt>
      <trkpt lat="46.11423" lon="6.37648">
        <ele>822</ele>
        <time>2012-04-26T11:39:23Z</time>
      </trkpt>
      <trkpt lat="46.11413" lon="6.37656">
        <ele>822</ele>
        <time>2012-04-26T11:39:25Z</time>
      </trkpt>
      <trkpt lat="46.11406" lon="6.37666">
        <ele>822</ele>
        <time>2012-04-26T11:39:27Z</time>
      </trkpt>
      <trkpt lat="46.11398" lon="6.37677">
        <ele>822</ele>
        <time>2012-04-26T11:39:29Z</time>
      </trkpt>
      <trkpt lat="46.11384" lon="6.37689">
        <ele>822</ele>
        <time>2012-04-26T11:39:31Z</time>
      </trkpt>
      <trkpt lat="46.11373" lon="6.37699">
        <ele>822</ele>
        <time>2012-04-26T11:39:33Z</time>
      </trkpt>
      <trkpt lat="46.11362" lon="6.37716">
        <ele>822</ele>
        <time>2012-04-26T11:39:35Z</time>
      </trkpt>
      <trkpt lat="46.11356" lon="6.37729">
        <ele>822</ele>
        <time>2012-04-26T11:39:36Z</time>
      </trkpt>
      <trkpt lat="46.1135" lon="6.37742">
        <ele>822</ele>
        <time>2012-04-26T11:39:37Z</time>
      </trkpt>
      <trkpt lat="46.11341" lon="6.37758">
        <ele>828</ele>
        <time>2012-04-26T11:39:38Z</time>
      </trkpt>
      <trkpt lat="46.11335" lon="6.37772">
        <ele>828</ele>
        <time>2012-04-26T11:39:39Z</time>
      </trkpt>
      <trkpt lat="46.11328" lon="6.37784">
        <ele>828</ele>
        <time>2012-04-26T11:39:40Z</time>
      </trkpt>
      <trkpt lat="46.11321" lon="6.37796">
        <ele>828</ele>
        <time>2012-04-26T11:39:41Z</time>
      </trkpt>
      <trkpt lat="46.11316" lon="6.37807">
        <ele>833</ele>
        <time>2012-04-26T11:39:42Z</time>
      </trkpt>
      <trkpt lat="46.11311" lon="6.37819">
        <ele>833</ele>
        <time>2012-04-26T11:39:43Z</time>
      </trkpt>
      <trkpt lat="46.11306" lon="6.37831">
        <ele>833</ele>
        <time>2012-04-26T11:39:44Z</time>
      </trkpt>
      <trkpt lat="46.113" lon="6.37843">
        <ele>833</ele>
        <time>2012-04-26T11:39:45Z</time>
      </trkpt>
      <trkpt lat="46.11293" lon="6.37856">
        <ele>833</ele>
        <time>2012-04-26T11:39:46Z</time>
      </trkpt>
      <trkpt lat="46.11286" lon="6.37869">
        <ele>833</ele>
        <time>2012-04-26T11:39:47Z</time>
      </trkpt>
      <trkpt lat="46.11278" lon="6.37881">
        <ele>833</ele>
        <time>2012-04-26T11:39:48Z</time>
      </trkpt>
      <trkpt lat="46.1127" lon="6.3789">
        <ele>833</ele>
        <time>2012-04-26T11:39:49Z</time>
      </trkpt>
      <trkpt lat="46.11261" lon="6.37897">
        <ele>833</ele>
        <time>2012-04-26T11:39:50Z</time>
      </trkpt>
      <trkpt lat="46.11247" lon="6.37908">
        <ele>833</ele>
        <time>2012-04-26T11:39:52Z</time>
      </trkpt>
      <trkpt lat="46.11236" lon="6.37921">
        <ele>840</ele>
        <time>2012-04-26T11:39:54Z</time>
      </trkpt>
      <trkpt lat="46.11227" lon="6.37934">
        <ele>840</ele>
        <time>2012-04-26T11:39:56Z</time>
      </trkpt>
      <trkpt lat="46.11216" lon="6.37942">
        <ele>840</ele>
        <time>2012-04-26T11:39:58Z</time>
      </trkpt>
      <trkpt lat="46.11204" lon="6.37942">
        <ele>840</ele>
        <time>2012-04-26T11:40:00Z</time>
      </trkpt>
      <trkpt lat="46.11195" lon="6.3794">
        <ele>845</ele>
        <time>2012-04-26T11:40:03Z</time>
      </trkpt>
      <trkpt lat="46.11183" lon="6.37931">
        <ele>845</ele>
        <time>2012-04-26T11:40:07Z</time>
      </trkpt>
      <trkpt lat="46.11171" lon="6.37925">
        <ele>845</ele>
        <time>2012-04-26T11:40:09Z</time>
      </trkpt>
      <trkpt lat="46.11159" lon="6.37922">
        <ele>845</ele>
        <time>2012-04-26T11:40:11Z</time>
      </trkpt>
      <trkpt lat="46.11148" lon="6.3792">
        <ele>845</ele>
        <time>2012-04-26T11:40:13Z</time>
      </trkpt>
      <trkpt lat="46.11137" lon="6.37911">
        <ele>845</ele>
        <time>2012-04-26T11:40:16Z</time>
      </trkpt>
      <trkpt lat="46.11127" lon="6.37896">
        <ele>845</ele>
        <time>2012-04-26T11:40:19Z</time>
      </trkpt>
      <trkpt lat="46.11115" lon="6.37885">
        <ele>845</ele>
        <time>2012-04-26T11:40:21Z</time>
      </trkpt>
      <trkpt lat="46.11106" lon="6.37872">
        <ele>845</ele>
        <time>2012-04-26T11:40:23Z</time>
      </trkpt>
      <trkpt lat="46.11098" lon="6.37862">
        <ele>845</ele>
        <time>2012-04-26T11:40:26Z</time>
      </trkpt>
      <trkpt lat="46.11088" lon="6.37852">
        <ele>845</ele>
        <time>2012-04-26T11:40:29Z</time>
      </trkpt>
      <trkpt lat="46.11082" lon="6.37838">
        <ele>845</ele>
        <time>2012-04-26T11:40:31Z</time>
      </trkpt>
      <trkpt lat="46.11073" lon="6.37818">
        <ele>845</ele>
        <time>2012-04-26T11:40:33Z</time>
      </trkpt>
      <trkpt lat="46.11065" lon="6.37799">
        <ele>854</ele>
        <time>2012-04-26T11:40:35Z</time>
      </trkpt>
      <trkpt lat="46.11058" lon="6.37783">
        <ele>854</ele>
        <time>2012-04-26T11:40:37Z</time>
      </trkpt>
      <trkpt lat="46.11051" lon="6.37773">
        <ele>854</ele>
        <time>2012-04-26T11:40:40Z</time>
      </trkpt>
      <trkpt lat="46.11043" lon="6.37767">
        <ele>854</ele>
        <time>2012-04-26T11:40:43Z</time>
      </trkpt>
      <trkpt lat="46.11032" lon="6.37761">
        <ele>854</ele>
        <time>2012-04-26T11:40:50Z</time>
      </trkpt>
      <trkpt lat="46.11018" lon="6.37765">
        <ele>854</ele>
        <time>2012-04-26T11:40:53Z</time>
      </trkpt>
      <trkpt lat="46.11003" lon="6.37771">
        <ele>854</ele>
        <time>2012-04-26T11:40:55Z</time>
      </trkpt>
      <trkpt lat="46.10986" lon="6.37773">
        <ele>854</ele>
        <time>2012-04-26T11:40:57Z</time>
      </trkpt>
      <trkpt lat="46.10976" lon="6.37775">
        <ele>854</ele>
        <time>2012-04-26T11:40:58Z</time>
      </trkpt>
      <trkpt lat="46.10965" lon="6.37779">
        <ele>854</ele>
        <time>2012-04-26T11:40:59Z</time>
      </trkpt>
      <trkpt lat="46.10952" lon="6.37784">
        <ele>854</ele>
        <time>2012-04-26T11:41:00Z</time>
      </trkpt>
      <trkpt lat="46.10939" lon="6.37788">
        <ele>859</ele>
        <time>2012-04-26T11:41:01Z</time>
      </trkpt>
      <trkpt lat="46.10928" lon="6.37791">
        <ele>859</ele>
        <time>2012-04-26T11:41:02Z</time>
      </trkpt>
      <trkpt lat="46.10917" lon="6.37796">
        <ele>859</ele>
        <time>2012-04-26T11:41:03Z</time>
      </trkpt>
      <trkpt lat="46.10908" lon="6.37801">
        <ele>859</ele>
        <time>2012-04-26T11:41:04Z</time>
      </trkpt>
      <trkpt lat="46.10899" lon="6.37809">
        <ele>859</ele>
        <time>2012-04-26T11:41:05Z</time>
      </trkpt>
      <trkpt lat="46.10892" lon="6.37818">
        <ele>859</ele>
        <time>2012-04-26T11:41:06Z</time>
      </trkpt>
      <trkpt lat="46.10886" lon="6.37828">
        <ele>859</ele>
        <time>2012-04-26T11:41:07Z</time>
      </trkpt>
      <trkpt lat="46.10877" lon="6.37847">
        <ele>859</ele>
        <time>2012-04-26T11:41:09Z</time>
      </trkpt>
      <trkpt lat="46.10867" lon="6.37866">
        <ele>865</ele>
        <time>2012-04-26T11:41:11Z</time>
      </trkpt>
      <trkpt lat="46.10857" lon="6.37887">
        <ele>865</ele>
        <time>2012-04-26T11:41:13Z</time>
      </trkpt>
      <trkpt lat="46.10847" lon="6.37908">
        <ele>865</ele>
        <time>2012-04-26T11:41:15Z</time>
      </trkpt>
      <trkpt lat="46.10838" lon="6.37926">
        <ele>872</ele>
        <time>2012-04-26T11:41:17Z</time>
      </trkpt>
      <trkpt lat="46.1083" lon="6.37942">
        <ele>872</ele>
        <time>2012-04-26T11:41:19Z</time>
      </trkpt>
      <trkpt lat="46.1082" lon="6.37958">
        <ele>878</ele>
        <time>2012-04-26T11:41:21Z</time>
      </trkpt>
      <trkpt lat="46.10808" lon="6.37969">
        <ele>878</ele>
        <time>2012-04-26T11:41:23Z</time>
      </trkpt>
      <trkpt lat="46.10798" lon="6.37977">
        <ele>885</ele>
        <time>2012-04-26T11:41:25Z</time>
      </trkpt>
      <trkpt lat="46.10788" lon="6.37987">
        <ele>885</ele>
        <time>2012-04-26T11:41:27Z</time>
      </trkpt>
      <trkpt lat="46.10778" lon="6.37996">
        <ele>885</ele>
        <time>2012-04-26T11:41:29Z</time>
      </trkpt>
      <trkpt lat="46.10769" lon="6.38006">
        <ele>885</ele>
        <time>2012-04-26T11:41:31Z</time>
      </trkpt>
      <trkpt lat="46.10762" lon="6.38015">
        <ele>892</ele>
        <time>2012-04-26T11:41:33Z</time>
      </trkpt>
      <trkpt lat="46.10752" lon="6.3802">
        <ele>892</ele>
        <time>2012-04-26T11:41:35Z</time>
      </trkpt>
      <trkpt lat="46.10735" lon="6.38024">
        <ele>900</ele>
        <time>2012-04-26T11:41:39Z</time>
      </trkpt>
      <trkpt lat="46.10724" lon="6.38022">
        <ele>900</ele>
        <time>2012-04-26T11:41:41Z</time>
      </trkpt>
      <trkpt lat="46.10714" lon="6.38019">
        <ele>906</ele>
        <time>2012-04-26T11:41:43Z</time>
      </trkpt>
      <trkpt lat="46.10704" lon="6.38027">
        <ele>906</ele>
        <time>2012-04-26T11:41:45Z</time>
      </trkpt>
      <trkpt lat="46.10694" lon="6.38037">
        <ele>912</ele>
        <time>2012-04-26T11:41:48Z</time>
      </trkpt>
      <trkpt lat="46.10684" lon="6.38058">
        <ele>912</ele>
        <time>2012-04-26T11:41:52Z</time>
      </trkpt>
      <trkpt lat="46.10685" lon="6.3808">
        <ele>912</ele>
        <time>2012-04-26T11:41:54Z</time>
      </trkpt>
      <trkpt lat="46.10677" lon="6.38099">
        <ele>912</ele>
        <time>2012-04-26T11:41:56Z</time>
      </trkpt>
      <trkpt lat="46.1067" lon="6.38108">
        <ele>912</ele>
        <time>2012-04-26T11:42:03Z</time>
      </trkpt>
      <trkpt lat="46.10671" lon="6.38122">
        <ele>912</ele>
        <time>2012-04-26T11:42:34Z</time>
      </trkpt>
      <trkpt lat="46.1068" lon="6.38117">
        <ele>912</ele>
        <time>2012-04-26T11:42:45Z</time>
      </trkpt>
      <trkpt lat="46.10687" lon="6.38099">
        <ele>912</ele>
        <time>2012-04-26T11:42:48Z</time>
      </trkpt>
      <trkpt lat="46.10695" lon="6.3809">
        <ele>905</ele>
        <time>2012-04-26T11:42:50Z</time>
      </trkpt>
      <trkpt lat="46.10703" lon="6.3808">
        <ele>899</ele>
        <time>2012-04-26T11:42:52Z</time>
      </trkpt>
      <trkpt lat="46.10712" lon="6.38072">
        <ele>899</ele>
        <time>2012-04-26T11:42:54Z</time>
      </trkpt>
      <trkpt lat="46.10721" lon="6.38072">
        <ele>899</ele>
        <time>2012-04-26T11:42:57Z</time>
      </trkpt>
      <trkpt lat="46.10721" lon="6.38087">
        <ele>899</ele>
        <time>2012-04-26T11:42:59Z</time>
      </trkpt>
      <trkpt lat="46.10722" lon="6.38109">
        <ele>899</ele>
        <time>2012-04-26T11:43:01Z</time>
      </trkpt>
      <trkpt lat="46.10722" lon="6.38134">
        <ele>899</ele>
        <time>2012-04-26T11:43:03Z</time>
      </trkpt>
      <trkpt lat="46.10722" lon="6.38148">
        <ele>899</ele>
        <time>2012-04-26T11:43:04Z</time>
      </trkpt>
      <trkpt lat="46.10722" lon="6.38161">
        <ele>899</ele>
        <time>2012-04-26T11:43:05Z</time>
      </trkpt>
      <trkpt lat="46.10722" lon="6.38175">
        <ele>899</ele>
        <time>2012-04-26T11:43:06Z</time>
      </trkpt>
      <trkpt lat="46.10723" lon="6.38201">
        <ele>899</ele>
        <time>2012-04-26T11:43:08Z</time>
      </trkpt>
      <trkpt lat="46.10722" lon="6.38215">
        <ele>899</ele>
        <time>2012-04-26T11:43:09Z</time>
      </trkpt>
      <trkpt lat="46.10722" lon="6.3824">
        <ele>899</ele>
        <time>2012-04-26T11:43:11Z</time>
      </trkpt>
      <trkpt lat="46.10719" lon="6.38264">
        <ele>899</ele>
        <time>2012-04-26T11:43:13Z</time>
      </trkpt>
      <trkpt lat="46.10715" lon="6.38285">
        <ele>899</ele>
        <time>2012-04-26T11:43:15Z</time>
      </trkpt>
      <trkpt lat="46.10712" lon="6.38298">
        <ele>899</ele>
        <time>2012-04-26T11:43:16Z</time>
      </trkpt>
      <trkpt lat="46.10709" lon="6.38311">
        <ele>899</ele>
        <time>2012-04-26T11:43:17Z</time>
      </trkpt>
      <trkpt lat="46.10706" lon="6.38323">
        <ele>899</ele>
        <time>2012-04-26T11:43:18Z</time>
      </trkpt>
      <trkpt lat="46.107" lon="6.38346">
        <ele>899</ele>
        <time>2012-04-26T11:43:20Z</time>
      </trkpt>
      <trkpt lat="46.10696" lon="6.38364">
        <ele>899</ele>
        <time>2012-04-26T11:43:22Z</time>
      </trkpt>
      <trkpt lat="46.10703" lon="6.38348">
        <ele>899</ele>
        <time>2012-04-26T11:43:45Z</time>
      </trkpt>
      <trkpt lat="46.10709" lon="6.38327">
        <ele>899</ele>
        <time>2012-04-26T11:43:47Z</time>
      </trkpt>
      <trkpt lat="46.10712" lon="6.38314">
        <ele>899</ele>
        <time>2012-04-26T11:43:48Z</time>
      </trkpt>
      <trkpt lat="46.10715" lon="6.383">
        <ele>899</ele>
        <time>2012-04-26T11:43:49Z</time>
      </trkpt>
      <trkpt lat="46.10719" lon="6.38286">
        <ele>899</ele>
        <time>2012-04-26T11:43:50Z</time>
      </trkpt>
      <trkpt lat="46.10722" lon="6.38274">
        <ele>899</ele>
        <time>2012-04-26T11:43:51Z</time>
      </trkpt>
      <trkpt lat="46.10725" lon="6.38254">
        <ele>899</ele>
        <time>2012-04-26T11:43:53Z</time>
      </trkpt>
      <trkpt lat="46.10727" lon="6.38236">
        <ele>899</ele>
        <time>2012-04-26T11:43:55Z</time>
      </trkpt>
      <trkpt lat="46.10729" lon="6.38214">
        <ele>899</ele>
        <time>2012-04-26T11:43:57Z</time>
      </trkpt>
      <trkpt lat="46.10729" lon="6.38194">
        <ele>899</ele>
        <time>2012-04-26T11:43:59Z</time>
      </trkpt>
      <trkpt lat="46.10729" lon="6.38176">
        <ele>899</ele>
        <time>2012-04-26T11:44:01Z</time>
      </trkpt>
      <trkpt lat="46.10727" lon="6.38159">
        <ele>899</ele>
        <time>2012-04-26T11:44:03Z</time>
      </trkpt>
      <trkpt lat="46.10726" lon="6.38141">
        <ele>899</ele>
        <time>2012-04-26T11:44:05Z</time>
      </trkpt>
      <trkpt lat="46.10725" lon="6.38127">
        <ele>899</ele>
        <time>2012-04-26T11:44:07Z</time>
      </trkpt>
      <trkpt lat="46.10724" lon="6.38108">
        <ele>899</ele>
        <time>2012-04-26T11:44:10Z</time>
      </trkpt>
      <trkpt lat="46.10723" lon="6.38092">
        <ele>899</ele>
        <time>2012-04-26T11:44:12Z</time>
      </trkpt>
      <trkpt lat="46.10714" lon="6.38079">
        <ele>899</ele>
        <time>2012-04-26T11:44:15Z</time>
      </trkpt>
      <trkpt lat="46.10704" lon="6.38075">
        <ele>899</ele>
        <time>2012-04-26T11:44:17Z</time>
      </trkpt>
      <trkpt lat="46.10695" lon="6.38081">
        <ele>899</ele>
        <time>2012-04-26T11:44:19Z</time>
      </trkpt>
      <trkpt lat="46.10685" lon="6.38098">
        <ele>899</ele>
        <time>2012-04-26T11:44:21Z</time>
      </trkpt>
      <trkpt lat="46.10677" lon="6.38113">
        <ele>905</ele>
        <time>2012-04-26T11:44:23Z</time>
      </trkpt>
      <trkpt lat="46.1067" lon="6.38125">
        <ele>905</ele>
        <time>2012-04-26T11:44:25Z</time>
      </trkpt>
      <trkpt lat="46.10659" lon="6.38134">
        <ele>905</ele>
        <time>2012-04-26T11:44:27Z</time>
      </trkpt>
      <trkpt lat="46.10645" lon="6.38146">
        <ele>905</ele>
        <time>2012-04-26T11:44:29Z</time>
      </trkpt>
      <trkpt lat="46.10631" lon="6.38156">
        <ele>911</ele>
        <time>2012-04-26T11:44:31Z</time>
      </trkpt>
      <trkpt lat="46.1062" lon="6.38166">
        <ele>916</ele>
        <time>2012-04-26T11:44:33Z</time>
      </trkpt>
      <trkpt lat="46.1061" lon="6.38177">
        <ele>921</ele>
        <time>2012-04-26T11:44:35Z</time>
      </trkpt>
      <trkpt lat="46.10602" lon="6.38183">
        <ele>921</ele>
        <time>2012-04-26T11:44:37Z</time>
      </trkpt>
      <trkpt lat="46.10594" lon="6.38192">
        <ele>928</ele>
        <time>2012-04-26T11:44:39Z</time>
      </trkpt>
      <trkpt lat="46.10584" lon="6.38204">
        <ele>928</ele>
        <time>2012-04-26T11:44:41Z</time>
      </trkpt>
      <trkpt lat="46.10572" lon="6.38206">
        <ele>936</ele>
        <time>2012-04-26T11:44:44Z</time>
      </trkpt>
      <trkpt lat="46.1056" lon="6.38206">
        <ele>936</ele>
        <time>2012-04-26T11:44:47Z</time>
      </trkpt>
      <trkpt lat="46.1055" lon="6.38214">
        <ele>942</ele>
        <time>2012-04-26T11:44:50Z</time>
      </trkpt>
      <trkpt lat="46.10542" lon="6.38228">
        <ele>942</ele>
        <time>2012-04-26T11:44:52Z</time>
      </trkpt>
      <trkpt lat="46.10534" lon="6.38239">
        <ele>942</ele>
        <time>2012-04-26T11:44:54Z</time>
      </trkpt>
      <trkpt lat="46.10523" lon="6.38251">
        <ele>942</ele>
        <time>2012-04-26T11:44:57Z</time>
      </trkpt>
      <trkpt lat="46.10513" lon="6.38258">
        <ele>948</ele>
        <time>2012-04-26T11:45:00Z</time>
      </trkpt>
      <trkpt lat="46.10504" lon="6.38267">
        <ele>948</ele>
        <time>2012-04-26T11:45:03Z</time>
      </trkpt>
      <trkpt lat="46.10496" lon="6.38276">
        <ele>948</ele>
        <time>2012-04-26T11:45:06Z</time>
      </trkpt>
      <trkpt lat="46.10488" lon="6.38283">
        <ele>955</ele>
        <time>2012-04-26T11:45:20Z</time>
      </trkpt>
      <trkpt lat="46.10482" lon="6.38293">
        <ele>955</ele>
        <time>2012-04-26T11:45:22Z</time>
      </trkpt>
      <trkpt lat="46.10472" lon="6.38307">
        <ele>955</ele>
        <time>2012-04-26T11:45:24Z</time>
      </trkpt>
      <trkpt lat="46.10467" lon="6.38319">
        <ele>955</ele>
        <time>2012-04-26T11:45:26Z</time>
      </trkpt>
      <trkpt lat="46.10457" lon="6.38331">
        <ele>955</ele>
        <time>2012-04-26T11:45:29Z</time>
      </trkpt>
      <trkpt lat="46.10447" lon="6.3834">
        <ele>955</ele>
        <time>2012-04-26T11:45:31Z</time>
      </trkpt>
      <trkpt lat="46.10438" lon="6.38348">
        <ele>955</ele>
        <time>2012-04-26T11:45:33Z</time>
      </trkpt>
      <trkpt lat="46.10431" lon="6.38359">
        <ele>955</ele>
        <time>2012-04-26T11:45:35Z</time>
      </trkpt>
      <trkpt lat="46.10424" lon="6.38372">
        <ele>964</ele>
        <time>2012-04-26T11:45:38Z</time>
      </trkpt>
      <trkpt lat="46.10415" lon="6.38381">
        <ele>964</ele>
        <time>2012-04-26T11:45:40Z</time>
      </trkpt>
      <trkpt lat="46.10407" lon="6.38391">
        <ele>973</ele>
        <time>2012-04-26T11:45:42Z</time>
      </trkpt>
      <trkpt lat="46.10404" lon="6.38404">
        <ele>973</ele>
        <time>2012-04-26T11:45:44Z</time>
      </trkpt>
      <trkpt lat="46.10404" lon="6.38427">
        <ele>973</ele>
        <time>2012-04-26T11:45:49Z</time>
      </trkpt>
      <trkpt lat="46.10405" lon="6.38451">
        <ele>973</ele>
        <time>2012-04-26T11:45:51Z</time>
      </trkpt>
      <trkpt lat="46.10407" lon="6.38463">
        <ele>968</ele>
        <time>2012-04-26T11:45:53Z</time>
      </trkpt>
      <trkpt lat="46.10407" lon="6.38482">
        <ele>968</ele>
        <time>2012-04-26T11:45:56Z</time>
      </trkpt>
      <trkpt lat="46.10406" lon="6.38497">
        <ele>961</ele>
        <time>2012-04-26T11:45:58Z</time>
      </trkpt>
      <trkpt lat="46.10405" lon="6.38517">
        <ele>961</ele>
        <time>2012-04-26T11:46:00Z</time>
      </trkpt>
      <trkpt lat="46.10404" lon="6.3855">
        <ele>961</ele>
        <time>2012-04-26T11:46:04Z</time>
      </trkpt>
      <trkpt lat="46.10402" lon="6.3857">
        <ele>961</ele>
        <time>2012-04-26T11:46:06Z</time>
      </trkpt>
      <trkpt lat="46.10399" lon="6.38584">
        <ele>955</ele>
        <time>2012-04-26T11:46:08Z</time>
      </trkpt>
      <trkpt lat="46.10394" lon="6.38595">
        <ele>955</ele>
        <time>2012-04-26T11:46:11Z</time>
      </trkpt>
      <trkpt lat="46.10392" lon="6.38614">
        <ele>947</ele>
        <time>2012-04-26T11:46:15Z</time>
      </trkpt>
      <trkpt lat="46.1039" lon="6.38628">
        <ele>947</ele>
        <time>2012-04-26T11:46:17Z</time>
      </trkpt>
      <trkpt lat="46.10385" lon="6.38646">
        <ele>947</ele>
        <time>2012-04-26T11:46:19Z</time>
      </trkpt>
      <trkpt lat="46.1038" lon="6.3866">
        <ele>947</ele>
        <time>2012-04-26T11:46:21Z</time>
      </trkpt>
      <trkpt lat="46.10375" lon="6.38673">
        <ele>940</ele>
        <time>2012-04-26T11:46:23Z</time>
      </trkpt>
      <trkpt lat="46.10375" lon="6.3869">
        <ele>946</ele>
        <time>2012-04-26T11:46:26Z</time>
      </trkpt>
      <trkpt lat="46.10383" lon="6.38704">
        <ele>946</ele>
        <time>2012-04-26T11:46:29Z</time>
      </trkpt>
      <trkpt lat="46.1039" lon="6.38716">
        <ele>946</ele>
        <time>2012-04-26T11:46:32Z</time>
      </trkpt>
      <trkpt lat="46.1039" lon="6.38733">
        <ele>946</ele>
        <time>2012-04-26T11:46:35Z</time>
      </trkpt>
      <trkpt lat="46.10401" lon="6.38736">
        <ele>946</ele>
        <time>2012-04-26T11:46:59Z</time>
      </trkpt>
      <trkpt lat="46.10411" lon="6.38726">
        <ele>946</ele>
        <time>2012-04-26T11:47:02Z</time>
      </trkpt>
      <trkpt lat="46.10423" lon="6.38723">
        <ele>946</ele>
        <time>2012-04-26T11:47:05Z</time>
      </trkpt>
      <trkpt lat="46.10435" lon="6.38724">
        <ele>946</ele>
        <time>2012-04-26T11:47:08Z</time>
      </trkpt>
      <trkpt lat="46.10447" lon="6.38733">
        <ele>940</ele>
        <time>2012-04-26T11:47:10Z</time>
      </trkpt>
      <trkpt lat="46.10457" lon="6.3874">
        <ele>940</ele>
        <time>2012-04-26T11:47:12Z</time>
      </trkpt>
      <trkpt lat="46.10465" lon="6.38746">
        <ele>934</ele>
        <time>2012-04-26T11:47:14Z</time>
      </trkpt>
      <trkpt lat="46.10478" lon="6.38755">
        <ele>934</ele>
        <time>2012-04-26T11:47:17Z</time>
      </trkpt>
      <trkpt lat="46.10489" lon="6.38763">
        <ele>934</ele>
        <time>2012-04-26T11:47:19Z</time>
      </trkpt>
      <trkpt lat="46.10499" lon="6.3877">
        <ele>927</ele>
        <time>2012-04-26T11:47:21Z</time>
      </trkpt>
      <trkpt lat="46.10509" lon="6.38779">
        <ele>927</ele>
        <time>2012-04-26T11:47:23Z</time>
      </trkpt>
      <trkpt lat="46.10521" lon="6.38785">
        <ele>927</ele>
        <time>2012-04-26T11:47:25Z</time>
      </trkpt>
      <trkpt lat="46.1054" lon="6.38791">
        <ele>921</ele>
        <time>2012-04-26T11:47:28Z</time>
      </trkpt>
      <trkpt lat="46.10549" lon="6.38794">
        <ele>921</ele>
        <time>2012-04-26T11:47:29Z</time>
      </trkpt>
      <trkpt lat="46.10567" lon="6.38795">
        <ele>912</ele>
        <time>2012-04-26T11:47:31Z</time>
      </trkpt>
      <trkpt lat="46.10577" lon="6.38793">
        <ele>912</ele>
        <time>2012-04-26T11:47:32Z</time>
      </trkpt>
      <trkpt lat="46.10592" lon="6.38793">
        <ele>906</ele>
        <time>2012-04-26T11:47:34Z</time>
      </trkpt>
      <trkpt lat="46.10604" lon="6.388">
        <ele>906</ele>
        <time>2012-04-26T11:47:37Z</time>
      </trkpt>
      <trkpt lat="46.10613" lon="6.38807">
        <ele>899</ele>
        <time>2012-04-26T11:47:39Z</time>
      </trkpt>
      <trkpt lat="46.10622" lon="6.38814">
        <ele>899</ele>
        <time>2012-04-26T11:47:42Z</time>
      </trkpt>
      <trkpt lat="46.10631" lon="6.38809">
        <ele>899</ele>
        <time>2012-04-26T11:47:54Z</time>
      </trkpt>
      <trkpt lat="46.10642" lon="6.388">
        <ele>899</ele>
        <time>2012-04-26T11:47:57Z</time>
      </trkpt>
      <trkpt lat="46.1065" lon="6.38793">
        <ele>899</ele>
        <time>2012-04-26T11:48:00Z</time>
      </trkpt>
      <trkpt lat="46.10659" lon="6.38802">
        <ele>899</ele>
        <time>2012-04-26T11:48:03Z</time>
      </trkpt>
      <trkpt lat="46.10662" lon="6.38816">
        <ele>894</ele>
        <time>2012-04-26T11:48:05Z</time>
      </trkpt>
      <trkpt lat="46.10657" lon="6.38832">
        <ele>894</ele>
        <time>2012-04-26T11:48:07Z</time>
      </trkpt>
      <trkpt lat="46.10648" lon="6.3885">
        <ele>894</ele>
        <time>2012-04-26T11:48:09Z</time>
      </trkpt>
      <trkpt lat="46.10642" lon="6.38875">
        <ele>894</ele>
        <time>2012-04-26T11:48:11Z</time>
      </trkpt>
      <trkpt lat="46.10639" lon="6.389">
        <ele>894</ele>
        <time>2012-04-26T11:48:13Z</time>
      </trkpt>
      <trkpt lat="46.10636" lon="6.38922">
        <ele>894</ele>
        <time>2012-04-26T11:48:15Z</time>
      </trkpt>
      <trkpt lat="46.10637" lon="6.38939">
        <ele>894</ele>
        <time>2012-04-26T11:48:17Z</time>
      </trkpt>
      <trkpt lat="46.10644" lon="6.38952">
        <ele>894</ele>
        <time>2012-04-26T11:48:19Z</time>
      </trkpt>
      <trkpt lat="46.1065" lon="6.38962">
        <ele>894</ele>
        <time>2012-04-26T11:48:21Z</time>
      </trkpt>
      <trkpt lat="46.10654" lon="6.38975">
        <ele>894</ele>
        <time>2012-04-26T11:48:24Z</time>
      </trkpt>
      <trkpt lat="46.1065" lon="6.3899">
        <ele>889</ele>
        <time>2012-04-26T11:48:26Z</time>
      </trkpt>
      <trkpt lat="46.10645" lon="6.39002">
        <ele>889</ele>
        <time>2012-04-26T11:48:28Z</time>
      </trkpt>
      <trkpt lat="46.10641" lon="6.39015">
        <ele>889</ele>
        <time>2012-04-26T11:48:30Z</time>
      </trkpt>
      <trkpt lat="46.10633" lon="6.39029">
        <ele>889</ele>
        <time>2012-04-26T11:48:32Z</time>
      </trkpt>
      <trkpt lat="46.10627" lon="6.39043">
        <ele>889</ele>
        <time>2012-04-26T11:48:34Z</time>
      </trkpt>
      <trkpt lat="46.10622" lon="6.39058">
        <ele>889</ele>
        <time>2012-04-26T11:48:36Z</time>
      </trkpt>
      <trkpt lat="46.10618" lon="6.3908">
        <ele>889</ele>
        <time>2012-04-26T11:48:38Z</time>
      </trkpt>
      <trkpt lat="46.10615" lon="6.39094">
        <ele>889</ele>
        <time>2012-04-26T11:48:39Z</time>
      </trkpt>
      <trkpt lat="46.10612" lon="6.39106">
        <ele>889</ele>
        <time>2012-04-26T11:48:40Z</time>
      </trkpt>
      <trkpt lat="46.10608" lon="6.39121">
        <ele>889</ele>
        <time>2012-04-26T11:48:41Z</time>
      </trkpt>
      <trkpt lat="46.10604" lon="6.39136">
        <ele>889</ele>
        <time>2012-04-26T11:48:42Z</time>
      </trkpt>
      <trkpt lat="46.10597" lon="6.39153">
        <ele>889</ele>
        <time>2012-04-26T11:48:43Z</time>
      </trkpt>
      <trkpt lat="46.10592" lon="6.39169">
        <ele>895</ele>
        <time>2012-04-26T11:48:44Z</time>
      </trkpt>
      <trkpt lat="46.10586" lon="6.39187">
        <ele>895</ele>
        <time>2012-04-26T11:48:45Z</time>
      </trkpt>
      <trkpt lat="46.1058" lon="6.39203">
        <ele>895</ele>
        <time>2012-04-26T11:48:46Z</time>
      </trkpt>
      <trkpt lat="46.10574" lon="6.3922">
        <ele>895</ele>
        <time>2012-04-26T11:48:47Z</time>
      </trkpt>
      <trkpt lat="46.10566" lon="6.39238">
        <ele>895</ele>
        <time>2012-04-26T11:48:48Z</time>
      </trkpt>
      <trkpt lat="46.10557" lon="6.39256">
        <ele>895</ele>
        <time>2012-04-26T11:48:49Z</time>
      </trkpt>
      <trkpt lat="46.10547" lon="6.39275">
        <ele>895</ele>
        <time>2012-04-26T11:48:50Z</time>
      </trkpt>
      <trkpt lat="46.10535" lon="6.39297">
        <ele>895</ele>
        <time>2012-04-26T11:48:51Z</time>
      </trkpt>
      <trkpt lat="46.10524" lon="6.39318">
        <ele>895</ele>
        <time>2012-04-26T11:48:52Z</time>
      </trkpt>
      <trkpt lat="46.10512" lon="6.39337">
        <ele>895</ele>
        <time>2012-04-26T11:48:53Z</time>
      </trkpt>
      <trkpt lat="46.10502" lon="6.39357">
        <ele>895</ele>
        <time>2012-04-26T11:48:54Z</time>
      </trkpt>
      <trkpt lat="46.10492" lon="6.39376">
        <ele>902</ele>
        <time>2012-04-26T11:48:55Z</time>
      </trkpt>
      <trkpt lat="46.10484" lon="6.39393">
        <ele>902</ele>
        <time>2012-04-26T11:48:56Z</time>
      </trkpt>
      <trkpt lat="46.10477" lon="6.39409">
        <ele>902</ele>
        <time>2012-04-26T11:48:57Z</time>
      </trkpt>
      <trkpt lat="46.10471" lon="6.39424">
        <ele>908</ele>
        <time>2012-04-26T11:48:58Z</time>
      </trkpt>
      <trkpt lat="46.10467" lon="6.3944">
        <ele>908</ele>
        <time>2012-04-26T11:48:59Z</time>
      </trkpt>
      <trkpt lat="46.10462" lon="6.39452">
        <ele>908</ele>
        <time>2012-04-26T11:49:00Z</time>
      </trkpt>
      <trkpt lat="46.10457" lon="6.39465">
        <ele>908</ele>
        <time>2012-04-26T11:49:02Z</time>
      </trkpt>
      <trkpt lat="46.10448" lon="6.39451">
        <ele>917</ele>
        <time>2012-04-26T11:49:22Z</time>
      </trkpt>
      <trkpt lat="46.10445" lon="6.39432">
        <ele>917</ele>
        <time>2012-04-26T11:49:24Z</time>
      </trkpt>
      <trkpt lat="46.10441" lon="6.39419">
        <ele>917</ele>
        <time>2012-04-26T11:49:25Z</time>
      </trkpt>
      <trkpt lat="46.10436" lon="6.39401">
        <ele>917</ele>
        <time>2012-04-26T11:49:26Z</time>
      </trkpt>
      <trkpt lat="46.1043" lon="6.39383">
        <ele>917</ele>
        <time>2012-04-26T11:49:27Z</time>
      </trkpt>
      <trkpt lat="46.10425" lon="6.39365">
        <ele>917</ele>
        <time>2012-04-26T11:49:28Z</time>
      </trkpt>
      <trkpt lat="46.10422" lon="6.39348">
        <ele>917</ele>
        <time>2012-04-26T11:49:29Z</time>
      </trkpt>
      <trkpt lat="46.10418" lon="6.3933">
        <ele>917</ele>
        <time>2012-04-26T11:49:30Z</time>
      </trkpt>
      <trkpt lat="46.10414" lon="6.39315">
        <ele>917</ele>
        <time>2012-04-26T11:49:31Z</time>
      </trkpt>
      <trkpt lat="46.10409" lon="6.39301">
        <ele>917</ele>
        <time>2012-04-26T11:49:32Z</time>
      </trkpt>
      <trkpt lat="46.10402" lon="6.39287">
        <ele>917</ele>
        <time>2012-04-26T11:49:33Z</time>
      </trkpt>
      <trkpt lat="46.10395" lon="6.39274">
        <ele>917</ele>
        <time>2012-04-26T11:49:34Z</time>
      </trkpt>
      <trkpt lat="46.10386" lon="6.39264">
        <ele>924</ele>
        <time>2012-04-26T11:49:35Z</time>
      </trkpt>
      <trkpt lat="46.10377" lon="6.39252">
        <ele>924</ele>
        <time>2012-04-26T11:49:36Z</time>
      </trkpt>
      <trkpt lat="46.10367" lon="6.3924">
        <ele>924</ele>
        <time>2012-04-26T11:49:37Z</time>
      </trkpt>
      <trkpt lat="46.10356" lon="6.39229">
        <ele>924</ele>
        <time>2012-04-26T11:49:38Z</time>
      </trkpt>
      <trkpt lat="46.10345" lon="6.39216">
        <ele>930</ele>
        <time>2012-04-26T11:49:39Z</time>
      </trkpt>
      <trkpt lat="46.10334" lon="6.39205">
        <ele>930</ele>
        <time>2012-04-26T11:49:40Z</time>
      </trkpt>
      <trkpt lat="46.10324" lon="6.39195">
        <ele>930</ele>
        <time>2012-04-26T11:49:41Z</time>
      </trkpt>
      <trkpt lat="46.10315" lon="6.39186">
        <ele>930</ele>
        <time>2012-04-26T11:49:42Z</time>
      </trkpt>
      <trkpt lat="46.10306" lon="6.39179">
        <ele>935</ele>
        <time>2012-04-26T11:49:43Z</time>
      </trkpt>
      <trkpt lat="46.10292" lon="6.39168">
        <ele>935</ele>
        <time>2012-04-26T11:49:45Z</time>
      </trkpt>
      <trkpt lat="46.10279" lon="6.39158">
        <ele>935</ele>
        <time>2012-04-26T11:49:47Z</time>
      </trkpt>
      <trkpt lat="46.10265" lon="6.39151">
        <ele>940</ele>
        <time>2012-04-26T11:49:49Z</time>
      </trkpt>
      <trkpt lat="46.10252" lon="6.39146">
        <ele>940</ele>
        <time>2012-04-26T11:49:51Z</time>
      </trkpt>
      <trkpt lat="46.10244" lon="6.39136">
        <ele>940</ele>
        <time>2012-04-26T11:49:53Z</time>
      </trkpt>
      <trkpt lat="46.10238" lon="6.39122">
        <ele>935</ele>
        <time>2012-04-26T11:49:55Z</time>
      </trkpt>
      <trkpt lat="46.10235" lon="6.39108">
        <ele>935</ele>
        <time>2012-04-26T11:49:57Z</time>
      </trkpt>
      <trkpt lat="46.10229" lon="6.3909">
        <ele>935</ele>
        <time>2012-04-26T11:50:00Z</time>
      </trkpt>
      <trkpt lat="46.1022" lon="6.39077">
        <ele>928</ele>
        <time>2012-04-26T11:50:02Z</time>
      </trkpt>
      <trkpt lat="46.10209" lon="6.39059">
        <ele>928</ele>
        <time>2012-04-26T11:50:04Z</time>
      </trkpt>
      <trkpt lat="46.10196" lon="6.39042">
        <ele>922</ele>
        <time>2012-04-26T11:50:06Z</time>
      </trkpt>
      <trkpt lat="46.10185" lon="6.39028">
        <ele>922</ele>
        <time>2012-04-26T11:50:08Z</time>
      </trkpt>
      <trkpt lat="46.10176" lon="6.39014">
        <ele>915</ele>
        <time>2012-04-26T11:50:10Z</time>
      </trkpt>
      <trkpt lat="46.10171" lon="6.38998">
        <ele>909</ele>
        <time>2012-04-26T11:50:12Z</time>
      </trkpt>
      <trkpt lat="46.10162" lon="6.38968">
        <ele>903</ele>
        <time>2012-04-26T11:50:16Z</time>
      </trkpt>
      <trkpt lat="46.10163" lon="6.38954">
        <ele>903</ele>
        <time>2012-04-26T11:50:18Z</time>
      </trkpt>
      <trkpt lat="46.10164" lon="6.38939">
        <ele>911</ele>
        <time>2012-04-26T11:50:24Z</time>
      </trkpt>
      <trkpt lat="46.10153" lon="6.38926">
        <ele>911</ele>
        <time>2012-04-26T11:51:07Z</time>
      </trkpt>
      <trkpt lat="46.10146" lon="6.38913">
        <ele>911</ele>
        <time>2012-04-26T11:51:10Z</time>
      </trkpt>
      <trkpt lat="46.10134" lon="6.38897">
        <ele>911</ele>
        <time>2012-04-26T11:51:14Z</time>
      </trkpt>
      <trkpt lat="46.10126" lon="6.3889">
        <ele>911</ele>
        <time>2012-04-26T11:51:17Z</time>
      </trkpt>
      <trkpt lat="46.10115" lon="6.38881">
        <ele>911</ele>
        <time>2012-04-26T11:51:21Z</time>
      </trkpt>
      <trkpt lat="46.10101" lon="6.38875">
        <ele>904</ele>
        <time>2012-04-26T11:51:25Z</time>
      </trkpt>
      <trkpt lat="46.10092" lon="6.38867">
        <ele>904</ele>
        <time>2012-04-26T11:51:29Z</time>
      </trkpt>
      <trkpt lat="46.10079" lon="6.38845">
        <ele>889</ele>
        <time>2012-04-26T11:51:41Z</time>
      </trkpt>
      <trkpt lat="46.10071" lon="6.38836">
        <ele>896</ele>
        <time>2012-04-26T11:51:47Z</time>
      </trkpt>
      <trkpt lat="46.10066" lon="6.38819">
        <ele>896</ele>
        <time>2012-04-26T11:51:52Z</time>
      </trkpt>
      <trkpt lat="46.10062" lon="6.38806">
        <ele>896</ele>
        <time>2012-04-26T11:51:55Z</time>
      </trkpt>
      <trkpt lat="46.10052" lon="6.38797">
        <ele>896</ele>
        <time>2012-04-26T11:51:58Z</time>
      </trkpt>
      <trkpt lat="46.10037" lon="6.38779">
        <ele>896</ele>
        <time>2012-04-26T11:52:03Z</time>
      </trkpt>
      <trkpt lat="46.10019" lon="6.38767">
        <ele>896</ele>
        <time>2012-04-26T11:52:07Z</time>
      </trkpt>
      <trkpt lat="46.10008" lon="6.38762">
        <ele>884</ele>
        <time>2012-04-26T11:52:10Z</time>
      </trkpt>
      <trkpt lat="46.09996" lon="6.38755">
        <ele>879</ele>
        <time>2012-04-26T11:52:13Z</time>
      </trkpt>
      <trkpt lat="46.09987" lon="6.38745">
        <ele>870</ele>
        <time>2012-04-26T11:52:17Z</time>
      </trkpt>
      <trkpt lat="46.09977" lon="6.38734">
        <ele>864</ele>
        <time>2012-04-26T11:52:21Z</time>
      </trkpt>
      <trkpt lat="46.09967" lon="6.38723">
        <ele>864</ele>
        <time>2012-04-26T11:52:24Z</time>
      </trkpt>
      <trkpt lat="46.09959" lon="6.38717">
        <ele>844</ele>
        <time>2012-04-26T11:52:27Z</time>
      </trkpt>
      <trkpt lat="46.09952" lon="6.38709">
        <ele>831</ele>
        <time>2012-04-26T11:52:35Z</time>
      </trkpt>
      <trkpt lat="46.09942" lon="6.38708">
        <ele>825</ele>
        <time>2012-04-26T11:52:39Z</time>
      </trkpt>
      <trkpt lat="46.09927" lon="6.387">
        <ele>817</ele>
        <time>2012-04-26T11:52:43Z</time>
      </trkpt>
      <trkpt lat="46.09909" lon="6.3868">
        <ele>817</ele>
        <time>2012-04-26T11:52:47Z</time>
      </trkpt>
      <trkpt lat="46.09904" lon="6.38664">
        <ele>817</ele>
        <time>2012-04-26T11:52:49Z</time>
      </trkpt>
      <trkpt lat="46.09899" lon="6.38643">
        <ele>817</ele>
        <time>2012-04-26T11:52:53Z</time>
      </trkpt>
      <trkpt lat="46.09891" lon="6.38633">
        <ele>817</ele>
        <time>2012-04-26T11:52:56Z</time>
      </trkpt>
      <trkpt lat="46.09881" lon="6.38631">
        <ele>817</ele>
        <time>2012-04-26T11:52:58Z</time>
      </trkpt>
      <trkpt lat="46.09868" lon="6.38623">
        <ele>817</ele>
        <time>2012-04-26T11:53:00Z</time>
      </trkpt>
      <trkpt lat="46.09859" lon="6.38617">
        <ele>817</ele>
        <time>2012-04-26T11:53:02Z</time>
      </trkpt>
      <trkpt lat="46.09847" lon="6.38611">
        <ele>809</ele>
        <time>2012-04-26T11:53:04Z</time>
      </trkpt>
      <trkpt lat="46.09835" lon="6.38598">
        <ele>804</ele>
        <time>2012-04-26T11:53:07Z</time>
      </trkpt>
      <trkpt lat="46.09826" lon="6.38586">
        <ele>804</ele>
        <time>2012-04-26T11:53:09Z</time>
      </trkpt>
      <trkpt lat="46.09816" lon="6.38574">
        <ele>798</ele>
        <time>2012-04-26T11:53:11Z</time>
      </trkpt>
      <trkpt lat="46.09807" lon="6.38562">
        <ele>798</ele>
        <time>2012-04-26T11:53:13Z</time>
      </trkpt>
      <trkpt lat="46.09797" lon="6.3855">
        <ele>790</ele>
        <time>2012-04-26T11:53:16Z</time>
      </trkpt>
      <trkpt lat="46.09789" lon="6.38538">
        <ele>790</ele>
        <time>2012-04-26T11:53:18Z</time>
      </trkpt>
      <trkpt lat="46.09779" lon="6.38528">
        <ele>780</ele>
        <time>2012-04-26T11:53:20Z</time>
      </trkpt>
      <trkpt lat="46.09769" lon="6.38518">
        <ele>780</ele>
        <time>2012-04-26T11:53:23Z</time>
      </trkpt>
      <trkpt lat="46.09757" lon="6.38509">
        <ele>769</ele>
        <time>2012-04-26T11:53:26Z</time>
      </trkpt>
      <trkpt lat="46.09748" lon="6.38493">
        <ele>769</ele>
        <time>2012-04-26T11:53:29Z</time>
      </trkpt>
      <trkpt lat="46.0974" lon="6.38462">
        <ele>769</ele>
        <time>2012-04-26T11:53:33Z</time>
      </trkpt>
      <trkpt lat="46.09737" lon="6.38436">
        <ele>769</ele>
        <time>2012-04-26T11:53:35Z</time>
      </trkpt>
      <trkpt lat="46.0974" lon="6.38422">
        <ele>763</ele>
        <time>2012-04-26T11:53:38Z</time>
      </trkpt>
      <trkpt lat="46.09747" lon="6.3841">
        <ele>769</ele>
        <time>2012-04-26T11:53:59Z</time>
      </trkpt>
      <trkpt lat="46.09754" lon="6.38398">
        <ele>769</ele>
        <time>2012-04-26T11:54:02Z</time>
      </trkpt>
      <trkpt lat="46.09759" lon="6.3838">
        <ele>769</ele>
        <time>2012-04-26T11:54:05Z</time>
      </trkpt>
      <trkpt lat="46.0976" lon="6.38366">
        <ele>769</ele>
        <time>2012-04-26T11:54:07Z</time>
      </trkpt>
      <trkpt lat="46.09759" lon="6.38346">
        <ele>769</ele>
        <time>2012-04-26T11:54:09Z</time>
      </trkpt>
      <trkpt lat="46.09755" lon="6.3833">
        <ele>769</ele>
        <time>2012-04-26T11:54:11Z</time>
      </trkpt>
      <trkpt lat="46.09746" lon="6.38314">
        <ele>769</ele>
        <time>2012-04-26T11:54:13Z</time>
      </trkpt>
      <trkpt lat="46.09737" lon="6.38301">
        <ele>769</ele>
        <time>2012-04-26T11:54:15Z</time>
      </trkpt>
      <trkpt lat="46.09735" lon="6.38286">
        <ele>769</ele>
        <time>2012-04-26T11:54:17Z</time>
      </trkpt>
      <trkpt lat="46.09737" lon="6.38269">
        <ele>769</ele>
        <time>2012-04-26T11:54:19Z</time>
      </trkpt>
      <trkpt lat="46.09744" lon="6.38252">
        <ele>769</ele>
        <time>2012-04-26T11:54:21Z</time>
      </trkpt>
      <trkpt lat="46.09753" lon="6.38236">
        <ele>769</ele>
        <time>2012-04-26T11:54:23Z</time>
      </trkpt>
      <trkpt lat="46.09766" lon="6.38223">
        <ele>762</ele>
        <time>2012-04-26T11:54:25Z</time>
      </trkpt>
      <trkpt lat="46.0978" lon="6.38212">
        <ele>762</ele>
        <time>2012-04-26T11:54:27Z</time>
      </trkpt>
      <trkpt lat="46.09799" lon="6.38203">
        <ele>762</ele>
        <time>2012-04-26T11:54:29Z</time>
      </trkpt>
      <trkpt lat="46.09811" lon="6.38199">
        <ele>755</ele>
        <time>2012-04-26T11:54:30Z</time>
      </trkpt>
      <trkpt lat="46.09827" lon="6.38188">
        <ele>755</ele>
        <time>2012-04-26T11:54:32Z</time>
      </trkpt>
      <trkpt lat="46.09841" lon="6.38174">
        <ele>746</ele>
        <time>2012-04-26T11:54:34Z</time>
      </trkpt>
      <trkpt lat="46.09858" lon="6.38152">
        <ele>741</ele>
        <time>2012-04-26T11:54:37Z</time>
      </trkpt>
      <trkpt lat="46.09859" lon="6.38139">
        <ele>741</ele>
        <time>2012-04-26T11:54:38Z</time>
      </trkpt>
      <trkpt lat="46.09861" lon="6.38115">
        <ele>741</ele>
        <time>2012-04-26T11:54:40Z</time>
      </trkpt>
      <trkpt lat="46.09861" lon="6.38096">
        <ele>741</ele>
        <time>2012-04-26T11:54:42Z</time>
      </trkpt>
      <trkpt lat="46.09849" lon="6.38112">
        <ele>741</ele>
        <time>2012-04-26T11:54:57Z</time>
      </trkpt>
      <trkpt lat="46.09841" lon="6.38125">
        <ele>741</ele>
        <time>2012-04-26T11:54:59Z</time>
      </trkpt>
      <trkpt lat="46.09832" lon="6.38132">
        <ele>736</ele>
        <time>2012-04-26T11:55:01Z</time>
      </trkpt>
      <trkpt lat="46.09821" lon="6.3814">
        <ele>736</ele>
        <time>2012-04-26T11:55:04Z</time>
      </trkpt>
      <trkpt lat="46.09817" lon="6.38152">
        <ele>741</ele>
        <time>2012-04-26T11:55:09Z</time>
      </trkpt>
      <trkpt lat="46.09819" lon="6.38139">
        <ele>741</ele>
        <time>2012-04-26T11:55:16Z</time>
      </trkpt>
      <trkpt lat="46.09826" lon="6.38129">
        <ele>741</ele>
        <time>2012-04-26T11:55:19Z</time>
      </trkpt>
      <trkpt lat="46.09839" lon="6.38124">
        <ele>736</ele>
        <time>2012-04-26T11:55:22Z</time>
      </trkpt>
      <trkpt lat="46.09849" lon="6.38116">
        <ele>736</ele>
        <time>2012-04-26T11:55:24Z</time>
      </trkpt>
      <trkpt lat="46.09857" lon="6.38104">
        <ele>736</ele>
        <time>2012-04-26T11:55:26Z</time>
      </trkpt>
      <trkpt lat="46.09866" lon="6.3809">
        <ele>736</ele>
        <time>2012-04-26T11:55:28Z</time>
      </trkpt>
      <trkpt lat="46.09877" lon="6.38076">
        <ele>736</ele>
        <time>2012-04-26T11:55:30Z</time>
      </trkpt>
      <trkpt lat="46.09884" lon="6.38067">
        <ele>736</ele>
        <time>2012-04-26T11:55:31Z</time>
      </trkpt>
      <trkpt lat="46.09892" lon="6.3806">
        <ele>736</ele>
        <time>2012-04-26T11:55:32Z</time>
      </trkpt>
      <trkpt lat="46.09907" lon="6.38046">
        <ele>736</ele>
        <time>2012-04-26T11:55:34Z</time>
      </trkpt>
      <trkpt lat="46.09917" lon="6.3803">
        <ele>736</ele>
        <time>2012-04-26T11:55:36Z</time>
      </trkpt>
      <trkpt lat="46.09924" lon="6.38011">
        <ele>736</ele>
        <time>2012-04-26T11:55:38Z</time>
      </trkpt>
      <trkpt lat="46.09925" lon="6.37991">
        <ele>736</ele>
        <time>2012-04-26T11:55:40Z</time>
      </trkpt>
      <trkpt lat="46.09921" lon="6.37969">
        <ele>730</ele>
        <time>2012-04-26T11:55:42Z</time>
      </trkpt>
      <trkpt lat="46.09915" lon="6.37948">
        <ele>730</ele>
        <time>2012-04-26T11:55:44Z</time>
      </trkpt>
      <trkpt lat="46.09912" lon="6.37934">
        <ele>730</ele>
        <time>2012-04-26T11:55:45Z</time>
      </trkpt>
      <trkpt lat="46.09911" lon="6.37911">
        <ele>730</ele>
        <time>2012-04-26T11:55:47Z</time>
      </trkpt>
      <trkpt lat="46.09917" lon="6.3789">
        <ele>730</ele>
        <time>2012-04-26T11:55:49Z</time>
      </trkpt>
      <trkpt lat="46.0993" lon="6.37871">
        <ele>730</ele>
        <time>2012-04-26T11:55:51Z</time>
      </trkpt>
      <trkpt lat="46.09943" lon="6.37853">
        <ele>723</ele>
        <time>2012-04-26T11:55:53Z</time>
      </trkpt>
      <trkpt lat="46.09954" lon="6.37831">
        <ele>723</ele>
        <time>2012-04-26T11:55:55Z</time>
      </trkpt>
      <trkpt lat="46.09958" lon="6.37817">
        <ele>723</ele>
        <time>2012-04-26T11:55:56Z</time>
      </trkpt>
      <trkpt lat="46.09961" lon="6.37803">
        <ele>723</ele>
        <time>2012-04-26T11:55:57Z</time>
      </trkpt>
      <trkpt lat="46.09964" lon="6.3779">
        <ele>723</ele>
        <time>2012-04-26T11:55:58Z</time>
      </trkpt>
      <trkpt lat="46.09964" lon="6.37776">
        <ele>723</ele>
        <time>2012-04-26T11:55:59Z</time>
      </trkpt>
      <trkpt lat="46.09962" lon="6.3775">
        <ele>723</ele>
        <time>2012-04-26T11:56:01Z</time>
      </trkpt>
      <trkpt lat="46.09961" lon="6.37737">
        <ele>723</ele>
        <time>2012-04-26T11:56:02Z</time>
      </trkpt>
      <trkpt lat="46.09961" lon="6.37722">
        <ele>723</ele>
        <time>2012-04-26T11:56:03Z</time>
      </trkpt>
      <trkpt lat="46.09962" lon="6.37708">
        <ele>723</ele>
        <time>2012-04-26T11:56:04Z</time>
      </trkpt>
      <trkpt lat="46.09964" lon="6.37694">
        <ele>717</ele>
        <time>2012-04-26T11:56:05Z</time>
      </trkpt>
      <trkpt lat="46.09967" lon="6.37679">
        <ele>717</ele>
        <time>2012-04-26T11:56:06Z</time>
      </trkpt>
      <trkpt lat="46.09972" lon="6.37662">
        <ele>717</ele>
        <time>2012-04-26T11:56:07Z</time>
      </trkpt>
      <trkpt lat="46.09976" lon="6.37644">
        <ele>717</ele>
        <time>2012-04-26T11:56:08Z</time>
      </trkpt>
      <trkpt lat="46.0998" lon="6.3763">
        <ele>711</ele>
        <time>2012-04-26T11:56:09Z</time>
      </trkpt>
      <trkpt lat="46.09984" lon="6.37615">
        <ele>711</ele>
        <time>2012-04-26T11:56:10Z</time>
      </trkpt>
      <trkpt lat="46.09987" lon="6.37601">
        <ele>705</ele>
        <time>2012-04-26T11:56:11Z</time>
      </trkpt>
      <trkpt lat="46.0999" lon="6.37586">
        <ele>705</ele>
        <time>2012-04-26T11:56:12Z</time>
      </trkpt>
      <trkpt lat="46.09993" lon="6.37572">
        <ele>705</ele>
        <time>2012-04-26T11:56:13Z</time>
      </trkpt>
      <trkpt lat="46.09997" lon="6.3755">
        <ele>698</ele>
        <time>2012-04-26T11:56:15Z</time>
      </trkpt>
      <trkpt lat="46.09998" lon="6.37533">
        <ele>692</ele>
        <time>2012-04-26T11:56:17Z</time>
      </trkpt>
      <trkpt lat="46.09992" lon="6.3752">
        <ele>687</ele>
        <time>2012-04-26T11:56:19Z</time>
      </trkpt>
      <trkpt lat="46.09978" lon="6.3752">
        <ele>687</ele>
        <time>2012-04-26T11:56:21Z</time>
      </trkpt>
      <trkpt lat="46.09971" lon="6.37531">
        <ele>687</ele>
        <time>2012-04-26T11:56:22Z</time>
      </trkpt>
      <trkpt lat="46.09962" lon="6.37544">
        <ele>687</ele>
        <time>2012-04-26T11:56:23Z</time>
      </trkpt>
      <trkpt lat="46.0995" lon="6.37559">
        <ele>687</ele>
        <time>2012-04-26T11:56:24Z</time>
      </trkpt>
      <trkpt lat="46.0994" lon="6.37569">
        <ele>687</ele>
        <time>2012-04-26T11:56:25Z</time>
      </trkpt>
      <trkpt lat="46.09929" lon="6.37581">
        <ele>687</ele>
        <time>2012-04-26T11:56:26Z</time>
      </trkpt>
      <trkpt lat="46.09919" lon="6.37593">
        <ele>687</ele>
        <time>2012-04-26T11:56:27Z</time>
      </trkpt>
      <trkpt lat="46.09909" lon="6.37603">
        <ele>687</ele>
        <time>2012-04-26T11:56:28Z</time>
      </trkpt>
      <trkpt lat="46.09899" lon="6.37611">
        <ele>687</ele>
        <time>2012-04-26T11:56:29Z</time>
      </trkpt>
      <trkpt lat="46.09891" lon="6.37619">
        <ele>681</ele>
        <time>2012-04-26T11:56:30Z</time>
      </trkpt>
      <trkpt lat="46.09884" lon="6.37629">
        <ele>681</ele>
        <time>2012-04-26T11:56:31Z</time>
      </trkpt>
      <trkpt lat="46.09877" lon="6.37641">
        <ele>681</ele>
        <time>2012-04-26T11:56:32Z</time>
      </trkpt>
      <trkpt lat="46.09869" lon="6.37655">
        <ele>681</ele>
        <time>2012-04-26T11:56:33Z</time>
      </trkpt>
      <trkpt lat="46.09862" lon="6.37671">
        <ele>681</ele>
        <time>2012-04-26T11:56:34Z</time>
      </trkpt>
      <trkpt lat="46.09854" lon="6.37686">
        <ele>681</ele>
        <time>2012-04-26T11:56:35Z</time>
      </trkpt>
      <trkpt lat="46.09847" lon="6.37701">
        <ele>676</ele>
        <time>2012-04-26T11:56:36Z</time>
      </trkpt>
      <trkpt lat="46.09838" lon="6.37718">
        <ele>676</ele>
        <time>2012-04-26T11:56:37Z</time>
      </trkpt>
      <trkpt lat="46.09829" lon="6.37733">
        <ele>670</ele>
        <time>2012-04-26T11:56:38Z</time>
      </trkpt>
      <trkpt lat="46.09821" lon="6.37746">
        <ele>670</ele>
        <time>2012-04-26T11:56:39Z</time>
      </trkpt>
      <trkpt lat="46.09814" lon="6.37759">
        <ele>670</ele>
        <time>2012-04-26T11:56:40Z</time>
      </trkpt>
      <trkpt lat="46.09807" lon="6.37773">
        <ele>670</ele>
        <time>2012-04-26T11:56:41Z</time>
      </trkpt>
      <trkpt lat="46.098" lon="6.37785">
        <ele>663</ele>
        <time>2012-04-26T11:56:42Z</time>
      </trkpt>
      <trkpt lat="46.09787" lon="6.37802">
        <ele>656</ele>
        <time>2012-04-26T11:56:44Z</time>
      </trkpt>
      <trkpt lat="46.09779" lon="6.37806">
        <ele>656</ele>
        <time>2012-04-26T11:56:45Z</time>
      </trkpt>
      <trkpt lat="46.09769" lon="6.37807">
        <ele>656</ele>
        <time>2012-04-26T11:56:46Z</time>
      </trkpt>
      <trkpt lat="46.09757" lon="6.37807">
        <ele>651</ele>
        <time>2012-04-26T11:56:47Z</time>
      </trkpt>
      <trkpt lat="46.09747" lon="6.37808">
        <ele>651</ele>
        <time>2012-04-26T11:56:48Z</time>
      </trkpt>
      <trkpt lat="46.09738" lon="6.37811">
        <ele>651</ele>
        <time>2012-04-26T11:56:49Z</time>
      </trkpt>
      <trkpt lat="46.09729" lon="6.37816">
        <ele>644</ele>
        <time>2012-04-26T11:56:50Z</time>
      </trkpt>
      <trkpt lat="46.09719" lon="6.3782">
        <ele>644</ele>
        <time>2012-04-26T11:56:51Z</time>
      </trkpt>
      <trkpt lat="46.09705" lon="6.37832">
        <ele>636</ele>
        <time>2012-04-26T11:56:53Z</time>
      </trkpt>
      <trkpt lat="46.09694" lon="6.37844">
        <ele>636</ele>
        <time>2012-04-26T11:56:55Z</time>
      </trkpt>
      <trkpt lat="46.09684" lon="6.37856">
        <ele>636</ele>
        <time>2012-04-26T11:56:57Z</time>
      </trkpt>
      <trkpt lat="46.09672" lon="6.37865">
        <ele>625</ele>
        <time>2012-04-26T11:56:59Z</time>
      </trkpt>
      <trkpt lat="46.09657" lon="6.37876">
        <ele>625</ele>
        <time>2012-04-26T11:57:01Z</time>
      </trkpt>
      <trkpt lat="46.09649" lon="6.37885">
        <ele>625</ele>
        <time>2012-04-26T11:57:02Z</time>
      </trkpt>
      <trkpt lat="46.09641" lon="6.37894">
        <ele>625</ele>
        <time>2012-04-26T11:57:03Z</time>
      </trkpt>
      <trkpt lat="46.09632" lon="6.37901">
        <ele>625</ele>
        <time>2012-04-26T11:57:04Z</time>
      </trkpt>
      <trkpt lat="46.09624" lon="6.37908">
        <ele>625</ele>
        <time>2012-04-26T11:57:05Z</time>
      </trkpt>
      <trkpt lat="46.09616" lon="6.37915">
        <ele>620</ele>
        <time>2012-04-26T11:57:06Z</time>
      </trkpt>
      <trkpt lat="46.09608" lon="6.37925">
        <ele>620</ele>
        <time>2012-04-26T11:57:07Z</time>
      </trkpt>
      <trkpt lat="46.09594" lon="6.37938">
        <ele>612</ele>
        <time>2012-04-26T11:57:09Z</time>
      </trkpt>
      <trkpt lat="46.09583" lon="6.37944">
        <ele>612</ele>
        <time>2012-04-26T11:57:11Z</time>
      </trkpt>
      <trkpt lat="46.09574" lon="6.37949">
        <ele>612</ele>
        <time>2012-04-26T11:57:13Z</time>
      </trkpt>
      <trkpt lat="46.09567" lon="6.3796">
        <ele>612</ele>
        <time>2012-04-26T11:57:15Z</time>
      </trkpt>
      <trkpt lat="46.09561" lon="6.37977">
        <ele>612</ele>
        <time>2012-04-26T11:57:17Z</time>
      </trkpt>
      <trkpt lat="46.0956" lon="6.37991">
        <ele>612</ele>
        <time>2012-04-26T11:57:19Z</time>
      </trkpt>
      <trkpt lat="46.09554" lon="6.38007">
        <ele>612</ele>
        <time>2012-04-26T11:57:22Z</time>
      </trkpt>
      <trkpt lat="46.09544" lon="6.38019">
        <ele>612</ele>
        <time>2012-04-26T11:57:25Z</time>
      </trkpt>
      <trkpt lat="46.09535" lon="6.38031">
        <ele>619</ele>
        <time>2012-04-26T11:57:27Z</time>
      </trkpt>
      <trkpt lat="46.09526" lon="6.38045">
        <ele>625</ele>
        <time>2012-04-26T11:57:29Z</time>
      </trkpt>
      <trkpt lat="46.09517" lon="6.3806">
        <ele>625</ele>
        <time>2012-04-26T11:57:31Z</time>
      </trkpt>
      <trkpt lat="46.09501" lon="6.38093">
        <ele>630</ele>
        <time>2012-04-26T11:57:35Z</time>
      </trkpt>
      <trkpt lat="46.09489" lon="6.38114">
        <ele>630</ele>
        <time>2012-04-26T11:57:37Z</time>
      </trkpt>
      <trkpt lat="46.09476" lon="6.38129">
        <ele>630</ele>
        <time>2012-04-26T11:57:39Z</time>
      </trkpt>
      <trkpt lat="46.09464" lon="6.38139">
        <ele>630</ele>
        <time>2012-04-26T11:57:41Z</time>
      </trkpt>
      <trkpt lat="46.09454" lon="6.38151">
        <ele>630</ele>
        <time>2012-04-26T11:57:43Z</time>
      </trkpt>
      <trkpt lat="46.09442" lon="6.38169">
        <ele>630</ele>
        <time>2012-04-26T11:57:45Z</time>
      </trkpt>
      <trkpt lat="46.09436" lon="6.38178">
        <ele>630</ele>
        <time>2012-04-26T11:57:46Z</time>
      </trkpt>
      <trkpt lat="46.09429" lon="6.38189">
        <ele>630</ele>
        <time>2012-04-26T11:57:47Z</time>
      </trkpt>
      <trkpt lat="46.09422" lon="6.38201">
        <ele>630</ele>
        <time>2012-04-26T11:57:48Z</time>
      </trkpt>
      <trkpt lat="46.09414" lon="6.38212">
        <ele>630</ele>
        <time>2012-04-26T11:57:49Z</time>
      </trkpt>
      <trkpt lat="46.09407" lon="6.38223">
        <ele>630</ele>
        <time>2012-04-26T11:57:50Z</time>
      </trkpt>
      <trkpt lat="46.09401" lon="6.38233">
        <ele>625</ele>
        <time>2012-04-26T11:57:51Z</time>
      </trkpt>
      <trkpt lat="46.09395" lon="6.38244">
        <ele>625</ele>
        <time>2012-04-26T11:57:53Z</time>
      </trkpt>
      <trkpt lat="46.09387" lon="6.38259">
        <ele>618</ele>
        <time>2012-04-26T11:57:55Z</time>
      </trkpt>
      <trkpt lat="46.09378" lon="6.38273">
        <ele>618</ele>
        <time>2012-04-26T11:57:57Z</time>
      </trkpt>
      <trkpt lat="46.09369" lon="6.38282">
        <ele>618</ele>
        <time>2012-04-26T11:57:59Z</time>
      </trkpt>
      <trkpt lat="46.09366" lon="6.38295">
        <ele>612</ele>
        <time>2012-04-26T11:58:01Z</time>
      </trkpt>
      <trkpt lat="46.09362" lon="6.38309">
        <ele>606</ele>
        <time>2012-04-26T11:58:03Z</time>
      </trkpt>
      <trkpt lat="46.09357" lon="6.38322">
        <ele>606</ele>
        <time>2012-04-26T11:58:05Z</time>
      </trkpt>
      <trkpt lat="46.09345" lon="6.3834">
        <ele>596</ele>
        <time>2012-04-26T11:58:07Z</time>
      </trkpt>
      <trkpt lat="46.09338" lon="6.38351">
        <ele>596</ele>
        <time>2012-04-26T11:58:08Z</time>
      </trkpt>
      <trkpt lat="46.09332" lon="6.38362">
        <ele>596</ele>
        <time>2012-04-26T11:58:09Z</time>
      </trkpt>
      <trkpt lat="46.09324" lon="6.3837">
        <ele>590</ele>
        <time>2012-04-26T11:58:10Z</time>
      </trkpt>
      <trkpt lat="46.09317" lon="6.3838">
        <ele>590</ele>
        <time>2012-04-26T11:58:11Z</time>
      </trkpt>
      <trkpt lat="46.09309" lon="6.38392">
        <ele>590</ele>
        <time>2012-04-26T11:58:13Z</time>
      </trkpt>
      <trkpt lat="46.09306" lon="6.38408">
        <ele>590</ele>
        <time>2012-04-26T11:58:15Z</time>
      </trkpt>
      <trkpt lat="46.09304" lon="6.38428">
        <ele>590</ele>
        <time>2012-04-26T11:58:17Z</time>
      </trkpt>
      <trkpt lat="46.09306" lon="6.38446">
        <ele>590</ele>
        <time>2012-04-26T11:58:19Z</time>
      </trkpt>
      <trkpt lat="46.09307" lon="6.38464">
        <ele>590</ele>
        <time>2012-04-26T11:58:21Z</time>
      </trkpt>
      <trkpt lat="46.09307" lon="6.38481">
        <ele>598</ele>
        <time>2012-04-26T11:58:23Z</time>
      </trkpt>
      <trkpt lat="46.09308" lon="6.385">
        <ele>598</ele>
        <time>2012-04-26T11:58:25Z</time>
      </trkpt>
      <trkpt lat="46.09308" lon="6.3852">
        <ele>603</ele>
        <time>2012-04-26T11:58:27Z</time>
      </trkpt>
      <trkpt lat="46.0931" lon="6.38538">
        <ele>603</ele>
        <time>2012-04-26T11:58:29Z</time>
      </trkpt>
      <trkpt lat="46.0931" lon="6.38555">
        <ele>609</ele>
        <time>2012-04-26T11:58:31Z</time>
      </trkpt>
      <trkpt lat="46.09307" lon="6.38569">
        <ele>609</ele>
        <time>2012-04-26T11:58:34Z</time>
      </trkpt>
      <trkpt lat="46.09293" lon="6.3858">
        <ele>609</ele>
        <time>2012-04-26T11:58:38Z</time>
      </trkpt>
      <trkpt lat="46.09283" lon="6.38588">
        <ele>609</ele>
        <time>2012-04-26T11:58:41Z</time>
      </trkpt>
      <trkpt lat="46.09276" lon="6.38597">
        <ele>614</ele>
        <time>2012-04-26T11:58:45Z</time>
      </trkpt>
      <trkpt lat="46.09267" lon="6.38606">
        <ele>614</ele>
        <time>2012-04-26T11:58:47Z</time>
      </trkpt>
      <trkpt lat="46.09259" lon="6.38612">
        <ele>614</ele>
        <time>2012-04-26T11:58:49Z</time>
      </trkpt>
      <trkpt lat="46.09251" lon="6.38623">
        <ele>614</ele>
        <time>2012-04-26T11:58:53Z</time>
      </trkpt>
      <trkpt lat="46.09249" lon="6.38642">
        <ele>614</ele>
        <time>2012-04-26T11:59:02Z</time>
      </trkpt>
      <trkpt lat="46.09246" lon="6.38656">
        <ele>607</ele>
        <time>2012-04-26T11:59:06Z</time>
      </trkpt>
      <trkpt lat="46.09246" lon="6.3868">
        <ele>613</ele>
        <time>2012-04-26T11:59:19Z</time>
      </trkpt>
      <trkpt lat="46.09247" lon="6.38697">
        <ele>613</ele>
        <time>2012-04-26T11:59:22Z</time>
      </trkpt>
      <trkpt lat="46.09242" lon="6.38712">
        <ele>613</ele>
        <time>2012-04-26T11:59:26Z</time>
      </trkpt>
      <trkpt lat="46.09236" lon="6.38723">
        <ele>619</ele>
        <time>2012-04-26T11:59:30Z</time>
      </trkpt>
      <trkpt lat="46.09232" lon="6.38739">
        <ele>619</ele>
        <time>2012-04-26T11:59:33Z</time>
      </trkpt>
      <trkpt lat="46.09227" lon="6.38753">
        <ele>625</ele>
        <time>2012-04-26T11:59:36Z</time>
      </trkpt>
      <trkpt lat="46.09225" lon="6.3877">
        <ele>631</ele>
        <time>2012-04-26T11:59:40Z</time>
      </trkpt>
      <trkpt lat="46.09227" lon="6.38785">
        <ele>631</ele>
        <time>2012-04-26T11:59:43Z</time>
      </trkpt>
      <trkpt lat="46.09224" lon="6.38797">
        <ele>631</ele>
        <time>2012-04-26T11:59:46Z</time>
      </trkpt>
      <trkpt lat="46.09226" lon="6.38812">
        <ele>637</ele>
        <time>2012-04-26T11:59:49Z</time>
      </trkpt>
      <trkpt lat="46.09227" lon="6.38826">
        <ele>637</ele>
        <time>2012-04-26T11:59:51Z</time>
      </trkpt>
      <trkpt lat="46.09224" lon="6.38841">
        <ele>629</ele>
        <time>2012-04-26T11:59:53Z</time>
      </trkpt>
      <trkpt lat="46.09222" lon="6.38857">
        <ele>629</ele>
        <time>2012-04-26T11:59:56Z</time>
      </trkpt>
      <trkpt lat="46.09225" lon="6.38881">
        <ele>629</ele>
        <time>2012-04-26T12:00:00Z</time>
      </trkpt>
      <trkpt lat="46.09231" lon="6.38894">
        <ele>629</ele>
        <time>2012-04-26T12:00:02Z</time>
      </trkpt>
      <trkpt lat="46.09228" lon="6.38911">
        <ele>629</ele>
        <time>2012-04-26T12:00:08Z</time>
      </trkpt>
      <trkpt lat="46.09227" lon="6.38927">
        <ele>629</ele>
        <time>2012-04-26T12:00:12Z</time>
      </trkpt>
      <trkpt lat="46.09231" lon="6.3895">
        <ele>629</ele>
        <time>2012-04-26T12:00:16Z</time>
      </trkpt>
      <trkpt lat="46.0923" lon="6.38964">
        <ele>629</ele>
        <time>2012-04-26T12:00:17Z</time>
      </trkpt>
      <trkpt lat="46.09234" lon="6.3898">
        <ele>629</ele>
        <time>2012-04-26T12:00:20Z</time>
      </trkpt>
      <trkpt lat="46.09242" lon="6.38992">
        <ele>629</ele>
        <time>2012-04-26T12:00:23Z</time>
      </trkpt>
      <trkpt lat="46.09249" lon="6.39003">
        <ele>638</ele>
        <time>2012-04-26T12:00:26Z</time>
      </trkpt>
      <trkpt lat="46.09259" lon="6.39008">
        <ele>638</ele>
        <time>2012-04-26T12:00:31Z</time>
      </trkpt>
      <trkpt lat="46.09264" lon="6.39025">
        <ele>644</ele>
        <time>2012-04-26T12:00:34Z</time>
      </trkpt>
      <trkpt lat="46.09259" lon="6.39036">
        <ele>652</ele>
        <time>2012-04-26T12:00:45Z</time>
      </trkpt>
      <trkpt lat="46.09257" lon="6.39053">
        <ele>652</ele>
        <time>2012-04-26T12:00:49Z</time>
      </trkpt>
      <trkpt lat="46.09257" lon="6.39068">
        <ele>652</ele>
        <time>2012-04-26T12:00:52Z</time>
      </trkpt>
      <trkpt lat="46.09257" lon="6.39083">
        <ele>644</ele>
        <time>2012-04-26T12:00:55Z</time>
      </trkpt>
      <trkpt lat="46.09255" lon="6.391">
        <ele>644</ele>
        <time>2012-04-26T12:00:58Z</time>
      </trkpt>
      <trkpt lat="46.0925" lon="6.39117">
        <ele>644</ele>
        <time>2012-04-26T12:01:00Z</time>
      </trkpt>
      <trkpt lat="46.09247" lon="6.39133">
        <ele>638</ele>
        <time>2012-04-26T12:01:02Z</time>
      </trkpt>
      <trkpt lat="46.09245" lon="6.39149">
        <ele>638</ele>
        <time>2012-04-26T12:01:04Z</time>
      </trkpt>
      <trkpt lat="46.09241" lon="6.39167">
        <ele>638</ele>
        <time>2012-04-26T12:01:06Z</time>
      </trkpt>
      <trkpt lat="46.09237" lon="6.39186">
        <ele>632</ele>
        <time>2012-04-26T12:01:08Z</time>
      </trkpt>
      <trkpt lat="46.09234" lon="6.39204">
        <ele>632</ele>
        <time>2012-04-26T12:01:10Z</time>
      </trkpt>
      <trkpt lat="46.0923" lon="6.39226">
        <ele>624</ele>
        <time>2012-04-26T12:01:12Z</time>
      </trkpt>
      <trkpt lat="46.09224" lon="6.39243">
        <ele>624</ele>
        <time>2012-04-26T12:01:14Z</time>
      </trkpt>
      <trkpt lat="46.09217" lon="6.39259">
        <ele>616</ele>
        <time>2012-04-26T12:01:16Z</time>
      </trkpt>
      <trkpt lat="46.09211" lon="6.39272">
        <ele>616</ele>
        <time>2012-04-26T12:01:18Z</time>
      </trkpt>
      <trkpt lat="46.09209" lon="6.39285">
        <ele>616</ele>
        <time>2012-04-26T12:01:20Z</time>
      </trkpt>
      <trkpt lat="46.09207" lon="6.39298">
        <ele>616</ele>
        <time>2012-04-26T12:01:22Z</time>
      </trkpt>
      <trkpt lat="46.09201" lon="6.39309">
        <ele>610</ele>
        <time>2012-04-26T12:01:25Z</time>
      </trkpt>
      <trkpt lat="46.09194" lon="6.39324">
        <ele>610</ele>
        <time>2012-04-26T12:01:28Z</time>
      </trkpt>
      <trkpt lat="46.09196" lon="6.3934">
        <ele>610</ele>
        <time>2012-04-26T12:01:31Z</time>
      </trkpt>
      <trkpt lat="46.09194" lon="6.39353">
        <ele>610</ele>
        <time>2012-04-26T12:01:33Z</time>
      </trkpt>
      <trkpt lat="46.09192" lon="6.39368">
        <ele>610</ele>
        <time>2012-04-26T12:01:35Z</time>
      </trkpt>
      <trkpt lat="46.09185" lon="6.39385">
        <ele>610</ele>
        <time>2012-04-26T12:01:37Z</time>
      </trkpt>
      <trkpt lat="46.09177" lon="6.39402">
        <ele>610</ele>
        <time>2012-04-26T12:01:39Z</time>
      </trkpt>
      <trkpt lat="46.09171" lon="6.39419">
        <ele>610</ele>
        <time>2012-04-26T12:01:41Z</time>
      </trkpt>
      <trkpt lat="46.09164" lon="6.39435">
        <ele>610</ele>
        <time>2012-04-26T12:01:43Z</time>
      </trkpt>
      <trkpt lat="46.09157" lon="6.39448">
        <ele>604</ele>
        <time>2012-04-26T12:01:45Z</time>
      </trkpt>
      <trkpt lat="46.09138" lon="6.39477">
        <ele>604</ele>
        <time>2012-04-26T12:01:50Z</time>
      </trkpt>
      <trkpt lat="46.0913" lon="6.39483">
        <ele>604</ele>
        <time>2012-04-26T12:01:51Z</time>
      </trkpt>
      <trkpt lat="46.09122" lon="6.39495">
        <ele>604</ele>
        <time>2012-04-26T12:01:53Z</time>
      </trkpt>
      <trkpt lat="46.09121" lon="6.39513">
        <ele>604</ele>
        <time>2012-04-26T12:01:56Z</time>
      </trkpt>
      <trkpt lat="46.09119" lon="6.39526">
        <ele>595</ele>
        <time>2012-04-26T12:01:59Z</time>
      </trkpt>
      <trkpt lat="46.09117" lon="6.39542">
        <ele>595</ele>
        <time>2012-04-26T12:02:03Z</time>
      </trkpt>
      <trkpt lat="46.09109" lon="6.3955">
        <ele>595</ele>
        <time>2012-04-26T12:02:10Z</time>
      </trkpt>
      <trkpt lat="46.09103" lon="6.39535">
        <ele>588</ele>
        <time>2012-04-26T12:02:18Z</time>
      </trkpt>
      <trkpt lat="46.09103" lon="6.39512">
        <ele>588</ele>
        <time>2012-04-26T12:02:20Z</time>
      </trkpt>
      <trkpt lat="46.09104" lon="6.39499">
        <ele>588</ele>
        <time>2012-04-26T12:02:21Z</time>
      </trkpt>
      <trkpt lat="46.09103" lon="6.39484">
        <ele>588</ele>
        <time>2012-04-26T12:02:22Z</time>
      </trkpt>
      <trkpt lat="46.091" lon="6.39467">
        <ele>588</ele>
        <time>2012-04-26T12:02:23Z</time>
      </trkpt>
      <trkpt lat="46.09097" lon="6.3945">
        <ele>588</ele>
        <time>2012-04-26T12:02:24Z</time>
      </trkpt>
      <trkpt lat="46.09095" lon="6.39434">
        <ele>588</ele>
        <time>2012-04-26T12:02:25Z</time>
      </trkpt>
      <trkpt lat="46.09092" lon="6.3942">
        <ele>588</ele>
        <time>2012-04-26T12:02:26Z</time>
      </trkpt>
      <trkpt lat="46.09089" lon="6.39406">
        <ele>588</ele>
        <time>2012-04-26T12:02:27Z</time>
      </trkpt>
      <trkpt lat="46.09088" lon="6.39391">
        <ele>582</ele>
        <time>2012-04-26T12:02:28Z</time>
      </trkpt>
      <trkpt lat="46.09088" lon="6.39378">
        <ele>582</ele>
        <time>2012-04-26T12:02:29Z</time>
      </trkpt>
      <trkpt lat="46.09089" lon="6.39362">
        <ele>582</ele>
        <time>2012-04-26T12:02:30Z</time>
      </trkpt>
      <trkpt lat="46.09092" lon="6.39345">
        <ele>582</ele>
        <time>2012-04-26T12:02:31Z</time>
      </trkpt>
      <trkpt lat="46.09096" lon="6.39328">
        <ele>582</ele>
        <time>2012-04-26T12:02:32Z</time>
      </trkpt>
      <trkpt lat="46.09098" lon="6.39311">
        <ele>582</ele>
        <time>2012-04-26T12:02:33Z</time>
      </trkpt>
      <trkpt lat="46.09098" lon="6.39293">
        <ele>575</ele>
        <time>2012-04-26T12:02:34Z</time>
      </trkpt>
      <trkpt lat="46.09097" lon="6.39276">
        <ele>575</ele>
        <time>2012-04-26T12:02:35Z</time>
      </trkpt>
      <trkpt lat="46.09097" lon="6.39257">
        <ele>575</ele>
        <time>2012-04-26T12:02:36Z</time>
      </trkpt>
      <trkpt lat="46.09097" lon="6.39241">
        <ele>570</ele>
        <time>2012-04-26T12:02:37Z</time>
      </trkpt>
      <trkpt lat="46.09094" lon="6.39224">
        <ele>570</ele>
        <time>2012-04-26T12:02:38Z</time>
      </trkpt>
      <trkpt lat="46.09091" lon="6.39206">
        <ele>570</ele>
        <time>2012-04-26T12:02:39Z</time>
      </trkpt>
      <trkpt lat="46.09087" lon="6.39189">
        <ele>570</ele>
        <time>2012-04-26T12:02:40Z</time>
      </trkpt>
      <trkpt lat="46.09085" lon="6.39171">
        <ele>570</ele>
        <time>2012-04-26T12:02:41Z</time>
      </trkpt>
      <trkpt lat="46.09085" lon="6.39151">
        <ele>570</ele>
        <time>2012-04-26T12:02:42Z</time>
      </trkpt>
      <trkpt lat="46.09086" lon="6.39132">
        <ele>564</ele>
        <time>2012-04-26T12:02:43Z</time>
      </trkpt>
      <trkpt lat="46.09086" lon="6.39115">
        <ele>564</ele>
        <time>2012-04-26T12:02:44Z</time>
      </trkpt>
      <trkpt lat="46.09086" lon="6.39097">
        <ele>564</ele>
        <time>2012-04-26T12:02:45Z</time>
      </trkpt>
      <trkpt lat="46.09085" lon="6.39081">
        <ele>564</ele>
        <time>2012-04-26T12:02:46Z</time>
      </trkpt>
      <trkpt lat="46.09082" lon="6.39058">
        <ele>564</ele>
        <time>2012-04-26T12:02:48Z</time>
      </trkpt>
      <trkpt lat="46.09077" lon="6.39036">
        <ele>564</ele>
        <time>2012-04-26T12:02:50Z</time>
      </trkpt>
      <trkpt lat="46.09076" lon="6.39017">
        <ele>564</ele>
        <time>2012-04-26T12:02:52Z</time>
      </trkpt>
      <trkpt lat="46.09077" lon="6.39003">
        <ele>564</ele>
        <time>2012-04-26T12:02:54Z</time>
      </trkpt>
      <trkpt lat="46.09074" lon="6.39019">
        <ele>579</ele>
        <time>2012-04-26T12:03:09Z</time>
      </trkpt>
      <trkpt lat="46.09077" lon="6.39036">
        <ele>579</ele>
        <time>2012-04-26T12:03:11Z</time>
      </trkpt>
      <trkpt lat="46.09082" lon="6.39057">
        <ele>579</ele>
        <time>2012-04-26T12:03:13Z</time>
      </trkpt>
      <trkpt lat="46.09087" lon="6.39074">
        <ele>574</ele>
        <time>2012-04-26T12:03:15Z</time>
      </trkpt>
      <trkpt lat="46.09101" lon="6.3908">
        <ele>574</ele>
        <time>2012-04-26T12:03:18Z</time>
      </trkpt>
      <trkpt lat="46.0911" lon="6.39065">
        <ele>574</ele>
        <time>2012-04-26T12:03:20Z</time>
      </trkpt>
      <trkpt lat="46.09112" lon="6.39046">
        <ele>574</ele>
        <time>2012-04-26T12:03:22Z</time>
      </trkpt>
      <trkpt lat="46.09107" lon="6.39027">
        <ele>574</ele>
        <time>2012-04-26T12:03:24Z</time>
      </trkpt>
      <trkpt lat="46.09105" lon="6.39009">
        <ele>574</ele>
        <time>2012-04-26T12:03:26Z</time>
      </trkpt>
      <trkpt lat="46.09102" lon="6.38989">
        <ele>574</ele>
        <time>2012-04-26T12:03:28Z</time>
      </trkpt>
      <trkpt lat="46.09102" lon="6.38968">
        <ele>580</ele>
        <time>2012-04-26T12:03:30Z</time>
      </trkpt>
      <trkpt lat="46.09103" lon="6.38948">
        <ele>580</ele>
        <time>2012-04-26T12:03:32Z</time>
      </trkpt>
      <trkpt lat="46.09111" lon="6.38936">
        <ele>580</ele>
        <time>2012-04-26T12:03:34Z</time>
      </trkpt>
      <trkpt lat="46.09121" lon="6.38922">
        <ele>585</ele>
        <time>2012-04-26T12:03:36Z</time>
      </trkpt>
      <trkpt lat="46.09128" lon="6.38912">
        <ele>585</ele>
        <time>2012-04-26T12:03:38Z</time>
      </trkpt>
      <trkpt lat="46.09118" lon="6.38926">
        <ele>585</ele>
        <time>2012-04-26T12:03:48Z</time>
      </trkpt>
      <trkpt lat="46.09107" lon="6.38938">
        <ele>585</ele>
        <time>2012-04-26T12:03:51Z</time>
      </trkpt>
      <trkpt lat="46.09106" lon="6.38953">
        <ele>585</ele>
        <time>2012-04-26T12:03:53Z</time>
      </trkpt>
      <trkpt lat="46.09102" lon="6.38982">
        <ele>585</ele>
        <time>2012-04-26T12:03:56Z</time>
      </trkpt>
      <trkpt lat="46.09106" lon="6.39">
        <ele>578</ele>
        <time>2012-04-26T12:03:58Z</time>
      </trkpt>
      <trkpt lat="46.09104" lon="6.39018">
        <ele>578</ele>
        <time>2012-04-26T12:04:00Z</time>
      </trkpt>
      <trkpt lat="46.09107" lon="6.39042">
        <ele>578</ele>
        <time>2012-04-26T12:04:03Z</time>
      </trkpt>
      <trkpt lat="46.0911" lon="6.39062">
        <ele>578</ele>
        <time>2012-04-26T12:04:05Z</time>
      </trkpt>
      <trkpt lat="46.09104" lon="6.3908">
        <ele>569</ele>
        <time>2012-04-26T12:04:07Z</time>
      </trkpt>
      <trkpt lat="46.09094" lon="6.39083">
        <ele>569</ele>
        <time>2012-04-26T12:04:09Z</time>
      </trkpt>
      <trkpt lat="46.09087" lon="6.39073">
        <ele>569</ele>
        <time>2012-04-26T12:04:11Z</time>
      </trkpt>
      <trkpt lat="46.09083" lon="6.39061">
        <ele>569</ele>
        <time>2012-04-26T12:04:12Z</time>
      </trkpt>
      <trkpt lat="46.09079" lon="6.39048">
        <ele>569</ele>
        <time>2012-04-26T12:04:13Z</time>
      </trkpt>
      <trkpt lat="46.09076" lon="6.39027">
        <ele>569</ele>
        <time>2012-04-26T12:04:15Z</time>
      </trkpt>
      <trkpt lat="46.09074" lon="6.39008">
        <ele>569</ele>
        <time>2012-04-26T12:04:17Z</time>
      </trkpt>
      <trkpt lat="46.09069" lon="6.38984">
        <ele>569</ele>
        <time>2012-04-26T12:04:19Z</time>
      </trkpt>
      <trkpt lat="46.09067" lon="6.38972">
        <ele>569</ele>
        <time>2012-04-26T12:04:20Z</time>
      </trkpt>
      <trkpt lat="46.09064" lon="6.38958">
        <ele>569</ele>
        <time>2012-04-26T12:04:21Z</time>
      </trkpt>
      <trkpt lat="46.09062" lon="6.38944">
        <ele>569</ele>
        <time>2012-04-26T12:04:22Z</time>
      </trkpt>
      <trkpt lat="46.09062" lon="6.3893">
        <ele>569</ele>
        <time>2012-04-26T12:04:23Z</time>
      </trkpt>
      <trkpt lat="46.09061" lon="6.38915">
        <ele>564</ele>
        <time>2012-04-26T12:04:24Z</time>
      </trkpt>
      <trkpt lat="46.09058" lon="6.389">
        <ele>564</ele>
        <time>2012-04-26T12:04:25Z</time>
      </trkpt>
      <trkpt lat="46.09055" lon="6.38883">
        <ele>564</ele>
        <time>2012-04-26T12:04:26Z</time>
      </trkpt>
      <trkpt lat="46.09053" lon="6.38867">
        <ele>564</ele>
        <time>2012-04-26T12:04:27Z</time>
      </trkpt>
      <trkpt lat="46.0905" lon="6.38852">
        <ele>564</ele>
        <time>2012-04-26T12:04:28Z</time>
      </trkpt>
      <trkpt lat="46.09047" lon="6.38839">
        <ele>558</ele>
        <time>2012-04-26T12:04:29Z</time>
      </trkpt>
      <trkpt lat="46.09042" lon="6.38818">
        <ele>558</ele>
        <time>2012-04-26T12:04:31Z</time>
      </trkpt>
      <trkpt lat="46.09037" lon="6.38807">
        <ele>558</ele>
        <time>2012-04-26T12:04:35Z</time>
      </trkpt>
      <trkpt lat="46.09031" lon="6.38818">
        <ele>558</ele>
        <time>2012-04-26T12:04:45Z</time>
      </trkpt>
      <trkpt lat="46.09037" lon="6.38832">
        <ele>558</ele>
        <time>2012-04-26T12:05:04Z</time>
      </trkpt>
      <trkpt lat="46.09036" lon="6.3886">
        <ele>558</ele>
        <time>2012-04-26T12:05:06Z</time>
      </trkpt>
      <trkpt lat="46.09037" lon="6.38885">
        <ele>558</ele>
        <time>2012-04-26T12:05:08Z</time>
      </trkpt>
      <trkpt lat="46.09033" lon="6.38898">
        <ele>553</ele>
        <time>2012-04-26T12:05:09Z</time>
      </trkpt>
      <trkpt lat="46.09031" lon="6.38911">
        <ele>553</ele>
        <time>2012-04-26T12:05:10Z</time>
      </trkpt>
      <trkpt lat="46.09027" lon="6.38924">
        <ele>553</ele>
        <time>2012-04-26T12:05:11Z</time>
      </trkpt>
      <trkpt lat="46.09024" lon="6.38938">
        <ele>553</ele>
        <time>2012-04-26T12:05:12Z</time>
      </trkpt>
      <trkpt lat="46.09022" lon="6.38956">
        <ele>553</ele>
        <time>2012-04-26T12:05:13Z</time>
      </trkpt>
      <trkpt lat="46.09021" lon="6.38973">
        <ele>553</ele>
        <time>2012-04-26T12:05:14Z</time>
      </trkpt>
      <trkpt lat="46.09021" lon="6.38989">
        <ele>553</ele>
        <time>2012-04-26T12:05:15Z</time>
      </trkpt>
      <trkpt lat="46.09021" lon="6.39005">
        <ele>553</ele>
        <time>2012-04-26T12:05:16Z</time>
      </trkpt>
      <trkpt lat="46.09021" lon="6.39021">
        <ele>546</ele>
        <time>2012-04-26T12:05:17Z</time>
      </trkpt>
      <trkpt lat="46.0901" lon="6.39078">
        <ele>546</ele>
        <time>2012-04-26T12:05:21Z</time>
      </trkpt>
      <trkpt lat="46.09003" lon="6.39097">
        <ele>546</ele>
        <time>2012-04-26T12:05:22Z</time>
      </trkpt>
      <trkpt lat="46.08999" lon="6.39112">
        <ele>546</ele>
        <time>2012-04-26T12:05:23Z</time>
      </trkpt>
      <trkpt lat="46.08992" lon="6.39123">
        <ele>546</ele>
        <time>2012-04-26T12:05:24Z</time>
      </trkpt>
      <trkpt lat="46.08986" lon="6.39136">
        <ele>546</ele>
        <time>2012-04-26T12:05:25Z</time>
      </trkpt>
      <trkpt lat="46.08977" lon="6.39147">
        <ele>540</ele>
        <time>2012-04-26T12:05:26Z</time>
      </trkpt>
      <trkpt lat="46.08969" lon="6.39156">
        <ele>540</ele>
        <time>2012-04-26T12:05:27Z</time>
      </trkpt>
      <trkpt lat="46.08959" lon="6.39172">
        <ele>540</ele>
        <time>2012-04-26T12:05:29Z</time>
      </trkpt>
      <trkpt lat="46.08954" lon="6.39193">
        <ele>540</ele>
        <time>2012-04-26T12:05:31Z</time>
      </trkpt>
      <trkpt lat="46.08954" lon="6.39216">
        <ele>540</ele>
        <time>2012-04-26T12:05:33Z</time>
      </trkpt>
      <trkpt lat="46.08952" lon="6.3923">
        <ele>540</ele>
        <time>2012-04-26T12:05:34Z</time>
      </trkpt>
      <trkpt lat="46.08944" lon="6.39256">
        <ele>540</ele>
        <time>2012-04-26T12:05:36Z</time>
      </trkpt>
      <trkpt lat="46.08938" lon="6.39269">
        <ele>540</ele>
        <time>2012-04-26T12:05:37Z</time>
      </trkpt>
      <trkpt lat="46.08933" lon="6.39281">
        <ele>540</ele>
        <time>2012-04-26T12:05:38Z</time>
      </trkpt>
      <trkpt lat="46.08927" lon="6.39292">
        <ele>535</ele>
        <time>2012-04-26T12:05:39Z</time>
      </trkpt>
      <trkpt lat="46.08922" lon="6.39306">
        <ele>535</ele>
        <time>2012-04-26T12:05:40Z</time>
      </trkpt>
      <trkpt lat="46.08919" lon="6.3932">
        <ele>535</ele>
        <time>2012-04-26T12:05:41Z</time>
      </trkpt>
      <trkpt lat="46.08917" lon="6.39341">
        <ele>535</ele>
        <time>2012-04-26T12:05:43Z</time>
      </trkpt>
      <trkpt lat="46.08913" lon="6.39357">
        <ele>535</ele>
        <time>2012-04-26T12:05:44Z</time>
      </trkpt>
      <trkpt lat="46.08911" lon="6.39371">
        <ele>527</ele>
        <time>2012-04-26T12:05:45Z</time>
      </trkpt>
      <trkpt lat="46.08911" lon="6.39385">
        <ele>527</ele>
        <time>2012-04-26T12:05:46Z</time>
      </trkpt>
      <trkpt lat="46.08909" lon="6.394">
        <ele>527</ele>
        <time>2012-04-26T12:05:47Z</time>
      </trkpt>
      <trkpt lat="46.08909" lon="6.39414">
        <ele>527</ele>
        <time>2012-04-26T12:05:48Z</time>
      </trkpt>
      <trkpt lat="46.08909" lon="6.39429">
        <ele>527</ele>
        <time>2012-04-26T12:05:49Z</time>
      </trkpt>
      <trkpt lat="46.08907" lon="6.39458">
        <ele>527</ele>
        <time>2012-04-26T12:05:51Z</time>
      </trkpt>
      <trkpt lat="46.08905" lon="6.39477">
        <ele>527</ele>
        <time>2012-04-26T12:05:52Z</time>
      </trkpt>
      <trkpt lat="46.08896" lon="6.39532">
        <ele>527</ele>
        <time>2012-04-26T12:05:55Z</time>
      </trkpt>
      <trkpt lat="46.08895" lon="6.39553">
        <ele>522</ele>
        <time>2012-04-26T12:05:56Z</time>
      </trkpt>
      <trkpt lat="46.08887" lon="6.39574">
        <ele>522</ele>
        <time>2012-04-26T12:05:57Z</time>
      </trkpt>
      <trkpt lat="46.08881" lon="6.39595">
        <ele>527</ele>
        <time>2012-04-26T12:05:58Z</time>
      </trkpt>
      <trkpt lat="46.08877" lon="6.39609">
        <ele>527</ele>
        <time>2012-04-26T12:05:59Z</time>
      </trkpt>
      <trkpt lat="46.08884" lon="6.39618">
        <ele>527</ele>
        <time>2012-04-26T12:06:03Z</time>
      </trkpt>
      <trkpt lat="46.08894" lon="6.39618">
        <ele>527</ele>
        <time>2012-04-26T12:06:12Z</time>
      </trkpt>
      <trkpt lat="46.08909" lon="6.39622">
        <ele>527</ele>
        <time>2012-04-26T12:06:14Z</time>
      </trkpt>
      <trkpt lat="46.08918" lon="6.3963">
        <ele>527</ele>
        <time>2012-04-26T12:06:15Z</time>
      </trkpt>
      <trkpt lat="46.08937" lon="6.39645">
        <ele>527</ele>
        <time>2012-04-26T12:06:18Z</time>
      </trkpt>
      <trkpt lat="46.08949" lon="6.39633">
        <ele>527</ele>
        <time>2012-04-26T12:06:20Z</time>
      </trkpt>
      <trkpt lat="46.08972" lon="6.39625">
        <ele>535</ele>
        <time>2012-04-26T12:06:24Z</time>
      </trkpt>
      <trkpt lat="46.08987" lon="6.39635">
        <ele>535</ele>
        <time>2012-04-26T12:06:26Z</time>
      </trkpt>
      <trkpt lat="46.08994" lon="6.3965">
        <ele>535</ele>
        <time>2012-04-26T12:06:27Z</time>
      </trkpt>
      <trkpt lat="46.09" lon="6.39662">
        <ele>542</ele>
        <time>2012-04-26T12:06:28Z</time>
      </trkpt>
      <trkpt lat="46.09007" lon="6.39672">
        <ele>542</ele>
        <time>2012-04-26T12:06:29Z</time>
      </trkpt>
      <trkpt lat="46.09014" lon="6.39682">
        <ele>549</ele>
        <time>2012-04-26T12:06:30Z</time>
      </trkpt>
      <trkpt lat="46.09019" lon="6.39697">
        <ele>549</ele>
        <time>2012-04-26T12:06:32Z</time>
      </trkpt>
      <trkpt lat="46.09028" lon="6.3967">
        <ele>556</ele>
        <time>2012-04-26T12:06:38Z</time>
      </trkpt>
      <trkpt lat="46.09034" lon="6.39654">
        <ele>564</ele>
        <time>2012-04-26T12:06:40Z</time>
      </trkpt>
      <trkpt lat="46.09042" lon="6.39639">
        <ele>564</ele>
        <time>2012-04-26T12:06:42Z</time>
      </trkpt>
      <trkpt lat="46.09075" lon="6.39593">
        <ele>575</ele>
        <time>2012-04-26T12:06:49Z</time>
      </trkpt>
      <trkpt lat="46.09087" lon="6.39578">
        <ele>583</ele>
        <time>2012-04-26T12:06:51Z</time>
      </trkpt>
      <trkpt lat="46.09094" lon="6.39566">
        <ele>591</ele>
        <time>2012-04-26T12:06:53Z</time>
      </trkpt>
      <trkpt lat="46.09103" lon="6.3955">
        <ele>591</ele>
        <time>2012-04-26T12:06:55Z</time>
      </trkpt>
      <trkpt lat="46.09109" lon="6.39537">
        <ele>598</ele>
        <time>2012-04-26T12:06:58Z</time>
      </trkpt>
      <trkpt lat="46.09103" lon="6.39548">
        <ele>598</ele>
        <time>2012-04-26T12:07:08Z</time>
      </trkpt>
      <trkpt lat="46.09091" lon="6.39571">
        <ele>598</ele>
        <time>2012-04-26T12:07:15Z</time>
      </trkpt>
      <trkpt lat="46.09084" lon="6.39581">
        <ele>598</ele>
        <time>2012-04-26T12:07:16Z</time>
      </trkpt>
      <trkpt lat="46.09076" lon="6.39595">
        <ele>598</ele>
        <time>2012-04-26T12:07:18Z</time>
      </trkpt>
      <trkpt lat="46.09067" lon="6.39603">
        <ele>590</ele>
        <time>2012-04-26T12:07:21Z</time>
      </trkpt>
      <trkpt lat="46.09061" lon="6.39616">
        <ele>582</ele>
        <time>2012-04-26T12:07:25Z</time>
      </trkpt>
      <trkpt lat="46.09053" lon="6.39626">
        <ele>573</ele>
        <time>2012-04-26T12:07:32Z</time>
      </trkpt>
      <trkpt lat="46.09047" lon="6.39637">
        <ele>573</ele>
        <time>2012-04-26T12:07:35Z</time>
      </trkpt>
      <trkpt lat="46.09039" lon="6.39663">
        <ele>564</ele>
        <time>2012-04-26T12:07:40Z</time>
      </trkpt>
      <trkpt lat="46.09037" lon="6.39677">
        <ele>570</ele>
        <time>2012-04-26T12:07:43Z</time>
      </trkpt>
      <trkpt lat="46.09027" lon="6.39684">
        <ele>562</ele>
        <time>2012-04-26T12:07:47Z</time>
      </trkpt>
      <trkpt lat="46.09018" lon="6.39695">
        <ele>555</ele>
        <time>2012-04-26T12:07:50Z</time>
      </trkpt>
      <trkpt lat="46.09007" lon="6.39692">
        <ele>549</ele>
        <time>2012-04-26T12:07:54Z</time>
      </trkpt>
      <trkpt lat="46.09001" lon="6.39681">
        <ele>549</ele>
        <time>2012-04-26T12:07:56Z</time>
      </trkpt>
      <trkpt lat="46.08994" lon="6.39663">
        <ele>542</ele>
        <time>2012-04-26T12:07:58Z</time>
      </trkpt>
      <trkpt lat="46.08986" lon="6.39644">
        <ele>535</ele>
        <time>2012-04-26T12:08:00Z</time>
      </trkpt>
      <trkpt lat="46.08976" lon="6.39627">
        <ele>535</ele>
        <time>2012-04-26T12:08:02Z</time>
      </trkpt>
      <trkpt lat="46.08964" lon="6.39618">
        <ele>535</ele>
        <time>2012-04-26T12:08:04Z</time>
      </trkpt>
      <trkpt lat="46.08952" lon="6.39625">
        <ele>528</ele>
        <time>2012-04-26T12:08:07Z</time>
      </trkpt>
      <trkpt lat="46.08942" lon="6.39632">
        <ele>528</ele>
        <time>2012-04-26T12:08:09Z</time>
      </trkpt>
      <trkpt lat="46.08927" lon="6.39638">
        <ele>528</ele>
        <time>2012-04-26T12:08:11Z</time>
      </trkpt>
      <trkpt lat="46.08914" lon="6.39633">
        <ele>528</ele>
        <time>2012-04-26T12:08:13Z</time>
      </trkpt>
      <trkpt lat="46.08903" lon="6.39621">
        <ele>528</ele>
        <time>2012-04-26T12:08:15Z</time>
      </trkpt>
      <trkpt lat="46.08892" lon="6.39618">
        <ele>523</ele>
        <time>2012-04-26T12:08:17Z</time>
      </trkpt>
      <trkpt lat="46.08883" lon="6.39613">
        <ele>523</ele>
        <time>2012-04-26T12:08:19Z</time>
      </trkpt>
      <trkpt lat="46.08874" lon="6.396">
        <ele>523</ele>
        <time>2012-04-26T12:08:22Z</time>
      </trkpt>
      <trkpt lat="46.08873" lon="6.39581">
        <ele>523</ele>
        <time>2012-04-26T12:08:25Z</time>
      </trkpt>
      <trkpt lat="46.08868" lon="6.39568">
        <ele>514</ele>
        <time>2012-04-26T12:08:30Z</time>
      </trkpt>
      <trkpt lat="46.08867" lon="6.39554">
        <ele>509</ele>
        <time>2012-04-26T12:08:34Z</time>
      </trkpt>
      <trkpt lat="46.08859" lon="6.39546">
        <ele>509</ele>
        <time>2012-04-26T12:08:39Z</time>
      </trkpt>
      <trkpt lat="46.0885" lon="6.39557">
        <ele>509</ele>
        <time>2012-04-26T12:08:43Z</time>
      </trkpt>
      <trkpt lat="46.08841" lon="6.39556">
        <ele>515</ele>
        <time>2012-04-26T12:08:45Z</time>
      </trkpt>
      <trkpt lat="46.08847" lon="6.39538">
        <ele>508</ele>
        <time>2012-04-26T12:08:48Z</time>
      </trkpt>
      <trkpt lat="46.08853" lon="6.39524">
        <ele>508</ele>
        <time>2012-04-26T12:08:50Z</time>
      </trkpt>
      <trkpt lat="46.08854" lon="6.39511">
        <ele>498</ele>
        <time>2012-04-26T12:08:52Z</time>
      </trkpt>
      <trkpt lat="46.0885" lon="6.39497">
        <ele>498</ele>
        <time>2012-04-26T12:08:54Z</time>
      </trkpt>
      <trkpt lat="46.08842" lon="6.39487">
        <ele>498</ele>
        <time>2012-04-26T12:08:56Z</time>
      </trkpt>
      <trkpt lat="46.08834" lon="6.39477">
        <ele>491</ele>
        <time>2012-04-26T12:08:58Z</time>
      </trkpt>
      <trkpt lat="46.08826" lon="6.39468">
        <ele>491</ele>
        <time>2012-04-26T12:09:00Z</time>
      </trkpt>
      <trkpt lat="46.08818" lon="6.3946">
        <ele>491</ele>
        <time>2012-04-26T12:09:02Z</time>
      </trkpt>
      <trkpt lat="46.08807" lon="6.39454">
        <ele>486</ele>
        <time>2012-04-26T12:09:04Z</time>
      </trkpt>
      <trkpt lat="46.08797" lon="6.39449">
        <ele>480</ele>
        <time>2012-04-26T12:09:06Z</time>
      </trkpt>
      <trkpt lat="46.08784" lon="6.39444">
        <ele>480</ele>
        <time>2012-04-26T12:09:08Z</time>
      </trkpt>
      <trkpt lat="46.08771" lon="6.39444">
        <ele>474</ele>
        <time>2012-04-26T12:09:10Z</time>
      </trkpt>
      <trkpt lat="46.0876" lon="6.3945">
        <ele>474</ele>
        <time>2012-04-26T12:09:12Z</time>
      </trkpt>
      <trkpt lat="46.0875" lon="6.39459">
        <ele>474</ele>
        <time>2012-04-26T12:09:14Z</time>
      </trkpt>
      <trkpt lat="46.08743" lon="6.39469">
        <ele>468</ele>
        <time>2012-04-26T12:09:16Z</time>
      </trkpt>
      <trkpt lat="46.08733" lon="6.39483">
        <ele>468</ele>
        <time>2012-04-26T12:09:19Z</time>
      </trkpt>
      <trkpt lat="46.08724" lon="6.39495">
        <ele>463</ele>
        <time>2012-04-26T12:09:21Z</time>
      </trkpt>
      <trkpt lat="46.08714" lon="6.39509">
        <ele>463</ele>
        <time>2012-04-26T12:09:23Z</time>
      </trkpt>
      <trkpt lat="46.08702" lon="6.39522">
        <ele>456</ele>
        <time>2012-04-26T12:09:25Z</time>
      </trkpt>
      <trkpt lat="46.08689" lon="6.39533">
        <ele>456</ele>
        <time>2012-04-26T12:09:27Z</time>
      </trkpt>
      <trkpt lat="46.08678" lon="6.39544">
        <ele>456</ele>
        <time>2012-04-26T12:09:29Z</time>
      </trkpt>
      <trkpt lat="46.08669" lon="6.3955">
        <ele>448</ele>
        <time>2012-04-26T12:09:31Z</time>
      </trkpt>
      <trkpt lat="46.08662" lon="6.39565">
        <ele>448</ele>
        <time>2012-04-26T12:09:38Z</time>
      </trkpt>
      <trkpt lat="46.08665" lon="6.39584">
        <ele>448</ele>
        <time>2012-04-26T12:09:40Z</time>
      </trkpt>
      <trkpt lat="46.08667" lon="6.39601">
        <ele>448</ele>
        <time>2012-04-26T12:09:41Z</time>
      </trkpt>
      <trkpt lat="46.08669" lon="6.39618">
        <ele>448</ele>
        <time>2012-04-26T12:09:42Z</time>
      </trkpt>
      <trkpt lat="46.08671" lon="6.39636">
        <ele>448</ele>
        <time>2012-04-26T12:09:43Z</time>
      </trkpt>
      <trkpt lat="46.08674" lon="6.39656">
        <ele>448</ele>
        <time>2012-04-26T12:09:44Z</time>
      </trkpt>
      <trkpt lat="46.08677" lon="6.39676">
        <ele>448</ele>
        <time>2012-04-26T12:09:45Z</time>
      </trkpt>
      <trkpt lat="46.08679" lon="6.39697">
        <ele>448</ele>
        <time>2012-04-26T12:09:46Z</time>
      </trkpt>
      <trkpt lat="46.08681" lon="6.39719">
        <ele>442</ele>
        <time>2012-04-26T12:09:47Z</time>
      </trkpt>
      <trkpt lat="46.08682" lon="6.39742">
        <ele>442</ele>
        <time>2012-04-26T12:09:48Z</time>
      </trkpt>
      <trkpt lat="46.08684" lon="6.39764">
        <ele>442</ele>
        <time>2012-04-26T12:09:49Z</time>
      </trkpt>
      <trkpt lat="46.08683" lon="6.39786">
        <ele>442</ele>
        <time>2012-04-26T12:09:50Z</time>
      </trkpt>
      <trkpt lat="46.08683" lon="6.39807">
        <ele>442</ele>
        <time>2012-04-26T12:09:51Z</time>
      </trkpt>
      <trkpt lat="46.08682" lon="6.39827">
        <ele>442</ele>
        <time>2012-04-26T12:09:52Z</time>
      </trkpt>
      <trkpt lat="46.08681" lon="6.39848">
        <ele>442</ele>
        <time>2012-04-26T12:09:53Z</time>
      </trkpt>
      <trkpt lat="46.08681" lon="6.39868">
        <ele>442</ele>
        <time>2012-04-26T12:09:54Z</time>
      </trkpt>
      <trkpt lat="46.08679" lon="6.39889">
        <ele>442</ele>
        <time>2012-04-26T12:09:55Z</time>
      </trkpt>
      <trkpt lat="46.08675" lon="6.3991">
        <ele>442</ele>
        <time>2012-04-26T12:09:56Z</time>
      </trkpt>
      <trkpt lat="46.08671" lon="6.3993">
        <ele>442</ele>
        <time>2012-04-26T12:09:57Z</time>
      </trkpt>
      <trkpt lat="46.08665" lon="6.3995">
        <ele>442</ele>
        <time>2012-04-26T12:09:58Z</time>
      </trkpt>
      <trkpt lat="46.08659" lon="6.39967">
        <ele>442</ele>
        <time>2012-04-26T12:09:59Z</time>
      </trkpt>
      <trkpt lat="46.08652" lon="6.39983">
        <ele>442</ele>
        <time>2012-04-26T12:10:00Z</time>
      </trkpt>
      <trkpt lat="46.08643" lon="6.39999">
        <ele>442</ele>
        <time>2012-04-26T12:10:01Z</time>
      </trkpt>
      <trkpt lat="46.08633" lon="6.40015">
        <ele>442</ele>
        <time>2012-04-26T12:10:02Z</time>
      </trkpt>
      <trkpt lat="46.08622" lon="6.40028">
        <ele>442</ele>
        <time>2012-04-26T12:10:03Z</time>
      </trkpt>
      <trkpt lat="46.08611" lon="6.40042">
        <ele>437</ele>
        <time>2012-04-26T12:10:04Z</time>
      </trkpt>
      <trkpt lat="46.08599" lon="6.40055">
        <ele>437</ele>
        <time>2012-04-26T12:10:05Z</time>
      </trkpt>
      <trkpt lat="46.08587" lon="6.40066">
        <ele>437</ele>
        <time>2012-04-26T12:10:06Z</time>
      </trkpt>
      <trkpt lat="46.08576" lon="6.40077">
        <ele>437</ele>
        <time>2012-04-26T12:10:07Z</time>
      </trkpt>
      <trkpt lat="46.08565" lon="6.40086">
        <ele>437</ele>
        <time>2012-04-26T12:10:08Z</time>
      </trkpt>
      <trkpt lat="46.08552" lon="6.40096">
        <ele>437</ele>
        <time>2012-04-26T12:10:09Z</time>
      </trkpt>
      <trkpt lat="46.0854" lon="6.40106">
        <ele>437</ele>
        <time>2012-04-26T12:10:10Z</time>
      </trkpt>
      <trkpt lat="46.08529" lon="6.40116">
        <ele>437</ele>
        <time>2012-04-26T12:10:11Z</time>
      </trkpt>
      <trkpt lat="46.08519" lon="6.40125">
        <ele>437</ele>
        <time>2012-04-26T12:10:12Z</time>
      </trkpt>
      <trkpt lat="46.08509" lon="6.40134">
        <ele>437</ele>
        <time>2012-04-26T12:10:13Z</time>
      </trkpt>
      <trkpt lat="46.08498" lon="6.40143">
        <ele>437</ele>
        <time>2012-04-26T12:10:14Z</time>
      </trkpt>
      <trkpt lat="46.08489" lon="6.4015">
        <ele>437</ele>
        <time>2012-04-26T12:10:15Z</time>
      </trkpt>
      <trkpt lat="46.0848" lon="6.40157">
        <ele>437</ele>
        <time>2012-04-26T12:10:16Z</time>
      </trkpt>
      <trkpt lat="46.08471" lon="6.40163">
        <ele>437</ele>
        <time>2012-04-26T12:10:17Z</time>
      </trkpt>
      <trkpt lat="46.08455" lon="6.40176">
        <ele>442</ele>
        <time>2012-04-26T12:10:19Z</time>
      </trkpt>
      <trkpt lat="46.08447" lon="6.40184">
        <ele>442</ele>
        <time>2012-04-26T12:10:20Z</time>
      </trkpt>
      <trkpt lat="46.08431" lon="6.40198">
        <ele>442</ele>
        <time>2012-04-26T12:10:22Z</time>
      </trkpt>
      <trkpt lat="46.08417" lon="6.4021">
        <ele>442</ele>
        <time>2012-04-26T12:10:24Z</time>
      </trkpt>
      <trkpt lat="46.08409" lon="6.40217">
        <ele>442</ele>
        <time>2012-04-26T12:10:25Z</time>
      </trkpt>
      <trkpt lat="46.08401" lon="6.40224">
        <ele>442</ele>
        <time>2012-04-26T12:10:26Z</time>
      </trkpt>
      <trkpt lat="46.08392" lon="6.40232">
        <ele>442</ele>
        <time>2012-04-26T12:10:27Z</time>
      </trkpt>
      <trkpt lat="46.08377" lon="6.40244">
        <ele>442</ele>
        <time>2012-04-26T12:10:29Z</time>
      </trkpt>
      <trkpt lat="46.08363" lon="6.40256">
        <ele>442</ele>
        <time>2012-04-26T12:10:31Z</time>
      </trkpt>
      <trkpt lat="46.08348" lon="6.4027">
        <ele>442</ele>
        <time>2012-04-26T12:10:33Z</time>
      </trkpt>
      <trkpt lat="46.08332" lon="6.40285">
        <ele>442</ele>
        <time>2012-04-26T12:10:35Z</time>
      </trkpt>
      <trkpt lat="46.08324" lon="6.40293">
        <ele>442</ele>
        <time>2012-04-26T12:10:36Z</time>
      </trkpt>
      <trkpt lat="46.0831" lon="6.40306">
        <ele>449</ele>
        <time>2012-04-26T12:10:38Z</time>
      </trkpt>
      <trkpt lat="46.08296" lon="6.40318">
        <ele>449</ele>
        <time>2012-04-26T12:10:40Z</time>
      </trkpt>
      <trkpt lat="46.08288" lon="6.40325">
        <ele>449</ele>
        <time>2012-04-26T12:10:41Z</time>
      </trkpt>
      <trkpt lat="46.08274" lon="6.40338">
        <ele>449</ele>
        <time>2012-04-26T12:10:43Z</time>
      </trkpt>
      <trkpt lat="46.0826" lon="6.4035">
        <ele>449</ele>
        <time>2012-04-26T12:10:45Z</time>
      </trkpt>
      <trkpt lat="46.08247" lon="6.40361">
        <ele>449</ele>
        <time>2012-04-26T12:10:47Z</time>
      </trkpt>
      <trkpt lat="46.08232" lon="6.40373">
        <ele>449</ele>
        <time>2012-04-26T12:10:49Z</time>
      </trkpt>
      <trkpt lat="46.08218" lon="6.40386">
        <ele>449</ele>
        <time>2012-04-26T12:10:51Z</time>
      </trkpt>
      <trkpt lat="46.08206" lon="6.40395">
        <ele>449</ele>
        <time>2012-04-26T12:10:53Z</time>
      </trkpt>
      <trkpt lat="46.08197" lon="6.404">
        <ele>449</ele>
        <time>2012-04-26T12:10:55Z</time>
      </trkpt>
      <trkpt lat="46.08188" lon="6.40392">
        <ele>449</ele>
        <time>2012-04-26T12:10:58Z</time>
      </trkpt>
      <trkpt lat="46.08178" lon="6.40376">
        <ele>449</ele>
        <time>2012-04-26T12:11:00Z</time>
      </trkpt>
      <trkpt lat="46.08167" lon="6.40358">
        <ele>449</ele>
        <time>2012-04-26T12:11:02Z</time>
      </trkpt>
      <trkpt lat="46.08154" lon="6.40342">
        <ele>449</ele>
        <time>2012-04-26T12:11:04Z</time>
      </trkpt>
      <trkpt lat="46.08142" lon="6.40325">
        <ele>449</ele>
        <time>2012-04-26T12:11:06Z</time>
      </trkpt>
      <trkpt lat="46.08135" lon="6.40316">
        <ele>449</ele>
        <time>2012-04-26T12:11:07Z</time>
      </trkpt>
      <trkpt lat="46.08128" lon="6.40305">
        <ele>449</ele>
        <time>2012-04-26T12:11:08Z</time>
      </trkpt>
      <trkpt lat="46.0812" lon="6.40295">
        <ele>449</ele>
        <time>2012-04-26T12:11:09Z</time>
      </trkpt>
      <trkpt lat="46.08113" lon="6.40285">
        <ele>449</ele>
        <time>2012-04-26T12:11:10Z</time>
      </trkpt>
      <trkpt lat="46.08105" lon="6.40276">
        <ele>449</ele>
        <time>2012-04-26T12:11:11Z</time>
      </trkpt>
      <trkpt lat="46.08092" lon="6.40262">
        <ele>449</ele>
        <time>2012-04-26T12:11:13Z</time>
      </trkpt>
      <trkpt lat="46.08079" lon="6.40249">
        <ele>449</ele>
        <time>2012-04-26T12:11:15Z</time>
      </trkpt>
      <trkpt lat="46.08065" lon="6.40236">
        <ele>449</ele>
        <time>2012-04-26T12:11:17Z</time>
      </trkpt>
      <trkpt lat="46.0805" lon="6.40224">
        <ele>449</ele>
        <time>2012-04-26T12:11:19Z</time>
      </trkpt>
      <trkpt lat="46.0804" lon="6.40213">
        <ele>449</ele>
        <time>2012-04-26T12:11:21Z</time>
      </trkpt>
      <trkpt lat="46.08032" lon="6.40203">
        <ele>449</ele>
        <time>2012-04-26T12:11:23Z</time>
      </trkpt>
      <trkpt lat="46.08026" lon="6.40193">
        <ele>449</ele>
        <time>2012-04-26T12:11:25Z</time>
      </trkpt>
      <trkpt lat="46.08019" lon="6.40184">
        <ele>449</ele>
        <time>2012-04-26T12:11:27Z</time>
      </trkpt>
      <trkpt lat="46.08007" lon="6.40182">
        <ele>449</ele>
        <time>2012-04-26T12:11:29Z</time>
      </trkpt>
      <trkpt lat="46.07993" lon="6.4018">
        <ele>449</ele>
        <time>2012-04-26T12:11:31Z</time>
      </trkpt>
      <trkpt lat="46.07976" lon="6.40179">
        <ele>449</ele>
        <time>2012-04-26T12:11:33Z</time>
      </trkpt>
      <trkpt lat="46.07959" lon="6.40179">
        <ele>449</ele>
        <time>2012-04-26T12:11:35Z</time>
      </trkpt>
      <trkpt lat="46.07942" lon="6.4018">
        <ele>449</ele>
        <time>2012-04-26T12:11:37Z</time>
      </trkpt>
      <trkpt lat="46.07927" lon="6.40181">
        <ele>449</ele>
        <time>2012-04-26T12:11:39Z</time>
      </trkpt>
      <trkpt lat="46.07917" lon="6.40181">
        <ele>449</ele>
        <time>2012-04-26T12:11:41Z</time>
      </trkpt>
      <trkpt lat="46.0791" lon="6.4017">
        <ele>456</ele>
        <time>2012-04-26T12:12:25Z</time>
      </trkpt>
      <trkpt lat="46.0791" lon="6.40152">
        <ele>456</ele>
        <time>2012-04-26T12:12:27Z</time>
      </trkpt>
      <trkpt lat="46.07915" lon="6.40123">
        <ele>456</ele>
        <time>2012-04-26T12:12:29Z</time>
      </trkpt>
      <trkpt lat="46.07917" lon="6.40106">
        <ele>450</ele>
        <time>2012-04-26T12:12:30Z</time>
      </trkpt>
      <trkpt lat="46.0792" lon="6.40089">
        <ele>450</ele>
        <time>2012-04-26T12:12:31Z</time>
      </trkpt>
      <trkpt lat="46.07924" lon="6.40071">
        <ele>450</ele>
        <time>2012-04-26T12:12:32Z</time>
      </trkpt>
      <trkpt lat="46.07926" lon="6.40055">
        <ele>450</ele>
        <time>2012-04-26T12:12:33Z</time>
      </trkpt>
      <trkpt lat="46.07928" lon="6.4004">
        <ele>444</ele>
        <time>2012-04-26T12:12:34Z</time>
      </trkpt>
      <trkpt lat="46.07929" lon="6.40026">
        <ele>444</ele>
        <time>2012-04-26T12:12:35Z</time>
      </trkpt>
      <trkpt lat="46.07931" lon="6.40002">
        <ele>444</ele>
        <time>2012-04-26T12:12:37Z</time>
      </trkpt>
      <trkpt lat="46.07932" lon="6.39985">
        <ele>444</ele>
        <time>2012-04-26T12:12:39Z</time>
      </trkpt>
      <trkpt lat="46.07929" lon="6.39971">
        <ele>444</ele>
        <time>2012-04-26T12:12:42Z</time>
      </trkpt>
      <trkpt lat="46.07918" lon="6.39976">
        <ele>444</ele>
        <time>2012-04-26T12:12:47Z</time>
      </trkpt>
      <trkpt lat="46.079" lon="6.39981">
        <ele>444</ele>
        <time>2012-04-26T12:12:49Z</time>
      </trkpt>
      <trkpt lat="46.07882" lon="6.3998">
        <ele>444</ele>
        <time>2012-04-26T12:12:51Z</time>
      </trkpt>
      <trkpt lat="46.07872" lon="6.39978">
        <ele>444</ele>
        <time>2012-04-26T12:12:52Z</time>
      </trkpt>
      <trkpt lat="46.07862" lon="6.39975">
        <ele>444</ele>
        <time>2012-04-26T12:12:53Z</time>
      </trkpt>
      <trkpt lat="46.07852" lon="6.39972">
        <ele>444</ele>
        <time>2012-04-26T12:12:54Z</time>
      </trkpt>
      <trkpt lat="46.07841" lon="6.3997">
        <ele>444</ele>
        <time>2012-04-26T12:12:55Z</time>
      </trkpt>
      <trkpt lat="46.0783" lon="6.39967">
        <ele>444</ele>
        <time>2012-04-26T12:12:56Z</time>
      </trkpt>
      <trkpt lat="46.07817" lon="6.39966">
        <ele>450</ele>
        <time>2012-04-26T12:12:57Z</time>
      </trkpt>
      <trkpt lat="46.07805" lon="6.39963">
        <ele>450</ele>
        <time>2012-04-26T12:12:58Z</time>
      </trkpt>
      <trkpt lat="46.07795" lon="6.39959">
        <ele>450</ele>
        <time>2012-04-26T12:12:59Z</time>
      </trkpt>
      <trkpt lat="46.07784" lon="6.39954">
        <ele>450</ele>
        <time>2012-04-26T12:13:00Z</time>
      </trkpt>
      <trkpt lat="46.07773" lon="6.3995">
        <ele>450</ele>
        <time>2012-04-26T12:13:01Z</time>
      </trkpt>
      <trkpt lat="46.07762" lon="6.39945">
        <ele>450</ele>
        <time>2012-04-26T12:13:02Z</time>
      </trkpt>
      <trkpt lat="46.07751" lon="6.39938">
        <ele>450</ele>
        <time>2012-04-26T12:13:03Z</time>
      </trkpt>
      <trkpt lat="46.0774" lon="6.39933">
        <ele>450</ele>
        <time>2012-04-26T12:13:04Z</time>
      </trkpt>
      <trkpt lat="46.0773" lon="6.39928">
        <ele>450</ele>
        <time>2012-04-26T12:13:05Z</time>
      </trkpt>
      <trkpt lat="46.0772" lon="6.39922">
        <ele>450</ele>
        <time>2012-04-26T12:13:06Z</time>
      </trkpt>
      <trkpt lat="46.07711" lon="6.39915">
        <ele>450</ele>
        <time>2012-04-26T12:13:07Z</time>
      </trkpt>
      <trkpt lat="46.077" lon="6.39909">
        <ele>450</ele>
        <time>2012-04-26T12:13:08Z</time>
      </trkpt>
      <trkpt lat="46.0769" lon="6.39901">
        <ele>450</ele>
        <time>2012-04-26T12:13:09Z</time>
      </trkpt>
      <trkpt lat="46.07678" lon="6.39893">
        <ele>450</ele>
        <time>2012-04-26T12:13:10Z</time>
      </trkpt>
      <trkpt lat="46.07668" lon="6.39885">
        <ele>450</ele>
        <time>2012-04-26T12:13:11Z</time>
      </trkpt>
      <trkpt lat="46.07658" lon="6.39877">
        <ele>450</ele>
        <time>2012-04-26T12:13:12Z</time>
      </trkpt>
      <trkpt lat="46.07648" lon="6.39868">
        <ele>450</ele>
        <time>2012-04-26T12:13:13Z</time>
      </trkpt>
      <trkpt lat="46.07637" lon="6.39859">
        <ele>450</ele>
        <time>2012-04-26T12:13:14Z</time>
      </trkpt>
      <trkpt lat="46.07627" lon="6.3985">
        <ele>450</ele>
        <time>2012-04-26T12:13:15Z</time>
      </trkpt>
      <trkpt lat="46.07617" lon="6.39841">
        <ele>450</ele>
        <time>2012-04-26T12:13:16Z</time>
      </trkpt>
      <trkpt lat="46.07608" lon="6.39832">
        <ele>450</ele>
        <time>2012-04-26T12:13:17Z</time>
      </trkpt>
      <trkpt lat="46.07599" lon="6.39823">
        <ele>450</ele>
        <time>2012-04-26T12:13:18Z</time>
      </trkpt>
      <trkpt lat="46.0759" lon="6.39813">
        <ele>450</ele>
        <time>2012-04-26T12:13:19Z</time>
      </trkpt>
      <trkpt lat="46.0758" lon="6.39803">
        <ele>450</ele>
        <time>2012-04-26T12:13:20Z</time>
      </trkpt>
      <trkpt lat="46.0757" lon="6.39793">
        <ele>450</ele>
        <time>2012-04-26T12:13:21Z</time>
      </trkpt>
      <trkpt lat="46.07561" lon="6.39785">
        <ele>450</ele>
        <time>2012-04-26T12:13:22Z</time>
      </trkpt>
      <trkpt lat="46.07552" lon="6.39777">
        <ele>450</ele>
        <time>2012-04-26T12:13:23Z</time>
      </trkpt>
      <trkpt lat="46.07543" lon="6.39768">
        <ele>450</ele>
        <time>2012-04-26T12:13:24Z</time>
      </trkpt>
      <trkpt lat="46.07534" lon="6.39759">
        <ele>450</ele>
        <time>2012-04-26T12:13:25Z</time>
      </trkpt>
      <trkpt lat="46.07522" lon="6.39748">
        <ele>450</ele>
        <time>2012-04-26T12:13:27Z</time>
      </trkpt>
      <trkpt lat="46.07525" lon="6.39734">
        <ele>450</ele>
        <time>2012-04-26T12:13:31Z</time>
      </trkpt>
      <trkpt lat="46.07518" lon="6.3972">
        <ele>450</ele>
        <time>2012-04-26T12:13:35Z</time>
      </trkpt>
      <trkpt lat="46.07506" lon="6.39711">
        <ele>450</ele>
        <time>2012-04-26T12:13:37Z</time>
      </trkpt>
      <trkpt lat="46.07496" lon="6.39703">
        <ele>450</ele>
        <time>2012-04-26T12:13:39Z</time>
      </trkpt>
      <trkpt lat="46.07487" lon="6.39698">
        <ele>450</ele>
        <time>2012-04-26T12:13:41Z</time>
      </trkpt>
      <trkpt lat="46.07475" lon="6.39689">
        <ele>450</ele>
        <time>2012-04-26T12:13:45Z</time>
      </trkpt>
      <trkpt lat="46.07465" lon="6.39678">
        <ele>450</ele>
        <time>2012-04-26T12:13:47Z</time>
      </trkpt>
      <trkpt lat="46.0745" lon="6.39663">
        <ele>450</ele>
        <time>2012-04-26T12:13:49Z</time>
      </trkpt>
      <trkpt lat="46.07442" lon="6.39656">
        <ele>450</ele>
        <time>2012-04-26T12:13:50Z</time>
      </trkpt>
      <trkpt lat="46.07425" lon="6.39641">
        <ele>450</ele>
        <time>2012-04-26T12:13:52Z</time>
      </trkpt>
      <trkpt lat="46.07417" lon="6.39633">
        <ele>450</ele>
        <time>2012-04-26T12:13:53Z</time>
      </trkpt>
      <trkpt lat="46.07408" lon="6.39625">
        <ele>450</ele>
        <time>2012-04-26T12:13:54Z</time>
      </trkpt>
      <trkpt lat="46.07398" lon="6.39618">
        <ele>450</ele>
        <time>2012-04-26T12:13:55Z</time>
      </trkpt>
      <trkpt lat="46.07388" lon="6.3961">
        <ele>450</ele>
        <time>2012-04-26T12:13:56Z</time>
      </trkpt>
      <trkpt lat="46.07379" lon="6.39602">
        <ele>450</ele>
        <time>2012-04-26T12:13:57Z</time>
      </trkpt>
      <trkpt lat="46.0737" lon="6.39595">
        <ele>450</ele>
        <time>2012-04-26T12:13:58Z</time>
      </trkpt>
      <trkpt lat="46.0736" lon="6.39587">
        <ele>450</ele>
        <time>2012-04-26T12:13:59Z</time>
      </trkpt>
      <trkpt lat="46.07352" lon="6.3958">
        <ele>450</ele>
        <time>2012-04-26T12:14:00Z</time>
      </trkpt>
      <trkpt lat="46.07342" lon="6.39572">
        <ele>450</ele>
        <time>2012-04-26T12:14:01Z</time>
      </trkpt>
      <trkpt lat="46.07334" lon="6.39564">
        <ele>450</ele>
        <time>2012-04-26T12:14:02Z</time>
      </trkpt>
      <trkpt lat="46.07321" lon="6.39551">
        <ele>450</ele>
        <time>2012-04-26T12:14:04Z</time>
      </trkpt>
      <trkpt lat="46.07313" lon="6.39543">
        <ele>450</ele>
        <time>2012-04-26T12:14:06Z</time>
      </trkpt>
      <trkpt lat="46.07298" lon="6.3953">
        <ele>450</ele>
        <time>2012-04-26T12:14:09Z</time>
      </trkpt>
      <trkpt lat="46.0729" lon="6.39521">
        <ele>450</ele>
        <time>2012-04-26T12:14:10Z</time>
      </trkpt>
      <trkpt lat="46.07281" lon="6.39512">
        <ele>450</ele>
        <time>2012-04-26T12:14:11Z</time>
      </trkpt>
      <trkpt lat="46.07271" lon="6.39502">
        <ele>450</ele>
        <time>2012-04-26T12:14:12Z</time>
      </trkpt>
      <trkpt lat="46.0726" lon="6.39491">
        <ele>450</ele>
        <time>2012-04-26T12:14:13Z</time>
      </trkpt>
      <trkpt lat="46.07248" lon="6.3948">
        <ele>450</ele>
        <time>2012-04-26T12:14:14Z</time>
      </trkpt>
      <trkpt lat="46.07236" lon="6.39468">
        <ele>450</ele>
        <time>2012-04-26T12:14:15Z</time>
      </trkpt>
      <trkpt lat="46.07223" lon="6.39455">
        <ele>450</ele>
        <time>2012-04-26T12:14:16Z</time>
      </trkpt>
      <trkpt lat="46.0721" lon="6.39442">
        <ele>450</ele>
        <time>2012-04-26T12:14:17Z</time>
      </trkpt>
      <trkpt lat="46.07197" lon="6.39429">
        <ele>450</ele>
        <time>2012-04-26T12:14:18Z</time>
      </trkpt>
      <trkpt lat="46.07183" lon="6.39416">
        <ele>450</ele>
        <time>2012-04-26T12:14:19Z</time>
      </trkpt>
      <trkpt lat="46.07168" lon="6.39401">
        <ele>455</ele>
        <time>2012-04-26T12:14:20Z</time>
      </trkpt>
      <trkpt lat="46.07155" lon="6.39387">
        <ele>455</ele>
        <time>2012-04-26T12:14:21Z</time>
      </trkpt>
      <trkpt lat="46.07141" lon="6.39372">
        <ele>455</ele>
        <time>2012-04-26T12:14:22Z</time>
      </trkpt>
      <trkpt lat="46.07128" lon="6.3936">
        <ele>455</ele>
        <time>2012-04-26T12:14:23Z</time>
      </trkpt>
      <trkpt lat="46.07115" lon="6.39346">
        <ele>455</ele>
        <time>2012-04-26T12:14:24Z</time>
      </trkpt>
      <trkpt lat="46.07101" lon="6.39334">
        <ele>455</ele>
        <time>2012-04-26T12:14:25Z</time>
      </trkpt>
      <trkpt lat="46.07086" lon="6.3932">
        <ele>455</ele>
        <time>2012-04-26T12:14:26Z</time>
      </trkpt>
      <trkpt lat="46.07073" lon="6.39307">
        <ele>455</ele>
        <time>2012-04-26T12:14:27Z</time>
      </trkpt>
      <trkpt lat="46.07058" lon="6.39293">
        <ele>455</ele>
        <time>2012-04-26T12:14:28Z</time>
      </trkpt>
      <trkpt lat="46.07044" lon="6.39279">
        <ele>455</ele>
        <time>2012-04-26T12:14:29Z</time>
      </trkpt>
      <trkpt lat="46.0703" lon="6.39265">
        <ele>455</ele>
        <time>2012-04-26T12:14:30Z</time>
      </trkpt>
      <trkpt lat="46.07016" lon="6.39252">
        <ele>455</ele>
        <time>2012-04-26T12:14:31Z</time>
      </trkpt>
      <trkpt lat="46.07002" lon="6.39238">
        <ele>455</ele>
        <time>2012-04-26T12:14:32Z</time>
      </trkpt>
      <trkpt lat="46.06988" lon="6.39223">
        <ele>455</ele>
        <time>2012-04-26T12:14:33Z</time>
      </trkpt>
      <trkpt lat="46.06973" lon="6.3921">
        <ele>455</ele>
        <time>2012-04-26T12:14:34Z</time>
      </trkpt>
      <trkpt lat="46.0696" lon="6.39196">
        <ele>460</ele>
        <time>2012-04-26T12:14:35Z</time>
      </trkpt>
      <trkpt lat="46.06947" lon="6.39184">
        <ele>460</ele>
        <time>2012-04-26T12:14:36Z</time>
      </trkpt>
      <trkpt lat="46.06934" lon="6.39171">
        <ele>460</ele>
        <time>2012-04-26T12:14:37Z</time>
      </trkpt>
      <trkpt lat="46.06921" lon="6.39159">
        <ele>460</ele>
        <time>2012-04-26T12:14:38Z</time>
      </trkpt>
      <trkpt lat="46.06908" lon="6.39145">
        <ele>460</ele>
        <time>2012-04-26T12:14:39Z</time>
      </trkpt>
      <trkpt lat="46.06894" lon="6.39132">
        <ele>460</ele>
        <time>2012-04-26T12:14:40Z</time>
      </trkpt>
      <trkpt lat="46.0688" lon="6.39116">
        <ele>460</ele>
        <time>2012-04-26T12:14:41Z</time>
      </trkpt>
      <trkpt lat="46.06866" lon="6.39102">
        <ele>460</ele>
        <time>2012-04-26T12:14:42Z</time>
      </trkpt>
      <trkpt lat="46.06851" lon="6.39088">
        <ele>460</ele>
        <time>2012-04-26T12:14:43Z</time>
      </trkpt>
      <trkpt lat="46.06837" lon="6.39074">
        <ele>460</ele>
        <time>2012-04-26T12:14:44Z</time>
      </trkpt>
      <trkpt lat="46.06821" lon="6.39062">
        <ele>460</ele>
        <time>2012-04-26T12:14:45Z</time>
      </trkpt>
      <trkpt lat="46.06804" lon="6.39047">
        <ele>460</ele>
        <time>2012-04-26T12:14:46Z</time>
      </trkpt>
      <trkpt lat="46.06789" lon="6.39032">
        <ele>460</ele>
        <time>2012-04-26T12:14:47Z</time>
      </trkpt>
      <trkpt lat="46.06775" lon="6.39018">
        <ele>460</ele>
        <time>2012-04-26T12:14:48Z</time>
      </trkpt>
      <trkpt lat="46.06761" lon="6.39002">
        <ele>460</ele>
        <time>2012-04-26T12:14:49Z</time>
      </trkpt>
      <trkpt lat="46.06746" lon="6.38989">
        <ele>460</ele>
        <time>2012-04-26T12:14:50Z</time>
      </trkpt>
      <trkpt lat="46.06733" lon="6.38974">
        <ele>460</ele>
        <time>2012-04-26T12:14:51Z</time>
      </trkpt>
      <trkpt lat="46.06718" lon="6.38963">
        <ele>460</ele>
        <time>2012-04-26T12:14:52Z</time>
      </trkpt>
      <trkpt lat="46.06703" lon="6.3895">
        <ele>460</ele>
        <time>2012-04-26T12:14:53Z</time>
      </trkpt>
      <trkpt lat="46.06689" lon="6.38936">
        <ele>460</ele>
        <time>2012-04-26T12:14:54Z</time>
      </trkpt>
      <trkpt lat="46.06675" lon="6.38922">
        <ele>460</ele>
        <time>2012-04-26T12:14:55Z</time>
      </trkpt>
      <trkpt lat="46.0666" lon="6.38907">
        <ele>460</ele>
        <time>2012-04-26T12:14:56Z</time>
      </trkpt>
      <trkpt lat="46.06646" lon="6.38893">
        <ele>460</ele>
        <time>2012-04-26T12:14:57Z</time>
      </trkpt>
      <trkpt lat="46.06631" lon="6.38877">
        <ele>460</ele>
        <time>2012-04-26T12:14:58Z</time>
      </trkpt>
      <trkpt lat="46.06617" lon="6.38864">
        <ele>460</ele>
        <time>2012-04-26T12:14:59Z</time>
      </trkpt>
      <trkpt lat="46.06602" lon="6.3885">
        <ele>460</ele>
        <time>2012-04-26T12:15:00Z</time>
      </trkpt>
      <trkpt lat="46.06588" lon="6.38836">
        <ele>460</ele>
        <time>2012-04-26T12:15:01Z</time>
      </trkpt>
      <trkpt lat="46.06574" lon="6.38822">
        <ele>460</ele>
        <time>2012-04-26T12:15:02Z</time>
      </trkpt>
      <trkpt lat="46.06559" lon="6.38807">
        <ele>460</ele>
        <time>2012-04-26T12:15:03Z</time>
      </trkpt>
      <trkpt lat="46.06544" lon="6.38793">
        <ele>460</ele>
        <time>2012-04-26T12:15:04Z</time>
      </trkpt>
      <trkpt lat="46.06529" lon="6.38779">
        <ele>460</ele>
        <time>2012-04-26T12:15:05Z</time>
      </trkpt>
      <trkpt lat="46.06514" lon="6.38763">
        <ele>460</ele>
        <time>2012-04-26T12:15:06Z</time>
      </trkpt>
      <trkpt lat="46.06499" lon="6.38748">
        <ele>460</ele>
        <time>2012-04-26T12:15:07Z</time>
      </trkpt>
      <trkpt lat="46.06482" lon="6.38732">
        <ele>460</ele>
        <time>2012-04-26T12:15:08Z</time>
      </trkpt>
      <trkpt lat="46.06462" lon="6.38713">
        <ele>460</ele>
        <time>2012-04-26T12:15:09Z</time>
      </trkpt>
      <trkpt lat="46.06442" lon="6.38693">
        <ele>460</ele>
        <time>2012-04-26T12:15:10Z</time>
      </trkpt>
      <trkpt lat="46.06422" lon="6.38673">
        <ele>460</ele>
        <time>2012-04-26T12:15:11Z</time>
      </trkpt>
      <trkpt lat="46.06404" lon="6.38655">
        <ele>460</ele>
        <time>2012-04-26T12:15:12Z</time>
      </trkpt>
      <trkpt lat="46.06385" lon="6.38637">
        <ele>460</ele>
        <time>2012-04-26T12:15:13Z</time>
      </trkpt>
      <trkpt lat="46.06365" lon="6.38617">
        <ele>460</ele>
        <time>2012-04-26T12:15:14Z</time>
      </trkpt>
      <trkpt lat="46.06345" lon="6.38598">
        <ele>460</ele>
        <time>2012-04-26T12:15:15Z</time>
      </trkpt>
      <trkpt lat="46.06327" lon="6.3858">
        <ele>460</ele>
        <time>2012-04-26T12:15:16Z</time>
      </trkpt>
      <trkpt lat="46.06311" lon="6.38563">
        <ele>467</ele>
        <time>2012-04-26T12:15:17Z</time>
      </trkpt>
      <trkpt lat="46.06295" lon="6.38548">
        <ele>467</ele>
        <time>2012-04-26T12:15:18Z</time>
      </trkpt>
      <trkpt lat="46.0628" lon="6.38532">
        <ele>467</ele>
        <time>2012-04-26T12:15:19Z</time>
      </trkpt>
      <trkpt lat="46.06265" lon="6.38518">
        <ele>467</ele>
        <time>2012-04-26T12:15:20Z</time>
      </trkpt>
      <trkpt lat="46.0625" lon="6.38503">
        <ele>467</ele>
        <time>2012-04-26T12:15:21Z</time>
      </trkpt>
      <trkpt lat="46.06235" lon="6.38488">
        <ele>467</ele>
        <time>2012-04-26T12:15:22Z</time>
      </trkpt>
      <trkpt lat="46.06221" lon="6.38473">
        <ele>467</ele>
        <time>2012-04-26T12:15:23Z</time>
      </trkpt>
      <trkpt lat="46.06207" lon="6.38459">
        <ele>467</ele>
        <time>2012-04-26T12:15:24Z</time>
      </trkpt>
      <trkpt lat="46.06195" lon="6.38447">
        <ele>467</ele>
        <time>2012-04-26T12:15:25Z</time>
      </trkpt>
      <trkpt lat="46.06184" lon="6.38436">
        <ele>467</ele>
        <time>2012-04-26T12:15:26Z</time>
      </trkpt>
      <trkpt lat="46.06173" lon="6.38426">
        <ele>467</ele>
        <time>2012-04-26T12:15:27Z</time>
      </trkpt>
      <trkpt lat="46.06165" lon="6.38415">
        <ele>467</ele>
        <time>2012-04-26T12:15:28Z</time>
      </trkpt>
      <trkpt lat="46.06159" lon="6.38401">
        <ele>467</ele>
        <time>2012-04-26T12:15:29Z</time>
      </trkpt>
      <trkpt lat="46.06155" lon="6.38385">
        <ele>467</ele>
        <time>2012-04-26T12:15:30Z</time>
      </trkpt>
      <trkpt lat="46.06154" lon="6.38366">
        <ele>467</ele>
        <time>2012-04-26T12:15:31Z</time>
      </trkpt>
      <trkpt lat="46.06155" lon="6.38345">
        <ele>467</ele>
        <time>2012-04-26T12:15:32Z</time>
      </trkpt>
      <trkpt lat="46.06155" lon="6.38321">
        <ele>467</ele>
        <time>2012-04-26T12:15:33Z</time>
      </trkpt>
      <trkpt lat="46.06154" lon="6.38298">
        <ele>467</ele>
        <time>2012-04-26T12:15:34Z</time>
      </trkpt>
      <trkpt lat="46.06154" lon="6.38275">
        <ele>467</ele>
        <time>2012-04-26T12:15:35Z</time>
      </trkpt>
      <trkpt lat="46.06153" lon="6.3825">
        <ele>467</ele>
        <time>2012-04-26T12:15:36Z</time>
      </trkpt>
      <trkpt lat="46.06152" lon="6.38226">
        <ele>467</ele>
        <time>2012-04-26T12:15:37Z</time>
      </trkpt>
      <trkpt lat="46.06151" lon="6.38203">
        <ele>467</ele>
        <time>2012-04-26T12:15:38Z</time>
      </trkpt>
      <trkpt lat="46.06149" lon="6.38178">
        <ele>467</ele>
        <time>2012-04-26T12:15:39Z</time>
      </trkpt>
      <trkpt lat="46.06148" lon="6.38153">
        <ele>467</ele>
        <time>2012-04-26T12:15:40Z</time>
      </trkpt>
      <trkpt lat="46.06145" lon="6.38127">
        <ele>467</ele>
        <time>2012-04-26T12:15:41Z</time>
      </trkpt>
      <trkpt lat="46.06143" lon="6.381">
        <ele>461</ele>
        <time>2012-04-26T12:15:42Z</time>
      </trkpt>
      <trkpt lat="46.06138" lon="6.38073">
        <ele>461</ele>
        <time>2012-04-26T12:15:43Z</time>
      </trkpt>
      <trkpt lat="46.06135" lon="6.38046">
        <ele>461</ele>
        <time>2012-04-26T12:15:44Z</time>
      </trkpt>
      <trkpt lat="46.06129" lon="6.3802">
        <ele>461</ele>
        <time>2012-04-26T12:15:45Z</time>
      </trkpt>
      <trkpt lat="46.06123" lon="6.37993">
        <ele>461</ele>
        <time>2012-04-26T12:15:46Z</time>
      </trkpt>
      <trkpt lat="46.06116" lon="6.37967">
        <ele>461</ele>
        <time>2012-04-26T12:15:47Z</time>
      </trkpt>
      <trkpt lat="46.06108" lon="6.3794">
        <ele>461</ele>
        <time>2012-04-26T12:15:48Z</time>
      </trkpt>
      <trkpt lat="46.06101" lon="6.37913">
        <ele>461</ele>
        <time>2012-04-26T12:15:49Z</time>
      </trkpt>
      <trkpt lat="46.06094" lon="6.37887">
        <ele>461</ele>
        <time>2012-04-26T12:15:50Z</time>
      </trkpt>
      <trkpt lat="46.06087" lon="6.37862">
        <ele>461</ele>
        <time>2012-04-26T12:15:51Z</time>
      </trkpt>
      <trkpt lat="46.0608" lon="6.37839">
        <ele>461</ele>
        <time>2012-04-26T12:15:52Z</time>
      </trkpt>
      <trkpt lat="46.06072" lon="6.37816">
        <ele>461</ele>
        <time>2012-04-26T12:15:53Z</time>
      </trkpt>
      <trkpt lat="46.06063" lon="6.37792">
        <ele>461</ele>
        <time>2012-04-26T12:15:54Z</time>
      </trkpt>
      <trkpt lat="46.06055" lon="6.3777">
        <ele>461</ele>
        <time>2012-04-26T12:15:55Z</time>
      </trkpt>
      <trkpt lat="46.06046" lon="6.37748">
        <ele>461</ele>
        <time>2012-04-26T12:15:56Z</time>
      </trkpt>
      <trkpt lat="46.06038" lon="6.37728">
        <ele>467</ele>
        <time>2012-04-26T12:15:57Z</time>
      </trkpt>
      <trkpt lat="46.0603" lon="6.3771">
        <ele>467</ele>
        <time>2012-04-26T12:15:58Z</time>
      </trkpt>
      <trkpt lat="46.06022" lon="6.37693">
        <ele>467</ele>
        <time>2012-04-26T12:15:59Z</time>
      </trkpt>
      <trkpt lat="46.06016" lon="6.37677">
        <ele>467</ele>
        <time>2012-04-26T12:16:00Z</time>
      </trkpt>
      <trkpt lat="46.0601" lon="6.37662">
        <ele>467</ele>
        <time>2012-04-26T12:16:01Z</time>
      </trkpt>
      <trkpt lat="46.06004" lon="6.37648">
        <ele>467</ele>
        <time>2012-04-26T12:16:02Z</time>
      </trkpt>
      <trkpt lat="46.05999" lon="6.37634">
        <ele>467</ele>
        <time>2012-04-26T12:16:03Z</time>
      </trkpt>
      <trkpt lat="46.05995" lon="6.37622">
        <ele>467</ele>
        <time>2012-04-26T12:16:04Z</time>
      </trkpt>
      <trkpt lat="46.05988" lon="6.37608">
        <ele>467</ele>
        <time>2012-04-26T12:16:06Z</time>
      </trkpt>
      <trkpt lat="46.0599" lon="6.37593">
        <ele>473</ele>
        <time>2012-04-26T12:16:10Z</time>
      </trkpt>
      <trkpt lat="46.05997" lon="6.37581">
        <ele>473</ele>
        <time>2012-04-26T12:16:12Z</time>
      </trkpt>
      <trkpt lat="46.06" lon="6.37564">
        <ele>473</ele>
        <time>2012-04-26T12:16:14Z</time>
      </trkpt>
      <trkpt lat="46.06003" lon="6.37542">
        <ele>473</ele>
        <time>2012-04-26T12:16:16Z</time>
      </trkpt>
      <trkpt lat="46.06005" lon="6.37516">
        <ele>473</ele>
        <time>2012-04-26T12:16:18Z</time>
      </trkpt>
      <trkpt lat="46.06008" lon="6.3749">
        <ele>473</ele>
        <time>2012-04-26T12:16:20Z</time>
      </trkpt>
      <trkpt lat="46.06011" lon="6.37465">
        <ele>473</ele>
        <time>2012-04-26T12:16:22Z</time>
      </trkpt>
      <trkpt lat="46.06012" lon="6.37452">
        <ele>473</ele>
        <time>2012-04-26T12:16:23Z</time>
      </trkpt>
      <trkpt lat="46.06014" lon="6.37437">
        <ele>473</ele>
        <time>2012-04-26T12:16:24Z</time>
      </trkpt>
      <trkpt lat="46.06015" lon="6.37424">
        <ele>473</ele>
        <time>2012-04-26T12:16:25Z</time>
      </trkpt>
      <trkpt lat="46.06017" lon="6.3741">
        <ele>473</ele>
        <time>2012-04-26T12:16:26Z</time>
      </trkpt>
      <trkpt lat="46.0602" lon="6.37385">
        <ele>473</ele>
        <time>2012-04-26T12:16:28Z</time>
      </trkpt>
      <trkpt lat="46.06023" lon="6.37363">
        <ele>473</ele>
        <time>2012-04-26T12:16:30Z</time>
      </trkpt>
      <trkpt lat="46.06024" lon="6.37348">
        <ele>473</ele>
        <time>2012-04-26T12:16:32Z</time>
      </trkpt>
      <trkpt lat="46.06018" lon="6.37338">
        <ele>473</ele>
        <time>2012-04-26T12:16:38Z</time>
      </trkpt>
      <trkpt lat="46.06004" lon="6.37334">
        <ele>478</ele>
        <time>2012-04-26T12:16:40Z</time>
      </trkpt>
      <trkpt lat="46.05994" lon="6.37331">
        <ele>478</ele>
        <time>2012-04-26T12:16:41Z</time>
      </trkpt>
      <trkpt lat="46.05984" lon="6.37329">
        <ele>478</ele>
        <time>2012-04-26T12:16:42Z</time>
      </trkpt>
      <trkpt lat="46.05975" lon="6.37326">
        <ele>478</ele>
        <time>2012-04-26T12:16:43Z</time>
      </trkpt>
      <trkpt lat="46.05961" lon="6.37324">
        <ele>478</ele>
        <time>2012-04-26T12:16:45Z</time>
      </trkpt>
      <trkpt lat="46.05956" lon="6.37335">
        <ele>478</ele>
        <time>2012-04-26T12:16:48Z</time>
      </trkpt>
      <trkpt lat="46.05954" lon="6.37349">
        <ele>478</ele>
        <time>2012-04-26T12:16:51Z</time>
      </trkpt>
      <trkpt lat="46.05946" lon="6.37356">
        <ele>478</ele>
        <time>2012-04-26T12:18:09Z</time>
      </trkpt>
    </trkseg>
  </trk>
</gpx>